<?xml version="1.0" encoding="UTF-8" standalone="no" ?>
<gpx xmlns="http://www.topografix.com/GPX/1/1" xmlns:xsi="http://www.w3.org/2001/XMLSchema-instance" xsi:schemaLocation="http://www.topografix.com/GPX/1/1 http://www.topografix.com/GPX/1/1/gpx.xsd" version="1.1" creator="VisuGPX - https://www.visugpx.com">
  <metadata>
    <name>Boucle Pajay</name>
    <desc><![CDATA[Au départ de la salle des fêtes.
Très très roulant.]]></desc>
  </metadata>
  <trk>
    <name><![CDATA[SityTrail - vs ]]></name>
    <trkseg>
      <trkpt lat="45.36605" lon="5.14596">
        <ele>361</ele>
        <time>2021-10-10T09:13:13.856Z</time>
      </trkpt>
      <trkpt lat="45.36604" lon="5.14596">
        <ele>361</ele>
        <time>2021-10-10T09:14:21.975Z</time>
      </trkpt>
      <trkpt lat="45.36604" lon="5.14596">
        <ele>361</ele>
        <time>2021-10-10T09:14:26.967Z</time>
      </trkpt>
      <trkpt lat="45.36606" lon="5.14599">
        <ele>361</ele>
        <time>2021-10-10T09:14:30.970Z</time>
      </trkpt>
      <trkpt lat="45.36609" lon="5.14604">
        <ele>361</ele>
        <time>2021-10-10T09:14:35.969Z</time>
      </trkpt>
      <trkpt lat="45.3661" lon="5.1461">
        <ele>361</ele>
        <time>2021-10-10T09:14:39.972Z</time>
      </trkpt>
      <trkpt lat="45.36611" lon="5.14616">
        <ele>361</ele>
        <time>2021-10-10T09:14:43.975Z</time>
      </trkpt>
      <trkpt lat="45.3661" lon="5.14621">
        <ele>361</ele>
        <time>2021-10-10T09:14:48.970Z</time>
      </trkpt>
      <trkpt lat="45.36609" lon="5.14625">
        <ele>360</ele>
        <time>2021-10-10T09:14:52.977Z</time>
      </trkpt>
      <trkpt lat="45.36612" lon="5.14631">
        <ele>360</ele>
        <time>2021-10-10T09:14:57.974Z</time>
      </trkpt>
      <trkpt lat="45.36616" lon="5.14637">
        <ele>360</ele>
        <time>2021-10-10T09:15:02.969Z</time>
      </trkpt>
      <trkpt lat="45.3662" lon="5.14643">
        <ele>360</ele>
        <time>2021-10-10T09:15:07.959Z</time>
      </trkpt>
      <trkpt lat="45.36624" lon="5.14646">
        <ele>360</ele>
        <time>2021-10-10T09:15:11.972Z</time>
      </trkpt>
      <trkpt lat="45.36627" lon="5.14653">
        <ele>361</ele>
        <time>2021-10-10T09:15:16.970Z</time>
      </trkpt>
      <trkpt lat="45.36631" lon="5.1466">
        <ele>361</ele>
        <time>2021-10-10T09:15:21.973Z</time>
      </trkpt>
      <trkpt lat="45.36634" lon="5.14668">
        <ele>361</ele>
        <time>2021-10-10T09:15:26.968Z</time>
      </trkpt>
      <trkpt lat="45.36636" lon="5.14673">
        <ele>361</ele>
        <time>2021-10-10T09:15:30.972Z</time>
      </trkpt>
      <trkpt lat="45.36639" lon="5.14679">
        <ele>361</ele>
        <time>2021-10-10T09:15:35.988Z</time>
      </trkpt>
      <trkpt lat="45.36643" lon="5.14685">
        <ele>362</ele>
        <time>2021-10-10T09:15:41.035Z</time>
      </trkpt>
      <trkpt lat="45.36646" lon="5.14693">
        <ele>362</ele>
        <time>2021-10-10T09:15:46.006Z</time>
      </trkpt>
      <trkpt lat="45.36649" lon="5.14697">
        <ele>362</ele>
        <time>2021-10-10T09:15:50.015Z</time>
      </trkpt>
      <trkpt lat="45.36652" lon="5.14702">
        <ele>362</ele>
        <time>2021-10-10T09:15:55.004Z</time>
      </trkpt>
      <trkpt lat="45.36655" lon="5.14708">
        <ele>363</ele>
        <time>2021-10-10T09:15:59.969Z</time>
      </trkpt>
      <trkpt lat="45.36657" lon="5.14714">
        <ele>363</ele>
        <time>2021-10-10T09:16:03.977Z</time>
      </trkpt>
      <trkpt lat="45.3666" lon="5.1472">
        <ele>363</ele>
        <time>2021-10-10T09:16:09.003Z</time>
      </trkpt>
      <trkpt lat="45.36663" lon="5.14726">
        <ele>363</ele>
        <time>2021-10-10T09:16:13.986Z</time>
      </trkpt>
      <trkpt lat="45.36666" lon="5.14732">
        <ele>363</ele>
        <time>2021-10-10T09:16:17.995Z</time>
      </trkpt>
      <trkpt lat="45.36669" lon="5.14737">
        <ele>362</ele>
        <time>2021-10-10T09:16:22.016Z</time>
      </trkpt>
      <trkpt lat="45.36672" lon="5.14742">
        <ele>362</ele>
        <time>2021-10-10T09:16:26.988Z</time>
      </trkpt>
      <trkpt lat="45.36675" lon="5.14751">
        <ele>362</ele>
        <time>2021-10-10T09:16:32.002Z</time>
      </trkpt>
      <trkpt lat="45.36678" lon="5.14755">
        <ele>362</ele>
        <time>2021-10-10T09:16:36.009Z</time>
      </trkpt>
      <trkpt lat="45.36682" lon="5.14757">
        <ele>363</ele>
        <time>2021-10-10T09:16:41Z</time>
      </trkpt>
      <trkpt lat="45.36688" lon="5.1476">
        <ele>363</ele>
        <time>2021-10-10T09:16:46.006Z</time>
      </trkpt>
      <trkpt lat="45.36692" lon="5.14764">
        <ele>363</ele>
        <time>2021-10-10T09:16:51Z</time>
      </trkpt>
      <trkpt lat="45.36697" lon="5.14767">
        <ele>362</ele>
        <time>2021-10-10T09:16:55.998Z</time>
      </trkpt>
      <trkpt lat="45.36702" lon="5.14771">
        <ele>362</ele>
        <time>2021-10-10T09:17:00.991Z</time>
      </trkpt>
      <trkpt lat="45.36706" lon="5.14774">
        <ele>362</ele>
        <time>2021-10-10T09:17:06.011Z</time>
      </trkpt>
      <trkpt lat="45.36711" lon="5.14773">
        <ele>362</ele>
        <time>2021-10-10T09:17:10.993Z</time>
      </trkpt>
      <trkpt lat="45.36712" lon="5.14766">
        <ele>362</ele>
        <time>2021-10-10T09:18:32.014Z</time>
      </trkpt>
      <trkpt lat="45.36712" lon="5.14767">
        <ele>362</ele>
        <time>2021-10-10T09:18:36.999Z</time>
      </trkpt>
      <trkpt lat="45.36708" lon="5.14775">
        <ele>362</ele>
        <time>2021-10-10T09:18:41.997Z</time>
      </trkpt>
      <trkpt lat="45.36704" lon="5.14781">
        <ele>362</ele>
        <time>2021-10-10T09:18:46.040Z</time>
      </trkpt>
      <trkpt lat="45.36706" lon="5.14791">
        <ele>362</ele>
        <time>2021-10-10T09:18:51Z</time>
      </trkpt>
      <trkpt lat="45.36704" lon="5.14786">
        <ele>362</ele>
        <time>2021-10-10T09:19:28.969Z</time>
      </trkpt>
      <trkpt lat="45.36702" lon="5.14786">
        <ele>362</ele>
        <time>2021-10-10T09:19:32.982Z</time>
      </trkpt>
      <trkpt lat="45.36701" lon="5.14783">
        <ele>362</ele>
        <time>2021-10-10T09:19:36.987Z</time>
      </trkpt>
      <trkpt lat="45.36703" lon="5.14779">
        <ele>362</ele>
        <time>2021-10-10T09:19:42.002Z</time>
      </trkpt>
      <trkpt lat="45.36706" lon="5.14775">
        <ele>362</ele>
        <time>2021-10-10T09:19:46.038Z</time>
      </trkpt>
      <trkpt lat="45.36711" lon="5.1477">
        <ele>362</ele>
        <time>2021-10-10T09:21:30.016Z</time>
      </trkpt>
      <trkpt lat="45.3671" lon="5.14773">
        <ele>362</ele>
        <time>2021-10-10T09:21:35.010Z</time>
      </trkpt>
      <trkpt lat="45.36716" lon="5.14777">
        <ele>362</ele>
        <time>2021-10-10T09:21:40.001Z</time>
      </trkpt>
      <trkpt lat="45.36721" lon="5.14778">
        <ele>362</ele>
        <time>2021-10-10T09:21:44.002Z</time>
      </trkpt>
      <trkpt lat="45.36726" lon="5.14778">
        <ele>362</ele>
        <time>2021-10-10T09:21:47.998Z</time>
      </trkpt>
      <trkpt lat="45.36731" lon="5.1478">
        <ele>362</ele>
        <time>2021-10-10T09:21:51.993Z</time>
      </trkpt>
      <trkpt lat="45.36737" lon="5.14782">
        <ele>363</ele>
        <time>2021-10-10T09:21:57.027Z</time>
      </trkpt>
      <trkpt lat="45.36745" lon="5.14784">
        <ele>363</ele>
        <time>2021-10-10T09:22:02.018Z</time>
      </trkpt>
      <trkpt lat="45.36753" lon="5.14784">
        <ele>363</ele>
        <time>2021-10-10T09:22:06.983Z</time>
      </trkpt>
      <trkpt lat="45.36758" lon="5.14785">
        <ele>363</ele>
        <time>2021-10-10T09:22:10.995Z</time>
      </trkpt>
      <trkpt lat="45.36763" lon="5.14786">
        <ele>363</ele>
        <time>2021-10-10T09:22:15.002Z</time>
      </trkpt>
      <trkpt lat="45.36769" lon="5.14784">
        <ele>363</ele>
        <time>2021-10-10T09:22:20.004Z</time>
      </trkpt>
      <trkpt lat="45.36775" lon="5.14782">
        <ele>363</ele>
        <time>2021-10-10T09:22:24.988Z</time>
      </trkpt>
      <trkpt lat="45.36781" lon="5.14783">
        <ele>363</ele>
        <time>2021-10-10T09:22:29.995Z</time>
      </trkpt>
      <trkpt lat="45.36786" lon="5.14784">
        <ele>363</ele>
        <time>2021-10-10T09:22:34.003Z</time>
      </trkpt>
      <trkpt lat="45.36792" lon="5.14783">
        <ele>363</ele>
        <time>2021-10-10T09:22:38.975Z</time>
      </trkpt>
      <trkpt lat="45.36796" lon="5.14782">
        <ele>363</ele>
        <time>2021-10-10T09:22:42.997Z</time>
      </trkpt>
      <trkpt lat="45.36802" lon="5.14781">
        <ele>363</ele>
        <time>2021-10-10T09:22:47.003Z</time>
      </trkpt>
      <trkpt lat="45.36809" lon="5.14781">
        <ele>363</ele>
        <time>2021-10-10T09:22:51.995Z</time>
      </trkpt>
      <trkpt lat="45.36816" lon="5.14778">
        <ele>363</ele>
        <time>2021-10-10T09:22:57.029Z</time>
      </trkpt>
      <trkpt lat="45.36825" lon="5.14778">
        <ele>362</ele>
        <time>2021-10-10T09:23:02.007Z</time>
      </trkpt>
      <trkpt lat="45.36832" lon="5.14777">
        <ele>362</ele>
        <time>2021-10-10T09:23:07.001Z</time>
      </trkpt>
      <trkpt lat="45.36837" lon="5.14776">
        <ele>362</ele>
        <time>2021-10-10T09:23:11.034Z</time>
      </trkpt>
      <trkpt lat="45.36843" lon="5.14774">
        <ele>362</ele>
        <time>2021-10-10T09:23:16.007Z</time>
      </trkpt>
      <trkpt lat="45.36849" lon="5.14772">
        <ele>361</ele>
        <time>2021-10-10T09:23:21.003Z</time>
      </trkpt>
      <trkpt lat="45.36854" lon="5.1477">
        <ele>361</ele>
        <time>2021-10-10T09:23:25.005Z</time>
      </trkpt>
      <trkpt lat="45.3686" lon="5.14768">
        <ele>361</ele>
        <time>2021-10-10T09:23:29.968Z</time>
      </trkpt>
      <trkpt lat="45.36864" lon="5.14766">
        <ele>361</ele>
        <time>2021-10-10T09:23:34.026Z</time>
      </trkpt>
      <trkpt lat="45.36869" lon="5.14764">
        <ele>362</ele>
        <time>2021-10-10T09:23:38.997Z</time>
      </trkpt>
      <trkpt lat="45.36874" lon="5.14762">
        <ele>362</ele>
        <time>2021-10-10T09:23:43.974Z</time>
      </trkpt>
      <trkpt lat="45.3688" lon="5.14759">
        <ele>362</ele>
        <time>2021-10-10T09:23:49.014Z</time>
      </trkpt>
      <trkpt lat="45.36885" lon="5.14756">
        <ele>362</ele>
        <time>2021-10-10T09:23:53.998Z</time>
      </trkpt>
      <trkpt lat="45.36889" lon="5.14755">
        <ele>362</ele>
        <time>2021-10-10T09:23:58.060Z</time>
      </trkpt>
      <trkpt lat="45.36894" lon="5.14752">
        <ele>362</ele>
        <time>2021-10-10T09:24:03.039Z</time>
      </trkpt>
      <trkpt lat="45.36899" lon="5.1475">
        <ele>362</ele>
        <time>2021-10-10T09:24:08.036Z</time>
      </trkpt>
      <trkpt lat="45.36905" lon="5.14747">
        <ele>362</ele>
        <time>2021-10-10T09:24:13.001Z</time>
      </trkpt>
      <trkpt lat="45.3691" lon="5.14744">
        <ele>362</ele>
        <time>2021-10-10T09:24:17.968Z</time>
      </trkpt>
      <trkpt lat="45.36915" lon="5.14742">
        <ele>362</ele>
        <time>2021-10-10T09:24:21.996Z</time>
      </trkpt>
      <trkpt lat="45.3692" lon="5.1474">
        <ele>362</ele>
        <time>2021-10-10T09:24:26.006Z</time>
      </trkpt>
      <trkpt lat="45.36929" lon="5.14736">
        <ele>362</ele>
        <time>2021-10-10T09:24:31.028Z</time>
      </trkpt>
      <trkpt lat="45.36935" lon="5.14735">
        <ele>362</ele>
        <time>2021-10-10T09:24:35.965Z</time>
      </trkpt>
      <trkpt lat="45.3694" lon="5.14736">
        <ele>362</ele>
        <time>2021-10-10T09:24:40Z</time>
      </trkpt>
      <trkpt lat="45.36945" lon="5.14734">
        <ele>362</ele>
        <time>2021-10-10T09:24:44.995Z</time>
      </trkpt>
      <trkpt lat="45.36949" lon="5.14732">
        <ele>362</ele>
        <time>2021-10-10T09:24:50.011Z</time>
      </trkpt>
      <trkpt lat="45.36953" lon="5.1473">
        <ele>362</ele>
        <time>2021-10-10T09:24:55Z</time>
      </trkpt>
      <trkpt lat="45.36959" lon="5.14728">
        <ele>362</ele>
        <time>2021-10-10T09:25:00.005Z</time>
      </trkpt>
      <trkpt lat="45.36964" lon="5.14726">
        <ele>362</ele>
        <time>2021-10-10T09:25:04.048Z</time>
      </trkpt>
      <trkpt lat="45.3697" lon="5.14724">
        <ele>362</ele>
        <time>2021-10-10T09:25:09.008Z</time>
      </trkpt>
      <trkpt lat="45.36975" lon="5.14722">
        <ele>362</ele>
        <time>2021-10-10T09:25:13.046Z</time>
      </trkpt>
      <trkpt lat="45.3698" lon="5.14719">
        <ele>362</ele>
        <time>2021-10-10T09:25:18.038Z</time>
      </trkpt>
      <trkpt lat="45.36986" lon="5.14717">
        <ele>362</ele>
        <time>2021-10-10T09:25:23.014Z</time>
      </trkpt>
      <trkpt lat="45.36992" lon="5.14714">
        <ele>365</ele>
        <time>2021-10-10T09:25:27.962Z</time>
      </trkpt>
      <trkpt lat="45.36996" lon="5.14712">
        <ele>365</ele>
        <time>2021-10-10T09:25:32.004Z</time>
      </trkpt>
      <trkpt lat="45.37001" lon="5.14711">
        <ele>365</ele>
        <time>2021-10-10T09:25:36.014Z</time>
      </trkpt>
      <trkpt lat="45.37006" lon="5.14707">
        <ele>366</ele>
        <time>2021-10-10T09:25:40.996Z</time>
      </trkpt>
      <trkpt lat="45.37012" lon="5.14703">
        <ele>366</ele>
        <time>2021-10-10T09:25:45.986Z</time>
      </trkpt>
      <trkpt lat="45.37018" lon="5.147">
        <ele>369</ele>
        <time>2021-10-10T09:25:51.013Z</time>
      </trkpt>
      <trkpt lat="45.37024" lon="5.14697">
        <ele>369</ele>
        <time>2021-10-10T09:25:56.001Z</time>
      </trkpt>
      <trkpt lat="45.3703" lon="5.14693">
        <ele>369</ele>
        <time>2021-10-10T09:26:01.034Z</time>
      </trkpt>
      <trkpt lat="45.37035" lon="5.14691">
        <ele>369</ele>
        <time>2021-10-10T09:26:05.051Z</time>
      </trkpt>
      <trkpt lat="45.37041" lon="5.14688">
        <ele>369</ele>
        <time>2021-10-10T09:26:10.020Z</time>
      </trkpt>
      <trkpt lat="45.37047" lon="5.14685">
        <ele>371</ele>
        <time>2021-10-10T09:26:14.982Z</time>
      </trkpt>
      <trkpt lat="45.37051" lon="5.14683">
        <ele>371</ele>
        <time>2021-10-10T09:26:19.041Z</time>
      </trkpt>
      <trkpt lat="45.37057" lon="5.14681">
        <ele>371</ele>
        <time>2021-10-10T09:26:24.012Z</time>
      </trkpt>
      <trkpt lat="45.37063" lon="5.14679">
        <ele>372</ele>
        <time>2021-10-10T09:26:29.027Z</time>
      </trkpt>
      <trkpt lat="45.3707" lon="5.14677">
        <ele>374</ele>
        <time>2021-10-10T09:26:34.009Z</time>
      </trkpt>
      <trkpt lat="45.37076" lon="5.14675">
        <ele>374</ele>
        <time>2021-10-10T09:26:39.001Z</time>
      </trkpt>
      <trkpt lat="45.37083" lon="5.14673">
        <ele>374</ele>
        <time>2021-10-10T09:26:44.005Z</time>
      </trkpt>
      <trkpt lat="45.37088" lon="5.14672">
        <ele>374</ele>
        <time>2021-10-10T09:26:48.067Z</time>
      </trkpt>
      <trkpt lat="45.37095" lon="5.14668">
        <ele>374</ele>
        <time>2021-10-10T09:26:53.002Z</time>
      </trkpt>
      <trkpt lat="45.37101" lon="5.14666">
        <ele>376</ele>
        <time>2021-10-10T09:26:58.001Z</time>
      </trkpt>
      <trkpt lat="45.37107" lon="5.14663">
        <ele>376</ele>
        <time>2021-10-10T09:27:03.039Z</time>
      </trkpt>
      <trkpt lat="45.37113" lon="5.14661">
        <ele>376</ele>
        <time>2021-10-10T09:27:07.962Z</time>
      </trkpt>
      <trkpt lat="45.37117" lon="5.14659">
        <ele>376</ele>
        <time>2021-10-10T09:27:12.014Z</time>
      </trkpt>
      <trkpt lat="45.37124" lon="5.14655">
        <ele>376</ele>
        <time>2021-10-10T09:27:16.971Z</time>
      </trkpt>
      <trkpt lat="45.37129" lon="5.14654">
        <ele>378</ele>
        <time>2021-10-10T09:27:21.013Z</time>
      </trkpt>
      <trkpt lat="45.37135" lon="5.1465">
        <ele>379</ele>
        <time>2021-10-10T09:27:26.001Z</time>
      </trkpt>
      <trkpt lat="45.37141" lon="5.14647">
        <ele>379</ele>
        <time>2021-10-10T09:27:30.971Z</time>
      </trkpt>
      <trkpt lat="45.37147" lon="5.14642">
        <ele>379</ele>
        <time>2021-10-10T09:27:36.010Z</time>
      </trkpt>
      <trkpt lat="45.37152" lon="5.14638">
        <ele>379</ele>
        <time>2021-10-10T09:27:41.031Z</time>
      </trkpt>
      <trkpt lat="45.37159" lon="5.14635">
        <ele>380</ele>
        <time>2021-10-10T09:27:45.998Z</time>
      </trkpt>
      <trkpt lat="45.37165" lon="5.14632">
        <ele>380</ele>
        <time>2021-10-10T09:27:51.005Z</time>
      </trkpt>
      <trkpt lat="45.3717" lon="5.1463">
        <ele>380</ele>
        <time>2021-10-10T09:27:55.030Z</time>
      </trkpt>
      <trkpt lat="45.37176" lon="5.14626">
        <ele>380</ele>
        <time>2021-10-10T09:28:00.005Z</time>
      </trkpt>
      <trkpt lat="45.37181" lon="5.14623">
        <ele>384</ele>
        <time>2021-10-10T09:28:04.997Z</time>
      </trkpt>
      <trkpt lat="45.37186" lon="5.1462">
        <ele>384</ele>
        <time>2021-10-10T09:28:09.007Z</time>
      </trkpt>
      <trkpt lat="45.37192" lon="5.14614">
        <ele>384</ele>
        <time>2021-10-10T09:28:14.006Z</time>
      </trkpt>
      <trkpt lat="45.37197" lon="5.1461">
        <ele>384</ele>
        <time>2021-10-10T09:28:18.008Z</time>
      </trkpt>
      <trkpt lat="45.37202" lon="5.14606">
        <ele>384</ele>
        <time>2021-10-10T09:28:22.999Z</time>
      </trkpt>
      <trkpt lat="45.37207" lon="5.14604">
        <ele>384</ele>
        <time>2021-10-10T09:28:27.004Z</time>
      </trkpt>
      <trkpt lat="45.37211" lon="5.146">
        <ele>386</ele>
        <time>2021-10-10T09:28:31.030Z</time>
      </trkpt>
      <trkpt lat="45.37217" lon="5.14597">
        <ele>386</ele>
        <time>2021-10-10T09:28:35.991Z</time>
      </trkpt>
      <trkpt lat="45.37223" lon="5.14594">
        <ele>387</ele>
        <time>2021-10-10T09:28:40.994Z</time>
      </trkpt>
      <trkpt lat="45.37228" lon="5.14591">
        <ele>387</ele>
        <time>2021-10-10T09:28:44.997Z</time>
      </trkpt>
      <trkpt lat="45.37234" lon="5.14589">
        <ele>387</ele>
        <time>2021-10-10T09:28:50.013Z</time>
      </trkpt>
      <trkpt lat="45.3724" lon="5.14584">
        <ele>390</ele>
        <time>2021-10-10T09:28:54.998Z</time>
      </trkpt>
      <trkpt lat="45.37244" lon="5.14581">
        <ele>390</ele>
        <time>2021-10-10T09:28:59.004Z</time>
      </trkpt>
      <trkpt lat="45.37249" lon="5.14578">
        <ele>390</ele>
        <time>2021-10-10T09:29:03.011Z</time>
      </trkpt>
      <trkpt lat="45.37258" lon="5.14572">
        <ele>390</ele>
        <time>2021-10-10T09:29:08.005Z</time>
      </trkpt>
      <trkpt lat="45.37268" lon="5.14567">
        <ele>397</ele>
        <time>2021-10-10T09:29:12.974Z</time>
      </trkpt>
      <trkpt lat="45.37275" lon="5.14566">
        <ele>397</ele>
        <time>2021-10-10T09:29:16.992Z</time>
      </trkpt>
      <trkpt lat="45.37279" lon="5.14565">
        <ele>397</ele>
        <time>2021-10-10T09:29:21.033Z</time>
      </trkpt>
      <trkpt lat="45.37285" lon="5.14567">
        <ele>397</ele>
        <time>2021-10-10T09:29:25.997Z</time>
      </trkpt>
      <trkpt lat="45.37288" lon="5.14572">
        <ele>396</ele>
        <time>2021-10-10T09:29:30.972Z</time>
      </trkpt>
      <trkpt lat="45.37291" lon="5.14577">
        <ele>396</ele>
        <time>2021-10-10T09:29:34.997Z</time>
      </trkpt>
      <trkpt lat="45.37293" lon="5.14554">
        <ele>403</ele>
        <time>2021-10-10T09:30:19.003Z</time>
      </trkpt>
      <trkpt lat="45.37295" lon="5.14551">
        <ele>403</ele>
        <time>2021-10-10T09:30:23.032Z</time>
      </trkpt>
      <trkpt lat="45.373" lon="5.14548">
        <ele>403</ele>
        <time>2021-10-10T09:30:27.973Z</time>
      </trkpt>
      <trkpt lat="45.37303" lon="5.14545">
        <ele>403</ele>
        <time>2021-10-10T09:30:31.986Z</time>
      </trkpt>
      <trkpt lat="45.37307" lon="5.14542">
        <ele>403</ele>
        <time>2021-10-10T09:30:36.002Z</time>
      </trkpt>
      <trkpt lat="45.37311" lon="5.14538">
        <ele>404</ele>
        <time>2021-10-10T09:30:40.992Z</time>
      </trkpt>
      <trkpt lat="45.37316" lon="5.14536">
        <ele>404</ele>
        <time>2021-10-10T09:30:45.061Z</time>
      </trkpt>
      <trkpt lat="45.37321" lon="5.14533">
        <ele>408</ele>
        <time>2021-10-10T09:30:49.990Z</time>
      </trkpt>
      <trkpt lat="45.37326" lon="5.1453">
        <ele>408</ele>
        <time>2021-10-10T09:30:54Z</time>
      </trkpt>
      <trkpt lat="45.37333" lon="5.14527">
        <ele>408</ele>
        <time>2021-10-10T09:30:58.970Z</time>
      </trkpt>
      <trkpt lat="45.37337" lon="5.14524">
        <ele>408</ele>
        <time>2021-10-10T09:31:03.013Z</time>
      </trkpt>
      <trkpt lat="45.37341" lon="5.14521">
        <ele>408</ele>
        <time>2021-10-10T09:31:08.041Z</time>
      </trkpt>
      <trkpt lat="45.37345" lon="5.14519">
        <ele>408</ele>
        <time>2021-10-10T09:31:12.052Z</time>
      </trkpt>
      <trkpt lat="45.37348" lon="5.14517">
        <ele>411</ele>
        <time>2021-10-10T09:31:27.005Z</time>
      </trkpt>
      <trkpt lat="45.37346" lon="5.14516">
        <ele>408</ele>
        <time>2021-10-10T09:31:31.965Z</time>
      </trkpt>
      <trkpt lat="45.37345" lon="5.14515">
        <ele>408</ele>
        <time>2021-10-10T09:31:36.001Z</time>
      </trkpt>
      <trkpt lat="45.3734" lon="5.14517">
        <ele>408</ele>
        <time>2021-10-10T09:31:40.994Z</time>
      </trkpt>
      <trkpt lat="45.37336" lon="5.14518">
        <ele>408</ele>
        <time>2021-10-10T09:31:44.997Z</time>
      </trkpt>
      <trkpt lat="45.37332" lon="5.1452">
        <ele>408</ele>
        <time>2021-10-10T09:31:49.005Z</time>
      </trkpt>
      <trkpt lat="45.37324" lon="5.14521">
        <ele>408</ele>
        <time>2021-10-10T09:31:54Z</time>
      </trkpt>
      <trkpt lat="45.3732" lon="5.14525">
        <ele>408</ele>
        <time>2021-10-10T09:31:59.038Z</time>
      </trkpt>
      <trkpt lat="45.37314" lon="5.14525">
        <ele>404</ele>
        <time>2021-10-10T09:32:03.977Z</time>
      </trkpt>
      <trkpt lat="45.3731" lon="5.14527">
        <ele>404</ele>
        <time>2021-10-10T09:32:07.999Z</time>
      </trkpt>
      <trkpt lat="45.37306" lon="5.14531">
        <ele>404</ele>
        <time>2021-10-10T09:32:12.970Z</time>
      </trkpt>
      <trkpt lat="45.37303" lon="5.14534">
        <ele>404</ele>
        <time>2021-10-10T09:32:17.005Z</time>
      </trkpt>
      <trkpt lat="45.373" lon="5.14535">
        <ele>404</ele>
        <time>2021-10-10T09:32:21.033Z</time>
      </trkpt>
      <trkpt lat="45.37296" lon="5.14538">
        <ele>404</ele>
        <time>2021-10-10T09:32:25.999Z</time>
      </trkpt>
      <trkpt lat="45.37293" lon="5.14541">
        <ele>404</ele>
        <time>2021-10-10T09:32:30.009Z</time>
      </trkpt>
      <trkpt lat="45.37288" lon="5.14544">
        <ele>397</ele>
        <time>2021-10-10T09:32:35.008Z</time>
      </trkpt>
      <trkpt lat="45.37283" lon="5.14548">
        <ele>397</ele>
        <time>2021-10-10T09:32:40.007Z</time>
      </trkpt>
      <trkpt lat="45.37279" lon="5.14553">
        <ele>397</ele>
        <time>2021-10-10T09:32:44.996Z</time>
      </trkpt>
      <trkpt lat="45.37284" lon="5.14565">
        <ele>397</ele>
        <time>2021-10-10T09:32:49.997Z</time>
      </trkpt>
      <trkpt lat="45.37287" lon="5.14576">
        <ele>396</ele>
        <time>2021-10-10T09:32:54.002Z</time>
      </trkpt>
      <trkpt lat="45.3729" lon="5.14585">
        <ele>396</ele>
        <time>2021-10-10T09:32:59.010Z</time>
      </trkpt>
      <trkpt lat="45.37292" lon="5.14592">
        <ele>403</ele>
        <time>2021-10-10T09:33:04.052Z</time>
      </trkpt>
      <trkpt lat="45.37295" lon="5.14598">
        <ele>402</ele>
        <time>2021-10-10T09:33:08.994Z</time>
      </trkpt>
      <trkpt lat="45.37297" lon="5.14604">
        <ele>402</ele>
        <time>2021-10-10T09:33:12.995Z</time>
      </trkpt>
      <trkpt lat="45.37299" lon="5.1461">
        <ele>402</ele>
        <time>2021-10-10T09:33:17.029Z</time>
      </trkpt>
      <trkpt lat="45.37301" lon="5.14619">
        <ele>402</ele>
        <time>2021-10-10T09:33:22.005Z</time>
      </trkpt>
      <trkpt lat="45.37304" lon="5.14627">
        <ele>400</ele>
        <time>2021-10-10T09:33:27.005Z</time>
      </trkpt>
      <trkpt lat="45.37307" lon="5.14634">
        <ele>400</ele>
        <time>2021-10-10T09:33:31.977Z</time>
      </trkpt>
      <trkpt lat="45.3731" lon="5.1464">
        <ele>400</ele>
        <time>2021-10-10T09:33:36.009Z</time>
      </trkpt>
      <trkpt lat="45.37315" lon="5.14657">
        <ele>396</ele>
        <time>2021-10-10T09:33:55.031Z</time>
      </trkpt>
      <trkpt lat="45.37315" lon="5.14658">
        <ele>396</ele>
        <time>2021-10-10T09:33:59.995Z</time>
      </trkpt>
      <trkpt lat="45.37316" lon="5.14662">
        <ele>396</ele>
        <time>2021-10-10T09:34:05.001Z</time>
      </trkpt>
      <trkpt lat="45.37318" lon="5.1467">
        <ele>396</ele>
        <time>2021-10-10T09:34:09.964Z</time>
      </trkpt>
      <trkpt lat="45.3732" lon="5.14676">
        <ele>399</ele>
        <time>2021-10-10T09:34:13.992Z</time>
      </trkpt>
      <trkpt lat="45.37322" lon="5.14684">
        <ele>396</ele>
        <time>2021-10-10T09:34:17.988Z</time>
      </trkpt>
      <trkpt lat="45.37324" lon="5.14692">
        <ele>396</ele>
        <time>2021-10-10T09:34:22.005Z</time>
      </trkpt>
      <trkpt lat="45.37328" lon="5.14701">
        <ele>396</ele>
        <time>2021-10-10T09:34:26.035Z</time>
      </trkpt>
      <trkpt lat="45.37332" lon="5.14709">
        <ele>397</ele>
        <time>2021-10-10T09:34:30.968Z</time>
      </trkpt>
      <trkpt lat="45.37335" lon="5.14716">
        <ele>397</ele>
        <time>2021-10-10T09:34:34.986Z</time>
      </trkpt>
      <trkpt lat="45.37337" lon="5.14724">
        <ele>397</ele>
        <time>2021-10-10T09:34:39.027Z</time>
      </trkpt>
      <trkpt lat="45.37341" lon="5.14731">
        <ele>397</ele>
        <time>2021-10-10T09:34:43.038Z</time>
      </trkpt>
      <trkpt lat="45.37345" lon="5.14738">
        <ele>397</ele>
        <time>2021-10-10T09:34:48Z</time>
      </trkpt>
      <trkpt lat="45.37348" lon="5.14745">
        <ele>401</ele>
        <time>2021-10-10T09:34:52.029Z</time>
      </trkpt>
      <trkpt lat="45.37351" lon="5.14753">
        <ele>401</ele>
        <time>2021-10-10T09:34:57.043Z</time>
      </trkpt>
      <trkpt lat="45.37354" lon="5.14762">
        <ele>401</ele>
        <time>2021-10-10T09:35:02.008Z</time>
      </trkpt>
      <trkpt lat="45.37355" lon="5.14768">
        <ele>402</ele>
        <time>2021-10-10T09:35:06.034Z</time>
      </trkpt>
      <trkpt lat="45.37357" lon="5.14776">
        <ele>402</ele>
        <time>2021-10-10T09:35:10.055Z</time>
      </trkpt>
      <trkpt lat="45.37359" lon="5.14786">
        <ele>402</ele>
        <time>2021-10-10T09:35:15.001Z</time>
      </trkpt>
      <trkpt lat="45.3736" lon="5.14795">
        <ele>404</ele>
        <time>2021-10-10T09:35:20.007Z</time>
      </trkpt>
      <trkpt lat="45.37362" lon="5.14802">
        <ele>404</ele>
        <time>2021-10-10T09:35:24.044Z</time>
      </trkpt>
      <trkpt lat="45.37365" lon="5.1481">
        <ele>404</ele>
        <time>2021-10-10T09:35:29.039Z</time>
      </trkpt>
      <trkpt lat="45.37367" lon="5.14818">
        <ele>404</ele>
        <time>2021-10-10T09:35:33.977Z</time>
      </trkpt>
      <trkpt lat="45.37368" lon="5.14827">
        <ele>404</ele>
        <time>2021-10-10T09:35:38.029Z</time>
      </trkpt>
      <trkpt lat="45.3737" lon="5.14837">
        <ele>404</ele>
        <time>2021-10-10T09:35:42.996Z</time>
      </trkpt>
      <trkpt lat="45.37372" lon="5.14845">
        <ele>404</ele>
        <time>2021-10-10T09:35:47.003Z</time>
      </trkpt>
      <trkpt lat="45.37376" lon="5.14854">
        <ele>407</ele>
        <time>2021-10-10T09:35:51.975Z</time>
      </trkpt>
      <trkpt lat="45.37379" lon="5.14861">
        <ele>407</ele>
        <time>2021-10-10T09:35:55.995Z</time>
      </trkpt>
      <trkpt lat="45.37381" lon="5.14867">
        <ele>407</ele>
        <time>2021-10-10T09:36:00.007Z</time>
      </trkpt>
      <trkpt lat="45.37384" lon="5.14874">
        <ele>407</ele>
        <time>2021-10-10T09:36:04.001Z</time>
      </trkpt>
      <trkpt lat="45.37387" lon="5.1488">
        <ele>405</ele>
        <time>2021-10-10T09:36:08.031Z</time>
      </trkpt>
      <trkpt lat="45.37393" lon="5.14884">
        <ele>405</ele>
        <time>2021-10-10T09:36:13.025Z</time>
      </trkpt>
      <trkpt lat="45.37399" lon="5.14885">
        <ele>405</ele>
        <time>2021-10-10T09:36:18.009Z</time>
      </trkpt>
      <trkpt lat="45.37406" lon="5.14885">
        <ele>408</ele>
        <time>2021-10-10T09:36:22.999Z</time>
      </trkpt>
      <trkpt lat="45.3741" lon="5.14883">
        <ele>408</ele>
        <time>2021-10-10T09:36:27.034Z</time>
      </trkpt>
      <trkpt lat="45.37416" lon="5.14879">
        <ele>408</ele>
        <time>2021-10-10T09:36:31.999Z</time>
      </trkpt>
      <trkpt lat="45.37419" lon="5.14875">
        <ele>408</ele>
        <time>2021-10-10T09:36:36.006Z</time>
      </trkpt>
      <trkpt lat="45.37422" lon="5.14873">
        <ele>408</ele>
        <time>2021-10-10T09:36:40.037Z</time>
      </trkpt>
      <trkpt lat="45.37428" lon="5.14871">
        <ele>408</ele>
        <time>2021-10-10T09:36:45Z</time>
      </trkpt>
      <trkpt lat="45.37435" lon="5.14868">
        <ele>408</ele>
        <time>2021-10-10T09:36:49.988Z</time>
      </trkpt>
      <trkpt lat="45.37441" lon="5.14864">
        <ele>408</ele>
        <time>2021-10-10T09:36:54.988Z</time>
      </trkpt>
      <trkpt lat="45.37445" lon="5.14862">
        <ele>408</ele>
        <time>2021-10-10T09:36:58.999Z</time>
      </trkpt>
      <trkpt lat="45.3745" lon="5.14859">
        <ele>408</ele>
        <time>2021-10-10T09:37:03.014Z</time>
      </trkpt>
      <trkpt lat="45.37453" lon="5.14859">
        <ele>408</ele>
        <time>2021-10-10T09:37:07.029Z</time>
      </trkpt>
      <trkpt lat="45.37459" lon="5.14855">
        <ele>409</ele>
        <time>2021-10-10T09:37:12.010Z</time>
      </trkpt>
      <trkpt lat="45.37465" lon="5.14852">
        <ele>409</ele>
        <time>2021-10-10T09:37:16.026Z</time>
      </trkpt>
      <trkpt lat="45.37477" lon="5.14847">
        <ele>409</ele>
        <time>2021-10-10T09:37:21.028Z</time>
      </trkpt>
      <trkpt lat="45.37491" lon="5.14842">
        <ele>409</ele>
        <time>2021-10-10T09:37:25.030Z</time>
      </trkpt>
      <trkpt lat="45.375" lon="5.14839">
        <ele>409</ele>
        <time>2021-10-10T09:37:30.010Z</time>
      </trkpt>
      <trkpt lat="45.37506" lon="5.14837">
        <ele>409</ele>
        <time>2021-10-10T09:37:34.031Z</time>
      </trkpt>
      <trkpt lat="45.37512" lon="5.14832">
        <ele>409</ele>
        <time>2021-10-10T09:37:39.029Z</time>
      </trkpt>
      <trkpt lat="45.3752" lon="5.14829">
        <ele>412</ele>
        <time>2021-10-10T09:37:44.024Z</time>
      </trkpt>
      <trkpt lat="45.37531" lon="5.14823">
        <ele>412</ele>
        <time>2021-10-10T09:37:48.993Z</time>
      </trkpt>
      <trkpt lat="45.37537" lon="5.14816">
        <ele>413</ele>
        <time>2021-10-10T09:37:53.002Z</time>
      </trkpt>
      <trkpt lat="45.37542" lon="5.14811">
        <ele>417</ele>
        <time>2021-10-10T09:37:58.002Z</time>
      </trkpt>
      <trkpt lat="45.37546" lon="5.14807">
        <ele>417</ele>
        <time>2021-10-10T09:38:02.054Z</time>
      </trkpt>
      <trkpt lat="45.37552" lon="5.14803">
        <ele>417</ele>
        <time>2021-10-10T09:38:07.008Z</time>
      </trkpt>
      <trkpt lat="45.37557" lon="5.14795">
        <ele>417</ele>
        <time>2021-10-10T09:38:11.997Z</time>
      </trkpt>
      <trkpt lat="45.37563" lon="5.1479">
        <ele>419</ele>
        <time>2021-10-10T09:38:16.001Z</time>
      </trkpt>
      <trkpt lat="45.37567" lon="5.14787">
        <ele>419</ele>
        <time>2021-10-10T09:38:20.028Z</time>
      </trkpt>
      <trkpt lat="45.37572" lon="5.14783">
        <ele>424</ele>
        <time>2021-10-10T09:38:24.035Z</time>
      </trkpt>
      <trkpt lat="45.37577" lon="5.14779">
        <ele>424</ele>
        <time>2021-10-10T09:38:28.966Z</time>
      </trkpt>
      <trkpt lat="45.37582" lon="5.14777">
        <ele>424</ele>
        <time>2021-10-10T09:38:32.973Z</time>
      </trkpt>
      <trkpt lat="45.37588" lon="5.14774">
        <ele>424</ele>
        <time>2021-10-10T09:38:37.975Z</time>
      </trkpt>
      <trkpt lat="45.37592" lon="5.14773">
        <ele>424</ele>
        <time>2021-10-10T09:38:42.012Z</time>
      </trkpt>
      <trkpt lat="45.37598" lon="5.14772">
        <ele>428</ele>
        <time>2021-10-10T09:38:47.016Z</time>
      </trkpt>
      <trkpt lat="45.37603" lon="5.1477">
        <ele>428</ele>
        <time>2021-10-10T09:38:52Z</time>
      </trkpt>
      <trkpt lat="45.37606" lon="5.14766">
        <ele>428</ele>
        <time>2021-10-10T09:38:56.026Z</time>
      </trkpt>
      <trkpt lat="45.37611" lon="5.14766">
        <ele>428</ele>
        <time>2021-10-10T09:39:01.003Z</time>
      </trkpt>
      <trkpt lat="45.37616" lon="5.14763">
        <ele>427</ele>
        <time>2021-10-10T09:39:05.009Z</time>
      </trkpt>
      <trkpt lat="45.37621" lon="5.14761">
        <ele>427</ele>
        <time>2021-10-10T09:39:09.994Z</time>
      </trkpt>
      <trkpt lat="45.37625" lon="5.14758">
        <ele>427</ele>
        <time>2021-10-10T09:39:14.057Z</time>
      </trkpt>
      <trkpt lat="45.3763" lon="5.14757">
        <ele>429</ele>
        <time>2021-10-10T09:39:18.988Z</time>
      </trkpt>
      <trkpt lat="45.37636" lon="5.14757">
        <ele>429</ele>
        <time>2021-10-10T09:39:23.009Z</time>
      </trkpt>
      <trkpt lat="45.37641" lon="5.14758">
        <ele>429</ele>
        <time>2021-10-10T09:39:27.050Z</time>
      </trkpt>
      <trkpt lat="45.37648" lon="5.14759">
        <ele>429</ele>
        <time>2021-10-10T09:39:31.995Z</time>
      </trkpt>
      <trkpt lat="45.37653" lon="5.14761">
        <ele>432</ele>
        <time>2021-10-10T09:39:36Z</time>
      </trkpt>
      <trkpt lat="45.37659" lon="5.14762">
        <ele>432</ele>
        <time>2021-10-10T09:39:40.972Z</time>
      </trkpt>
      <trkpt lat="45.37665" lon="5.14764">
        <ele>432</ele>
        <time>2021-10-10T09:39:45.971Z</time>
      </trkpt>
      <trkpt lat="45.37671" lon="5.14765">
        <ele>433</ele>
        <time>2021-10-10T09:39:50Z</time>
      </trkpt>
      <trkpt lat="45.37676" lon="5.14765">
        <ele>433</ele>
        <time>2021-10-10T09:39:54.014Z</time>
      </trkpt>
      <trkpt lat="45.37682" lon="5.14767">
        <ele>431</ele>
        <time>2021-10-10T09:39:59.005Z</time>
      </trkpt>
      <trkpt lat="45.37688" lon="5.14766">
        <ele>431</ele>
        <time>2021-10-10T09:40:03.998Z</time>
      </trkpt>
      <trkpt lat="45.37694" lon="5.14767">
        <ele>431</ele>
        <time>2021-10-10T09:40:08.009Z</time>
      </trkpt>
      <trkpt lat="45.37701" lon="5.14769">
        <ele>431</ele>
        <time>2021-10-10T09:40:12.992Z</time>
      </trkpt>
      <trkpt lat="45.37706" lon="5.14769">
        <ele>431</ele>
        <time>2021-10-10T09:40:17.020Z</time>
      </trkpt>
      <trkpt lat="45.37714" lon="5.14771">
        <ele>431</ele>
        <time>2021-10-10T09:40:22.039Z</time>
      </trkpt>
      <trkpt lat="45.37721" lon="5.14775">
        <ele>431</ele>
        <time>2021-10-10T09:40:27.010Z</time>
      </trkpt>
      <trkpt lat="45.37725" lon="5.14778">
        <ele>431</ele>
        <time>2021-10-10T09:40:31.040Z</time>
      </trkpt>
      <trkpt lat="45.3773" lon="5.14783">
        <ele>431</ele>
        <time>2021-10-10T09:40:36.010Z</time>
      </trkpt>
      <trkpt lat="45.37734" lon="5.1479">
        <ele>431</ele>
        <time>2021-10-10T09:40:41.029Z</time>
      </trkpt>
      <trkpt lat="45.37739" lon="5.14796">
        <ele>429</ele>
        <time>2021-10-10T09:40:45.998Z</time>
      </trkpt>
      <trkpt lat="45.37743" lon="5.14801">
        <ele>429</ele>
        <time>2021-10-10T09:40:51.006Z</time>
      </trkpt>
      <trkpt lat="45.37747" lon="5.14808">
        <ele>429</ele>
        <time>2021-10-10T09:40:55.989Z</time>
      </trkpt>
      <trkpt lat="45.37752" lon="5.14813">
        <ele>429</ele>
        <time>2021-10-10T09:41:01.002Z</time>
      </trkpt>
      <trkpt lat="45.37755" lon="5.14818">
        <ele>429</ele>
        <time>2021-10-10T09:41:04.996Z</time>
      </trkpt>
      <trkpt lat="45.3776" lon="5.14825">
        <ele>428</ele>
        <time>2021-10-10T09:41:09.956Z</time>
      </trkpt>
      <trkpt lat="45.37763" lon="5.14829">
        <ele>428</ele>
        <time>2021-10-10T09:41:13.973Z</time>
      </trkpt>
      <trkpt lat="45.3777" lon="5.14833">
        <ele>427</ele>
        <time>2021-10-10T09:41:18.961Z</time>
      </trkpt>
      <trkpt lat="45.37777" lon="5.1484">
        <ele>427</ele>
        <time>2021-10-10T09:41:23.956Z</time>
      </trkpt>
      <trkpt lat="45.37783" lon="5.14847">
        <ele>427</ele>
        <time>2021-10-10T09:41:28.960Z</time>
      </trkpt>
      <trkpt lat="45.37789" lon="5.14851">
        <ele>427</ele>
        <time>2021-10-10T09:41:32.968Z</time>
      </trkpt>
      <trkpt lat="45.37795" lon="5.14855">
        <ele>427</ele>
        <time>2021-10-10T09:41:37.972Z</time>
      </trkpt>
      <trkpt lat="45.37801" lon="5.14859">
        <ele>427</ele>
        <time>2021-10-10T09:41:42.961Z</time>
      </trkpt>
      <trkpt lat="45.37808" lon="5.14864">
        <ele>427</ele>
        <time>2021-10-10T09:41:47.958Z</time>
      </trkpt>
      <trkpt lat="45.37817" lon="5.14871">
        <ele>427</ele>
        <time>2021-10-10T09:41:52.954Z</time>
      </trkpt>
      <trkpt lat="45.37823" lon="5.14877">
        <ele>427</ele>
        <time>2021-10-10T09:41:57.957Z</time>
      </trkpt>
      <trkpt lat="45.37827" lon="5.14883">
        <ele>427</ele>
        <time>2021-10-10T09:42:01.958Z</time>
      </trkpt>
      <trkpt lat="45.37831" lon="5.14889">
        <ele>427</ele>
        <time>2021-10-10T09:42:05.966Z</time>
      </trkpt>
      <trkpt lat="45.37837" lon="5.14897">
        <ele>427</ele>
        <time>2021-10-10T09:42:10.968Z</time>
      </trkpt>
      <trkpt lat="45.37842" lon="5.14902">
        <ele>427</ele>
        <time>2021-10-10T09:42:15.966Z</time>
      </trkpt>
      <trkpt lat="45.37846" lon="5.14906">
        <ele>427</ele>
        <time>2021-10-10T09:42:19.964Z</time>
      </trkpt>
      <trkpt lat="45.37851" lon="5.14912">
        <ele>426</ele>
        <time>2021-10-10T09:42:24.961Z</time>
      </trkpt>
      <trkpt lat="45.37856" lon="5.14918">
        <ele>426</ele>
        <time>2021-10-10T09:42:28.971Z</time>
      </trkpt>
      <trkpt lat="45.37862" lon="5.14922">
        <ele>426</ele>
        <time>2021-10-10T09:42:33.967Z</time>
      </trkpt>
      <trkpt lat="45.37868" lon="5.14927">
        <ele>426</ele>
        <time>2021-10-10T09:42:38.969Z</time>
      </trkpt>
      <trkpt lat="45.37878" lon="5.14935">
        <ele>426</ele>
        <time>2021-10-10T09:42:43.981Z</time>
      </trkpt>
      <trkpt lat="45.3789" lon="5.14942">
        <ele>426</ele>
        <time>2021-10-10T09:42:48.971Z</time>
      </trkpt>
      <trkpt lat="45.37901" lon="5.14951">
        <ele>426</ele>
        <time>2021-10-10T09:42:53.966Z</time>
      </trkpt>
      <trkpt lat="45.37911" lon="5.14956">
        <ele>429</ele>
        <time>2021-10-10T09:42:58.966Z</time>
      </trkpt>
      <trkpt lat="45.37917" lon="5.1496">
        <ele>426</ele>
        <time>2021-10-10T09:43:02.982Z</time>
      </trkpt>
      <trkpt lat="45.37923" lon="5.14961">
        <ele>426</ele>
        <time>2021-10-10T09:43:07.969Z</time>
      </trkpt>
      <trkpt lat="45.3793" lon="5.14962">
        <ele>426</ele>
        <time>2021-10-10T09:43:12.967Z</time>
      </trkpt>
      <trkpt lat="45.37937" lon="5.14963">
        <ele>428</ele>
        <time>2021-10-10T09:43:17.975Z</time>
      </trkpt>
      <trkpt lat="45.37942" lon="5.14966">
        <ele>428</ele>
        <time>2021-10-10T09:43:21.983Z</time>
      </trkpt>
      <trkpt lat="45.37949" lon="5.14969">
        <ele>428</ele>
        <time>2021-10-10T09:43:26.978Z</time>
      </trkpt>
      <trkpt lat="45.37955" lon="5.14971">
        <ele>428</ele>
        <time>2021-10-10T09:43:31.966Z</time>
      </trkpt>
      <trkpt lat="45.37961" lon="5.14973">
        <ele>430</ele>
        <time>2021-10-10T09:43:35.978Z</time>
      </trkpt>
      <trkpt lat="45.37968" lon="5.14976">
        <ele>430</ele>
        <time>2021-10-10T09:43:40.965Z</time>
      </trkpt>
      <trkpt lat="45.37974" lon="5.1498">
        <ele>430</ele>
        <time>2021-10-10T09:43:45.968Z</time>
      </trkpt>
      <trkpt lat="45.3798" lon="5.14983">
        <ele>430</ele>
        <time>2021-10-10T09:43:49.977Z</time>
      </trkpt>
      <trkpt lat="45.37986" lon="5.14986">
        <ele>431</ele>
        <time>2021-10-10T09:43:54.967Z</time>
      </trkpt>
      <trkpt lat="45.37991" lon="5.14988">
        <ele>430</ele>
        <time>2021-10-10T09:43:58.965Z</time>
      </trkpt>
      <trkpt lat="45.37996" lon="5.1499">
        <ele>430</ele>
        <time>2021-10-10T09:44:02.986Z</time>
      </trkpt>
      <trkpt lat="45.38002" lon="5.14996">
        <ele>430</ele>
        <time>2021-10-10T09:44:07.968Z</time>
      </trkpt>
      <trkpt lat="45.38008" lon="5.15002">
        <ele>430</ele>
        <time>2021-10-10T09:44:12.971Z</time>
      </trkpt>
      <trkpt lat="45.38014" lon="5.15006">
        <ele>430</ele>
        <time>2021-10-10T09:44:17.970Z</time>
      </trkpt>
      <trkpt lat="45.3802" lon="5.1501">
        <ele>430</ele>
        <time>2021-10-10T09:44:22.971Z</time>
      </trkpt>
      <trkpt lat="45.38024" lon="5.15014">
        <ele>430</ele>
        <time>2021-10-10T09:44:26.978Z</time>
      </trkpt>
      <trkpt lat="45.3803" lon="5.15018">
        <ele>429</ele>
        <time>2021-10-10T09:44:31.968Z</time>
      </trkpt>
      <trkpt lat="45.38036" lon="5.15021">
        <ele>429</ele>
        <time>2021-10-10T09:44:36.977Z</time>
      </trkpt>
      <trkpt lat="45.38042" lon="5.15024">
        <ele>429</ele>
        <time>2021-10-10T09:44:41.966Z</time>
      </trkpt>
      <trkpt lat="45.38047" lon="5.15027">
        <ele>429</ele>
        <time>2021-10-10T09:44:45.967Z</time>
      </trkpt>
      <trkpt lat="45.38054" lon="5.15031">
        <ele>429</ele>
        <time>2021-10-10T09:44:50.968Z</time>
      </trkpt>
      <trkpt lat="45.38059" lon="5.15036">
        <ele>429</ele>
        <time>2021-10-10T09:44:54.976Z</time>
      </trkpt>
      <trkpt lat="45.38066" lon="5.15041">
        <ele>429</ele>
        <time>2021-10-10T09:44:59.981Z</time>
      </trkpt>
      <trkpt lat="45.38071" lon="5.15042">
        <ele>430</ele>
        <time>2021-10-10T09:45:03.978Z</time>
      </trkpt>
      <trkpt lat="45.38078" lon="5.15046">
        <ele>430</ele>
        <time>2021-10-10T09:45:08.967Z</time>
      </trkpt>
      <trkpt lat="45.38084" lon="5.15052">
        <ele>430</ele>
        <time>2021-10-10T09:45:13.967Z</time>
      </trkpt>
      <trkpt lat="45.38099" lon="5.15049">
        <ele>431</ele>
        <time>2021-10-10T09:45:31.968Z</time>
      </trkpt>
      <trkpt lat="45.38096" lon="5.15042">
        <ele>430</ele>
        <time>2021-10-10T09:45:36.965Z</time>
      </trkpt>
      <trkpt lat="45.38095" lon="5.15036">
        <ele>431</ele>
        <time>2021-10-10T09:45:40.979Z</time>
      </trkpt>
      <trkpt lat="45.38092" lon="5.15029">
        <ele>431</ele>
        <time>2021-10-10T09:45:45.969Z</time>
      </trkpt>
      <trkpt lat="45.38088" lon="5.15022">
        <ele>431</ele>
        <time>2021-10-10T09:45:49.977Z</time>
      </trkpt>
      <trkpt lat="45.38084" lon="5.15013">
        <ele>431</ele>
        <time>2021-10-10T09:45:54.968Z</time>
      </trkpt>
      <trkpt lat="45.38075" lon="5.15">
        <ele>431</ele>
        <time>2021-10-10T09:45:59.975Z</time>
      </trkpt>
      <trkpt lat="45.38069" lon="5.14987">
        <ele>431</ele>
        <time>2021-10-10T09:46:04.963Z</time>
      </trkpt>
      <trkpt lat="45.38063" lon="5.14975">
        <ele>432</ele>
        <time>2021-10-10T09:46:08.966Z</time>
      </trkpt>
      <trkpt lat="45.38059" lon="5.14965">
        <ele>432</ele>
        <time>2021-10-10T09:46:13.969Z</time>
      </trkpt>
      <trkpt lat="45.38055" lon="5.14955">
        <ele>434</ele>
        <time>2021-10-10T09:46:18.976Z</time>
      </trkpt>
      <trkpt lat="45.38052" lon="5.14947">
        <ele>434</ele>
        <time>2021-10-10T09:46:23.974Z</time>
      </trkpt>
      <trkpt lat="45.38047" lon="5.14938">
        <ele>434</ele>
        <time>2021-10-10T09:46:28.968Z</time>
      </trkpt>
      <trkpt lat="45.38045" lon="5.14932">
        <ele>434</ele>
        <time>2021-10-10T09:46:32.979Z</time>
      </trkpt>
      <trkpt lat="45.38042" lon="5.14924">
        <ele>435</ele>
        <time>2021-10-10T09:46:37.981Z</time>
      </trkpt>
      <trkpt lat="45.38037" lon="5.14915">
        <ele>434</ele>
        <time>2021-10-10T09:46:42.968Z</time>
      </trkpt>
      <trkpt lat="45.38032" lon="5.1491">
        <ele>434</ele>
        <time>2021-10-10T09:46:46.974Z</time>
      </trkpt>
      <trkpt lat="45.38028" lon="5.14904">
        <ele>434</ele>
        <time>2021-10-10T09:46:50.981Z</time>
      </trkpt>
      <trkpt lat="45.38022" lon="5.14897">
        <ele>433</ele>
        <time>2021-10-10T09:46:55.974Z</time>
      </trkpt>
      <trkpt lat="45.38015" lon="5.14892">
        <ele>433</ele>
        <time>2021-10-10T09:47:00.967Z</time>
      </trkpt>
      <trkpt lat="45.3801" lon="5.14886">
        <ele>432</ele>
        <time>2021-10-10T09:47:04.965Z</time>
      </trkpt>
      <trkpt lat="45.38004" lon="5.14881">
        <ele>432</ele>
        <time>2021-10-10T09:47:09.968Z</time>
      </trkpt>
      <trkpt lat="45.37997" lon="5.14873">
        <ele>432</ele>
        <time>2021-10-10T09:47:14.966Z</time>
      </trkpt>
      <trkpt lat="45.37992" lon="5.14867">
        <ele>432</ele>
        <time>2021-10-10T09:47:19.969Z</time>
      </trkpt>
      <trkpt lat="45.37989" lon="5.14863">
        <ele>432</ele>
        <time>2021-10-10T09:47:23.972Z</time>
      </trkpt>
      <trkpt lat="45.37984" lon="5.14858">
        <ele>433</ele>
        <time>2021-10-10T09:47:28.969Z</time>
      </trkpt>
      <trkpt lat="45.3798" lon="5.14853">
        <ele>433</ele>
        <time>2021-10-10T09:47:33.966Z</time>
      </trkpt>
      <trkpt lat="45.37976" lon="5.1485">
        <ele>433</ele>
        <time>2021-10-10T09:47:37.974Z</time>
      </trkpt>
      <trkpt lat="45.37971" lon="5.14845">
        <ele>433</ele>
        <time>2021-10-10T09:47:42.968Z</time>
      </trkpt>
      <trkpt lat="45.37967" lon="5.14842">
        <ele>433</ele>
        <time>2021-10-10T09:47:46.970Z</time>
      </trkpt>
      <trkpt lat="45.37963" lon="5.14836">
        <ele>433</ele>
        <time>2021-10-10T09:47:51.977Z</time>
      </trkpt>
      <trkpt lat="45.37959" lon="5.14831">
        <ele>433</ele>
        <time>2021-10-10T09:47:56.965Z</time>
      </trkpt>
      <trkpt lat="45.37954" lon="5.14826">
        <ele>432</ele>
        <time>2021-10-10T09:48:00.974Z</time>
      </trkpt>
      <trkpt lat="45.37948" lon="5.14821">
        <ele>432</ele>
        <time>2021-10-10T09:48:05.969Z</time>
      </trkpt>
      <trkpt lat="45.37943" lon="5.14817">
        <ele>432</ele>
        <time>2021-10-10T09:48:10.965Z</time>
      </trkpt>
      <trkpt lat="45.37938" lon="5.14813">
        <ele>432</ele>
        <time>2021-10-10T09:48:14.971Z</time>
      </trkpt>
      <trkpt lat="45.37933" lon="5.1481">
        <ele>432</ele>
        <time>2021-10-10T09:48:19.968Z</time>
      </trkpt>
      <trkpt lat="45.37929" lon="5.14807">
        <ele>431</ele>
        <time>2021-10-10T09:48:23.973Z</time>
      </trkpt>
      <trkpt lat="45.37923" lon="5.14802">
        <ele>431</ele>
        <time>2021-10-10T09:48:28.967Z</time>
      </trkpt>
      <trkpt lat="45.37919" lon="5.14799">
        <ele>431</ele>
        <time>2021-10-10T09:48:32.973Z</time>
      </trkpt>
      <trkpt lat="45.37913" lon="5.14794">
        <ele>431</ele>
        <time>2021-10-10T09:48:37.973Z</time>
      </trkpt>
      <trkpt lat="45.37908" lon="5.14788">
        <ele>432</ele>
        <time>2021-10-10T09:48:42.972Z</time>
      </trkpt>
      <trkpt lat="45.379" lon="5.14782">
        <ele>432</ele>
        <time>2021-10-10T09:48:47.970Z</time>
      </trkpt>
      <trkpt lat="45.37896" lon="5.14776">
        <ele>432</ele>
        <time>2021-10-10T09:48:51.972Z</time>
      </trkpt>
      <trkpt lat="45.3789" lon="5.14771">
        <ele>432</ele>
        <time>2021-10-10T09:48:56.967Z</time>
      </trkpt>
      <trkpt lat="45.37885" lon="5.14764">
        <ele>433</ele>
        <time>2021-10-10T09:49:01.962Z</time>
      </trkpt>
      <trkpt lat="45.3788" lon="5.14758">
        <ele>433</ele>
        <time>2021-10-10T09:49:05.970Z</time>
      </trkpt>
      <trkpt lat="45.37874" lon="5.14754">
        <ele>433</ele>
        <time>2021-10-10T09:49:10.970Z</time>
      </trkpt>
      <trkpt lat="45.37869" lon="5.14745">
        <ele>433</ele>
        <time>2021-10-10T09:49:14.976Z</time>
      </trkpt>
      <trkpt lat="45.37864" lon="5.14735">
        <ele>433</ele>
        <time>2021-10-10T09:49:19.972Z</time>
      </trkpt>
      <trkpt lat="45.37862" lon="5.14724">
        <ele>433</ele>
        <time>2021-10-10T09:49:24.970Z</time>
      </trkpt>
      <trkpt lat="45.37859" lon="5.14716">
        <ele>433</ele>
        <time>2021-10-10T09:49:29.968Z</time>
      </trkpt>
      <trkpt lat="45.37854" lon="5.14709">
        <ele>433</ele>
        <time>2021-10-10T09:49:34.971Z</time>
      </trkpt>
      <trkpt lat="45.3785" lon="5.14701">
        <ele>433</ele>
        <time>2021-10-10T09:49:39.973Z</time>
      </trkpt>
      <trkpt lat="45.37844" lon="5.14695">
        <ele>433</ele>
        <time>2021-10-10T09:49:44.967Z</time>
      </trkpt>
      <trkpt lat="45.3784" lon="5.14691">
        <ele>433</ele>
        <time>2021-10-10T09:49:48.973Z</time>
      </trkpt>
      <trkpt lat="45.37835" lon="5.14685">
        <ele>433</ele>
        <time>2021-10-10T09:49:53.973Z</time>
      </trkpt>
      <trkpt lat="45.37831" lon="5.14679">
        <ele>435</ele>
        <time>2021-10-10T09:49:58.981Z</time>
      </trkpt>
      <trkpt lat="45.37827" lon="5.14672">
        <ele>435</ele>
        <time>2021-10-10T09:50:03.972Z</time>
      </trkpt>
      <trkpt lat="45.37822" lon="5.14666">
        <ele>435</ele>
        <time>2021-10-10T09:50:08.965Z</time>
      </trkpt>
      <trkpt lat="45.37818" lon="5.14658">
        <ele>436</ele>
        <time>2021-10-10T09:50:13.969Z</time>
      </trkpt>
      <trkpt lat="45.37813" lon="5.14651">
        <ele>437</ele>
        <time>2021-10-10T09:50:18.978Z</time>
      </trkpt>
      <trkpt lat="45.3781" lon="5.14644">
        <ele>437</ele>
        <time>2021-10-10T09:50:23.973Z</time>
      </trkpt>
      <trkpt lat="45.37807" lon="5.14637">
        <ele>437</ele>
        <time>2021-10-10T09:50:28.965Z</time>
      </trkpt>
      <trkpt lat="45.37805" lon="5.14633">
        <ele>437</ele>
        <time>2021-10-10T09:50:32.972Z</time>
      </trkpt>
      <trkpt lat="45.37801" lon="5.14624">
        <ele>437</ele>
        <time>2021-10-10T09:50:37.979Z</time>
      </trkpt>
      <trkpt lat="45.37799" lon="5.14616">
        <ele>437</ele>
        <time>2021-10-10T09:50:42.975Z</time>
      </trkpt>
      <trkpt lat="45.37796" lon="5.1461">
        <ele>437</ele>
        <time>2021-10-10T09:50:46.973Z</time>
      </trkpt>
      <trkpt lat="45.37792" lon="5.14601">
        <ele>437</ele>
        <time>2021-10-10T09:50:51.971Z</time>
      </trkpt>
      <trkpt lat="45.37789" lon="5.14593">
        <ele>435</ele>
        <time>2021-10-10T09:50:56.974Z</time>
      </trkpt>
      <trkpt lat="45.37786" lon="5.14587">
        <ele>435</ele>
        <time>2021-10-10T09:51:00.977Z</time>
      </trkpt>
      <trkpt lat="45.37783" lon="5.14578">
        <ele>435</ele>
        <time>2021-10-10T09:51:05.967Z</time>
      </trkpt>
      <trkpt lat="45.37779" lon="5.14571">
        <ele>435</ele>
        <time>2021-10-10T09:51:10.967Z</time>
      </trkpt>
      <trkpt lat="45.37776" lon="5.14565">
        <ele>433</ele>
        <time>2021-10-10T09:51:14.969Z</time>
      </trkpt>
      <trkpt lat="45.37772" lon="5.14558">
        <ele>433</ele>
        <time>2021-10-10T09:51:19.969Z</time>
      </trkpt>
      <trkpt lat="45.37768" lon="5.14551">
        <ele>433</ele>
        <time>2021-10-10T09:51:24.968Z</time>
      </trkpt>
      <trkpt lat="45.37764" lon="5.14547">
        <ele>433</ele>
        <time>2021-10-10T09:51:28.967Z</time>
      </trkpt>
      <trkpt lat="45.3776" lon="5.14541">
        <ele>431</ele>
        <time>2021-10-10T09:51:33.967Z</time>
      </trkpt>
      <trkpt lat="45.37754" lon="5.14535">
        <ele>431</ele>
        <time>2021-10-10T09:51:38.974Z</time>
      </trkpt>
      <trkpt lat="45.37749" lon="5.14528">
        <ele>431</ele>
        <time>2021-10-10T09:51:43.968Z</time>
      </trkpt>
      <trkpt lat="45.37745" lon="5.14523">
        <ele>431</ele>
        <time>2021-10-10T09:51:47.966Z</time>
      </trkpt>
      <trkpt lat="45.37738" lon="5.14514">
        <ele>431</ele>
        <time>2021-10-10T09:51:52.975Z</time>
      </trkpt>
      <trkpt lat="45.37733" lon="5.14508">
        <ele>429</ele>
        <time>2021-10-10T09:51:57.976Z</time>
      </trkpt>
      <trkpt lat="45.37729" lon="5.14503">
        <ele>429</ele>
        <time>2021-10-10T09:52:02.979Z</time>
      </trkpt>
      <trkpt lat="45.37726" lon="5.14498">
        <ele>429</ele>
        <time>2021-10-10T09:52:06.982Z</time>
      </trkpt>
      <trkpt lat="45.37721" lon="5.14492">
        <ele>429</ele>
        <time>2021-10-10T09:52:11.975Z</time>
      </trkpt>
      <trkpt lat="45.37716" lon="5.14487">
        <ele>429</ele>
        <time>2021-10-10T09:52:16.974Z</time>
      </trkpt>
      <trkpt lat="45.37711" lon="5.14481">
        <ele>428</ele>
        <time>2021-10-10T09:52:21.972Z</time>
      </trkpt>
      <trkpt lat="45.37706" lon="5.14473">
        <ele>427</ele>
        <time>2021-10-10T09:52:26.976Z</time>
      </trkpt>
      <trkpt lat="45.377" lon="5.14464">
        <ele>427</ele>
        <time>2021-10-10T09:52:30.981Z</time>
      </trkpt>
      <trkpt lat="45.37694" lon="5.14453">
        <ele>427</ele>
        <time>2021-10-10T09:52:35.972Z</time>
      </trkpt>
      <trkpt lat="45.37687" lon="5.14441">
        <ele>427</ele>
        <time>2021-10-10T09:52:40.978Z</time>
      </trkpt>
      <trkpt lat="45.37682" lon="5.14436">
        <ele>427</ele>
        <time>2021-10-10T09:52:45.969Z</time>
      </trkpt>
      <trkpt lat="45.37676" lon="5.1443">
        <ele>426</ele>
        <time>2021-10-10T09:52:50.970Z</time>
      </trkpt>
      <trkpt lat="45.3767" lon="5.14426">
        <ele>426</ele>
        <time>2021-10-10T09:52:54.970Z</time>
      </trkpt>
      <trkpt lat="45.37664" lon="5.14419">
        <ele>426</ele>
        <time>2021-10-10T09:52:59.968Z</time>
      </trkpt>
      <trkpt lat="45.37658" lon="5.14413">
        <ele>426</ele>
        <time>2021-10-10T09:53:04.959Z</time>
      </trkpt>
      <trkpt lat="45.37652" lon="5.14408">
        <ele>424</ele>
        <time>2021-10-10T09:53:08.965Z</time>
      </trkpt>
      <trkpt lat="45.37648" lon="5.14402">
        <ele>424</ele>
        <time>2021-10-10T09:53:12.968Z</time>
      </trkpt>
      <trkpt lat="45.37643" lon="5.14393">
        <ele>424</ele>
        <time>2021-10-10T09:53:17.970Z</time>
      </trkpt>
      <trkpt lat="45.37639" lon="5.14386">
        <ele>424</ele>
        <time>2021-10-10T09:53:21.972Z</time>
      </trkpt>
      <trkpt lat="45.37634" lon="5.14378">
        <ele>424</ele>
        <time>2021-10-10T09:53:26.967Z</time>
      </trkpt>
      <trkpt lat="45.37629" lon="5.14371">
        <ele>425</ele>
        <time>2021-10-10T09:53:31.966Z</time>
      </trkpt>
      <trkpt lat="45.37625" lon="5.14365">
        <ele>425</ele>
        <time>2021-10-10T09:53:35.970Z</time>
      </trkpt>
      <trkpt lat="45.3762" lon="5.14361">
        <ele>425</ele>
        <time>2021-10-10T09:53:39.978Z</time>
      </trkpt>
      <trkpt lat="45.37614" lon="5.14356">
        <ele>425</ele>
        <time>2021-10-10T09:53:44.976Z</time>
      </trkpt>
      <trkpt lat="45.3761" lon="5.14353">
        <ele>425</ele>
        <time>2021-10-10T09:53:49.975Z</time>
      </trkpt>
      <trkpt lat="45.37604" lon="5.1435">
        <ele>425</ele>
        <time>2021-10-10T09:53:54.970Z</time>
      </trkpt>
      <trkpt lat="45.376" lon="5.14346">
        <ele>425</ele>
        <time>2021-10-10T09:53:58.975Z</time>
      </trkpt>
      <trkpt lat="45.37594" lon="5.14343">
        <ele>424</ele>
        <time>2021-10-10T09:54:03.970Z</time>
      </trkpt>
      <trkpt lat="45.37587" lon="5.14338">
        <ele>424</ele>
        <time>2021-10-10T09:54:08.969Z</time>
      </trkpt>
      <trkpt lat="45.37582" lon="5.14332">
        <ele>424</ele>
        <time>2021-10-10T09:54:13.966Z</time>
      </trkpt>
      <trkpt lat="45.37579" lon="5.14326">
        <ele>424</ele>
        <time>2021-10-10T09:54:17.970Z</time>
      </trkpt>
      <trkpt lat="45.37582" lon="5.14317">
        <ele>423</ele>
        <time>2021-10-10T09:54:22.974Z</time>
      </trkpt>
      <trkpt lat="45.37587" lon="5.14308">
        <ele>423</ele>
        <time>2021-10-10T09:54:27.980Z</time>
      </trkpt>
      <trkpt lat="45.37591" lon="5.143">
        <ele>423</ele>
        <time>2021-10-10T09:54:32.971Z</time>
      </trkpt>
      <trkpt lat="45.37595" lon="5.14293">
        <ele>423</ele>
        <time>2021-10-10T09:54:37.968Z</time>
      </trkpt>
      <trkpt lat="45.37597" lon="5.14287">
        <ele>422</ele>
        <time>2021-10-10T09:54:41.971Z</time>
      </trkpt>
      <trkpt lat="45.376" lon="5.14275">
        <ele>423</ele>
        <time>2021-10-10T09:54:46.968Z</time>
      </trkpt>
      <trkpt lat="45.37599" lon="5.14264">
        <ele>423</ele>
        <time>2021-10-10T09:54:50.975Z</time>
      </trkpt>
      <trkpt lat="45.37599" lon="5.14252">
        <ele>422</ele>
        <time>2021-10-10T09:54:55.972Z</time>
      </trkpt>
      <trkpt lat="45.376" lon="5.14241">
        <ele>422</ele>
        <time>2021-10-10T09:55:00.972Z</time>
      </trkpt>
      <trkpt lat="45.37603" lon="5.14232">
        <ele>421</ele>
        <time>2021-10-10T09:55:05.969Z</time>
      </trkpt>
      <trkpt lat="45.37606" lon="5.1422">
        <ele>421</ele>
        <time>2021-10-10T09:55:10.971Z</time>
      </trkpt>
      <trkpt lat="45.37609" lon="5.1421">
        <ele>421</ele>
        <time>2021-10-10T09:55:15.974Z</time>
      </trkpt>
      <trkpt lat="45.37612" lon="5.14198">
        <ele>420</ele>
        <time>2021-10-10T09:55:20.977Z</time>
      </trkpt>
      <trkpt lat="45.3761" lon="5.14185">
        <ele>420</ele>
        <time>2021-10-10T09:55:25.972Z</time>
      </trkpt>
      <trkpt lat="45.37611" lon="5.14176">
        <ele>418</ele>
        <time>2021-10-10T09:55:30.974Z</time>
      </trkpt>
      <trkpt lat="45.37613" lon="5.14169">
        <ele>418</ele>
        <time>2021-10-10T09:55:34.974Z</time>
      </trkpt>
      <trkpt lat="45.37614" lon="5.14161">
        <ele>418</ele>
        <time>2021-10-10T09:55:39.966Z</time>
      </trkpt>
      <trkpt lat="45.37615" lon="5.14155">
        <ele>418</ele>
        <time>2021-10-10T09:55:43.981Z</time>
      </trkpt>
      <trkpt lat="45.37615" lon="5.14147">
        <ele>417</ele>
        <time>2021-10-10T09:55:48.966Z</time>
      </trkpt>
      <trkpt lat="45.37615" lon="5.14137">
        <ele>417</ele>
        <time>2021-10-10T09:55:52.975Z</time>
      </trkpt>
      <trkpt lat="45.37615" lon="5.14129">
        <ele>417</ele>
        <time>2021-10-10T09:55:57.973Z</time>
      </trkpt>
      <trkpt lat="45.37615" lon="5.1412">
        <ele>416</ele>
        <time>2021-10-10T09:56:02.971Z</time>
      </trkpt>
      <trkpt lat="45.37614" lon="5.14112">
        <ele>416</ele>
        <time>2021-10-10T09:56:07.980Z</time>
      </trkpt>
      <trkpt lat="45.37613" lon="5.14102">
        <ele>416</ele>
        <time>2021-10-10T09:56:12.968Z</time>
      </trkpt>
      <trkpt lat="45.3761" lon="5.14092">
        <ele>414</ele>
        <time>2021-10-10T09:56:17.971Z</time>
      </trkpt>
      <trkpt lat="45.37609" lon="5.14081">
        <ele>414</ele>
        <time>2021-10-10T09:56:22.965Z</time>
      </trkpt>
      <trkpt lat="45.37606" lon="5.14068">
        <ele>413</ele>
        <time>2021-10-10T09:56:27.971Z</time>
      </trkpt>
      <trkpt lat="45.37603" lon="5.14056">
        <ele>413</ele>
        <time>2021-10-10T09:56:32.954Z</time>
      </trkpt>
      <trkpt lat="45.37601" lon="5.14048">
        <ele>413</ele>
        <time>2021-10-10T09:56:36.963Z</time>
      </trkpt>
      <trkpt lat="45.37597" lon="5.14037">
        <ele>415</ele>
        <time>2021-10-10T09:56:41.970Z</time>
      </trkpt>
      <trkpt lat="45.37595" lon="5.14029">
        <ele>415</ele>
        <time>2021-10-10T09:56:46.965Z</time>
      </trkpt>
      <trkpt lat="45.37591" lon="5.14023">
        <ele>415</ele>
        <time>2021-10-10T09:56:50.969Z</time>
      </trkpt>
      <trkpt lat="45.37588" lon="5.14018">
        <ele>415</ele>
        <time>2021-10-10T09:56:55.968Z</time>
      </trkpt>
      <trkpt lat="45.37585" lon="5.14013">
        <ele>415</ele>
        <time>2021-10-10T09:56:59.971Z</time>
      </trkpt>
      <trkpt lat="45.37581" lon="5.14004">
        <ele>415</ele>
        <time>2021-10-10T09:57:04.973Z</time>
      </trkpt>
      <trkpt lat="45.37577" lon="5.13998">
        <ele>415</ele>
        <time>2021-10-10T09:57:08.967Z</time>
      </trkpt>
      <trkpt lat="45.37573" lon="5.13989">
        <ele>415</ele>
        <time>2021-10-10T09:57:13.967Z</time>
      </trkpt>
      <trkpt lat="45.37569" lon="5.13984">
        <ele>416</ele>
        <time>2021-10-10T09:57:17.977Z</time>
      </trkpt>
      <trkpt lat="45.37566" lon="5.13975">
        <ele>416</ele>
        <time>2021-10-10T09:57:22.970Z</time>
      </trkpt>
      <trkpt lat="45.37563" lon="5.13967">
        <ele>416</ele>
        <time>2021-10-10T09:57:26.978Z</time>
      </trkpt>
      <trkpt lat="45.3756" lon="5.13957">
        <ele>416</ele>
        <time>2021-10-10T09:57:31.970Z</time>
      </trkpt>
      <trkpt lat="45.37555" lon="5.1395">
        <ele>416</ele>
        <time>2021-10-10T09:57:36.972Z</time>
      </trkpt>
      <trkpt lat="45.3755" lon="5.13945">
        <ele>416</ele>
        <time>2021-10-10T09:57:41.965Z</time>
      </trkpt>
      <trkpt lat="45.37545" lon="5.13939">
        <ele>416</ele>
        <time>2021-10-10T09:57:46.966Z</time>
      </trkpt>
      <trkpt lat="45.37542" lon="5.13934">
        <ele>418</ele>
        <time>2021-10-10T09:57:50.970Z</time>
      </trkpt>
      <trkpt lat="45.37538" lon="5.1393">
        <ele>417</ele>
        <time>2021-10-10T09:57:54.973Z</time>
      </trkpt>
      <trkpt lat="45.37532" lon="5.13926">
        <ele>417</ele>
        <time>2021-10-10T09:57:59.971Z</time>
      </trkpt>
      <trkpt lat="45.3752" lon="5.13919">
        <ele>417</ele>
        <time>2021-10-10T09:58:04.972Z</time>
      </trkpt>
      <trkpt lat="45.37509" lon="5.13914">
        <ele>419</ele>
        <time>2021-10-10T09:58:09.969Z</time>
      </trkpt>
      <trkpt lat="45.375" lon="5.13907">
        <ele>419</ele>
        <time>2021-10-10T09:58:13.969Z</time>
      </trkpt>
      <trkpt lat="45.37487" lon="5.13898">
        <ele>417</ele>
        <time>2021-10-10T09:58:18.969Z</time>
      </trkpt>
      <trkpt lat="45.37478" lon="5.13889">
        <ele>418</ele>
        <time>2021-10-10T09:58:22.968Z</time>
      </trkpt>
      <trkpt lat="45.37468" lon="5.13878">
        <ele>418</ele>
        <time>2021-10-10T09:58:27.963Z</time>
      </trkpt>
      <trkpt lat="45.3746" lon="5.13867">
        <ele>416</ele>
        <time>2021-10-10T09:58:31.964Z</time>
      </trkpt>
      <trkpt lat="45.37461" lon="5.13856">
        <ele>416</ele>
        <time>2021-10-10T09:58:36.969Z</time>
      </trkpt>
      <trkpt lat="45.37462" lon="5.13848">
        <ele>416</ele>
        <time>2021-10-10T09:58:41.978Z</time>
      </trkpt>
      <trkpt lat="45.37466" lon="5.13845">
        <ele>413</ele>
        <time>2021-10-10T09:58:46.965Z</time>
      </trkpt>
      <trkpt lat="45.37466" lon="5.13845">
        <ele>413</ele>
        <time>2021-10-10T09:58:50.971Z</time>
      </trkpt>
      <trkpt lat="45.37469" lon="5.13841">
        <ele>413</ele>
        <time>2021-10-10T09:58:55.970Z</time>
      </trkpt>
      <trkpt lat="45.37475" lon="5.13834">
        <ele>413</ele>
        <time>2021-10-10T09:59:00.967Z</time>
      </trkpt>
      <trkpt lat="45.37478" lon="5.13828">
        <ele>413</ele>
        <time>2021-10-10T09:59:04.970Z</time>
      </trkpt>
      <trkpt lat="45.37482" lon="5.13822">
        <ele>413</ele>
        <time>2021-10-10T09:59:09.960Z</time>
      </trkpt>
      <trkpt lat="45.37487" lon="5.13817">
        <ele>412</ele>
        <time>2021-10-10T09:59:13.968Z</time>
      </trkpt>
      <trkpt lat="45.37491" lon="5.1381">
        <ele>412</ele>
        <time>2021-10-10T09:59:18.983Z</time>
      </trkpt>
      <trkpt lat="45.37497" lon="5.13803">
        <ele>412</ele>
        <time>2021-10-10T09:59:23.972Z</time>
      </trkpt>
      <trkpt lat="45.375" lon="5.13796">
        <ele>412</ele>
        <time>2021-10-10T09:59:28.969Z</time>
      </trkpt>
      <trkpt lat="45.37503" lon="5.1379">
        <ele>409</ele>
        <time>2021-10-10T09:59:33.963Z</time>
      </trkpt>
      <trkpt lat="45.37507" lon="5.13784">
        <ele>409</ele>
        <time>2021-10-10T09:59:38.974Z</time>
      </trkpt>
      <trkpt lat="45.3751" lon="5.13778">
        <ele>409</ele>
        <time>2021-10-10T09:59:43.968Z</time>
      </trkpt>
      <trkpt lat="45.37512" lon="5.13772">
        <ele>409</ele>
        <time>2021-10-10T09:59:47.978Z</time>
      </trkpt>
      <trkpt lat="45.37514" lon="5.13764">
        <ele>410</ele>
        <time>2021-10-10T09:59:52.973Z</time>
      </trkpt>
      <trkpt lat="45.37515" lon="5.13756">
        <ele>409</ele>
        <time>2021-10-10T09:59:57.962Z</time>
      </trkpt>
      <trkpt lat="45.37517" lon="5.13749">
        <ele>409</ele>
        <time>2021-10-10T10:00:01.968Z</time>
      </trkpt>
      <trkpt lat="45.37519" lon="5.13741">
        <ele>409</ele>
        <time>2021-10-10T10:00:06.963Z</time>
      </trkpt>
      <trkpt lat="45.3752" lon="5.13736">
        <ele>407</ele>
        <time>2021-10-10T10:00:10.967Z</time>
      </trkpt>
      <trkpt lat="45.37525" lon="5.13729">
        <ele>407</ele>
        <time>2021-10-10T10:00:15.959Z</time>
      </trkpt>
      <trkpt lat="45.37528" lon="5.13723">
        <ele>407</ele>
        <time>2021-10-10T10:00:19.968Z</time>
      </trkpt>
      <trkpt lat="45.37533" lon="5.13717">
        <ele>407</ele>
        <time>2021-10-10T10:00:23.969Z</time>
      </trkpt>
      <trkpt lat="45.37539" lon="5.1371">
        <ele>407</ele>
        <time>2021-10-10T10:00:28.965Z</time>
      </trkpt>
      <trkpt lat="45.37543" lon="5.13704">
        <ele>403</ele>
        <time>2021-10-10T10:00:32.964Z</time>
      </trkpt>
      <trkpt lat="45.37546" lon="5.13695">
        <ele>403</ele>
        <time>2021-10-10T10:00:37.967Z</time>
      </trkpt>
      <trkpt lat="45.3755" lon="5.13688">
        <ele>403</ele>
        <time>2021-10-10T10:00:41.968Z</time>
      </trkpt>
      <trkpt lat="45.37555" lon="5.1368">
        <ele>400</ele>
        <time>2021-10-10T10:00:46.965Z</time>
      </trkpt>
      <trkpt lat="45.3756" lon="5.13673">
        <ele>400</ele>
        <time>2021-10-10T10:00:51.968Z</time>
      </trkpt>
      <trkpt lat="45.37569" lon="5.13667">
        <ele>400</ele>
        <time>2021-10-10T10:00:56.964Z</time>
      </trkpt>
      <trkpt lat="45.37574" lon="5.13662">
        <ele>400</ele>
        <time>2021-10-10T10:01:01.970Z</time>
      </trkpt>
      <trkpt lat="45.37582" lon="5.13656">
        <ele>400</ele>
        <time>2021-10-10T10:01:06.968Z</time>
      </trkpt>
      <trkpt lat="45.37586" lon="5.1365">
        <ele>398</ele>
        <time>2021-10-10T10:01:11.966Z</time>
      </trkpt>
      <trkpt lat="45.37591" lon="5.13646">
        <ele>398</ele>
        <time>2021-10-10T10:01:15.969Z</time>
      </trkpt>
      <trkpt lat="45.37598" lon="5.1364">
        <ele>400</ele>
        <time>2021-10-10T10:01:20.969Z</time>
      </trkpt>
      <trkpt lat="45.37604" lon="5.13633">
        <ele>400</ele>
        <time>2021-10-10T10:01:25.961Z</time>
      </trkpt>
      <trkpt lat="45.37608" lon="5.13627">
        <ele>400</ele>
        <time>2021-10-10T10:01:29.972Z</time>
      </trkpt>
      <trkpt lat="45.37615" lon="5.13621">
        <ele>398</ele>
        <time>2021-10-10T10:01:34.962Z</time>
      </trkpt>
      <trkpt lat="45.3762" lon="5.13617">
        <ele>398</ele>
        <time>2021-10-10T10:01:38.970Z</time>
      </trkpt>
      <trkpt lat="45.37627" lon="5.13611">
        <ele>400</ele>
        <time>2021-10-10T10:01:43.970Z</time>
      </trkpt>
      <trkpt lat="45.37631" lon="5.13607">
        <ele>400</ele>
        <time>2021-10-10T10:01:48.969Z</time>
      </trkpt>
      <trkpt lat="45.37635" lon="5.13604">
        <ele>400</ele>
        <time>2021-10-10T10:01:52.968Z</time>
      </trkpt>
      <trkpt lat="45.37641" lon="5.136">
        <ele>400</ele>
        <time>2021-10-10T10:01:57.965Z</time>
      </trkpt>
      <trkpt lat="45.37646" lon="5.13597">
        <ele>398</ele>
        <time>2021-10-10T10:02:01.970Z</time>
      </trkpt>
      <trkpt lat="45.37651" lon="5.13593">
        <ele>398</ele>
        <time>2021-10-10T10:02:06.969Z</time>
      </trkpt>
      <trkpt lat="45.37657" lon="5.13589">
        <ele>396</ele>
        <time>2021-10-10T10:02:11.970Z</time>
      </trkpt>
      <trkpt lat="45.37664" lon="5.13589">
        <ele>396</ele>
        <time>2021-10-10T10:02:16.972Z</time>
      </trkpt>
      <trkpt lat="45.37669" lon="5.13587">
        <ele>396</ele>
        <time>2021-10-10T10:02:20.969Z</time>
      </trkpt>
      <trkpt lat="45.37676" lon="5.13582">
        <ele>396</ele>
        <time>2021-10-10T10:02:25.969Z</time>
      </trkpt>
      <trkpt lat="45.37681" lon="5.13577">
        <ele>393</ele>
        <time>2021-10-10T10:02:30.971Z</time>
      </trkpt>
      <trkpt lat="45.37684" lon="5.13569">
        <ele>390</ele>
        <time>2021-10-10T10:02:35.969Z</time>
      </trkpt>
      <trkpt lat="45.37687" lon="5.13563">
        <ele>390</ele>
        <time>2021-10-10T10:02:40.965Z</time>
      </trkpt>
      <trkpt lat="45.37688" lon="5.13562">
        <ele>390</ele>
        <time>2021-10-10T10:02:45.960Z</time>
      </trkpt>
      <trkpt lat="45.37689" lon="5.13558">
        <ele>390</ele>
        <time>2021-10-10T10:02:49.972Z</time>
      </trkpt>
      <trkpt lat="45.37689" lon="5.13557">
        <ele>390</ele>
        <time>2021-10-10T10:02:54.964Z</time>
      </trkpt>
      <trkpt lat="45.3769" lon="5.13554">
        <ele>390</ele>
        <time>2021-10-10T10:02:58.969Z</time>
      </trkpt>
      <trkpt lat="45.37691" lon="5.13545">
        <ele>390</ele>
        <time>2021-10-10T10:03:03.974Z</time>
      </trkpt>
      <trkpt lat="45.37693" lon="5.13537">
        <ele>387</ele>
        <time>2021-10-10T10:03:08.968Z</time>
      </trkpt>
      <trkpt lat="45.37691" lon="5.13528">
        <ele>387</ele>
        <time>2021-10-10T10:03:13.964Z</time>
      </trkpt>
      <trkpt lat="45.3769" lon="5.13523">
        <ele>387</ele>
        <time>2021-10-10T10:03:17.988Z</time>
      </trkpt>
      <trkpt lat="45.37688" lon="5.13517">
        <ele>387</ele>
        <time>2021-10-10T10:03:22.970Z</time>
      </trkpt>
      <trkpt lat="45.37682" lon="5.1351">
        <ele>383</ele>
        <time>2021-10-10T10:03:27.965Z</time>
      </trkpt>
      <trkpt lat="45.37679" lon="5.13505">
        <ele>384</ele>
        <time>2021-10-10T10:03:31.965Z</time>
      </trkpt>
      <trkpt lat="45.3768" lon="5.13499">
        <ele>384</ele>
        <time>2021-10-10T10:03:35.971Z</time>
      </trkpt>
      <trkpt lat="45.3768" lon="5.13493">
        <ele>384</ele>
        <time>2021-10-10T10:03:40.975Z</time>
      </trkpt>
      <trkpt lat="45.3768" lon="5.13497">
        <ele>384</ele>
        <time>2021-10-10T10:03:45.968Z</time>
      </trkpt>
      <trkpt lat="45.37677" lon="5.13493">
        <ele>384</ele>
        <time>2021-10-10T10:03:50.975Z</time>
      </trkpt>
      <trkpt lat="45.37673" lon="5.13488">
        <ele>384</ele>
        <time>2021-10-10T10:03:55.974Z</time>
      </trkpt>
      <trkpt lat="45.37669" lon="5.13485">
        <ele>379</ele>
        <time>2021-10-10T10:04:00.971Z</time>
      </trkpt>
      <trkpt lat="45.37665" lon="5.13483">
        <ele>379</ele>
        <time>2021-10-10T10:04:05.969Z</time>
      </trkpt>
      <trkpt lat="45.37662" lon="5.13478">
        <ele>379</ele>
        <time>2021-10-10T10:04:10.965Z</time>
      </trkpt>
      <trkpt lat="45.37659" lon="5.13473">
        <ele>379</ele>
        <time>2021-10-10T10:04:15.968Z</time>
      </trkpt>
      <trkpt lat="45.37658" lon="5.13466">
        <ele>379</ele>
        <time>2021-10-10T10:04:20.967Z</time>
      </trkpt>
      <trkpt lat="45.37662" lon="5.13463">
        <ele>379</ele>
        <time>2021-10-10T10:04:25.968Z</time>
      </trkpt>
      <trkpt lat="45.37663" lon="5.13457">
        <ele>375</ele>
        <time>2021-10-10T10:04:29.965Z</time>
      </trkpt>
      <trkpt lat="45.37664" lon="5.13451">
        <ele>375</ele>
        <time>2021-10-10T10:04:33.968Z</time>
      </trkpt>
      <trkpt lat="45.37666" lon="5.13444">
        <ele>375</ele>
        <time>2021-10-10T10:04:37.969Z</time>
      </trkpt>
      <trkpt lat="45.37666" lon="5.13437">
        <ele>375</ele>
        <time>2021-10-10T10:04:42.972Z</time>
      </trkpt>
      <trkpt lat="45.37665" lon="5.13429">
        <ele>370</ele>
        <time>2021-10-10T10:04:47.966Z</time>
      </trkpt>
      <trkpt lat="45.37665" lon="5.13421">
        <ele>370</ele>
        <time>2021-10-10T10:04:52.965Z</time>
      </trkpt>
      <trkpt lat="45.37663" lon="5.13412">
        <ele>370</ele>
        <time>2021-10-10T10:04:57.970Z</time>
      </trkpt>
      <trkpt lat="45.37661" lon="5.13405">
        <ele>370</ele>
        <time>2021-10-10T10:05:02.967Z</time>
      </trkpt>
      <trkpt lat="45.37659" lon="5.13399">
        <ele>366</ele>
        <time>2021-10-10T10:05:07.962Z</time>
      </trkpt>
      <trkpt lat="45.37658" lon="5.13393">
        <ele>366</ele>
        <time>2021-10-10T10:05:11.970Z</time>
      </trkpt>
      <trkpt lat="45.37656" lon="5.13386">
        <ele>366</ele>
        <time>2021-10-10T10:05:16.958Z</time>
      </trkpt>
      <trkpt lat="45.37654" lon="5.13381">
        <ele>366</ele>
        <time>2021-10-10T10:05:20.967Z</time>
      </trkpt>
      <trkpt lat="45.37654" lon="5.13374">
        <ele>362</ele>
        <time>2021-10-10T10:05:25.971Z</time>
      </trkpt>
      <trkpt lat="45.37654" lon="5.13367">
        <ele>362</ele>
        <time>2021-10-10T10:05:30.972Z</time>
      </trkpt>
      <trkpt lat="45.37653" lon="5.1336">
        <ele>362</ele>
        <time>2021-10-10T10:05:35.975Z</time>
      </trkpt>
      <trkpt lat="45.37659" lon="5.13352">
        <ele>362</ele>
        <time>2021-10-10T10:06:09.970Z</time>
      </trkpt>
      <trkpt lat="45.37662" lon="5.13351">
        <ele>362</ele>
        <time>2021-10-10T10:06:13.966Z</time>
      </trkpt>
      <trkpt lat="45.37667" lon="5.13348">
        <ele>362</ele>
        <time>2021-10-10T10:06:18.958Z</time>
      </trkpt>
      <trkpt lat="45.37672" lon="5.13348">
        <ele>362</ele>
        <time>2021-10-10T10:06:22.965Z</time>
      </trkpt>
      <trkpt lat="45.37678" lon="5.13346">
        <ele>359</ele>
        <time>2021-10-10T10:06:27.966Z</time>
      </trkpt>
      <trkpt lat="45.37685" lon="5.13349">
        <ele>360</ele>
        <time>2021-10-10T10:06:55.971Z</time>
      </trkpt>
      <trkpt lat="45.37684" lon="5.13355">
        <ele>360</ele>
        <time>2021-10-10T10:07:00.964Z</time>
      </trkpt>
      <trkpt lat="45.37688" lon="5.13359">
        <ele>360</ele>
        <time>2021-10-10T10:07:04.970Z</time>
      </trkpt>
      <trkpt lat="45.37693" lon="5.13355">
        <ele>360</ele>
        <time>2021-10-10T10:07:09.980Z</time>
      </trkpt>
      <trkpt lat="45.37697" lon="5.13351">
        <ele>360</ele>
        <time>2021-10-10T10:07:14.959Z</time>
      </trkpt>
      <trkpt lat="45.37701" lon="5.13348">
        <ele>360</ele>
        <time>2021-10-10T10:07:18.967Z</time>
      </trkpt>
      <trkpt lat="45.37706" lon="5.13345">
        <ele>357</ele>
        <time>2021-10-10T10:07:22.965Z</time>
      </trkpt>
      <trkpt lat="45.3771" lon="5.13341">
        <ele>355</ele>
        <time>2021-10-10T10:07:27.967Z</time>
      </trkpt>
      <trkpt lat="45.37715" lon="5.13336">
        <ele>355</ele>
        <time>2021-10-10T10:07:32.967Z</time>
      </trkpt>
      <trkpt lat="45.37721" lon="5.13333">
        <ele>355</ele>
        <time>2021-10-10T10:07:37.967Z</time>
      </trkpt>
      <trkpt lat="45.37726" lon="5.13329">
        <ele>355</ele>
        <time>2021-10-10T10:07:42.970Z</time>
      </trkpt>
      <trkpt lat="45.37731" lon="5.13326">
        <ele>355</ele>
        <time>2021-10-10T10:07:47.973Z</time>
      </trkpt>
      <trkpt lat="45.37736" lon="5.13322">
        <ele>356</ele>
        <time>2021-10-10T10:07:52.972Z</time>
      </trkpt>
      <trkpt lat="45.37742" lon="5.13319">
        <ele>353</ele>
        <time>2021-10-10T10:07:57.963Z</time>
      </trkpt>
      <trkpt lat="45.37746" lon="5.13316">
        <ele>353</ele>
        <time>2021-10-10T10:08:01.957Z</time>
      </trkpt>
      <trkpt lat="45.37752" lon="5.13312">
        <ele>353</ele>
        <time>2021-10-10T10:08:06.965Z</time>
      </trkpt>
      <trkpt lat="45.37758" lon="5.13308">
        <ele>353</ele>
        <time>2021-10-10T10:08:11.966Z</time>
      </trkpt>
      <trkpt lat="45.37764" lon="5.13303">
        <ele>355</ele>
        <time>2021-10-10T10:08:16.967Z</time>
      </trkpt>
      <trkpt lat="45.37771" lon="5.13298">
        <ele>355</ele>
        <time>2021-10-10T10:08:21.967Z</time>
      </trkpt>
      <trkpt lat="45.37776" lon="5.13294">
        <ele>355</ele>
        <time>2021-10-10T10:08:25.967Z</time>
      </trkpt>
      <trkpt lat="45.37782" lon="5.13289">
        <ele>353</ele>
        <time>2021-10-10T10:08:30.963Z</time>
      </trkpt>
      <trkpt lat="45.37788" lon="5.13286">
        <ele>353</ele>
        <time>2021-10-10T10:08:34.963Z</time>
      </trkpt>
      <trkpt lat="45.37796" lon="5.1328">
        <ele>352</ele>
        <time>2021-10-10T10:08:39.961Z</time>
      </trkpt>
      <trkpt lat="45.37801" lon="5.13275">
        <ele>352</ele>
        <time>2021-10-10T10:08:43.962Z</time>
      </trkpt>
      <trkpt lat="45.37808" lon="5.13268">
        <ele>352</ele>
        <time>2021-10-10T10:08:48.967Z</time>
      </trkpt>
      <trkpt lat="45.37813" lon="5.13264">
        <ele>351</ele>
        <time>2021-10-10T10:08:52.965Z</time>
      </trkpt>
      <trkpt lat="45.3782" lon="5.13257">
        <ele>350</ele>
        <time>2021-10-10T10:08:57.969Z</time>
      </trkpt>
      <trkpt lat="45.37826" lon="5.13251">
        <ele>350</ele>
        <time>2021-10-10T10:09:01.970Z</time>
      </trkpt>
      <trkpt lat="45.37832" lon="5.13244">
        <ele>350</ele>
        <time>2021-10-10T10:09:05.971Z</time>
      </trkpt>
      <trkpt lat="45.37845" lon="5.13235">
        <ele>351</ele>
        <time>2021-10-10T10:09:10.974Z</time>
      </trkpt>
      <trkpt lat="45.37854" lon="5.13228">
        <ele>351</ele>
        <time>2021-10-10T10:09:15.968Z</time>
      </trkpt>
      <trkpt lat="45.3786" lon="5.13223">
        <ele>351</ele>
        <time>2021-10-10T10:09:20.968Z</time>
      </trkpt>
      <trkpt lat="45.37866" lon="5.13219">
        <ele>351</ele>
        <time>2021-10-10T10:09:25.969Z</time>
      </trkpt>
      <trkpt lat="45.37872" lon="5.13214">
        <ele>351</ele>
        <time>2021-10-10T10:09:30.972Z</time>
      </trkpt>
      <trkpt lat="45.37879" lon="5.13208">
        <ele>352</ele>
        <time>2021-10-10T10:09:35.964Z</time>
      </trkpt>
      <trkpt lat="45.37885" lon="5.13206">
        <ele>352</ele>
        <time>2021-10-10T10:09:40.970Z</time>
      </trkpt>
      <trkpt lat="45.37891" lon="5.132">
        <ele>352</ele>
        <time>2021-10-10T10:09:45.970Z</time>
      </trkpt>
      <trkpt lat="45.37897" lon="5.13197">
        <ele>352</ele>
        <time>2021-10-10T10:09:50.969Z</time>
      </trkpt>
      <trkpt lat="45.37904" lon="5.13195">
        <ele>354</ele>
        <time>2021-10-10T10:09:55.971Z</time>
      </trkpt>
      <trkpt lat="45.3791" lon="5.13191">
        <ele>354</ele>
        <time>2021-10-10T10:10:00.969Z</time>
      </trkpt>
      <trkpt lat="45.37917" lon="5.13186">
        <ele>354</ele>
        <time>2021-10-10T10:10:05.961Z</time>
      </trkpt>
      <trkpt lat="45.37921" lon="5.13182">
        <ele>354</ele>
        <time>2021-10-10T10:10:09.968Z</time>
      </trkpt>
      <trkpt lat="45.37927" lon="5.1318">
        <ele>353</ele>
        <time>2021-10-10T10:10:13.971Z</time>
      </trkpt>
      <trkpt lat="45.37933" lon="5.13178">
        <ele>353</ele>
        <time>2021-10-10T10:10:18.977Z</time>
      </trkpt>
      <trkpt lat="45.37939" lon="5.13174">
        <ele>353</ele>
        <time>2021-10-10T10:10:23.974Z</time>
      </trkpt>
      <trkpt lat="45.37946" lon="5.13168">
        <ele>353</ele>
        <time>2021-10-10T10:10:28.965Z</time>
      </trkpt>
      <trkpt lat="45.37952" lon="5.13162">
        <ele>353</ele>
        <time>2021-10-10T10:10:33.965Z</time>
      </trkpt>
      <trkpt lat="45.3796" lon="5.13156">
        <ele>352</ele>
        <time>2021-10-10T10:10:38.964Z</time>
      </trkpt>
      <trkpt lat="45.37965" lon="5.13153">
        <ele>352</ele>
        <time>2021-10-10T10:10:42.971Z</time>
      </trkpt>
      <trkpt lat="45.37971" lon="5.13148">
        <ele>351</ele>
        <time>2021-10-10T10:10:47.973Z</time>
      </trkpt>
      <trkpt lat="45.37977" lon="5.13144">
        <ele>351</ele>
        <time>2021-10-10T10:10:52.963Z</time>
      </trkpt>
      <trkpt lat="45.37984" lon="5.1314">
        <ele>351</ele>
        <time>2021-10-10T10:10:57.954Z</time>
      </trkpt>
      <trkpt lat="45.3799" lon="5.13137">
        <ele>351</ele>
        <time>2021-10-10T10:11:01.960Z</time>
      </trkpt>
      <trkpt lat="45.37998" lon="5.13135">
        <ele>351</ele>
        <time>2021-10-10T10:11:06.963Z</time>
      </trkpt>
      <trkpt lat="45.38005" lon="5.13132">
        <ele>351</ele>
        <time>2021-10-10T10:11:11.968Z</time>
      </trkpt>
      <trkpt lat="45.38011" lon="5.1313">
        <ele>351</ele>
        <time>2021-10-10T10:11:15.967Z</time>
      </trkpt>
      <trkpt lat="45.38018" lon="5.13131">
        <ele>352</ele>
        <time>2021-10-10T10:11:20.964Z</time>
      </trkpt>
      <trkpt lat="45.38029" lon="5.13127">
        <ele>352</ele>
        <time>2021-10-10T10:11:25.967Z</time>
      </trkpt>
      <trkpt lat="45.3804" lon="5.13124">
        <ele>352</ele>
        <time>2021-10-10T10:11:30.969Z</time>
      </trkpt>
      <trkpt lat="45.38047" lon="5.13121">
        <ele>353</ele>
        <time>2021-10-10T10:11:35.963Z</time>
      </trkpt>
      <trkpt lat="45.38053" lon="5.13119">
        <ele>353</ele>
        <time>2021-10-10T10:11:39.970Z</time>
      </trkpt>
      <trkpt lat="45.3806" lon="5.13117">
        <ele>353</ele>
        <time>2021-10-10T10:11:43.965Z</time>
      </trkpt>
      <trkpt lat="45.38068" lon="5.13114">
        <ele>353</ele>
        <time>2021-10-10T10:11:48.968Z</time>
      </trkpt>
      <trkpt lat="45.38074" lon="5.13111">
        <ele>352</ele>
        <time>2021-10-10T10:11:53.976Z</time>
      </trkpt>
      <trkpt lat="45.38081" lon="5.13109">
        <ele>352</ele>
        <time>2021-10-10T10:11:58.976Z</time>
      </trkpt>
      <trkpt lat="45.38087" lon="5.13106">
        <ele>352</ele>
        <time>2021-10-10T10:12:03.968Z</time>
      </trkpt>
      <trkpt lat="45.38092" lon="5.13105">
        <ele>352</ele>
        <time>2021-10-10T10:12:07.984Z</time>
      </trkpt>
      <trkpt lat="45.38099" lon="5.13103">
        <ele>352</ele>
        <time>2021-10-10T10:12:12.969Z</time>
      </trkpt>
      <trkpt lat="45.38106" lon="5.131">
        <ele>352</ele>
        <time>2021-10-10T10:12:17.983Z</time>
      </trkpt>
      <trkpt lat="45.38113" lon="5.13098">
        <ele>352</ele>
        <time>2021-10-10T10:12:22.971Z</time>
      </trkpt>
      <trkpt lat="45.38119" lon="5.13095">
        <ele>352</ele>
        <time>2021-10-10T10:12:27.965Z</time>
      </trkpt>
      <trkpt lat="45.38124" lon="5.13093">
        <ele>352</ele>
        <time>2021-10-10T10:12:31.968Z</time>
      </trkpt>
      <trkpt lat="45.38131" lon="5.13091">
        <ele>352</ele>
        <time>2021-10-10T10:12:36.969Z</time>
      </trkpt>
      <trkpt lat="45.38138" lon="5.13088">
        <ele>352</ele>
        <time>2021-10-10T10:12:41.972Z</time>
      </trkpt>
      <trkpt lat="45.38143" lon="5.13085">
        <ele>352</ele>
        <time>2021-10-10T10:12:45.969Z</time>
      </trkpt>
      <trkpt lat="45.38149" lon="5.13079">
        <ele>352</ele>
        <time>2021-10-10T10:12:50.967Z</time>
      </trkpt>
      <trkpt lat="45.38154" lon="5.13075">
        <ele>353</ele>
        <time>2021-10-10T10:12:54.972Z</time>
      </trkpt>
      <trkpt lat="45.38159" lon="5.1307">
        <ele>353</ele>
        <time>2021-10-10T10:12:59.974Z</time>
      </trkpt>
      <trkpt lat="45.38164" lon="5.13065">
        <ele>353</ele>
        <time>2021-10-10T10:13:04.969Z</time>
      </trkpt>
      <trkpt lat="45.38169" lon="5.13059">
        <ele>353</ele>
        <time>2021-10-10T10:13:09.967Z</time>
      </trkpt>
      <trkpt lat="45.38174" lon="5.13052">
        <ele>353</ele>
        <time>2021-10-10T10:13:14.966Z</time>
      </trkpt>
      <trkpt lat="45.38179" lon="5.13047">
        <ele>353</ele>
        <time>2021-10-10T10:13:18.968Z</time>
      </trkpt>
      <trkpt lat="45.38184" lon="5.1304">
        <ele>353</ele>
        <time>2021-10-10T10:13:23.975Z</time>
      </trkpt>
      <trkpt lat="45.3819" lon="5.13032">
        <ele>353</ele>
        <time>2021-10-10T10:13:28.962Z</time>
      </trkpt>
      <trkpt lat="45.38196" lon="5.13024">
        <ele>353</ele>
        <time>2021-10-10T10:13:33.958Z</time>
      </trkpt>
      <trkpt lat="45.38202" lon="5.13017">
        <ele>353</ele>
        <time>2021-10-10T10:13:38.967Z</time>
      </trkpt>
      <trkpt lat="45.38208" lon="5.1301">
        <ele>352</ele>
        <time>2021-10-10T10:13:43.958Z</time>
      </trkpt>
      <trkpt lat="45.38212" lon="5.13005">
        <ele>351</ele>
        <time>2021-10-10T10:13:47.968Z</time>
      </trkpt>
      <trkpt lat="45.38218" lon="5.12996">
        <ele>351</ele>
        <time>2021-10-10T10:13:52.958Z</time>
      </trkpt>
      <trkpt lat="45.38223" lon="5.1299">
        <ele>351</ele>
        <time>2021-10-10T10:13:57.959Z</time>
      </trkpt>
      <trkpt lat="45.38227" lon="5.12987">
        <ele>351</ele>
        <time>2021-10-10T10:14:01.962Z</time>
      </trkpt>
      <trkpt lat="45.38234" lon="5.12981">
        <ele>350</ele>
        <time>2021-10-10T10:14:06.964Z</time>
      </trkpt>
      <trkpt lat="45.3824" lon="5.12976">
        <ele>350</ele>
        <time>2021-10-10T10:14:11.959Z</time>
      </trkpt>
      <trkpt lat="45.38246" lon="5.12975">
        <ele>350</ele>
        <time>2021-10-10T10:14:15.964Z</time>
      </trkpt>
      <trkpt lat="45.38252" lon="5.12974">
        <ele>350</ele>
        <time>2021-10-10T10:14:19.967Z</time>
      </trkpt>
      <trkpt lat="45.38259" lon="5.12969">
        <ele>350</ele>
        <time>2021-10-10T10:14:24.969Z</time>
      </trkpt>
      <trkpt lat="45.38266" lon="5.12974">
        <ele>351</ele>
        <time>2021-10-10T10:14:28.963Z</time>
      </trkpt>
      <trkpt lat="45.38281" lon="5.12986">
        <ele>351</ele>
        <time>2021-10-10T10:14:33.964Z</time>
      </trkpt>
      <trkpt lat="45.38286" lon="5.12992">
        <ele>351</ele>
        <time>2021-10-10T10:14:38.959Z</time>
      </trkpt>
      <trkpt lat="45.38291" lon="5.12994">
        <ele>351</ele>
        <time>2021-10-10T10:14:42.959Z</time>
      </trkpt>
      <trkpt lat="45.38295" lon="5.13">
        <ele>351</ele>
        <time>2021-10-10T10:14:46.958Z</time>
      </trkpt>
      <trkpt lat="45.38299" lon="5.13005">
        <ele>351</ele>
        <time>2021-10-10T10:14:50.962Z</time>
      </trkpt>
      <trkpt lat="45.38304" lon="5.13012">
        <ele>351</ele>
        <time>2021-10-10T10:14:55.959Z</time>
      </trkpt>
      <trkpt lat="45.38308" lon="5.13018">
        <ele>351</ele>
        <time>2021-10-10T10:15:00.965Z</time>
      </trkpt>
      <trkpt lat="45.38313" lon="5.13026">
        <ele>351</ele>
        <time>2021-10-10T10:15:05.962Z</time>
      </trkpt>
      <trkpt lat="45.38317" lon="5.13032">
        <ele>351</ele>
        <time>2021-10-10T10:15:10.970Z</time>
      </trkpt>
      <trkpt lat="45.38322" lon="5.13041">
        <ele>351</ele>
        <time>2021-10-10T10:15:15.958Z</time>
      </trkpt>
      <trkpt lat="45.38326" lon="5.1305">
        <ele>351</ele>
        <time>2021-10-10T10:15:20.956Z</time>
      </trkpt>
      <trkpt lat="45.3833" lon="5.13059">
        <ele>351</ele>
        <time>2021-10-10T10:15:25.966Z</time>
      </trkpt>
      <trkpt lat="45.38336" lon="5.13067">
        <ele>351</ele>
        <time>2021-10-10T10:15:30.962Z</time>
      </trkpt>
      <trkpt lat="45.38339" lon="5.13074">
        <ele>351</ele>
        <time>2021-10-10T10:15:34.964Z</time>
      </trkpt>
      <trkpt lat="45.38344" lon="5.13082">
        <ele>351</ele>
        <time>2021-10-10T10:15:39.968Z</time>
      </trkpt>
      <trkpt lat="45.38347" lon="5.13087">
        <ele>351</ele>
        <time>2021-10-10T10:15:43.958Z</time>
      </trkpt>
      <trkpt lat="45.38352" lon="5.13096">
        <ele>351</ele>
        <time>2021-10-10T10:15:48.962Z</time>
      </trkpt>
      <trkpt lat="45.3836" lon="5.13105">
        <ele>351</ele>
        <time>2021-10-10T10:15:53.958Z</time>
      </trkpt>
      <trkpt lat="45.38366" lon="5.13115">
        <ele>351</ele>
        <time>2021-10-10T10:15:58.957Z</time>
      </trkpt>
      <trkpt lat="45.38381" lon="5.13121">
        <ele>351</ele>
        <time>2021-10-10T10:16:03.966Z</time>
      </trkpt>
      <trkpt lat="45.38392" lon="5.13129">
        <ele>351</ele>
        <time>2021-10-10T10:16:08.028Z</time>
      </trkpt>
      <trkpt lat="45.384" lon="5.13123">
        <ele>351</ele>
        <time>2021-10-10T10:16:12.964Z</time>
      </trkpt>
      <trkpt lat="45.38406" lon="5.13122">
        <ele>350</ele>
        <time>2021-10-10T10:16:17.019Z</time>
      </trkpt>
      <trkpt lat="45.38412" lon="5.13123">
        <ele>350</ele>
        <time>2021-10-10T10:16:21.999Z</time>
      </trkpt>
      <trkpt lat="45.3842" lon="5.13123">
        <ele>350</ele>
        <time>2021-10-10T10:16:27.003Z</time>
      </trkpt>
      <trkpt lat="45.38429" lon="5.13128">
        <ele>351</ele>
        <time>2021-10-10T10:16:32.029Z</time>
      </trkpt>
      <trkpt lat="45.38438" lon="5.13133">
        <ele>350</ele>
        <time>2021-10-10T10:16:36.994Z</time>
      </trkpt>
      <trkpt lat="45.3845" lon="5.1314">
        <ele>350</ele>
        <time>2021-10-10T10:16:41.045Z</time>
      </trkpt>
      <trkpt lat="45.38469" lon="5.13146">
        <ele>351</ele>
        <time>2021-10-10T10:16:46.004Z</time>
      </trkpt>
      <trkpt lat="45.38488" lon="5.13145">
        <ele>352</ele>
        <time>2021-10-10T10:16:50.045Z</time>
      </trkpt>
      <trkpt lat="45.385" lon="5.13148">
        <ele>352</ele>
        <time>2021-10-10T10:16:54.996Z</time>
      </trkpt>
      <trkpt lat="45.38516" lon="5.13153">
        <ele>351</ele>
        <time>2021-10-10T10:16:59.011Z</time>
      </trkpt>
      <trkpt lat="45.38541" lon="5.13167">
        <ele>351</ele>
        <time>2021-10-10T10:17:04.007Z</time>
      </trkpt>
      <trkpt lat="45.38558" lon="5.13179">
        <ele>351</ele>
        <time>2021-10-10T10:17:09.009Z</time>
      </trkpt>
      <trkpt lat="45.38567" lon="5.1319">
        <ele>351</ele>
        <time>2021-10-10T10:17:13.017Z</time>
      </trkpt>
      <trkpt lat="45.38573" lon="5.13196">
        <ele>351</ele>
        <time>2021-10-10T10:17:17.996Z</time>
      </trkpt>
      <trkpt lat="45.38579" lon="5.13199">
        <ele>351</ele>
        <time>2021-10-10T10:17:23Z</time>
      </trkpt>
      <trkpt lat="45.38586" lon="5.13204">
        <ele>351</ele>
        <time>2021-10-10T10:17:28.003Z</time>
      </trkpt>
      <trkpt lat="45.38591" lon="5.1321">
        <ele>352</ele>
        <time>2021-10-10T10:17:32.992Z</time>
      </trkpt>
      <trkpt lat="45.38599" lon="5.13215">
        <ele>352</ele>
        <time>2021-10-10T10:17:37.991Z</time>
      </trkpt>
      <trkpt lat="45.38606" lon="5.13221">
        <ele>352</ele>
        <time>2021-10-10T10:17:42.967Z</time>
      </trkpt>
      <trkpt lat="45.38613" lon="5.13226">
        <ele>352</ele>
        <time>2021-10-10T10:17:48.005Z</time>
      </trkpt>
      <trkpt lat="45.3862" lon="5.13232">
        <ele>352</ele>
        <time>2021-10-10T10:17:52.993Z</time>
      </trkpt>
      <trkpt lat="45.38626" lon="5.13237">
        <ele>353</ele>
        <time>2021-10-10T10:17:57.994Z</time>
      </trkpt>
      <trkpt lat="45.38633" lon="5.13243">
        <ele>353</ele>
        <time>2021-10-10T10:18:02.966Z</time>
      </trkpt>
      <trkpt lat="45.38638" lon="5.13246">
        <ele>353</ele>
        <time>2021-10-10T10:18:06.997Z</time>
      </trkpt>
      <trkpt lat="45.38644" lon="5.1325">
        <ele>353</ele>
        <time>2021-10-10T10:18:11.971Z</time>
      </trkpt>
      <trkpt lat="45.38649" lon="5.13255">
        <ele>353</ele>
        <time>2021-10-10T10:18:16.025Z</time>
      </trkpt>
      <trkpt lat="45.38654" lon="5.13263">
        <ele>352</ele>
        <time>2021-10-10T10:18:21.009Z</time>
      </trkpt>
      <trkpt lat="45.3866" lon="5.13271">
        <ele>352</ele>
        <time>2021-10-10T10:18:26.003Z</time>
      </trkpt>
      <trkpt lat="45.38665" lon="5.13279">
        <ele>352</ele>
        <time>2021-10-10T10:18:31.032Z</time>
      </trkpt>
      <trkpt lat="45.3867" lon="5.13285">
        <ele>352</ele>
        <time>2021-10-10T10:18:36.009Z</time>
      </trkpt>
      <trkpt lat="45.38676" lon="5.13292">
        <ele>352</ele>
        <time>2021-10-10T10:18:40.990Z</time>
      </trkpt>
      <trkpt lat="45.38681" lon="5.13297">
        <ele>353</ele>
        <time>2021-10-10T10:18:45.017Z</time>
      </trkpt>
      <trkpt lat="45.38687" lon="5.13304">
        <ele>353</ele>
        <time>2021-10-10T10:18:49.990Z</time>
      </trkpt>
      <trkpt lat="45.38691" lon="5.1331">
        <ele>353</ele>
        <time>2021-10-10T10:18:54.029Z</time>
      </trkpt>
      <trkpt lat="45.38695" lon="5.13319">
        <ele>353</ele>
        <time>2021-10-10T10:18:58.997Z</time>
      </trkpt>
      <trkpt lat="45.38706" lon="5.13328">
        <ele>353</ele>
        <time>2021-10-10T10:19:03.024Z</time>
      </trkpt>
      <trkpt lat="45.38722" lon="5.13343">
        <ele>354</ele>
        <time>2021-10-10T10:19:08.001Z</time>
      </trkpt>
      <trkpt lat="45.38739" lon="5.13358">
        <ele>353</ele>
        <time>2021-10-10T10:19:12.966Z</time>
      </trkpt>
      <trkpt lat="45.38754" lon="5.13368">
        <ele>353</ele>
        <time>2021-10-10T10:19:17.006Z</time>
      </trkpt>
      <trkpt lat="45.38768" lon="5.1338">
        <ele>353</ele>
        <time>2021-10-10T10:19:21.026Z</time>
      </trkpt>
      <trkpt lat="45.38787" lon="5.13393">
        <ele>353</ele>
        <time>2021-10-10T10:19:25.999Z</time>
      </trkpt>
      <trkpt lat="45.38806" lon="5.1341">
        <ele>354</ele>
        <time>2021-10-10T10:19:30.998Z</time>
      </trkpt>
      <trkpt lat="45.38822" lon="5.13425">
        <ele>354</ele>
        <time>2021-10-10T10:19:35.004Z</time>
      </trkpt>
      <trkpt lat="45.38843" lon="5.13444">
        <ele>354</ele>
        <time>2021-10-10T10:19:39.998Z</time>
      </trkpt>
      <trkpt lat="45.38857" lon="5.13457">
        <ele>354</ele>
        <time>2021-10-10T10:19:45.011Z</time>
      </trkpt>
      <trkpt lat="45.38863" lon="5.13458">
        <ele>354</ele>
        <time>2021-10-10T10:19:50Z</time>
      </trkpt>
      <trkpt lat="45.3887" lon="5.13462">
        <ele>355</ele>
        <time>2021-10-10T10:19:54.977Z</time>
      </trkpt>
      <trkpt lat="45.38875" lon="5.13467">
        <ele>355</ele>
        <time>2021-10-10T10:19:58.999Z</time>
      </trkpt>
      <trkpt lat="45.38881" lon="5.13472">
        <ele>355</ele>
        <time>2021-10-10T10:20:03.011Z</time>
      </trkpt>
      <trkpt lat="45.38888" lon="5.13478">
        <ele>355</ele>
        <time>2021-10-10T10:20:07.986Z</time>
      </trkpt>
      <trkpt lat="45.38901" lon="5.13488">
        <ele>356</ele>
        <time>2021-10-10T10:20:12.965Z</time>
      </trkpt>
      <trkpt lat="45.38907" lon="5.13493">
        <ele>355</ele>
        <time>2021-10-10T10:20:17.005Z</time>
      </trkpt>
      <trkpt lat="45.38915" lon="5.135">
        <ele>355</ele>
        <time>2021-10-10T10:20:21.991Z</time>
      </trkpt>
      <trkpt lat="45.3892" lon="5.13506">
        <ele>355</ele>
        <time>2021-10-10T10:20:26.001Z</time>
      </trkpt>
      <trkpt lat="45.38926" lon="5.1351">
        <ele>355</ele>
        <time>2021-10-10T10:20:30.003Z</time>
      </trkpt>
      <trkpt lat="45.38933" lon="5.13516">
        <ele>356</ele>
        <time>2021-10-10T10:20:34.996Z</time>
      </trkpt>
      <trkpt lat="45.38939" lon="5.13521">
        <ele>356</ele>
        <time>2021-10-10T10:20:39.005Z</time>
      </trkpt>
      <trkpt lat="45.38944" lon="5.13525">
        <ele>356</ele>
        <time>2021-10-10T10:20:43.012Z</time>
      </trkpt>
      <trkpt lat="45.38951" lon="5.13531">
        <ele>356</ele>
        <time>2021-10-10T10:20:48.013Z</time>
      </trkpt>
      <trkpt lat="45.38959" lon="5.13538">
        <ele>356</ele>
        <time>2021-10-10T10:20:52.030Z</time>
      </trkpt>
      <trkpt lat="45.38963" lon="5.13544">
        <ele>356</ele>
        <time>2021-10-10T10:20:56.998Z</time>
      </trkpt>
      <trkpt lat="45.38967" lon="5.1355">
        <ele>356</ele>
        <time>2021-10-10T10:21:01.012Z</time>
      </trkpt>
      <trkpt lat="45.38975" lon="5.13556">
        <ele>356</ele>
        <time>2021-10-10T10:21:05.966Z</time>
      </trkpt>
      <trkpt lat="45.3898" lon="5.1356">
        <ele>356</ele>
        <time>2021-10-10T10:21:09.971Z</time>
      </trkpt>
      <trkpt lat="45.38989" lon="5.13565">
        <ele>355</ele>
        <time>2021-10-10T10:21:14.999Z</time>
      </trkpt>
      <trkpt lat="45.39007" lon="5.13579">
        <ele>356</ele>
        <time>2021-10-10T10:21:20.007Z</time>
      </trkpt>
      <trkpt lat="45.39021" lon="5.13587">
        <ele>356</ele>
        <time>2021-10-10T10:21:24.998Z</time>
      </trkpt>
      <trkpt lat="45.39032" lon="5.13593">
        <ele>356</ele>
        <time>2021-10-10T10:21:29.006Z</time>
      </trkpt>
      <trkpt lat="45.39041" lon="5.13599">
        <ele>357</ele>
        <time>2021-10-10T10:21:33.996Z</time>
      </trkpt>
      <trkpt lat="45.39048" lon="5.13604">
        <ele>356</ele>
        <time>2021-10-10T10:21:38.986Z</time>
      </trkpt>
      <trkpt lat="45.39054" lon="5.13608">
        <ele>356</ele>
        <time>2021-10-10T10:21:43.005Z</time>
      </trkpt>
      <trkpt lat="45.39061" lon="5.13613">
        <ele>356</ele>
        <time>2021-10-10T10:21:47.977Z</time>
      </trkpt>
      <trkpt lat="45.39066" lon="5.13621">
        <ele>356</ele>
        <time>2021-10-10T10:21:52.975Z</time>
      </trkpt>
      <trkpt lat="45.39071" lon="5.13624">
        <ele>356</ele>
        <time>2021-10-10T10:21:56.993Z</time>
      </trkpt>
      <trkpt lat="45.39076" lon="5.13629">
        <ele>357</ele>
        <time>2021-10-10T10:22:01.026Z</time>
      </trkpt>
      <trkpt lat="45.39082" lon="5.13634">
        <ele>357</ele>
        <time>2021-10-10T10:22:06.001Z</time>
      </trkpt>
      <trkpt lat="45.39086" lon="5.1364">
        <ele>357</ele>
        <time>2021-10-10T10:22:10.993Z</time>
      </trkpt>
      <trkpt lat="45.39091" lon="5.13643">
        <ele>357</ele>
        <time>2021-10-10T10:22:15.992Z</time>
      </trkpt>
      <trkpt lat="45.39109" lon="5.13644">
        <ele>357</ele>
        <time>2021-10-10T10:23:55.993Z</time>
      </trkpt>
      <trkpt lat="45.39114" lon="5.13637">
        <ele>357</ele>
        <time>2021-10-10T10:24:00.005Z</time>
      </trkpt>
      <trkpt lat="45.39117" lon="5.13632">
        <ele>357</ele>
        <time>2021-10-10T10:24:04.002Z</time>
      </trkpt>
      <trkpt lat="45.39121" lon="5.13627">
        <ele>357</ele>
        <time>2021-10-10T10:24:08.027Z</time>
      </trkpt>
      <trkpt lat="45.39125" lon="5.13623">
        <ele>356</ele>
        <time>2021-10-10T10:24:13Z</time>
      </trkpt>
      <trkpt lat="45.39129" lon="5.13615">
        <ele>356</ele>
        <time>2021-10-10T10:24:18.013Z</time>
      </trkpt>
      <trkpt lat="45.39135" lon="5.13613">
        <ele>356</ele>
        <time>2021-10-10T10:24:23.004Z</time>
      </trkpt>
      <trkpt lat="45.39141" lon="5.1361">
        <ele>356</ele>
        <time>2021-10-10T10:24:27.993Z</time>
      </trkpt>
      <trkpt lat="45.39145" lon="5.13605">
        <ele>356</ele>
        <time>2021-10-10T10:24:32Z</time>
      </trkpt>
      <trkpt lat="45.39145" lon="5.13597">
        <ele>356</ele>
        <time>2021-10-10T10:24:36.009Z</time>
      </trkpt>
      <trkpt lat="45.39144" lon="5.1359">
        <ele>356</ele>
        <time>2021-10-10T10:24:40.031Z</time>
      </trkpt>
      <trkpt lat="45.3914" lon="5.13581">
        <ele>356</ele>
        <time>2021-10-10T10:24:44.964Z</time>
      </trkpt>
      <trkpt lat="45.39139" lon="5.13574">
        <ele>356</ele>
        <time>2021-10-10T10:24:49.042Z</time>
      </trkpt>
      <trkpt lat="45.39137" lon="5.13567">
        <ele>357</ele>
        <time>2021-10-10T10:24:53.052Z</time>
      </trkpt>
      <trkpt lat="45.39135" lon="5.13558">
        <ele>357</ele>
        <time>2021-10-10T10:24:58.033Z</time>
      </trkpt>
      <trkpt lat="45.39134" lon="5.1355">
        <ele>357</ele>
        <time>2021-10-10T10:25:02.049Z</time>
      </trkpt>
      <trkpt lat="45.39132" lon="5.1354">
        <ele>358</ele>
        <time>2021-10-10T10:25:06.990Z</time>
      </trkpt>
      <trkpt lat="45.39132" lon="5.13531">
        <ele>358</ele>
        <time>2021-10-10T10:25:11.005Z</time>
      </trkpt>
      <trkpt lat="45.39132" lon="5.13521">
        <ele>358</ele>
        <time>2021-10-10T10:25:16.030Z</time>
      </trkpt>
      <trkpt lat="45.39131" lon="5.1351">
        <ele>358</ele>
        <time>2021-10-10T10:25:20.961Z</time>
      </trkpt>
      <trkpt lat="45.3913" lon="5.13501">
        <ele>358</ele>
        <time>2021-10-10T10:25:24.995Z</time>
      </trkpt>
      <trkpt lat="45.3913" lon="5.1349">
        <ele>358</ele>
        <time>2021-10-10T10:25:29.999Z</time>
      </trkpt>
      <trkpt lat="45.3913" lon="5.13481">
        <ele>358</ele>
        <time>2021-10-10T10:25:33.997Z</time>
      </trkpt>
      <trkpt lat="45.3913" lon="5.13472">
        <ele>358</ele>
        <time>2021-10-10T10:25:38.024Z</time>
      </trkpt>
      <trkpt lat="45.3913" lon="5.13462">
        <ele>358</ele>
        <time>2021-10-10T10:25:42.997Z</time>
      </trkpt>
      <trkpt lat="45.3913" lon="5.13452">
        <ele>358</ele>
        <time>2021-10-10T10:25:48.011Z</time>
      </trkpt>
      <trkpt lat="45.3913" lon="5.13441">
        <ele>358</ele>
        <time>2021-10-10T10:25:52.993Z</time>
      </trkpt>
      <trkpt lat="45.39131" lon="5.13431">
        <ele>358</ele>
        <time>2021-10-10T10:25:57.990Z</time>
      </trkpt>
      <trkpt lat="45.39132" lon="5.13421">
        <ele>358</ele>
        <time>2021-10-10T10:26:02.973Z</time>
      </trkpt>
      <trkpt lat="45.39132" lon="5.13413">
        <ele>358</ele>
        <time>2021-10-10T10:26:06.990Z</time>
      </trkpt>
      <trkpt lat="45.39132" lon="5.13403">
        <ele>358</ele>
        <time>2021-10-10T10:26:12.036Z</time>
      </trkpt>
      <trkpt lat="45.39132" lon="5.13393">
        <ele>358</ele>
        <time>2021-10-10T10:26:16.998Z</time>
      </trkpt>
      <trkpt lat="45.39133" lon="5.13383">
        <ele>358</ele>
        <time>2021-10-10T10:26:21.990Z</time>
      </trkpt>
      <trkpt lat="45.39134" lon="5.13375">
        <ele>358</ele>
        <time>2021-10-10T10:26:25.995Z</time>
      </trkpt>
      <trkpt lat="45.39134" lon="5.13364">
        <ele>358</ele>
        <time>2021-10-10T10:26:31.001Z</time>
      </trkpt>
      <trkpt lat="45.39134" lon="5.13356">
        <ele>358</ele>
        <time>2021-10-10T10:26:35.002Z</time>
      </trkpt>
      <trkpt lat="45.39135" lon="5.13346">
        <ele>358</ele>
        <time>2021-10-10T10:26:40.039Z</time>
      </trkpt>
      <trkpt lat="45.39135" lon="5.13335">
        <ele>358</ele>
        <time>2021-10-10T10:26:44.994Z</time>
      </trkpt>
      <trkpt lat="45.39136" lon="5.13327">
        <ele>358</ele>
        <time>2021-10-10T10:26:49.056Z</time>
      </trkpt>
      <trkpt lat="45.39136" lon="5.13316">
        <ele>358</ele>
        <time>2021-10-10T10:26:54.030Z</time>
      </trkpt>
      <trkpt lat="45.39137" lon="5.13307">
        <ele>358</ele>
        <time>2021-10-10T10:26:59.003Z</time>
      </trkpt>
      <trkpt lat="45.39137" lon="5.13299">
        <ele>358</ele>
        <time>2021-10-10T10:27:03.033Z</time>
      </trkpt>
      <trkpt lat="45.39137" lon="5.13289">
        <ele>359</ele>
        <time>2021-10-10T10:27:08.002Z</time>
      </trkpt>
      <trkpt lat="45.39138" lon="5.13279">
        <ele>359</ele>
        <time>2021-10-10T10:27:12.997Z</time>
      </trkpt>
      <trkpt lat="45.39138" lon="5.13269">
        <ele>359</ele>
        <time>2021-10-10T10:27:18.035Z</time>
      </trkpt>
      <trkpt lat="45.39138" lon="5.13259">
        <ele>358</ele>
        <time>2021-10-10T10:27:22.998Z</time>
      </trkpt>
      <trkpt lat="45.39138" lon="5.13249">
        <ele>358</ele>
        <time>2021-10-10T10:27:27.985Z</time>
      </trkpt>
      <trkpt lat="45.39138" lon="5.13242">
        <ele>358</ele>
        <time>2021-10-10T10:27:32.027Z</time>
      </trkpt>
      <trkpt lat="45.39138" lon="5.13231">
        <ele>357</ele>
        <time>2021-10-10T10:27:36.997Z</time>
      </trkpt>
      <trkpt lat="45.39139" lon="5.13221">
        <ele>357</ele>
        <time>2021-10-10T10:27:41.975Z</time>
      </trkpt>
      <trkpt lat="45.39139" lon="5.13213">
        <ele>357</ele>
        <time>2021-10-10T10:27:45.998Z</time>
      </trkpt>
      <trkpt lat="45.3914" lon="5.13204">
        <ele>356</ele>
        <time>2021-10-10T10:27:51.001Z</time>
      </trkpt>
      <trkpt lat="45.39145" lon="5.13196">
        <ele>356</ele>
        <time>2021-10-10T10:27:55.998Z</time>
      </trkpt>
      <trkpt lat="45.39153" lon="5.13197">
        <ele>356</ele>
        <time>2021-10-10T10:28:01.003Z</time>
      </trkpt>
      <trkpt lat="45.39159" lon="5.13198">
        <ele>356</ele>
        <time>2021-10-10T10:28:05.064Z</time>
      </trkpt>
      <trkpt lat="45.39166" lon="5.132">
        <ele>356</ele>
        <time>2021-10-10T10:28:09.993Z</time>
      </trkpt>
      <trkpt lat="45.39172" lon="5.13202">
        <ele>356</ele>
        <time>2021-10-10T10:28:14.974Z</time>
      </trkpt>
      <trkpt lat="45.39178" lon="5.13203">
        <ele>356</ele>
        <time>2021-10-10T10:28:18.998Z</time>
      </trkpt>
      <trkpt lat="45.39184" lon="5.13205">
        <ele>357</ele>
        <time>2021-10-10T10:28:23.065Z</time>
      </trkpt>
      <trkpt lat="45.39193" lon="5.13207">
        <ele>357</ele>
        <time>2021-10-10T10:28:27.997Z</time>
      </trkpt>
      <trkpt lat="45.39199" lon="5.1321">
        <ele>357</ele>
        <time>2021-10-10T10:28:32.973Z</time>
      </trkpt>
      <trkpt lat="45.39208" lon="5.13214">
        <ele>357</ele>
        <time>2021-10-10T10:28:38.010Z</time>
      </trkpt>
      <trkpt lat="45.39214" lon="5.13217">
        <ele>358</ele>
        <time>2021-10-10T10:28:43.002Z</time>
      </trkpt>
      <trkpt lat="45.39221" lon="5.13218">
        <ele>358</ele>
        <time>2021-10-10T10:28:48.029Z</time>
      </trkpt>
      <trkpt lat="45.39227" lon="5.13221">
        <ele>358</ele>
        <time>2021-10-10T10:28:53.005Z</time>
      </trkpt>
      <trkpt lat="45.39233" lon="5.13222">
        <ele>358</ele>
        <time>2021-10-10T10:28:57.004Z</time>
      </trkpt>
      <trkpt lat="45.39239" lon="5.13224">
        <ele>359</ele>
        <time>2021-10-10T10:29:02.005Z</time>
      </trkpt>
      <trkpt lat="45.39246" lon="5.13226">
        <ele>359</ele>
        <time>2021-10-10T10:29:07.004Z</time>
      </trkpt>
      <trkpt lat="45.39251" lon="5.13229">
        <ele>359</ele>
        <time>2021-10-10T10:29:11.029Z</time>
      </trkpt>
      <trkpt lat="45.39258" lon="5.13231">
        <ele>359</ele>
        <time>2021-10-10T10:29:16Z</time>
      </trkpt>
      <trkpt lat="45.39264" lon="5.13234">
        <ele>359</ele>
        <time>2021-10-10T10:29:20.995Z</time>
      </trkpt>
      <trkpt lat="45.39272" lon="5.13237">
        <ele>358</ele>
        <time>2021-10-10T10:29:26.006Z</time>
      </trkpt>
      <trkpt lat="45.39278" lon="5.13239">
        <ele>358</ele>
        <time>2021-10-10T10:29:31Z</time>
      </trkpt>
      <trkpt lat="45.39283" lon="5.13241">
        <ele>358</ele>
        <time>2021-10-10T10:29:35.010Z</time>
      </trkpt>
      <trkpt lat="45.39288" lon="5.13243">
        <ele>358</ele>
        <time>2021-10-10T10:29:39.009Z</time>
      </trkpt>
      <trkpt lat="45.39297" lon="5.13245">
        <ele>357</ele>
        <time>2021-10-10T10:29:43.996Z</time>
      </trkpt>
      <trkpt lat="45.39302" lon="5.13248">
        <ele>357</ele>
        <time>2021-10-10T10:29:47.996Z</time>
      </trkpt>
      <trkpt lat="45.39308" lon="5.1325">
        <ele>357</ele>
        <time>2021-10-10T10:29:52.992Z</time>
      </trkpt>
      <trkpt lat="45.39314" lon="5.13252">
        <ele>357</ele>
        <time>2021-10-10T10:29:58.042Z</time>
      </trkpt>
      <trkpt lat="45.3932" lon="5.13256">
        <ele>357</ele>
        <time>2021-10-10T10:30:03.021Z</time>
      </trkpt>
      <trkpt lat="45.39327" lon="5.1326">
        <ele>357</ele>
        <time>2021-10-10T10:30:07.979Z</time>
      </trkpt>
      <trkpt lat="45.39331" lon="5.13263">
        <ele>357</ele>
        <time>2021-10-10T10:30:12.007Z</time>
      </trkpt>
      <trkpt lat="45.39337" lon="5.13268">
        <ele>357</ele>
        <time>2021-10-10T10:30:16.965Z</time>
      </trkpt>
      <trkpt lat="45.39341" lon="5.13272">
        <ele>357</ele>
        <time>2021-10-10T10:30:21.012Z</time>
      </trkpt>
      <trkpt lat="45.39348" lon="5.13277">
        <ele>357</ele>
        <time>2021-10-10T10:30:25.990Z</time>
      </trkpt>
      <trkpt lat="45.39353" lon="5.13282">
        <ele>357</ele>
        <time>2021-10-10T10:30:30.968Z</time>
      </trkpt>
      <trkpt lat="45.39358" lon="5.13286">
        <ele>357</ele>
        <time>2021-10-10T10:30:35.019Z</time>
      </trkpt>
      <trkpt lat="45.39363" lon="5.13291">
        <ele>357</ele>
        <time>2021-10-10T10:30:40.014Z</time>
      </trkpt>
      <trkpt lat="45.39369" lon="5.13296">
        <ele>357</ele>
        <time>2021-10-10T10:30:44.999Z</time>
      </trkpt>
      <trkpt lat="45.39373" lon="5.133">
        <ele>357</ele>
        <time>2021-10-10T10:30:49.027Z</time>
      </trkpt>
      <trkpt lat="45.39379" lon="5.13304">
        <ele>358</ele>
        <time>2021-10-10T10:30:53.995Z</time>
      </trkpt>
      <trkpt lat="45.39385" lon="5.13309">
        <ele>358</ele>
        <time>2021-10-10T10:30:58.961Z</time>
      </trkpt>
      <trkpt lat="45.39389" lon="5.13314">
        <ele>358</ele>
        <time>2021-10-10T10:31:02.964Z</time>
      </trkpt>
      <trkpt lat="45.39393" lon="5.13318">
        <ele>358</ele>
        <time>2021-10-10T10:31:06.994Z</time>
      </trkpt>
      <trkpt lat="45.39398" lon="5.13322">
        <ele>359</ele>
        <time>2021-10-10T10:31:10.996Z</time>
      </trkpt>
      <trkpt lat="45.39403" lon="5.13326">
        <ele>359</ele>
        <time>2021-10-10T10:31:15.008Z</time>
      </trkpt>
      <trkpt lat="45.39408" lon="5.1333">
        <ele>358</ele>
        <time>2021-10-10T10:31:20.028Z</time>
      </trkpt>
      <trkpt lat="45.39413" lon="5.13335">
        <ele>358</ele>
        <time>2021-10-10T10:31:24.045Z</time>
      </trkpt>
      <trkpt lat="45.39419" lon="5.1334">
        <ele>358</ele>
        <time>2021-10-10T10:31:29.023Z</time>
      </trkpt>
      <trkpt lat="45.39424" lon="5.13346">
        <ele>358</ele>
        <time>2021-10-10T10:31:34.005Z</time>
      </trkpt>
      <trkpt lat="45.39429" lon="5.1335">
        <ele>359</ele>
        <time>2021-10-10T10:31:38.034Z</time>
      </trkpt>
      <trkpt lat="45.39435" lon="5.13355">
        <ele>359</ele>
        <time>2021-10-10T10:31:42.995Z</time>
      </trkpt>
      <trkpt lat="45.39439" lon="5.13358">
        <ele>359</ele>
        <time>2021-10-10T10:31:47.004Z</time>
      </trkpt>
      <trkpt lat="45.39444" lon="5.13363">
        <ele>359</ele>
        <time>2021-10-10T10:31:51.030Z</time>
      </trkpt>
      <trkpt lat="45.3945" lon="5.13368">
        <ele>359</ele>
        <time>2021-10-10T10:31:56.003Z</time>
      </trkpt>
      <trkpt lat="45.39454" lon="5.13373">
        <ele>359</ele>
        <time>2021-10-10T10:32:00.013Z</time>
      </trkpt>
      <trkpt lat="45.39458" lon="5.13377">
        <ele>360</ele>
        <time>2021-10-10T10:32:04.041Z</time>
      </trkpt>
      <trkpt lat="45.39464" lon="5.13381">
        <ele>360</ele>
        <time>2021-10-10T10:32:09.001Z</time>
      </trkpt>
      <trkpt lat="45.39469" lon="5.13382">
        <ele>360</ele>
        <time>2021-10-10T10:32:13.019Z</time>
      </trkpt>
      <trkpt lat="45.39475" lon="5.13388">
        <ele>360</ele>
        <time>2021-10-10T10:32:17.951Z</time>
      </trkpt>
      <trkpt lat="45.3948" lon="5.13393">
        <ele>360</ele>
        <time>2021-10-10T10:32:21.980Z</time>
      </trkpt>
      <trkpt lat="45.39485" lon="5.13397">
        <ele>360</ele>
        <time>2021-10-10T10:32:26.013Z</time>
      </trkpt>
      <trkpt lat="45.39491" lon="5.13403">
        <ele>361</ele>
        <time>2021-10-10T10:32:31.004Z</time>
      </trkpt>
      <trkpt lat="45.39496" lon="5.13408">
        <ele>361</ele>
        <time>2021-10-10T10:32:35.992Z</time>
      </trkpt>
      <trkpt lat="45.395" lon="5.13413">
        <ele>361</ele>
        <time>2021-10-10T10:32:40.028Z</time>
      </trkpt>
      <trkpt lat="45.39506" lon="5.13418">
        <ele>361</ele>
        <time>2021-10-10T10:32:45.046Z</time>
      </trkpt>
      <trkpt lat="45.39514" lon="5.13421">
        <ele>361</ele>
        <time>2021-10-10T10:32:49.998Z</time>
      </trkpt>
      <trkpt lat="45.3952" lon="5.13427">
        <ele>361</ele>
        <time>2021-10-10T10:32:55.018Z</time>
      </trkpt>
      <trkpt lat="45.39525" lon="5.13434">
        <ele>360</ele>
        <time>2021-10-10T10:33:00Z</time>
      </trkpt>
      <trkpt lat="45.3953" lon="5.13438">
        <ele>360</ele>
        <time>2021-10-10T10:33:04.006Z</time>
      </trkpt>
      <trkpt lat="45.39535" lon="5.13444">
        <ele>360</ele>
        <time>2021-10-10T10:33:09.040Z</time>
      </trkpt>
      <trkpt lat="45.3954" lon="5.1345">
        <ele>360</ele>
        <time>2021-10-10T10:33:13.985Z</time>
      </trkpt>
      <trkpt lat="45.39545" lon="5.13455">
        <ele>361</ele>
        <time>2021-10-10T10:33:18.003Z</time>
      </trkpt>
      <trkpt lat="45.3955" lon="5.13461">
        <ele>360</ele>
        <time>2021-10-10T10:33:23.030Z</time>
      </trkpt>
      <trkpt lat="45.39556" lon="5.13466">
        <ele>360</ele>
        <time>2021-10-10T10:33:28.003Z</time>
      </trkpt>
      <trkpt lat="45.39561" lon="5.13471">
        <ele>360</ele>
        <time>2021-10-10T10:33:32.026Z</time>
      </trkpt>
      <trkpt lat="45.39566" lon="5.13474">
        <ele>360</ele>
        <time>2021-10-10T10:33:36.040Z</time>
      </trkpt>
      <trkpt lat="45.39572" lon="5.13479">
        <ele>361</ele>
        <time>2021-10-10T10:33:41.025Z</time>
      </trkpt>
      <trkpt lat="45.39578" lon="5.13485">
        <ele>361</ele>
        <time>2021-10-10T10:33:46.010Z</time>
      </trkpt>
      <trkpt lat="45.39584" lon="5.1349">
        <ele>361</ele>
        <time>2021-10-10T10:33:50.989Z</time>
      </trkpt>
      <trkpt lat="45.39589" lon="5.13494">
        <ele>361</ele>
        <time>2021-10-10T10:33:55.003Z</time>
      </trkpt>
      <trkpt lat="45.39595" lon="5.13499">
        <ele>361</ele>
        <time>2021-10-10T10:33:59.026Z</time>
      </trkpt>
      <trkpt lat="45.39601" lon="5.13504">
        <ele>363</ele>
        <time>2021-10-10T10:34:03.998Z</time>
      </trkpt>
      <trkpt lat="45.39607" lon="5.1351">
        <ele>363</ele>
        <time>2021-10-10T10:34:09.051Z</time>
      </trkpt>
      <trkpt lat="45.39614" lon="5.13516">
        <ele>363</ele>
        <time>2021-10-10T10:34:14.037Z</time>
      </trkpt>
      <trkpt lat="45.3962" lon="5.13522">
        <ele>363</ele>
        <time>2021-10-10T10:34:18.980Z</time>
      </trkpt>
      <trkpt lat="45.39625" lon="5.13527">
        <ele>364</ele>
        <time>2021-10-10T10:34:23.046Z</time>
      </trkpt>
      <trkpt lat="45.39631" lon="5.13532">
        <ele>364</ele>
        <time>2021-10-10T10:34:28.003Z</time>
      </trkpt>
      <trkpt lat="45.39636" lon="5.13536">
        <ele>364</ele>
        <time>2021-10-10T10:34:32.041Z</time>
      </trkpt>
      <trkpt lat="45.39642" lon="5.13542">
        <ele>364</ele>
        <time>2021-10-10T10:34:37.004Z</time>
      </trkpt>
      <trkpt lat="45.39649" lon="5.13547">
        <ele>363</ele>
        <time>2021-10-10T10:34:42.014Z</time>
      </trkpt>
      <trkpt lat="45.39654" lon="5.13551">
        <ele>364</ele>
        <time>2021-10-10T10:34:46.032Z</time>
      </trkpt>
      <trkpt lat="45.39661" lon="5.13557">
        <ele>364</ele>
        <time>2021-10-10T10:34:51.027Z</time>
      </trkpt>
      <trkpt lat="45.39667" lon="5.13563">
        <ele>364</ele>
        <time>2021-10-10T10:34:55.999Z</time>
      </trkpt>
      <trkpt lat="45.39671" lon="5.13568">
        <ele>364</ele>
        <time>2021-10-10T10:35:00.002Z</time>
      </trkpt>
      <trkpt lat="45.39676" lon="5.13573">
        <ele>363</ele>
        <time>2021-10-10T10:35:04.996Z</time>
      </trkpt>
      <trkpt lat="45.39682" lon="5.1358">
        <ele>363</ele>
        <time>2021-10-10T10:35:10Z</time>
      </trkpt>
      <trkpt lat="45.39686" lon="5.13584">
        <ele>363</ele>
        <time>2021-10-10T10:35:14.006Z</time>
      </trkpt>
      <trkpt lat="45.39691" lon="5.13592">
        <ele>363</ele>
        <time>2021-10-10T10:35:19.005Z</time>
      </trkpt>
      <trkpt lat="45.39696" lon="5.136">
        <ele>362</ele>
        <time>2021-10-10T10:35:23.008Z</time>
      </trkpt>
      <trkpt lat="45.39701" lon="5.13604">
        <ele>362</ele>
        <time>2021-10-10T10:35:27.030Z</time>
      </trkpt>
      <trkpt lat="45.39707" lon="5.1361">
        <ele>362</ele>
        <time>2021-10-10T10:35:31.999Z</time>
      </trkpt>
      <trkpt lat="45.39713" lon="5.13617">
        <ele>362</ele>
        <time>2021-10-10T10:35:37.010Z</time>
      </trkpt>
      <trkpt lat="45.39717" lon="5.13621">
        <ele>362</ele>
        <time>2021-10-10T10:35:41.993Z</time>
      </trkpt>
      <trkpt lat="45.3972" lon="5.13625">
        <ele>362</ele>
        <time>2021-10-10T10:35:46.023Z</time>
      </trkpt>
      <trkpt lat="45.39725" lon="5.13631">
        <ele>363</ele>
        <time>2021-10-10T10:35:50.992Z</time>
      </trkpt>
      <trkpt lat="45.39727" lon="5.13633">
        <ele>363</ele>
        <time>2021-10-10T10:35:55.004Z</time>
      </trkpt>
      <trkpt lat="45.39732" lon="5.13631">
        <ele>363</ele>
        <time>2021-10-10T10:35:59.998Z</time>
      </trkpt>
      <trkpt lat="45.39733" lon="5.13625">
        <ele>362</ele>
        <time>2021-10-10T10:36:04.006Z</time>
      </trkpt>
      <trkpt lat="45.39735" lon="5.13616">
        <ele>362</ele>
        <time>2021-10-10T10:36:08.997Z</time>
      </trkpt>
      <trkpt lat="45.39734" lon="5.13616">
        <ele>362</ele>
        <time>2021-10-10T10:36:13.003Z</time>
      </trkpt>
      <trkpt lat="45.39732" lon="5.13621">
        <ele>362</ele>
        <time>2021-10-10T10:36:17.951Z</time>
      </trkpt>
      <trkpt lat="45.39733" lon="5.13629">
        <ele>363</ele>
        <time>2021-10-10T10:36:21.976Z</time>
      </trkpt>
      <trkpt lat="45.39735" lon="5.13635">
        <ele>363</ele>
        <time>2021-10-10T10:36:25.998Z</time>
      </trkpt>
      <trkpt lat="45.39735" lon="5.13635">
        <ele>363</ele>
        <time>2021-10-10T10:36:30.031Z</time>
      </trkpt>
      <trkpt lat="45.39741" lon="5.13635">
        <ele>363</ele>
        <time>2021-10-10T10:36:35Z</time>
      </trkpt>
      <trkpt lat="45.39744" lon="5.13625">
        <ele>363</ele>
        <time>2021-10-10T10:36:40.002Z</time>
      </trkpt>
      <trkpt lat="45.39746" lon="5.13618">
        <ele>362</ele>
        <time>2021-10-10T10:36:44.996Z</time>
      </trkpt>
      <trkpt lat="45.39748" lon="5.13613">
        <ele>362</ele>
        <time>2021-10-10T10:36:48.998Z</time>
      </trkpt>
      <trkpt lat="45.3975" lon="5.13605">
        <ele>362</ele>
        <time>2021-10-10T10:36:53.977Z</time>
      </trkpt>
      <trkpt lat="45.39749" lon="5.13599">
        <ele>362</ele>
        <time>2021-10-10T10:36:57.998Z</time>
      </trkpt>
      <trkpt lat="45.39749" lon="5.13593">
        <ele>361</ele>
        <time>2021-10-10T10:37:02.960Z</time>
      </trkpt>
      <trkpt lat="45.39749" lon="5.13585">
        <ele>361</ele>
        <time>2021-10-10T10:37:07.006Z</time>
      </trkpt>
      <trkpt lat="45.3975" lon="5.13577">
        <ele>361</ele>
        <time>2021-10-10T10:37:11.988Z</time>
      </trkpt>
      <trkpt lat="45.39752" lon="5.1357">
        <ele>361</ele>
        <time>2021-10-10T10:37:15.995Z</time>
      </trkpt>
      <trkpt lat="45.39754" lon="5.1356">
        <ele>361</ele>
        <time>2021-10-10T10:37:20.984Z</time>
      </trkpt>
      <trkpt lat="45.39755" lon="5.13553">
        <ele>361</ele>
        <time>2021-10-10T10:37:24.991Z</time>
      </trkpt>
      <trkpt lat="45.39758" lon="5.13545">
        <ele>361</ele>
        <time>2021-10-10T10:37:29.977Z</time>
      </trkpt>
      <trkpt lat="45.3976" lon="5.13537">
        <ele>361</ele>
        <time>2021-10-10T10:37:34.010Z</time>
      </trkpt>
      <trkpt lat="45.39763" lon="5.13528">
        <ele>361</ele>
        <time>2021-10-10T10:37:38.980Z</time>
      </trkpt>
      <trkpt lat="45.39766" lon="5.13518">
        <ele>360</ele>
        <time>2021-10-10T10:37:44.001Z</time>
      </trkpt>
      <trkpt lat="45.39768" lon="5.13509">
        <ele>361</ele>
        <time>2021-10-10T10:37:49.008Z</time>
      </trkpt>
      <trkpt lat="45.3977" lon="5.135">
        <ele>361</ele>
        <time>2021-10-10T10:37:53.983Z</time>
      </trkpt>
      <trkpt lat="45.3977" lon="5.13493">
        <ele>361</ele>
        <time>2021-10-10T10:37:57.986Z</time>
      </trkpt>
      <trkpt lat="45.3977" lon="5.13486">
        <ele>361</ele>
        <time>2021-10-10T10:38:01.993Z</time>
      </trkpt>
      <trkpt lat="45.39768" lon="5.13479">
        <ele>362</ele>
        <time>2021-10-10T10:38:06.049Z</time>
      </trkpt>
      <trkpt lat="45.39768" lon="5.13469">
        <ele>362</ele>
        <time>2021-10-10T10:38:10.959Z</time>
      </trkpt>
      <trkpt lat="45.39768" lon="5.13462">
        <ele>362</ele>
        <time>2021-10-10T10:38:14.983Z</time>
      </trkpt>
      <trkpt lat="45.39768" lon="5.13462">
        <ele>362</ele>
        <time>2021-10-10T10:38:18.971Z</time>
      </trkpt>
      <trkpt lat="45.39768" lon="5.13462">
        <ele>362</ele>
        <time>2021-10-10T10:39:18.980Z</time>
      </trkpt>
      <trkpt lat="45.39768" lon="5.13462">
        <ele>362</ele>
        <time>2021-10-10T10:39:23.021Z</time>
      </trkpt>
      <trkpt lat="45.39768" lon="5.13459">
        <ele>362</ele>
        <time>2021-10-10T10:39:28.026Z</time>
      </trkpt>
      <trkpt lat="45.39768" lon="5.1345">
        <ele>363</ele>
        <time>2021-10-10T10:39:32.980Z</time>
      </trkpt>
      <trkpt lat="45.39768" lon="5.13442">
        <ele>363</ele>
        <time>2021-10-10T10:39:38.005Z</time>
      </trkpt>
      <trkpt lat="45.39767" lon="5.13434">
        <ele>363</ele>
        <time>2021-10-10T10:39:42.967Z</time>
      </trkpt>
      <trkpt lat="45.39766" lon="5.13427">
        <ele>363</ele>
        <time>2021-10-10T10:39:46.971Z</time>
      </trkpt>
      <trkpt lat="45.39765" lon="5.1342">
        <ele>363</ele>
        <time>2021-10-10T10:39:51.004Z</time>
      </trkpt>
      <trkpt lat="45.39763" lon="5.13412">
        <ele>362</ele>
        <time>2021-10-10T10:39:56.030Z</time>
      </trkpt>
      <trkpt lat="45.3976" lon="5.13404">
        <ele>362</ele>
        <time>2021-10-10T10:40:00.994Z</time>
      </trkpt>
      <trkpt lat="45.39757" lon="5.13398">
        <ele>361</ele>
        <time>2021-10-10T10:40:06.047Z</time>
      </trkpt>
      <trkpt lat="45.39753" lon="5.13391">
        <ele>361</ele>
        <time>2021-10-10T10:40:11Z</time>
      </trkpt>
      <trkpt lat="45.3975" lon="5.13384">
        <ele>361</ele>
        <time>2021-10-10T10:40:15.991Z</time>
      </trkpt>
      <trkpt lat="45.39748" lon="5.13376">
        <ele>361</ele>
        <time>2021-10-10T10:40:21.005Z</time>
      </trkpt>
      <trkpt lat="45.39746" lon="5.13367">
        <ele>362</ele>
        <time>2021-10-10T10:40:26Z</time>
      </trkpt>
      <trkpt lat="45.39745" lon="5.13359">
        <ele>362</ele>
        <time>2021-10-10T10:40:30.989Z</time>
      </trkpt>
      <trkpt lat="45.39744" lon="5.13353">
        <ele>362</ele>
        <time>2021-10-10T10:40:35.025Z</time>
      </trkpt>
      <trkpt lat="45.39742" lon="5.13345">
        <ele>362</ele>
        <time>2021-10-10T10:40:40.033Z</time>
      </trkpt>
      <trkpt lat="45.39742" lon="5.13336">
        <ele>362</ele>
        <time>2021-10-10T10:40:45.030Z</time>
      </trkpt>
      <trkpt lat="45.3974" lon="5.1333">
        <ele>362</ele>
        <time>2021-10-10T10:40:49.035Z</time>
      </trkpt>
      <trkpt lat="45.39739" lon="5.13321">
        <ele>362</ele>
        <time>2021-10-10T10:40:54.007Z</time>
      </trkpt>
      <trkpt lat="45.39739" lon="5.13316">
        <ele>362</ele>
        <time>2021-10-10T10:40:58.035Z</time>
      </trkpt>
      <trkpt lat="45.39736" lon="5.13308">
        <ele>362</ele>
        <time>2021-10-10T10:41:03.033Z</time>
      </trkpt>
      <trkpt lat="45.39735" lon="5.13298">
        <ele>360</ele>
        <time>2021-10-10T10:41:07.983Z</time>
      </trkpt>
      <trkpt lat="45.39739" lon="5.13292">
        <ele>362</ele>
        <time>2021-10-10T10:41:12.008Z</time>
      </trkpt>
      <trkpt lat="45.39744" lon="5.13291">
        <ele>361</ele>
        <time>2021-10-10T10:41:16.985Z</time>
      </trkpt>
      <trkpt lat="45.39749" lon="5.13288">
        <ele>361</ele>
        <time>2021-10-10T10:41:21.007Z</time>
      </trkpt>
      <trkpt lat="45.39753" lon="5.13285">
        <ele>361</ele>
        <time>2021-10-10T10:41:25.032Z</time>
      </trkpt>
      <trkpt lat="45.39759" lon="5.1328">
        <ele>361</ele>
        <time>2021-10-10T10:41:29.953Z</time>
      </trkpt>
      <trkpt lat="45.39762" lon="5.13276">
        <ele>361</ele>
        <time>2021-10-10T10:41:33.987Z</time>
      </trkpt>
      <trkpt lat="45.39767" lon="5.13271">
        <ele>361</ele>
        <time>2021-10-10T10:41:38.968Z</time>
      </trkpt>
      <trkpt lat="45.39771" lon="5.13267">
        <ele>361</ele>
        <time>2021-10-10T10:41:43.967Z</time>
      </trkpt>
      <trkpt lat="45.39778" lon="5.13265">
        <ele>361</ele>
        <time>2021-10-10T10:41:48.972Z</time>
      </trkpt>
      <trkpt lat="45.39784" lon="5.13263">
        <ele>360</ele>
        <time>2021-10-10T10:41:53.971Z</time>
      </trkpt>
      <trkpt lat="45.3979" lon="5.1326">
        <ele>360</ele>
        <time>2021-10-10T10:41:58.965Z</time>
      </trkpt>
      <trkpt lat="45.39796" lon="5.13258">
        <ele>360</ele>
        <time>2021-10-10T10:42:03.996Z</time>
      </trkpt>
      <trkpt lat="45.39801" lon="5.13255">
        <ele>360</ele>
        <time>2021-10-10T10:42:08.990Z</time>
      </trkpt>
      <trkpt lat="45.39805" lon="5.13252">
        <ele>360</ele>
        <time>2021-10-10T10:42:12.997Z</time>
      </trkpt>
      <trkpt lat="45.3981" lon="5.13249">
        <ele>360</ele>
        <time>2021-10-10T10:42:17.022Z</time>
      </trkpt>
      <trkpt lat="45.39815" lon="5.13243">
        <ele>360</ele>
        <time>2021-10-10T10:42:22Z</time>
      </trkpt>
      <trkpt lat="45.3982" lon="5.13237">
        <ele>360</ele>
        <time>2021-10-10T10:42:26.963Z</time>
      </trkpt>
      <trkpt lat="45.39824" lon="5.1323">
        <ele>361</ele>
        <time>2021-10-10T10:42:30.991Z</time>
      </trkpt>
      <trkpt lat="45.39828" lon="5.13224">
        <ele>361</ele>
        <time>2021-10-10T10:42:35.967Z</time>
      </trkpt>
      <trkpt lat="45.39832" lon="5.13216">
        <ele>361</ele>
        <time>2021-10-10T10:42:40.965Z</time>
      </trkpt>
      <trkpt lat="45.39834" lon="5.13209">
        <ele>361</ele>
        <time>2021-10-10T10:42:44.970Z</time>
      </trkpt>
      <trkpt lat="45.39837" lon="5.13199">
        <ele>363</ele>
        <time>2021-10-10T10:42:49.972Z</time>
      </trkpt>
      <trkpt lat="45.39839" lon="5.13192">
        <ele>363</ele>
        <time>2021-10-10T10:42:53.964Z</time>
      </trkpt>
      <trkpt lat="45.3984" lon="5.13184">
        <ele>363</ele>
        <time>2021-10-10T10:42:59.001Z</time>
      </trkpt>
      <trkpt lat="45.39841" lon="5.13178">
        <ele>364</ele>
        <time>2021-10-10T10:43:03.018Z</time>
      </trkpt>
      <trkpt lat="45.39841" lon="5.13168">
        <ele>364</ele>
        <time>2021-10-10T10:43:07.994Z</time>
      </trkpt>
      <trkpt lat="45.3984" lon="5.13159">
        <ele>364</ele>
        <time>2021-10-10T10:43:12.955Z</time>
      </trkpt>
      <trkpt lat="45.3984" lon="5.13154">
        <ele>364</ele>
        <time>2021-10-10T10:43:17.012Z</time>
      </trkpt>
      <trkpt lat="45.39841" lon="5.13145">
        <ele>363</ele>
        <time>2021-10-10T10:43:21.968Z</time>
      </trkpt>
      <trkpt lat="45.3984" lon="5.13139">
        <ele>363</ele>
        <time>2021-10-10T10:43:26.033Z</time>
      </trkpt>
      <trkpt lat="45.39842" lon="5.13129">
        <ele>363</ele>
        <time>2021-10-10T10:43:31.006Z</time>
      </trkpt>
      <trkpt lat="45.39844" lon="5.13118">
        <ele>362</ele>
        <time>2021-10-10T10:43:35.989Z</time>
      </trkpt>
      <trkpt lat="45.39846" lon="5.13112">
        <ele>362</ele>
        <time>2021-10-10T10:43:39.999Z</time>
      </trkpt>
      <trkpt lat="45.39849" lon="5.13103">
        <ele>362</ele>
        <time>2021-10-10T10:43:45.003Z</time>
      </trkpt>
      <trkpt lat="45.39851" lon="5.13094">
        <ele>361</ele>
        <time>2021-10-10T10:43:50.031Z</time>
      </trkpt>
      <trkpt lat="45.39853" lon="5.13085">
        <ele>361</ele>
        <time>2021-10-10T10:43:54.971Z</time>
      </trkpt>
      <trkpt lat="45.39856" lon="5.13077">
        <ele>361</ele>
        <time>2021-10-10T10:43:58.965Z</time>
      </trkpt>
      <trkpt lat="45.39857" lon="5.13067">
        <ele>360</ele>
        <time>2021-10-10T10:44:03.968Z</time>
      </trkpt>
      <trkpt lat="45.39859" lon="5.13057">
        <ele>360</ele>
        <time>2021-10-10T10:44:07.989Z</time>
      </trkpt>
      <trkpt lat="45.39861" lon="5.13049">
        <ele>360</ele>
        <time>2021-10-10T10:44:12.993Z</time>
      </trkpt>
      <trkpt lat="45.39863" lon="5.1304">
        <ele>361</ele>
        <time>2021-10-10T10:44:17.989Z</time>
      </trkpt>
      <trkpt lat="45.39864" lon="5.13031">
        <ele>361</ele>
        <time>2021-10-10T10:44:22.997Z</time>
      </trkpt>
      <trkpt lat="45.39866" lon="5.1302">
        <ele>361</ele>
        <time>2021-10-10T10:44:27.963Z</time>
      </trkpt>
      <trkpt lat="45.39867" lon="5.13013">
        <ele>361</ele>
        <time>2021-10-10T10:44:31.986Z</time>
      </trkpt>
      <trkpt lat="45.39871" lon="5.13004">
        <ele>361</ele>
        <time>2021-10-10T10:44:37.002Z</time>
      </trkpt>
      <trkpt lat="45.39872" lon="5.12995">
        <ele>361</ele>
        <time>2021-10-10T10:44:41.997Z</time>
      </trkpt>
      <trkpt lat="45.39873" lon="5.12988">
        <ele>361</ele>
        <time>2021-10-10T10:44:45.999Z</time>
      </trkpt>
      <trkpt lat="45.39875" lon="5.12979">
        <ele>361</ele>
        <time>2021-10-10T10:44:50.995Z</time>
      </trkpt>
      <trkpt lat="45.39877" lon="5.12971">
        <ele>360</ele>
        <time>2021-10-10T10:44:55.042Z</time>
      </trkpt>
      <trkpt lat="45.3988" lon="5.12962">
        <ele>360</ele>
        <time>2021-10-10T10:44:59.999Z</time>
      </trkpt>
      <trkpt lat="45.39881" lon="5.12954">
        <ele>361</ele>
        <time>2021-10-10T10:45:03.989Z</time>
      </trkpt>
      <trkpt lat="45.39882" lon="5.12945">
        <ele>361</ele>
        <time>2021-10-10T10:45:09.005Z</time>
      </trkpt>
      <trkpt lat="45.39883" lon="5.12938">
        <ele>361</ele>
        <time>2021-10-10T10:45:13.031Z</time>
      </trkpt>
      <trkpt lat="45.39884" lon="5.12932">
        <ele>361</ele>
        <time>2021-10-10T10:45:17.046Z</time>
      </trkpt>
      <trkpt lat="45.39886" lon="5.12924">
        <ele>361</ele>
        <time>2021-10-10T10:45:21.994Z</time>
      </trkpt>
      <trkpt lat="45.39888" lon="5.12916">
        <ele>361</ele>
        <time>2021-10-10T10:45:26Z</time>
      </trkpt>
      <trkpt lat="45.39891" lon="5.12906">
        <ele>361</ele>
        <time>2021-10-10T10:45:31.026Z</time>
      </trkpt>
      <trkpt lat="45.39894" lon="5.12896">
        <ele>361</ele>
        <time>2021-10-10T10:45:35.998Z</time>
      </trkpt>
      <trkpt lat="45.39897" lon="5.1289">
        <ele>361</ele>
        <time>2021-10-10T10:45:40.035Z</time>
      </trkpt>
      <trkpt lat="45.39899" lon="5.12881">
        <ele>361</ele>
        <time>2021-10-10T10:45:45.005Z</time>
      </trkpt>
      <trkpt lat="45.39902" lon="5.12872">
        <ele>363</ele>
        <time>2021-10-10T10:45:50.032Z</time>
      </trkpt>
      <trkpt lat="45.39906" lon="5.12865">
        <ele>364</ele>
        <time>2021-10-10T10:45:55.002Z</time>
      </trkpt>
      <trkpt lat="45.39908" lon="5.12856">
        <ele>364</ele>
        <time>2021-10-10T10:46:00.033Z</time>
      </trkpt>
      <trkpt lat="45.39911" lon="5.12846">
        <ele>367</ele>
        <time>2021-10-10T10:46:05Z</time>
      </trkpt>
      <trkpt lat="45.39916" lon="5.12838">
        <ele>367</ele>
        <time>2021-10-10T10:46:10.005Z</time>
      </trkpt>
      <trkpt lat="45.39921" lon="5.1283">
        <ele>367</ele>
        <time>2021-10-10T10:46:15Z</time>
      </trkpt>
      <trkpt lat="45.39926" lon="5.12822">
        <ele>367</ele>
        <time>2021-10-10T10:46:20.001Z</time>
      </trkpt>
      <trkpt lat="45.39933" lon="5.12817">
        <ele>369</ele>
        <time>2021-10-10T10:46:24.994Z</time>
      </trkpt>
      <trkpt lat="45.3994" lon="5.12813">
        <ele>369</ele>
        <time>2021-10-10T10:46:29.993Z</time>
      </trkpt>
      <trkpt lat="45.39944" lon="5.1281">
        <ele>369</ele>
        <time>2021-10-10T10:46:34.021Z</time>
      </trkpt>
      <trkpt lat="45.39948" lon="5.12803">
        <ele>369</ele>
        <time>2021-10-10T10:46:39.018Z</time>
      </trkpt>
      <trkpt lat="45.39948" lon="5.12797">
        <ele>369</ele>
        <time>2021-10-10T10:46:43.034Z</time>
      </trkpt>
      <trkpt lat="45.39948" lon="5.12788">
        <ele>371</ele>
        <time>2021-10-10T10:46:47.992Z</time>
      </trkpt>
      <trkpt lat="45.39949" lon="5.12781">
        <ele>371</ele>
        <time>2021-10-10T10:46:51.997Z</time>
      </trkpt>
      <trkpt lat="45.3995" lon="5.12769">
        <ele>371</ele>
        <time>2021-10-10T10:46:55.998Z</time>
      </trkpt>
      <trkpt lat="45.39952" lon="5.12753">
        <ele>373</ele>
        <time>2021-10-10T10:47:01.001Z</time>
      </trkpt>
      <trkpt lat="45.39959" lon="5.12737">
        <ele>374</ele>
        <time>2021-10-10T10:47:05.994Z</time>
      </trkpt>
      <trkpt lat="45.39965" lon="5.12722">
        <ele>376</ele>
        <time>2021-10-10T10:47:11.002Z</time>
      </trkpt>
      <trkpt lat="45.39971" lon="5.12711">
        <ele>376</ele>
        <time>2021-10-10T10:47:15Z</time>
      </trkpt>
      <trkpt lat="45.39981" lon="5.12693">
        <ele>378</ele>
        <time>2021-10-10T10:47:19.989Z</time>
      </trkpt>
      <trkpt lat="45.39993" lon="5.12677">
        <ele>383</ele>
        <time>2021-10-10T10:47:23.997Z</time>
      </trkpt>
      <trkpt lat="45.39998" lon="5.12669">
        <ele>383</ele>
        <time>2021-10-10T10:47:28.006Z</time>
      </trkpt>
      <trkpt lat="45.40002" lon="5.12659">
        <ele>383</ele>
        <time>2021-10-10T10:47:32.009Z</time>
      </trkpt>
      <trkpt lat="45.40011" lon="5.12646">
        <ele>387</ele>
        <time>2021-10-10T10:47:36.967Z</time>
      </trkpt>
      <trkpt lat="45.40018" lon="5.12638">
        <ele>390</ele>
        <time>2021-10-10T10:47:42Z</time>
      </trkpt>
      <trkpt lat="45.40024" lon="5.12631">
        <ele>390</ele>
        <time>2021-10-10T10:47:46.009Z</time>
      </trkpt>
      <trkpt lat="45.40029" lon="5.12626">
        <ele>390</ele>
        <time>2021-10-10T10:47:50.030Z</time>
      </trkpt>
      <trkpt lat="45.40034" lon="5.12621">
        <ele>394</ele>
        <time>2021-10-10T10:47:54.999Z</time>
      </trkpt>
      <trkpt lat="45.40039" lon="5.12618">
        <ele>394</ele>
        <time>2021-10-10T10:47:59.009Z</time>
      </trkpt>
      <trkpt lat="45.40047" lon="5.12613">
        <ele>394</ele>
        <time>2021-10-10T10:48:04.062Z</time>
      </trkpt>
      <trkpt lat="45.40056" lon="5.12605">
        <ele>394</ele>
        <time>2021-10-10T10:48:08.985Z</time>
      </trkpt>
      <trkpt lat="45.40059" lon="5.12599">
        <ele>394</ele>
        <time>2021-10-10T10:48:12.982Z</time>
      </trkpt>
      <trkpt lat="45.40063" lon="5.12594">
        <ele>397</ele>
        <time>2021-10-10T10:48:17.006Z</time>
      </trkpt>
      <trkpt lat="45.40066" lon="5.12588">
        <ele>397</ele>
        <time>2021-10-10T10:48:21.023Z</time>
      </trkpt>
      <trkpt lat="45.40071" lon="5.12582">
        <ele>396</ele>
        <time>2021-10-10T10:48:25.998Z</time>
      </trkpt>
      <trkpt lat="45.40076" lon="5.12578">
        <ele>396</ele>
        <time>2021-10-10T10:48:31.025Z</time>
      </trkpt>
      <trkpt lat="45.40081" lon="5.1257">
        <ele>396</ele>
        <time>2021-10-10T10:48:35.981Z</time>
      </trkpt>
      <trkpt lat="45.40084" lon="5.12564">
        <ele>399</ele>
        <time>2021-10-10T10:48:39.995Z</time>
      </trkpt>
      <trkpt lat="45.40087" lon="5.12557">
        <ele>399</ele>
        <time>2021-10-10T10:48:45.021Z</time>
      </trkpt>
      <trkpt lat="45.40091" lon="5.1255">
        <ele>399</ele>
        <time>2021-10-10T10:48:49.963Z</time>
      </trkpt>
      <trkpt lat="45.40093" lon="5.12544">
        <ele>399</ele>
        <time>2021-10-10T10:48:53.993Z</time>
      </trkpt>
      <trkpt lat="45.40096" lon="5.12539">
        <ele>403</ele>
        <time>2021-10-10T10:48:58.033Z</time>
      </trkpt>
      <trkpt lat="45.401" lon="5.12531">
        <ele>403</ele>
        <time>2021-10-10T10:49:02.989Z</time>
      </trkpt>
      <trkpt lat="45.40103" lon="5.12524">
        <ele>403</ele>
        <time>2021-10-10T10:49:06.997Z</time>
      </trkpt>
      <trkpt lat="45.40106" lon="5.12517">
        <ele>403</ele>
        <time>2021-10-10T10:49:11.991Z</time>
      </trkpt>
      <trkpt lat="45.40108" lon="5.12512">
        <ele>409</ele>
        <time>2021-10-10T10:49:16.029Z</time>
      </trkpt>
      <trkpt lat="45.40111" lon="5.12505">
        <ele>409</ele>
        <time>2021-10-10T10:49:20.999Z</time>
      </trkpt>
      <trkpt lat="45.40114" lon="5.12499">
        <ele>409</ele>
        <time>2021-10-10T10:49:25.025Z</time>
      </trkpt>
      <trkpt lat="45.40117" lon="5.12492">
        <ele>409</ele>
        <time>2021-10-10T10:49:30.003Z</time>
      </trkpt>
      <trkpt lat="45.4012" lon="5.12486">
        <ele>409</ele>
        <time>2021-10-10T10:49:34.030Z</time>
      </trkpt>
      <trkpt lat="45.40122" lon="5.1248">
        <ele>414</ele>
        <time>2021-10-10T10:49:38.044Z</time>
      </trkpt>
      <trkpt lat="45.40127" lon="5.12473">
        <ele>413</ele>
        <time>2021-10-10T10:49:42.980Z</time>
      </trkpt>
      <trkpt lat="45.40132" lon="5.12467">
        <ele>413</ele>
        <time>2021-10-10T10:49:47.975Z</time>
      </trkpt>
      <trkpt lat="45.40135" lon="5.12459">
        <ele>413</ele>
        <time>2021-10-10T10:49:52.988Z</time>
      </trkpt>
      <trkpt lat="45.40139" lon="5.12453">
        <ele>415</ele>
        <time>2021-10-10T10:49:58.007Z</time>
      </trkpt>
      <trkpt lat="45.40144" lon="5.12448">
        <ele>415</ele>
        <time>2021-10-10T10:50:02.998Z</time>
      </trkpt>
      <trkpt lat="45.40149" lon="5.12443">
        <ele>415</ele>
        <time>2021-10-10T10:50:08.038Z</time>
      </trkpt>
      <trkpt lat="45.40153" lon="5.12437">
        <ele>411</ele>
        <time>2021-10-10T10:50:13.035Z</time>
      </trkpt>
      <trkpt lat="45.40157" lon="5.12429">
        <ele>413</ele>
        <time>2021-10-10T10:50:18.005Z</time>
      </trkpt>
      <trkpt lat="45.4016" lon="5.12422">
        <ele>413</ele>
        <time>2021-10-10T10:50:22.995Z</time>
      </trkpt>
      <trkpt lat="45.40163" lon="5.12415">
        <ele>413</ele>
        <time>2021-10-10T10:50:27.971Z</time>
      </trkpt>
      <trkpt lat="45.40166" lon="5.12409">
        <ele>413</ele>
        <time>2021-10-10T10:50:31.999Z</time>
      </trkpt>
      <trkpt lat="45.40168" lon="5.12403">
        <ele>413</ele>
        <time>2021-10-10T10:50:36Z</time>
      </trkpt>
      <trkpt lat="45.40172" lon="5.12395">
        <ele>416</ele>
        <time>2021-10-10T10:50:41.005Z</time>
      </trkpt>
      <trkpt lat="45.40173" lon="5.1239">
        <ele>416</ele>
        <time>2021-10-10T10:50:45.033Z</time>
      </trkpt>
      <trkpt lat="45.40176" lon="5.12381">
        <ele>416</ele>
        <time>2021-10-10T10:50:50Z</time>
      </trkpt>
      <trkpt lat="45.40178" lon="5.12373">
        <ele>419</ele>
        <time>2021-10-10T10:50:54.996Z</time>
      </trkpt>
      <trkpt lat="45.4018" lon="5.12367">
        <ele>419</ele>
        <time>2021-10-10T10:50:59.011Z</time>
      </trkpt>
      <trkpt lat="45.40183" lon="5.12359">
        <ele>419</ele>
        <time>2021-10-10T10:51:03.997Z</time>
      </trkpt>
      <trkpt lat="45.40186" lon="5.12351">
        <ele>419</ele>
        <time>2021-10-10T10:51:09.022Z</time>
      </trkpt>
      <trkpt lat="45.40188" lon="5.12343">
        <ele>421</ele>
        <time>2021-10-10T10:51:14Z</time>
      </trkpt>
      <trkpt lat="45.40191" lon="5.12335">
        <ele>421</ele>
        <time>2021-10-10T10:51:19.005Z</time>
      </trkpt>
      <trkpt lat="45.40192" lon="5.12326">
        <ele>421</ele>
        <time>2021-10-10T10:51:23.993Z</time>
      </trkpt>
      <trkpt lat="45.40193" lon="5.12319">
        <ele>423</ele>
        <time>2021-10-10T10:51:27.996Z</time>
      </trkpt>
      <trkpt lat="45.40195" lon="5.1231">
        <ele>423</ele>
        <time>2021-10-10T10:51:33.002Z</time>
      </trkpt>
      <trkpt lat="45.40198" lon="5.12302">
        <ele>423</ele>
        <time>2021-10-10T10:51:38.035Z</time>
      </trkpt>
      <trkpt lat="45.40201" lon="5.12294">
        <ele>423</ele>
        <time>2021-10-10T10:51:43.025Z</time>
      </trkpt>
      <trkpt lat="45.40205" lon="5.12286">
        <ele>423</ele>
        <time>2021-10-10T10:51:47.998Z</time>
      </trkpt>
      <trkpt lat="45.40207" lon="5.1228">
        <ele>423</ele>
        <time>2021-10-10T10:51:52.028Z</time>
      </trkpt>
      <trkpt lat="45.4021" lon="5.12273">
        <ele>421</ele>
        <time>2021-10-10T10:51:56.977Z</time>
      </trkpt>
      <trkpt lat="45.40212" lon="5.12266">
        <ele>421</ele>
        <time>2021-10-10T10:52:01.010Z</time>
      </trkpt>
      <trkpt lat="45.40216" lon="5.12258">
        <ele>422</ele>
        <time>2021-10-10T10:52:05.963Z</time>
      </trkpt>
      <trkpt lat="45.40218" lon="5.12253">
        <ele>422</ele>
        <time>2021-10-10T10:52:09.974Z</time>
      </trkpt>
      <trkpt lat="45.40219" lon="5.12248">
        <ele>422</ele>
        <time>2021-10-10T10:52:13.987Z</time>
      </trkpt>
      <trkpt lat="45.40221" lon="5.12241">
        <ele>422</ele>
        <time>2021-10-10T10:52:17.997Z</time>
      </trkpt>
      <trkpt lat="45.40223" lon="5.12235">
        <ele>427</ele>
        <time>2021-10-10T10:52:22.014Z</time>
      </trkpt>
      <trkpt lat="45.40225" lon="5.12227">
        <ele>427</ele>
        <time>2021-10-10T10:52:27.002Z</time>
      </trkpt>
      <trkpt lat="45.40227" lon="5.1222">
        <ele>427</ele>
        <time>2021-10-10T10:52:31.004Z</time>
      </trkpt>
      <trkpt lat="45.40229" lon="5.12212">
        <ele>427</ele>
        <time>2021-10-10T10:52:35.958Z</time>
      </trkpt>
      <trkpt lat="45.4023" lon="5.12205">
        <ele>430</ele>
        <time>2021-10-10T10:52:40.006Z</time>
      </trkpt>
      <trkpt lat="45.40231" lon="5.12196">
        <ele>430</ele>
        <time>2021-10-10T10:52:44.996Z</time>
      </trkpt>
      <trkpt lat="45.40233" lon="5.12187">
        <ele>430</ele>
        <time>2021-10-10T10:52:49.996Z</time>
      </trkpt>
      <trkpt lat="45.40234" lon="5.1218">
        <ele>432</ele>
        <time>2021-10-10T10:52:54.005Z</time>
      </trkpt>
      <trkpt lat="45.40238" lon="5.12172">
        <ele>426</ele>
        <time>2021-10-10T10:52:58.993Z</time>
      </trkpt>
      <trkpt lat="45.40242" lon="5.12164">
        <ele>426</ele>
        <time>2021-10-10T10:53:03.966Z</time>
      </trkpt>
      <trkpt lat="45.40243" lon="5.12156">
        <ele>426</ele>
        <time>2021-10-10T10:53:08.008Z</time>
      </trkpt>
      <trkpt lat="45.40246" lon="5.12148">
        <ele>426</ele>
        <time>2021-10-10T10:53:12.974Z</time>
      </trkpt>
      <trkpt lat="45.40249" lon="5.12143">
        <ele>426</ele>
        <time>2021-10-10T10:53:17.001Z</time>
      </trkpt>
      <trkpt lat="45.40252" lon="5.12135">
        <ele>426</ele>
        <time>2021-10-10T10:53:22.005Z</time>
      </trkpt>
      <trkpt lat="45.40256" lon="5.12126">
        <ele>426</ele>
        <time>2021-10-10T10:53:26.996Z</time>
      </trkpt>
      <trkpt lat="45.40259" lon="5.12118">
        <ele>427</ele>
        <time>2021-10-10T10:53:32.031Z</time>
      </trkpt>
      <trkpt lat="45.40261" lon="5.12109">
        <ele>427</ele>
        <time>2021-10-10T10:53:37.014Z</time>
      </trkpt>
      <trkpt lat="45.40264" lon="5.12102">
        <ele>422</ele>
        <time>2021-10-10T10:53:42.008Z</time>
      </trkpt>
      <trkpt lat="45.40268" lon="5.12094">
        <ele>424</ele>
        <time>2021-10-10T10:53:46.997Z</time>
      </trkpt>
      <trkpt lat="45.40268" lon="5.12085">
        <ele>424</ele>
        <time>2021-10-10T10:53:51.024Z</time>
      </trkpt>
      <trkpt lat="45.40263" lon="5.12081">
        <ele>427</ele>
        <time>2021-10-10T10:53:55.995Z</time>
      </trkpt>
      <trkpt lat="45.40254" lon="5.12077">
        <ele>427</ele>
        <time>2021-10-10T10:54:00.983Z</time>
      </trkpt>
      <trkpt lat="45.40244" lon="5.12075">
        <ele>427</ele>
        <time>2021-10-10T10:54:04.994Z</time>
      </trkpt>
      <trkpt lat="45.40238" lon="5.12067">
        <ele>426</ele>
        <time>2021-10-10T10:54:08.987Z</time>
      </trkpt>
      <trkpt lat="45.40232" lon="5.12055">
        <ele>434</ele>
        <time>2021-10-10T10:54:13.996Z</time>
      </trkpt>
      <trkpt lat="45.40221" lon="5.12051">
        <ele>434</ele>
        <time>2021-10-10T10:54:18.975Z</time>
      </trkpt>
      <trkpt lat="45.40215" lon="5.12034">
        <ele>432</ele>
        <time>2021-10-10T10:54:22.982Z</time>
      </trkpt>
      <trkpt lat="45.40208" lon="5.12023">
        <ele>441</ele>
        <time>2021-10-10T10:54:26.996Z</time>
      </trkpt>
      <trkpt lat="45.40199" lon="5.12013">
        <ele>440</ele>
        <time>2021-10-10T10:54:31.994Z</time>
      </trkpt>
      <trkpt lat="45.4019" lon="5.11998">
        <ele>440</ele>
        <time>2021-10-10T10:54:37.001Z</time>
      </trkpt>
      <trkpt lat="45.40182" lon="5.11988">
        <ele>440</ele>
        <time>2021-10-10T10:54:41.997Z</time>
      </trkpt>
      <trkpt lat="45.40174" lon="5.11977">
        <ele>448</ele>
        <time>2021-10-10T10:54:47.001Z</time>
      </trkpt>
      <trkpt lat="45.40167" lon="5.11968">
        <ele>448</ele>
        <time>2021-10-10T10:54:51.053Z</time>
      </trkpt>
      <trkpt lat="45.40158" lon="5.1196">
        <ele>448</ele>
        <time>2021-10-10T10:54:56.006Z</time>
      </trkpt>
      <trkpt lat="45.4015" lon="5.11953">
        <ele>452</ele>
        <time>2021-10-10T10:55:00.989Z</time>
      </trkpt>
      <trkpt lat="45.40142" lon="5.11951">
        <ele>452</ele>
        <time>2021-10-10T10:55:06.026Z</time>
      </trkpt>
      <trkpt lat="45.40133" lon="5.11946">
        <ele>452</ele>
        <time>2021-10-10T10:55:11.030Z</time>
      </trkpt>
      <trkpt lat="45.40125" lon="5.11942">
        <ele>452</ele>
        <time>2021-10-10T10:55:16.028Z</time>
      </trkpt>
      <trkpt lat="45.40117" lon="5.11943">
        <ele>453</ele>
        <time>2021-10-10T10:55:20.993Z</time>
      </trkpt>
      <trkpt lat="45.40109" lon="5.11942">
        <ele>453</ele>
        <time>2021-10-10T10:55:25.998Z</time>
      </trkpt>
      <trkpt lat="45.40103" lon="5.11941">
        <ele>453</ele>
        <time>2021-10-10T10:55:31.026Z</time>
      </trkpt>
      <trkpt lat="45.40098" lon="5.11933">
        <ele>453</ele>
        <time>2021-10-10T10:55:35.994Z</time>
      </trkpt>
      <trkpt lat="45.40094" lon="5.11928">
        <ele>457</ele>
        <time>2021-10-10T10:55:40.996Z</time>
      </trkpt>
      <trkpt lat="45.40089" lon="5.11922">
        <ele>457</ele>
        <time>2021-10-10T10:55:44.999Z</time>
      </trkpt>
      <trkpt lat="45.40084" lon="5.11916">
        <ele>457</ele>
        <time>2021-10-10T10:55:50Z</time>
      </trkpt>
      <trkpt lat="45.40079" lon="5.1191">
        <ele>457</ele>
        <time>2021-10-10T10:55:53.999Z</time>
      </trkpt>
      <trkpt lat="45.40073" lon="5.11906">
        <ele>457</ele>
        <time>2021-10-10T10:55:58.992Z</time>
      </trkpt>
      <trkpt lat="45.40069" lon="5.119">
        <ele>460</ele>
        <time>2021-10-10T10:56:02.996Z</time>
      </trkpt>
      <trkpt lat="45.40063" lon="5.11896">
        <ele>460</ele>
        <time>2021-10-10T10:56:08.011Z</time>
      </trkpt>
      <trkpt lat="45.40056" lon="5.11894">
        <ele>460</ele>
        <time>2021-10-10T10:56:13.027Z</time>
      </trkpt>
      <trkpt lat="45.40051" lon="5.11891">
        <ele>460</ele>
        <time>2021-10-10T10:56:18.025Z</time>
      </trkpt>
      <trkpt lat="45.40045" lon="5.11887">
        <ele>460</ele>
        <time>2021-10-10T10:56:22.986Z</time>
      </trkpt>
      <trkpt lat="45.4004" lon="5.11883">
        <ele>465</ele>
        <time>2021-10-10T10:56:27.001Z</time>
      </trkpt>
      <trkpt lat="45.40034" lon="5.1188">
        <ele>465</ele>
        <time>2021-10-10T10:56:32.005Z</time>
      </trkpt>
      <trkpt lat="45.40029" lon="5.11876">
        <ele>465</ele>
        <time>2021-10-10T10:56:36.019Z</time>
      </trkpt>
      <trkpt lat="45.40024" lon="5.11873">
        <ele>465</ele>
        <time>2021-10-10T10:56:40.995Z</time>
      </trkpt>
      <trkpt lat="45.40018" lon="5.11868">
        <ele>465</ele>
        <time>2021-10-10T10:56:45.963Z</time>
      </trkpt>
      <trkpt lat="45.40014" lon="5.11865">
        <ele>468</ele>
        <time>2021-10-10T10:56:49.984Z</time>
      </trkpt>
      <trkpt lat="45.4001" lon="5.11861">
        <ele>468</ele>
        <time>2021-10-10T10:56:54.002Z</time>
      </trkpt>
      <trkpt lat="45.40005" lon="5.11858">
        <ele>468</ele>
        <time>2021-10-10T10:56:58.028Z</time>
      </trkpt>
      <trkpt lat="45.4" lon="5.11854">
        <ele>468</ele>
        <time>2021-10-10T10:57:03.003Z</time>
      </trkpt>
      <trkpt lat="45.39994" lon="5.11851">
        <ele>468</ele>
        <time>2021-10-10T10:57:07.970Z</time>
      </trkpt>
      <trkpt lat="45.39989" lon="5.11848">
        <ele>468</ele>
        <time>2021-10-10T10:57:11.995Z</time>
      </trkpt>
      <trkpt lat="45.39983" lon="5.11845">
        <ele>469</ele>
        <time>2021-10-10T10:57:16.995Z</time>
      </trkpt>
      <trkpt lat="45.39977" lon="5.11842">
        <ele>469</ele>
        <time>2021-10-10T10:57:21.998Z</time>
      </trkpt>
      <trkpt lat="45.39971" lon="5.11839">
        <ele>469</ele>
        <time>2021-10-10T10:57:27Z</time>
      </trkpt>
      <trkpt lat="45.39965" lon="5.11837">
        <ele>469</ele>
        <time>2021-10-10T10:57:31.965Z</time>
      </trkpt>
      <trkpt lat="45.3996" lon="5.11836">
        <ele>469</ele>
        <time>2021-10-10T10:57:36.025Z</time>
      </trkpt>
      <trkpt lat="45.39954" lon="5.11831">
        <ele>472</ele>
        <time>2021-10-10T10:57:40.999Z</time>
      </trkpt>
      <trkpt lat="45.39948" lon="5.11827">
        <ele>472</ele>
        <time>2021-10-10T10:57:45.996Z</time>
      </trkpt>
      <trkpt lat="45.39943" lon="5.11824">
        <ele>472</ele>
        <time>2021-10-10T10:57:50.009Z</time>
      </trkpt>
      <trkpt lat="45.39936" lon="5.11822">
        <ele>472</ele>
        <time>2021-10-10T10:57:54.991Z</time>
      </trkpt>
      <trkpt lat="45.39934" lon="5.11818">
        <ele>472</ele>
        <time>2021-10-10T10:58:16.994Z</time>
      </trkpt>
      <trkpt lat="45.39937" lon="5.11821">
        <ele>472</ele>
        <time>2021-10-10T10:58:21.004Z</time>
      </trkpt>
      <trkpt lat="45.3994" lon="5.1182">
        <ele>472</ele>
        <time>2021-10-10T10:58:25.031Z</time>
      </trkpt>
      <trkpt lat="45.39944" lon="5.11812">
        <ele>472</ele>
        <time>2021-10-10T10:58:29.993Z</time>
      </trkpt>
      <trkpt lat="45.39947" lon="5.11803">
        <ele>472</ele>
        <time>2021-10-10T10:58:34.984Z</time>
      </trkpt>
      <trkpt lat="45.39949" lon="5.11797">
        <ele>472</ele>
        <time>2021-10-10T10:58:39.002Z</time>
      </trkpt>
      <trkpt lat="45.39951" lon="5.11791">
        <ele>472</ele>
        <time>2021-10-10T10:58:43.026Z</time>
      </trkpt>
      <trkpt lat="45.39953" lon="5.11784">
        <ele>472</ele>
        <time>2021-10-10T10:58:47.030Z</time>
      </trkpt>
      <trkpt lat="45.39955" lon="5.11778">
        <ele>472</ele>
        <time>2021-10-10T10:58:51.048Z</time>
      </trkpt>
      <trkpt lat="45.39958" lon="5.1177">
        <ele>472</ele>
        <time>2021-10-10T10:58:55.960Z</time>
      </trkpt>
      <trkpt lat="45.3996" lon="5.11764">
        <ele>469</ele>
        <time>2021-10-10T10:58:59.990Z</time>
      </trkpt>
      <trkpt lat="45.39962" lon="5.11759">
        <ele>469</ele>
        <time>2021-10-10T10:59:04.001Z</time>
      </trkpt>
      <trkpt lat="45.39965" lon="5.1175">
        <ele>469</ele>
        <time>2021-10-10T10:59:08.990Z</time>
      </trkpt>
      <trkpt lat="45.39968" lon="5.1174">
        <ele>469</ele>
        <time>2021-10-10T10:59:14.002Z</time>
      </trkpt>
      <trkpt lat="45.39969" lon="5.11732">
        <ele>470</ele>
        <time>2021-10-10T10:59:18.008Z</time>
      </trkpt>
      <trkpt lat="45.39971" lon="5.11723">
        <ele>470</ele>
        <time>2021-10-10T10:59:23.001Z</time>
      </trkpt>
      <trkpt lat="45.39974" lon="5.11714">
        <ele>470</ele>
        <time>2021-10-10T10:59:28.033Z</time>
      </trkpt>
      <trkpt lat="45.39976" lon="5.11706">
        <ele>470</ele>
        <time>2021-10-10T10:59:33.005Z</time>
      </trkpt>
      <trkpt lat="45.39978" lon="5.11697">
        <ele>470</ele>
        <time>2021-10-10T10:59:38.003Z</time>
      </trkpt>
      <trkpt lat="45.3998" lon="5.11688">
        <ele>470</ele>
        <time>2021-10-10T10:59:42.990Z</time>
      </trkpt>
      <trkpt lat="45.39981" lon="5.1168">
        <ele>469</ele>
        <time>2021-10-10T10:59:47.001Z</time>
      </trkpt>
      <trkpt lat="45.39982" lon="5.11672">
        <ele>469</ele>
        <time>2021-10-10T10:59:51.013Z</time>
      </trkpt>
      <trkpt lat="45.39984" lon="5.11664">
        <ele>469</ele>
        <time>2021-10-10T10:59:55.016Z</time>
      </trkpt>
      <trkpt lat="45.39985" lon="5.11656">
        <ele>469</ele>
        <time>2021-10-10T11:00:00.010Z</time>
      </trkpt>
      <trkpt lat="45.39987" lon="5.11646">
        <ele>466</ele>
        <time>2021-10-10T11:00:04.992Z</time>
      </trkpt>
      <trkpt lat="45.3999" lon="5.11637">
        <ele>466</ele>
        <time>2021-10-10T11:00:09.994Z</time>
      </trkpt>
      <trkpt lat="45.39992" lon="5.11628">
        <ele>466</ele>
        <time>2021-10-10T11:00:15.003Z</time>
      </trkpt>
      <trkpt lat="45.39993" lon="5.11619">
        <ele>466</ele>
        <time>2021-10-10T11:00:20.036Z</time>
      </trkpt>
      <trkpt lat="45.39994" lon="5.11609">
        <ele>466</ele>
        <time>2021-10-10T11:00:24.971Z</time>
      </trkpt>
      <trkpt lat="45.39996" lon="5.11602">
        <ele>466</ele>
        <time>2021-10-10T11:00:29.029Z</time>
      </trkpt>
      <trkpt lat="45.39998" lon="5.11594">
        <ele>467</ele>
        <time>2021-10-10T11:00:33.999Z</time>
      </trkpt>
      <trkpt lat="45.40001" lon="5.11588">
        <ele>467</ele>
        <time>2021-10-10T11:00:38.030Z</time>
      </trkpt>
      <trkpt lat="45.40003" lon="5.1158">
        <ele>467</ele>
        <time>2021-10-10T11:00:43Z</time>
      </trkpt>
      <trkpt lat="45.40006" lon="5.1157">
        <ele>467</ele>
        <time>2021-10-10T11:00:48.031Z</time>
      </trkpt>
      <trkpt lat="45.4001" lon="5.11561">
        <ele>468</ele>
        <time>2021-10-10T11:00:52.992Z</time>
      </trkpt>
      <trkpt lat="45.40012" lon="5.11552">
        <ele>468</ele>
        <time>2021-10-10T11:00:57.972Z</time>
      </trkpt>
      <trkpt lat="45.40014" lon="5.11545">
        <ele>465</ele>
        <time>2021-10-10T11:01:01.972Z</time>
      </trkpt>
      <trkpt lat="45.40016" lon="5.11538">
        <ele>465</ele>
        <time>2021-10-10T11:01:06Z</time>
      </trkpt>
      <trkpt lat="45.40018" lon="5.1153">
        <ele>465</ele>
        <time>2021-10-10T11:01:10.029Z</time>
      </trkpt>
      <trkpt lat="45.40021" lon="5.1152">
        <ele>465</ele>
        <time>2021-10-10T11:01:14.995Z</time>
      </trkpt>
      <trkpt lat="45.40022" lon="5.11511">
        <ele>466</ele>
        <time>2021-10-10T11:01:19.004Z</time>
      </trkpt>
      <trkpt lat="45.40025" lon="5.11501">
        <ele>466</ele>
        <time>2021-10-10T11:01:23.995Z</time>
      </trkpt>
      <trkpt lat="45.40027" lon="5.11493">
        <ele>466</ele>
        <time>2021-10-10T11:01:28.006Z</time>
      </trkpt>
      <trkpt lat="45.40029" lon="5.11482">
        <ele>466</ele>
        <time>2021-10-10T11:01:32.999Z</time>
      </trkpt>
      <trkpt lat="45.40031" lon="5.11474">
        <ele>466</ele>
        <time>2021-10-10T11:01:37.010Z</time>
      </trkpt>
      <trkpt lat="45.40033" lon="5.11464">
        <ele>466</ele>
        <time>2021-10-10T11:01:41.999Z</time>
      </trkpt>
      <trkpt lat="45.40035" lon="5.11457">
        <ele>465</ele>
        <time>2021-10-10T11:01:46.043Z</time>
      </trkpt>
      <trkpt lat="45.40037" lon="5.11447">
        <ele>465</ele>
        <time>2021-10-10T11:01:50.998Z</time>
      </trkpt>
      <trkpt lat="45.40039" lon="5.11437">
        <ele>465</ele>
        <time>2021-10-10T11:01:56.023Z</time>
      </trkpt>
      <trkpt lat="45.40041" lon="5.11427">
        <ele>465</ele>
        <time>2021-10-10T11:02:01.013Z</time>
      </trkpt>
      <trkpt lat="45.40042" lon="5.11418">
        <ele>460</ele>
        <time>2021-10-10T11:02:05.995Z</time>
      </trkpt>
      <trkpt lat="45.40044" lon="5.1141">
        <ele>460</ele>
        <time>2021-10-10T11:02:10.002Z</time>
      </trkpt>
      <trkpt lat="45.40046" lon="5.11403">
        <ele>460</ele>
        <time>2021-10-10T11:02:14.011Z</time>
      </trkpt>
      <trkpt lat="45.40049" lon="5.11393">
        <ele>460</ele>
        <time>2021-10-10T11:02:18.975Z</time>
      </trkpt>
      <trkpt lat="45.40051" lon="5.11385">
        <ele>460</ele>
        <time>2021-10-10T11:02:23.034Z</time>
      </trkpt>
      <trkpt lat="45.40053" lon="5.11375">
        <ele>460</ele>
        <time>2021-10-10T11:02:27.987Z</time>
      </trkpt>
      <trkpt lat="45.40054" lon="5.11367">
        <ele>461</ele>
        <time>2021-10-10T11:02:32.007Z</time>
      </trkpt>
      <trkpt lat="45.40056" lon="5.11356">
        <ele>461</ele>
        <time>2021-10-10T11:02:36.983Z</time>
      </trkpt>
      <trkpt lat="45.40056" lon="5.11349">
        <ele>461</ele>
        <time>2021-10-10T11:02:40.997Z</time>
      </trkpt>
      <trkpt lat="45.40056" lon="5.11343">
        <ele>462</ele>
        <time>2021-10-10T11:02:45.033Z</time>
      </trkpt>
      <trkpt lat="45.40058" lon="5.11336">
        <ele>462</ele>
        <time>2021-10-10T11:02:49.995Z</time>
      </trkpt>
      <trkpt lat="45.40058" lon="5.11321">
        <ele>462</ele>
        <time>2021-10-10T11:02:54.966Z</time>
      </trkpt>
      <trkpt lat="45.40058" lon="5.11313">
        <ele>461</ele>
        <time>2021-10-10T11:02:59Z</time>
      </trkpt>
      <trkpt lat="45.40057" lon="5.11305">
        <ele>461</ele>
        <time>2021-10-10T11:03:03.989Z</time>
      </trkpt>
      <trkpt lat="45.40056" lon="5.113">
        <ele>461</ele>
        <time>2021-10-10T11:03:07.991Z</time>
      </trkpt>
      <trkpt lat="45.40056" lon="5.11292">
        <ele>459</ele>
        <time>2021-10-10T11:03:12.977Z</time>
      </trkpt>
      <trkpt lat="45.40056" lon="5.11283">
        <ele>459</ele>
        <time>2021-10-10T11:03:17.986Z</time>
      </trkpt>
      <trkpt lat="45.40056" lon="5.11273">
        <ele>459</ele>
        <time>2021-10-10T11:03:23.032Z</time>
      </trkpt>
      <trkpt lat="45.40056" lon="5.11264">
        <ele>457</ele>
        <time>2021-10-10T11:03:27.988Z</time>
      </trkpt>
      <trkpt lat="45.40056" lon="5.11256">
        <ele>457</ele>
        <time>2021-10-10T11:03:32.006Z</time>
      </trkpt>
      <trkpt lat="45.40056" lon="5.11248">
        <ele>457</ele>
        <time>2021-10-10T11:03:36.007Z</time>
      </trkpt>
      <trkpt lat="45.40057" lon="5.11241">
        <ele>457</ele>
        <time>2021-10-10T11:03:40.037Z</time>
      </trkpt>
      <trkpt lat="45.40057" lon="5.11231">
        <ele>456</ele>
        <time>2021-10-10T11:03:45.043Z</time>
      </trkpt>
      <trkpt lat="45.40057" lon="5.1122">
        <ele>456</ele>
        <time>2021-10-10T11:03:49.999Z</time>
      </trkpt>
      <trkpt lat="45.40057" lon="5.11211">
        <ele>456</ele>
        <time>2021-10-10T11:03:54.006Z</time>
      </trkpt>
      <trkpt lat="45.40057" lon="5.11203">
        <ele>455</ele>
        <time>2021-10-10T11:03:58.014Z</time>
      </trkpt>
      <trkpt lat="45.40058" lon="5.11193">
        <ele>455</ele>
        <time>2021-10-10T11:04:03.008Z</time>
      </trkpt>
      <trkpt lat="45.40058" lon="5.11184">
        <ele>455</ele>
        <time>2021-10-10T11:04:07.997Z</time>
      </trkpt>
      <trkpt lat="45.40057" lon="5.11174">
        <ele>455</ele>
        <time>2021-10-10T11:04:13.001Z</time>
      </trkpt>
      <trkpt lat="45.40056" lon="5.11165">
        <ele>455</ele>
        <time>2021-10-10T11:04:17.024Z</time>
      </trkpt>
      <trkpt lat="45.40058" lon="5.11155">
        <ele>455</ele>
        <time>2021-10-10T11:04:21.998Z</time>
      </trkpt>
      <trkpt lat="45.40057" lon="5.11146">
        <ele>453</ele>
        <time>2021-10-10T11:04:26.028Z</time>
      </trkpt>
      <trkpt lat="45.40057" lon="5.11135">
        <ele>453</ele>
        <time>2021-10-10T11:04:30.998Z</time>
      </trkpt>
      <trkpt lat="45.40055" lon="5.1112">
        <ele>451</ele>
        <time>2021-10-10T11:04:35.997Z</time>
      </trkpt>
      <trkpt lat="45.40058" lon="5.11102">
        <ele>451</ele>
        <time>2021-10-10T11:04:40.977Z</time>
      </trkpt>
      <trkpt lat="45.40058" lon="5.1109">
        <ele>451</ele>
        <time>2021-10-10T11:04:45.002Z</time>
      </trkpt>
      <trkpt lat="45.40058" lon="5.11082">
        <ele>451</ele>
        <time>2021-10-10T11:04:49.014Z</time>
      </trkpt>
      <trkpt lat="45.40057" lon="5.11076">
        <ele>451</ele>
        <time>2021-10-10T11:04:53.024Z</time>
      </trkpt>
      <trkpt lat="45.40055" lon="5.11068">
        <ele>450</ele>
        <time>2021-10-10T11:04:57.965Z</time>
      </trkpt>
      <trkpt lat="45.40054" lon="5.11062">
        <ele>450</ele>
        <time>2021-10-10T11:05:02.022Z</time>
      </trkpt>
      <trkpt lat="45.40053" lon="5.11053">
        <ele>450</ele>
        <time>2021-10-10T11:05:07.003Z</time>
      </trkpt>
      <trkpt lat="45.40052" lon="5.11047">
        <ele>450</ele>
        <time>2021-10-10T11:05:11.065Z</time>
      </trkpt>
      <trkpt lat="45.40052" lon="5.11037">
        <ele>450</ele>
        <time>2021-10-10T11:05:16.002Z</time>
      </trkpt>
      <trkpt lat="45.40051" lon="5.11027">
        <ele>450</ele>
        <time>2021-10-10T11:05:21.010Z</time>
      </trkpt>
      <trkpt lat="45.40051" lon="5.11017">
        <ele>450</ele>
        <time>2021-10-10T11:05:26.024Z</time>
      </trkpt>
      <trkpt lat="45.40051" lon="5.11007">
        <ele>450</ele>
        <time>2021-10-10T11:05:31.039Z</time>
      </trkpt>
      <trkpt lat="45.4005" lon="5.11">
        <ele>450</ele>
        <time>2021-10-10T11:05:35.995Z</time>
      </trkpt>
      <trkpt lat="45.40048" lon="5.10991">
        <ele>450</ele>
        <time>2021-10-10T11:05:41.002Z</time>
      </trkpt>
      <trkpt lat="45.40047" lon="5.10981">
        <ele>450</ele>
        <time>2021-10-10T11:05:45.990Z</time>
      </trkpt>
      <trkpt lat="45.40047" lon="5.10972">
        <ele>450</ele>
        <time>2021-10-10T11:05:49.999Z</time>
      </trkpt>
      <trkpt lat="45.40047" lon="5.10964">
        <ele>450</ele>
        <time>2021-10-10T11:05:54.042Z</time>
      </trkpt>
      <trkpt lat="45.40047" lon="5.10955">
        <ele>450</ele>
        <time>2021-10-10T11:05:59.028Z</time>
      </trkpt>
      <trkpt lat="45.40047" lon="5.10946">
        <ele>450</ele>
        <time>2021-10-10T11:06:03.995Z</time>
      </trkpt>
      <trkpt lat="45.40047" lon="5.10938">
        <ele>450</ele>
        <time>2021-10-10T11:06:08.010Z</time>
      </trkpt>
      <trkpt lat="45.40047" lon="5.10929">
        <ele>449</ele>
        <time>2021-10-10T11:06:12.993Z</time>
      </trkpt>
      <trkpt lat="45.40047" lon="5.10921">
        <ele>449</ele>
        <time>2021-10-10T11:06:17.007Z</time>
      </trkpt>
      <trkpt lat="45.40046" lon="5.10914">
        <ele>449</ele>
        <time>2021-10-10T11:06:21.025Z</time>
      </trkpt>
      <trkpt lat="45.40046" lon="5.10903">
        <ele>449</ele>
        <time>2021-10-10T11:06:26.009Z</time>
      </trkpt>
      <trkpt lat="45.40046" lon="5.10895">
        <ele>447</ele>
        <time>2021-10-10T11:06:30.013Z</time>
      </trkpt>
      <trkpt lat="45.40047" lon="5.1088">
        <ele>447</ele>
        <time>2021-10-10T11:06:35.028Z</time>
      </trkpt>
      <trkpt lat="45.40049" lon="5.10866">
        <ele>446</ele>
        <time>2021-10-10T11:06:39.034Z</time>
      </trkpt>
      <trkpt lat="45.40053" lon="5.10852">
        <ele>446</ele>
        <time>2021-10-10T11:06:44Z</time>
      </trkpt>
      <trkpt lat="45.40052" lon="5.10843">
        <ele>446</ele>
        <time>2021-10-10T11:06:48.009Z</time>
      </trkpt>
      <trkpt lat="45.40051" lon="5.10834">
        <ele>446</ele>
        <time>2021-10-10T11:06:52.028Z</time>
      </trkpt>
      <trkpt lat="45.4005" lon="5.10827">
        <ele>446</ele>
        <time>2021-10-10T11:06:56.054Z</time>
      </trkpt>
      <trkpt lat="45.40047" lon="5.10818">
        <ele>445</ele>
        <time>2021-10-10T11:07:00.951Z</time>
      </trkpt>
      <trkpt lat="45.40045" lon="5.10813">
        <ele>445</ele>
        <time>2021-10-10T11:07:05.023Z</time>
      </trkpt>
      <trkpt lat="45.40041" lon="5.10805">
        <ele>450</ele>
        <time>2021-10-10T11:07:09.993Z</time>
      </trkpt>
      <trkpt lat="45.40037" lon="5.10796">
        <ele>450</ele>
        <time>2021-10-10T11:07:15.003Z</time>
      </trkpt>
      <trkpt lat="45.40033" lon="5.10785">
        <ele>449</ele>
        <time>2021-10-10T11:07:20.006Z</time>
      </trkpt>
      <trkpt lat="45.40031" lon="5.10777">
        <ele>449</ele>
        <time>2021-10-10T11:07:24.023Z</time>
      </trkpt>
      <trkpt lat="45.40028" lon="5.10767">
        <ele>449</ele>
        <time>2021-10-10T11:07:29.027Z</time>
      </trkpt>
      <trkpt lat="45.40027" lon="5.10757">
        <ele>447</ele>
        <time>2021-10-10T11:07:33.992Z</time>
      </trkpt>
      <trkpt lat="45.40026" lon="5.1075">
        <ele>447</ele>
        <time>2021-10-10T11:07:37.996Z</time>
      </trkpt>
      <trkpt lat="45.40023" lon="5.1074">
        <ele>447</ele>
        <time>2021-10-10T11:07:43.021Z</time>
      </trkpt>
      <trkpt lat="45.4002" lon="5.10731">
        <ele>446</ele>
        <time>2021-10-10T11:07:48.029Z</time>
      </trkpt>
      <trkpt lat="45.40017" lon="5.10718">
        <ele>446</ele>
        <time>2021-10-10T11:07:53.022Z</time>
      </trkpt>
      <trkpt lat="45.40015" lon="5.10708">
        <ele>445</ele>
        <time>2021-10-10T11:07:58.003Z</time>
      </trkpt>
      <trkpt lat="45.40011" lon="5.10692">
        <ele>448</ele>
        <time>2021-10-10T11:08:03Z</time>
      </trkpt>
      <trkpt lat="45.40008" lon="5.10681">
        <ele>448</ele>
        <time>2021-10-10T11:08:07.976Z</time>
      </trkpt>
      <trkpt lat="45.40007" lon="5.10673">
        <ele>447</ele>
        <time>2021-10-10T11:08:11.990Z</time>
      </trkpt>
      <trkpt lat="45.40006" lon="5.10664">
        <ele>447</ele>
        <time>2021-10-10T11:08:17.052Z</time>
      </trkpt>
      <trkpt lat="45.40005" lon="5.10656">
        <ele>447</ele>
        <time>2021-10-10T11:08:22.039Z</time>
      </trkpt>
      <trkpt lat="45.40004" lon="5.10647">
        <ele>446</ele>
        <time>2021-10-10T11:08:27.002Z</time>
      </trkpt>
      <trkpt lat="45.40003" lon="5.10638">
        <ele>446</ele>
        <time>2021-10-10T11:08:32Z</time>
      </trkpt>
      <trkpt lat="45.40003" lon="5.10626">
        <ele>446</ele>
        <time>2021-10-10T11:08:36.965Z</time>
      </trkpt>
      <trkpt lat="45.40003" lon="5.10616">
        <ele>447</ele>
        <time>2021-10-10T11:08:40.992Z</time>
      </trkpt>
      <trkpt lat="45.40001" lon="5.10605">
        <ele>447</ele>
        <time>2021-10-10T11:08:45.982Z</time>
      </trkpt>
      <trkpt lat="45.4" lon="5.10598">
        <ele>447</ele>
        <time>2021-10-10T11:08:49.989Z</time>
      </trkpt>
      <trkpt lat="45.39998" lon="5.10587">
        <ele>448</ele>
        <time>2021-10-10T11:08:55.027Z</time>
      </trkpt>
      <trkpt lat="45.39996" lon="5.10576">
        <ele>448</ele>
        <time>2021-10-10T11:08:59.967Z</time>
      </trkpt>
      <trkpt lat="45.39994" lon="5.10569">
        <ele>448</ele>
        <time>2021-10-10T11:09:04.028Z</time>
      </trkpt>
      <trkpt lat="45.39992" lon="5.10559">
        <ele>448</ele>
        <time>2021-10-10T11:09:08.044Z</time>
      </trkpt>
      <trkpt lat="45.39991" lon="5.10549">
        <ele>448</ele>
        <time>2021-10-10T11:09:12.971Z</time>
      </trkpt>
      <trkpt lat="45.39991" lon="5.1054">
        <ele>446</ele>
        <time>2021-10-10T11:09:16.995Z</time>
      </trkpt>
      <trkpt lat="45.3999" lon="5.10532">
        <ele>446</ele>
        <time>2021-10-10T11:09:21.006Z</time>
      </trkpt>
      <trkpt lat="45.3999" lon="5.10522">
        <ele>446</ele>
        <time>2021-10-10T11:09:26.007Z</time>
      </trkpt>
      <trkpt lat="45.39989" lon="5.10513">
        <ele>445</ele>
        <time>2021-10-10T11:09:31.024Z</time>
      </trkpt>
      <trkpt lat="45.39988" lon="5.10503">
        <ele>445</ele>
        <time>2021-10-10T11:09:35.980Z</time>
      </trkpt>
      <trkpt lat="45.39988" lon="5.10494">
        <ele>445</ele>
        <time>2021-10-10T11:09:40.995Z</time>
      </trkpt>
      <trkpt lat="45.39987" lon="5.10485">
        <ele>443</ele>
        <time>2021-10-10T11:09:45.991Z</time>
      </trkpt>
      <trkpt lat="45.39984" lon="5.10476">
        <ele>448</ele>
        <time>2021-10-10T11:09:50.004Z</time>
      </trkpt>
      <trkpt lat="45.39982" lon="5.10468">
        <ele>448</ele>
        <time>2021-10-10T11:09:55.013Z</time>
      </trkpt>
      <trkpt lat="45.3998" lon="5.10459">
        <ele>448</ele>
        <time>2021-10-10T11:10:00.003Z</time>
      </trkpt>
      <trkpt lat="45.39977" lon="5.10447">
        <ele>446</ele>
        <time>2021-10-10T11:10:05.027Z</time>
      </trkpt>
      <trkpt lat="45.39975" lon="5.10437">
        <ele>446</ele>
        <time>2021-10-10T11:10:10Z</time>
      </trkpt>
      <trkpt lat="45.39972" lon="5.10426">
        <ele>444</ele>
        <time>2021-10-10T11:10:15.007Z</time>
      </trkpt>
      <trkpt lat="45.3997" lon="5.10417">
        <ele>444</ele>
        <time>2021-10-10T11:10:19.018Z</time>
      </trkpt>
      <trkpt lat="45.39967" lon="5.10404">
        <ele>444</ele>
        <time>2021-10-10T11:10:23.998Z</time>
      </trkpt>
      <trkpt lat="45.39965" lon="5.10396">
        <ele>442</ele>
        <time>2021-10-10T11:10:28.004Z</time>
      </trkpt>
      <trkpt lat="45.39963" lon="5.10388">
        <ele>442</ele>
        <time>2021-10-10T11:10:33.015Z</time>
      </trkpt>
      <trkpt lat="45.39959" lon="5.1038">
        <ele>442</ele>
        <time>2021-10-10T11:10:38Z</time>
      </trkpt>
      <trkpt lat="45.39957" lon="5.1037">
        <ele>445</ele>
        <time>2021-10-10T11:10:42.994Z</time>
      </trkpt>
      <trkpt lat="45.39953" lon="5.10359">
        <ele>445</ele>
        <time>2021-10-10T11:10:48.029Z</time>
      </trkpt>
      <trkpt lat="45.39949" lon="5.10346">
        <ele>443</ele>
        <time>2021-10-10T11:10:52.992Z</time>
      </trkpt>
      <trkpt lat="45.39945" lon="5.10338">
        <ele>443</ele>
        <time>2021-10-10T11:10:57.003Z</time>
      </trkpt>
      <trkpt lat="45.39943" lon="5.10329">
        <ele>443</ele>
        <time>2021-10-10T11:11:01.070Z</time>
      </trkpt>
      <trkpt lat="45.3994" lon="5.10318">
        <ele>443</ele>
        <time>2021-10-10T11:11:05.983Z</time>
      </trkpt>
      <trkpt lat="45.39936" lon="5.10308">
        <ele>443</ele>
        <time>2021-10-10T11:11:11.011Z</time>
      </trkpt>
      <trkpt lat="45.39933" lon="5.10297">
        <ele>443</ele>
        <time>2021-10-10T11:11:16.012Z</time>
      </trkpt>
      <trkpt lat="45.39933" lon="5.10287">
        <ele>441</ele>
        <time>2021-10-10T11:11:20.990Z</time>
      </trkpt>
      <trkpt lat="45.39931" lon="5.1028">
        <ele>441</ele>
        <time>2021-10-10T11:11:24.998Z</time>
      </trkpt>
      <trkpt lat="45.39929" lon="5.10272">
        <ele>447</ele>
        <time>2021-10-10T11:11:29.032Z</time>
      </trkpt>
      <trkpt lat="45.39926" lon="5.10261">
        <ele>445</ele>
        <time>2021-10-10T11:11:33.998Z</time>
      </trkpt>
      <trkpt lat="45.39924" lon="5.10253">
        <ele>445</ele>
        <time>2021-10-10T11:11:38.032Z</time>
      </trkpt>
      <trkpt lat="45.39922" lon="5.10243">
        <ele>445</ele>
        <time>2021-10-10T11:11:42.999Z</time>
      </trkpt>
      <trkpt lat="45.39919" lon="5.10234">
        <ele>441</ele>
        <time>2021-10-10T11:11:47.024Z</time>
      </trkpt>
      <trkpt lat="45.39917" lon="5.10226">
        <ele>441</ele>
        <time>2021-10-10T11:11:51.036Z</time>
      </trkpt>
      <trkpt lat="45.39915" lon="5.10216">
        <ele>441</ele>
        <time>2021-10-10T11:11:55.991Z</time>
      </trkpt>
      <trkpt lat="45.39913" lon="5.10209">
        <ele>441</ele>
        <time>2021-10-10T11:12:00.004Z</time>
      </trkpt>
      <trkpt lat="45.39909" lon="5.10198">
        <ele>442</ele>
        <time>2021-10-10T11:12:05Z</time>
      </trkpt>
      <trkpt lat="45.39904" lon="5.10189">
        <ele>442</ele>
        <time>2021-10-10T11:12:10.035Z</time>
      </trkpt>
      <trkpt lat="45.39903" lon="5.10178">
        <ele>442</ele>
        <time>2021-10-10T11:12:14.992Z</time>
      </trkpt>
      <trkpt lat="45.39903" lon="5.1017">
        <ele>442</ele>
        <time>2021-10-10T11:12:19.038Z</time>
      </trkpt>
      <trkpt lat="45.39902" lon="5.10162">
        <ele>445</ele>
        <time>2021-10-10T11:12:24.003Z</time>
      </trkpt>
      <trkpt lat="45.39901" lon="5.10155">
        <ele>445</ele>
        <time>2021-10-10T11:12:28.039Z</time>
      </trkpt>
      <trkpt lat="45.39902" lon="5.10145">
        <ele>445</ele>
        <time>2021-10-10T11:12:33.001Z</time>
      </trkpt>
      <trkpt lat="45.39903" lon="5.10136">
        <ele>445</ele>
        <time>2021-10-10T11:12:37.998Z</time>
      </trkpt>
      <trkpt lat="45.39902" lon="5.10126">
        <ele>445</ele>
        <time>2021-10-10T11:12:43.018Z</time>
      </trkpt>
      <trkpt lat="45.39901" lon="5.10116">
        <ele>444</ele>
        <time>2021-10-10T11:12:47.984Z</time>
      </trkpt>
      <trkpt lat="45.399" lon="5.1011">
        <ele>444</ele>
        <time>2021-10-10T11:12:51.996Z</time>
      </trkpt>
      <trkpt lat="45.39901" lon="5.101">
        <ele>444</ele>
        <time>2021-10-10T11:12:56.997Z</time>
      </trkpt>
      <trkpt lat="45.399" lon="5.10089">
        <ele>443</ele>
        <time>2021-10-10T11:13:01.995Z</time>
      </trkpt>
      <trkpt lat="45.39897" lon="5.1008">
        <ele>443</ele>
        <time>2021-10-10T11:13:07.003Z</time>
      </trkpt>
      <trkpt lat="45.39892" lon="5.10067">
        <ele>443</ele>
        <time>2021-10-10T11:13:11.962Z</time>
      </trkpt>
      <trkpt lat="45.3989" lon="5.10062">
        <ele>443</ele>
        <time>2021-10-10T11:13:15.989Z</time>
      </trkpt>
      <trkpt lat="45.39888" lon="5.10054">
        <ele>443</ele>
        <time>2021-10-10T11:13:20.986Z</time>
      </trkpt>
      <trkpt lat="45.39886" lon="5.10048">
        <ele>443</ele>
        <time>2021-10-10T11:13:24.992Z</time>
      </trkpt>
      <trkpt lat="45.39882" lon="5.10037">
        <ele>443</ele>
        <time>2021-10-10T11:13:29.995Z</time>
      </trkpt>
      <trkpt lat="45.39879" lon="5.10029">
        <ele>443</ele>
        <time>2021-10-10T11:13:34.998Z</time>
      </trkpt>
      <trkpt lat="45.39875" lon="5.10021">
        <ele>443</ele>
        <time>2021-10-10T11:13:39.995Z</time>
      </trkpt>
      <trkpt lat="45.39872" lon="5.10013">
        <ele>443</ele>
        <time>2021-10-10T11:13:44.001Z</time>
      </trkpt>
      <trkpt lat="45.39868" lon="5.10003">
        <ele>443</ele>
        <time>2021-10-10T11:13:48.995Z</time>
      </trkpt>
      <trkpt lat="45.39864" lon="5.09993">
        <ele>443</ele>
        <time>2021-10-10T11:13:53.998Z</time>
      </trkpt>
      <trkpt lat="45.39861" lon="5.09987">
        <ele>443</ele>
        <time>2021-10-10T11:13:58Z</time>
      </trkpt>
      <trkpt lat="45.39858" lon="5.09981">
        <ele>442</ele>
        <time>2021-10-10T11:14:02.025Z</time>
      </trkpt>
      <trkpt lat="45.39855" lon="5.09971">
        <ele>442</ele>
        <time>2021-10-10T11:14:06.996Z</time>
      </trkpt>
      <trkpt lat="45.39851" lon="5.09962">
        <ele>442</ele>
        <time>2021-10-10T11:14:12.003Z</time>
      </trkpt>
      <trkpt lat="45.39847" lon="5.09953">
        <ele>444</ele>
        <time>2021-10-10T11:14:16.986Z</time>
      </trkpt>
      <trkpt lat="45.39842" lon="5.09947">
        <ele>444</ele>
        <time>2021-10-10T11:14:21.979Z</time>
      </trkpt>
      <trkpt lat="45.39839" lon="5.09942">
        <ele>444</ele>
        <time>2021-10-10T11:14:25.997Z</time>
      </trkpt>
      <trkpt lat="45.39836" lon="5.09936">
        <ele>444</ele>
        <time>2021-10-10T11:14:30.002Z</time>
      </trkpt>
      <trkpt lat="45.39834" lon="5.09925">
        <ele>443</ele>
        <time>2021-10-10T11:14:34.023Z</time>
      </trkpt>
      <trkpt lat="45.39834" lon="5.09912">
        <ele>443</ele>
        <time>2021-10-10T11:14:38.996Z</time>
      </trkpt>
      <trkpt lat="45.39831" lon="5.09901">
        <ele>443</ele>
        <time>2021-10-10T11:14:44.028Z</time>
      </trkpt>
      <trkpt lat="45.39831" lon="5.09888">
        <ele>443</ele>
        <time>2021-10-10T11:14:48.993Z</time>
      </trkpt>
      <trkpt lat="45.39829" lon="5.09879">
        <ele>443</ele>
        <time>2021-10-10T11:14:54.004Z</time>
      </trkpt>
      <trkpt lat="45.39827" lon="5.09869">
        <ele>443</ele>
        <time>2021-10-10T11:14:58.997Z</time>
      </trkpt>
      <trkpt lat="45.39825" lon="5.09861">
        <ele>443</ele>
        <time>2021-10-10T11:15:02.996Z</time>
      </trkpt>
      <trkpt lat="45.39825" lon="5.09848">
        <ele>443</ele>
        <time>2021-10-10T11:15:07.994Z</time>
      </trkpt>
      <trkpt lat="45.39825" lon="5.09836">
        <ele>443</ele>
        <time>2021-10-10T11:15:12.952Z</time>
      </trkpt>
      <trkpt lat="45.39826" lon="5.09828">
        <ele>443</ele>
        <time>2021-10-10T11:15:16.962Z</time>
      </trkpt>
      <trkpt lat="45.39825" lon="5.09819">
        <ele>442</ele>
        <time>2021-10-10T11:15:20.990Z</time>
      </trkpt>
      <trkpt lat="45.39824" lon="5.09808">
        <ele>442</ele>
        <time>2021-10-10T11:15:25.990Z</time>
      </trkpt>
      <trkpt lat="45.39822" lon="5.098">
        <ele>442</ele>
        <time>2021-10-10T11:15:29.987Z</time>
      </trkpt>
      <trkpt lat="45.39823" lon="5.0979">
        <ele>442</ele>
        <time>2021-10-10T11:15:34.969Z</time>
      </trkpt>
      <trkpt lat="45.39823" lon="5.09781">
        <ele>442</ele>
        <time>2021-10-10T11:15:38.998Z</time>
      </trkpt>
      <trkpt lat="45.39823" lon="5.09771">
        <ele>442</ele>
        <time>2021-10-10T11:15:43.003Z</time>
      </trkpt>
      <trkpt lat="45.39822" lon="5.09758">
        <ele>442</ele>
        <time>2021-10-10T11:15:48.045Z</time>
      </trkpt>
      <trkpt lat="45.39822" lon="5.09739">
        <ele>442</ele>
        <time>2021-10-10T11:15:53.009Z</time>
      </trkpt>
      <trkpt lat="45.39824" lon="5.09728">
        <ele>443</ele>
        <time>2021-10-10T11:15:58.008Z</time>
      </trkpt>
      <trkpt lat="45.39824" lon="5.09719">
        <ele>443</ele>
        <time>2021-10-10T11:16:03.002Z</time>
      </trkpt>
      <trkpt lat="45.39824" lon="5.09712">
        <ele>443</ele>
        <time>2021-10-10T11:16:07.010Z</time>
      </trkpt>
      <trkpt lat="45.39825" lon="5.09705">
        <ele>444</ele>
        <time>2021-10-10T11:16:11.031Z</time>
      </trkpt>
      <trkpt lat="45.39825" lon="5.09696">
        <ele>444</ele>
        <time>2021-10-10T11:16:16.029Z</time>
      </trkpt>
      <trkpt lat="45.39825" lon="5.09688">
        <ele>444</ele>
        <time>2021-10-10T11:16:20.997Z</time>
      </trkpt>
      <trkpt lat="45.39825" lon="5.0968">
        <ele>443</ele>
        <time>2021-10-10T11:16:25.028Z</time>
      </trkpt>
      <trkpt lat="45.39823" lon="5.09672">
        <ele>443</ele>
        <time>2021-10-10T11:16:29.051Z</time>
      </trkpt>
      <trkpt lat="45.39822" lon="5.0966">
        <ele>443</ele>
        <time>2021-10-10T11:16:34.027Z</time>
      </trkpt>
      <trkpt lat="45.39821" lon="5.09652">
        <ele>441</ele>
        <time>2021-10-10T11:16:38.036Z</time>
      </trkpt>
      <trkpt lat="45.3982" lon="5.09643">
        <ele>441</ele>
        <time>2021-10-10T11:16:42.984Z</time>
      </trkpt>
      <trkpt lat="45.39818" lon="5.09635">
        <ele>447</ele>
        <time>2021-10-10T11:16:47.001Z</time>
      </trkpt>
      <trkpt lat="45.39816" lon="5.09625">
        <ele>445</ele>
        <time>2021-10-10T11:16:52.024Z</time>
      </trkpt>
      <trkpt lat="45.39813" lon="5.09615">
        <ele>445</ele>
        <time>2021-10-10T11:16:57.009Z</time>
      </trkpt>
      <trkpt lat="45.39813" lon="5.09605">
        <ele>445</ele>
        <time>2021-10-10T11:17:01.013Z</time>
      </trkpt>
      <trkpt lat="45.39812" lon="5.09592">
        <ele>445</ele>
        <time>2021-10-10T11:17:06.005Z</time>
      </trkpt>
      <trkpt lat="45.39811" lon="5.09575">
        <ele>445</ele>
        <time>2021-10-10T11:17:10.979Z</time>
      </trkpt>
      <trkpt lat="45.3981" lon="5.09564">
        <ele>446</ele>
        <time>2021-10-10T11:17:14.987Z</time>
      </trkpt>
      <trkpt lat="45.39809" lon="5.0955">
        <ele>446</ele>
        <time>2021-10-10T11:17:19.961Z</time>
      </trkpt>
      <trkpt lat="45.3981" lon="5.09541">
        <ele>445</ele>
        <time>2021-10-10T11:17:23.987Z</time>
      </trkpt>
      <trkpt lat="45.3981" lon="5.09531">
        <ele>445</ele>
        <time>2021-10-10T11:17:28.973Z</time>
      </trkpt>
      <trkpt lat="45.39812" lon="5.09522">
        <ele>445</ele>
        <time>2021-10-10T11:17:32.984Z</time>
      </trkpt>
      <trkpt lat="45.39814" lon="5.0951">
        <ele>442</ele>
        <time>2021-10-10T11:17:37.997Z</time>
      </trkpt>
      <trkpt lat="45.39815" lon="5.09502">
        <ele>442</ele>
        <time>2021-10-10T11:17:42Z</time>
      </trkpt>
      <trkpt lat="45.39818" lon="5.09494">
        <ele>442</ele>
        <time>2021-10-10T11:17:46.030Z</time>
      </trkpt>
      <trkpt lat="45.39821" lon="5.09482">
        <ele>438</ele>
        <time>2021-10-10T11:17:51.012Z</time>
      </trkpt>
      <trkpt lat="45.39822" lon="5.09472">
        <ele>438</ele>
        <time>2021-10-10T11:17:56.012Z</time>
      </trkpt>
      <trkpt lat="45.39824" lon="5.09461">
        <ele>438</ele>
        <time>2021-10-10T11:18:00.995Z</time>
      </trkpt>
      <trkpt lat="45.39824" lon="5.09452">
        <ele>438</ele>
        <time>2021-10-10T11:18:05.033Z</time>
      </trkpt>
      <trkpt lat="45.39823" lon="5.09439">
        <ele>438</ele>
        <time>2021-10-10T11:18:09.999Z</time>
      </trkpt>
      <trkpt lat="45.39822" lon="5.09419">
        <ele>438</ele>
        <time>2021-10-10T11:18:15.004Z</time>
      </trkpt>
      <trkpt lat="45.39821" lon="5.09407">
        <ele>438</ele>
        <time>2021-10-10T11:18:19.029Z</time>
      </trkpt>
      <trkpt lat="45.39818" lon="5.09398">
        <ele>442</ele>
        <time>2021-10-10T11:18:23.034Z</time>
      </trkpt>
      <trkpt lat="45.39816" lon="5.09389">
        <ele>442</ele>
        <time>2021-10-10T11:18:27.999Z</time>
      </trkpt>
      <trkpt lat="45.39814" lon="5.09382">
        <ele>442</ele>
        <time>2021-10-10T11:18:32.030Z</time>
      </trkpt>
      <trkpt lat="45.3981" lon="5.09375">
        <ele>442</ele>
        <time>2021-10-10T11:18:36.980Z</time>
      </trkpt>
      <trkpt lat="45.39807" lon="5.09365">
        <ele>442</ele>
        <time>2021-10-10T11:18:41.970Z</time>
      </trkpt>
      <trkpt lat="45.39804" lon="5.09357">
        <ele>442</ele>
        <time>2021-10-10T11:18:46.021Z</time>
      </trkpt>
      <trkpt lat="45.398" lon="5.09347">
        <ele>442</ele>
        <time>2021-10-10T11:18:50.990Z</time>
      </trkpt>
      <trkpt lat="45.39798" lon="5.09339">
        <ele>441</ele>
        <time>2021-10-10T11:18:55.026Z</time>
      </trkpt>
      <trkpt lat="45.39794" lon="5.0933">
        <ele>441</ele>
        <time>2021-10-10T11:18:59.989Z</time>
      </trkpt>
      <trkpt lat="45.39792" lon="5.09323">
        <ele>447</ele>
        <time>2021-10-10T11:19:03.997Z</time>
      </trkpt>
      <trkpt lat="45.39786" lon="5.0931">
        <ele>446</ele>
        <time>2021-10-10T11:19:08.999Z</time>
      </trkpt>
      <trkpt lat="45.39779" lon="5.09296">
        <ele>446</ele>
        <time>2021-10-10T11:19:14Z</time>
      </trkpt>
      <trkpt lat="45.39771" lon="5.09284">
        <ele>445</ele>
        <time>2021-10-10T11:19:18.029Z</time>
      </trkpt>
      <trkpt lat="45.3976" lon="5.09274">
        <ele>448</ele>
        <time>2021-10-10T11:19:22.996Z</time>
      </trkpt>
      <trkpt lat="45.39758" lon="5.09268">
        <ele>448</ele>
        <time>2021-10-10T11:19:27.031Z</time>
      </trkpt>
      <trkpt lat="45.39752" lon="5.0926">
        <ele>447</ele>
        <time>2021-10-10T11:19:31.999Z</time>
      </trkpt>
      <trkpt lat="45.39747" lon="5.09254">
        <ele>447</ele>
        <time>2021-10-10T11:19:36.009Z</time>
      </trkpt>
      <trkpt lat="45.39741" lon="5.09246">
        <ele>447</ele>
        <time>2021-10-10T11:19:41.005Z</time>
      </trkpt>
      <trkpt lat="45.39737" lon="5.09241">
        <ele>447</ele>
        <time>2021-10-10T11:19:45.035Z</time>
      </trkpt>
      <trkpt lat="45.39731" lon="5.09236">
        <ele>449</ele>
        <time>2021-10-10T11:19:50Z</time>
      </trkpt>
      <trkpt lat="45.39725" lon="5.09232">
        <ele>448</ele>
        <time>2021-10-10T11:19:55.001Z</time>
      </trkpt>
      <trkpt lat="45.39719" lon="5.09227">
        <ele>448</ele>
        <time>2021-10-10T11:19:59.993Z</time>
      </trkpt>
      <trkpt lat="45.39712" lon="5.0922">
        <ele>448</ele>
        <time>2021-10-10T11:20:04.963Z</time>
      </trkpt>
      <trkpt lat="45.39705" lon="5.09214">
        <ele>451</ele>
        <time>2021-10-10T11:20:08.979Z</time>
      </trkpt>
      <trkpt lat="45.39698" lon="5.09206">
        <ele>449</ele>
        <time>2021-10-10T11:20:13.990Z</time>
      </trkpt>
      <trkpt lat="45.39693" lon="5.09199">
        <ele>449</ele>
        <time>2021-10-10T11:20:18.969Z</time>
      </trkpt>
      <trkpt lat="45.39688" lon="5.09194">
        <ele>449</ele>
        <time>2021-10-10T11:20:23.024Z</time>
      </trkpt>
      <trkpt lat="45.39683" lon="5.0919">
        <ele>449</ele>
        <time>2021-10-10T11:20:27.988Z</time>
      </trkpt>
      <trkpt lat="45.39679" lon="5.09181">
        <ele>452</ele>
        <time>2021-10-10T11:20:32.001Z</time>
      </trkpt>
      <trkpt lat="45.39676" lon="5.09174">
        <ele>448</ele>
        <time>2021-10-10T11:20:36.008Z</time>
      </trkpt>
      <trkpt lat="45.39671" lon="5.09166">
        <ele>448</ele>
        <time>2021-10-10T11:20:41.019Z</time>
      </trkpt>
      <trkpt lat="45.39667" lon="5.09159">
        <ele>448</ele>
        <time>2021-10-10T11:20:45.999Z</time>
      </trkpt>
      <trkpt lat="45.39662" lon="5.09153">
        <ele>446</ele>
        <time>2021-10-10T11:20:51.002Z</time>
      </trkpt>
      <trkpt lat="45.39658" lon="5.09148">
        <ele>446</ele>
        <time>2021-10-10T11:20:55.031Z</time>
      </trkpt>
      <trkpt lat="45.39653" lon="5.09142">
        <ele>446</ele>
        <time>2021-10-10T11:20:59.995Z</time>
      </trkpt>
      <trkpt lat="45.39649" lon="5.09137">
        <ele>453</ele>
        <time>2021-10-10T11:21:03.996Z</time>
      </trkpt>
      <trkpt lat="45.39645" lon="5.09131">
        <ele>453</ele>
        <time>2021-10-10T11:21:07.996Z</time>
      </trkpt>
      <trkpt lat="45.39639" lon="5.09123">
        <ele>450</ele>
        <time>2021-10-10T11:21:13.028Z</time>
      </trkpt>
      <trkpt lat="45.39635" lon="5.09112">
        <ele>450</ele>
        <time>2021-10-10T11:21:17.996Z</time>
      </trkpt>
      <trkpt lat="45.39629" lon="5.09097">
        <ele>450</ele>
        <time>2021-10-10T11:21:23.001Z</time>
      </trkpt>
      <trkpt lat="45.39623" lon="5.09084">
        <ele>454</ele>
        <time>2021-10-10T11:21:28.032Z</time>
      </trkpt>
      <trkpt lat="45.39622" lon="5.09074">
        <ele>454</ele>
        <time>2021-10-10T11:21:33.025Z</time>
      </trkpt>
      <trkpt lat="45.39622" lon="5.09064">
        <ele>454</ele>
        <time>2021-10-10T11:21:37.028Z</time>
      </trkpt>
      <trkpt lat="45.39618" lon="5.09053">
        <ele>454</ele>
        <time>2021-10-10T11:21:42.002Z</time>
      </trkpt>
      <trkpt lat="45.39614" lon="5.09041">
        <ele>454</ele>
        <time>2021-10-10T11:21:46.028Z</time>
      </trkpt>
      <trkpt lat="45.39606" lon="5.09028">
        <ele>454</ele>
        <time>2021-10-10T11:21:51.001Z</time>
      </trkpt>
      <trkpt lat="45.39601" lon="5.09018">
        <ele>454</ele>
        <time>2021-10-10T11:21:55.028Z</time>
      </trkpt>
      <trkpt lat="45.39598" lon="5.09008">
        <ele>454</ele>
        <time>2021-10-10T11:22:00Z</time>
      </trkpt>
      <trkpt lat="45.39594" lon="5.09">
        <ele>458</ele>
        <time>2021-10-10T11:22:05.001Z</time>
      </trkpt>
      <trkpt lat="45.3959" lon="5.08995">
        <ele>458</ele>
        <time>2021-10-10T11:22:09.001Z</time>
      </trkpt>
      <trkpt lat="45.39585" lon="5.08989">
        <ele>458</ele>
        <time>2021-10-10T11:22:13.992Z</time>
      </trkpt>
      <trkpt lat="45.39582" lon="5.08982">
        <ele>458</ele>
        <time>2021-10-10T11:22:18.005Z</time>
      </trkpt>
      <trkpt lat="45.3958" lon="5.08974">
        <ele>458</ele>
        <time>2021-10-10T11:22:22.024Z</time>
      </trkpt>
      <trkpt lat="45.39579" lon="5.08964">
        <ele>458</ele>
        <time>2021-10-10T11:22:27.025Z</time>
      </trkpt>
      <trkpt lat="45.39577" lon="5.08954">
        <ele>459</ele>
        <time>2021-10-10T11:22:31.994Z</time>
      </trkpt>
      <trkpt lat="45.39576" lon="5.08945">
        <ele>459</ele>
        <time>2021-10-10T11:22:36.008Z</time>
      </trkpt>
      <trkpt lat="45.39574" lon="5.08936">
        <ele>459</ele>
        <time>2021-10-10T11:22:41.026Z</time>
      </trkpt>
      <trkpt lat="45.39573" lon="5.08926">
        <ele>461</ele>
        <time>2021-10-10T11:22:46.025Z</time>
      </trkpt>
      <trkpt lat="45.3957" lon="5.08917">
        <ele>461</ele>
        <time>2021-10-10T11:22:50.994Z</time>
      </trkpt>
      <trkpt lat="45.39569" lon="5.08909">
        <ele>466</ele>
        <time>2021-10-10T11:22:55.035Z</time>
      </trkpt>
      <trkpt lat="45.39568" lon="5.08899">
        <ele>469</ele>
        <time>2021-10-10T11:22:59.993Z</time>
      </trkpt>
      <trkpt lat="45.39567" lon="5.08888">
        <ele>469</ele>
        <time>2021-10-10T11:23:05Z</time>
      </trkpt>
      <trkpt lat="45.39568" lon="5.08879">
        <ele>469</ele>
        <time>2021-10-10T11:23:09.033Z</time>
      </trkpt>
      <trkpt lat="45.3957" lon="5.08865">
        <ele>466</ele>
        <time>2021-10-10T11:23:14.019Z</time>
      </trkpt>
      <trkpt lat="45.39579" lon="5.0885">
        <ele>466</ele>
        <time>2021-10-10T11:23:18.990Z</time>
      </trkpt>
      <trkpt lat="45.39585" lon="5.08841">
        <ele>467</ele>
        <time>2021-10-10T11:23:23.963Z</time>
      </trkpt>
      <trkpt lat="45.39587" lon="5.08832">
        <ele>467</ele>
        <time>2021-10-10T11:23:28.987Z</time>
      </trkpt>
      <trkpt lat="45.39588" lon="5.08822">
        <ele>467</ele>
        <time>2021-10-10T11:23:34.005Z</time>
      </trkpt>
      <trkpt lat="45.39587" lon="5.08812">
        <ele>467</ele>
        <time>2021-10-10T11:23:38.992Z</time>
      </trkpt>
      <trkpt lat="45.39585" lon="5.08804">
        <ele>467</ele>
        <time>2021-10-10T11:23:43.001Z</time>
      </trkpt>
      <trkpt lat="45.3958" lon="5.08793">
        <ele>467</ele>
        <time>2021-10-10T11:23:47.001Z</time>
      </trkpt>
      <trkpt lat="45.39571" lon="5.08775">
        <ele>466</ele>
        <time>2021-10-10T11:23:52.002Z</time>
      </trkpt>
      <trkpt lat="45.39559" lon="5.08765">
        <ele>467</ele>
        <time>2021-10-10T11:23:57Z</time>
      </trkpt>
      <trkpt lat="45.39551" lon="5.08757">
        <ele>467</ele>
        <time>2021-10-10T11:24:01.007Z</time>
      </trkpt>
      <trkpt lat="45.39545" lon="5.08746">
        <ele>467</ele>
        <time>2021-10-10T11:24:05.986Z</time>
      </trkpt>
      <trkpt lat="45.39541" lon="5.08732">
        <ele>470</ele>
        <time>2021-10-10T11:24:09.997Z</time>
      </trkpt>
      <trkpt lat="45.39538" lon="5.08714">
        <ele>470</ele>
        <time>2021-10-10T11:24:15Z</time>
      </trkpt>
      <trkpt lat="45.39533" lon="5.08693">
        <ele>470</ele>
        <time>2021-10-10T11:24:19.985Z</time>
      </trkpt>
      <trkpt lat="45.39529" lon="5.08678">
        <ele>471</ele>
        <time>2021-10-10T11:24:24.001Z</time>
      </trkpt>
      <trkpt lat="45.39527" lon="5.08661">
        <ele>471</ele>
        <time>2021-10-10T11:24:28.995Z</time>
      </trkpt>
      <trkpt lat="45.39524" lon="5.08642">
        <ele>472</ele>
        <time>2021-10-10T11:24:34.008Z</time>
      </trkpt>
      <trkpt lat="45.39517" lon="5.08628">
        <ele>472</ele>
        <time>2021-10-10T11:24:38.023Z</time>
      </trkpt>
      <trkpt lat="45.39511" lon="5.08613">
        <ele>475</ele>
        <time>2021-10-10T11:24:43.002Z</time>
      </trkpt>
      <trkpt lat="45.3951" lon="5.08601">
        <ele>475</ele>
        <time>2021-10-10T11:24:47.992Z</time>
      </trkpt>
      <trkpt lat="45.39508" lon="5.08592">
        <ele>474</ele>
        <time>2021-10-10T11:24:51.996Z</time>
      </trkpt>
      <trkpt lat="45.39505" lon="5.08584">
        <ele>474</ele>
        <time>2021-10-10T11:24:55.998Z</time>
      </trkpt>
      <trkpt lat="45.39504" lon="5.08574">
        <ele>474</ele>
        <time>2021-10-10T11:25:00.998Z</time>
      </trkpt>
      <trkpt lat="45.39499" lon="5.08561">
        <ele>474</ele>
        <time>2021-10-10T11:25:05.997Z</time>
      </trkpt>
      <trkpt lat="45.39497" lon="5.08548">
        <ele>474</ele>
        <time>2021-10-10T11:25:10.028Z</time>
      </trkpt>
      <trkpt lat="45.39493" lon="5.0853">
        <ele>474</ele>
        <time>2021-10-10T11:25:15.002Z</time>
      </trkpt>
      <trkpt lat="45.3949" lon="5.08516">
        <ele>474</ele>
        <time>2021-10-10T11:25:19.969Z</time>
      </trkpt>
      <trkpt lat="45.39489" lon="5.08499">
        <ele>475</ele>
        <time>2021-10-10T11:25:24Z</time>
      </trkpt>
      <trkpt lat="45.3949" lon="5.08483">
        <ele>476</ele>
        <time>2021-10-10T11:25:29.006Z</time>
      </trkpt>
      <trkpt lat="45.3949" lon="5.0847">
        <ele>476</ele>
        <time>2021-10-10T11:25:34Z</time>
      </trkpt>
      <trkpt lat="45.3949" lon="5.08455">
        <ele>477</ele>
        <time>2021-10-10T11:25:38Z</time>
      </trkpt>
      <trkpt lat="45.39491" lon="5.08441">
        <ele>477</ele>
        <time>2021-10-10T11:25:41.997Z</time>
      </trkpt>
      <trkpt lat="45.39491" lon="5.08435">
        <ele>477</ele>
        <time>2021-10-10T11:25:46.026Z</time>
      </trkpt>
      <trkpt lat="45.39491" lon="5.08428">
        <ele>476</ele>
        <time>2021-10-10T11:25:50.991Z</time>
      </trkpt>
      <trkpt lat="45.39491" lon="5.08422">
        <ele>476</ele>
        <time>2021-10-10T11:25:55.006Z</time>
      </trkpt>
      <trkpt lat="45.3949" lon="5.08415">
        <ele>476</ele>
        <time>2021-10-10T11:26:00.001Z</time>
      </trkpt>
      <trkpt lat="45.39488" lon="5.08407">
        <ele>476</ele>
        <time>2021-10-10T11:26:04.994Z</time>
      </trkpt>
      <trkpt lat="45.39487" lon="5.08399">
        <ele>475</ele>
        <time>2021-10-10T11:26:09.002Z</time>
      </trkpt>
      <trkpt lat="45.39485" lon="5.0839">
        <ele>476</ele>
        <time>2021-10-10T11:26:14Z</time>
      </trkpt>
      <trkpt lat="45.39482" lon="5.08382">
        <ele>476</ele>
        <time>2021-10-10T11:26:18.959Z</time>
      </trkpt>
      <trkpt lat="45.39481" lon="5.08374">
        <ele>476</ele>
        <time>2021-10-10T11:26:23.002Z</time>
      </trkpt>
      <trkpt lat="45.39479" lon="5.08364">
        <ele>476</ele>
        <time>2021-10-10T11:26:27.995Z</time>
      </trkpt>
      <trkpt lat="45.39476" lon="5.08351">
        <ele>476</ele>
        <time>2021-10-10T11:26:32Z</time>
      </trkpt>
      <trkpt lat="45.39475" lon="5.08346">
        <ele>476</ele>
        <time>2021-10-10T11:26:36.990Z</time>
      </trkpt>
      <trkpt lat="45.39472" lon="5.08339">
        <ele>476</ele>
        <time>2021-10-10T11:26:41.007Z</time>
      </trkpt>
      <trkpt lat="45.3947" lon="5.08329">
        <ele>476</ele>
        <time>2021-10-10T11:26:45.029Z</time>
      </trkpt>
      <trkpt lat="45.39468" lon="5.08317">
        <ele>476</ele>
        <time>2021-10-10T11:26:50.024Z</time>
      </trkpt>
      <trkpt lat="45.39466" lon="5.08307">
        <ele>476</ele>
        <time>2021-10-10T11:26:54.969Z</time>
      </trkpt>
      <trkpt lat="45.39465" lon="5.08294">
        <ele>476</ele>
        <time>2021-10-10T11:26:59.986Z</time>
      </trkpt>
      <trkpt lat="45.39462" lon="5.08283">
        <ele>476</ele>
        <time>2021-10-10T11:27:04.993Z</time>
      </trkpt>
      <trkpt lat="45.39461" lon="5.08268">
        <ele>476</ele>
        <time>2021-10-10T11:27:09.979Z</time>
      </trkpt>
      <trkpt lat="45.3946" lon="5.08244">
        <ele>476</ele>
        <time>2021-10-10T11:27:27.992Z</time>
      </trkpt>
      <trkpt lat="45.3946" lon="5.08244">
        <ele>476</ele>
        <time>2021-10-10T11:27:32.953Z</time>
      </trkpt>
      <trkpt lat="45.39459" lon="5.08242">
        <ele>476</ele>
        <time>2021-10-10T11:27:36.978Z</time>
      </trkpt>
      <trkpt lat="45.39459" lon="5.08242">
        <ele>476</ele>
        <time>2021-10-10T11:27:40.988Z</time>
      </trkpt>
      <trkpt lat="45.39458" lon="5.08238">
        <ele>476</ele>
        <time>2021-10-10T11:27:46.001Z</time>
      </trkpt>
      <trkpt lat="45.39455" lon="5.08226">
        <ele>477</ele>
        <time>2021-10-10T11:27:51Z</time>
      </trkpt>
      <trkpt lat="45.39454" lon="5.08216">
        <ele>477</ele>
        <time>2021-10-10T11:27:56.002Z</time>
      </trkpt>
      <trkpt lat="45.39452" lon="5.08205">
        <ele>477</ele>
        <time>2021-10-10T11:28:00.997Z</time>
      </trkpt>
      <trkpt lat="45.39451" lon="5.08196">
        <ele>477</ele>
        <time>2021-10-10T11:28:05.005Z</time>
      </trkpt>
      <trkpt lat="45.39448" lon="5.08185">
        <ele>477</ele>
        <time>2021-10-10T11:28:09.998Z</time>
      </trkpt>
      <trkpt lat="45.39446" lon="5.08179">
        <ele>476</ele>
        <time>2021-10-10T11:28:14.002Z</time>
      </trkpt>
      <trkpt lat="45.39445" lon="5.08172">
        <ele>476</ele>
        <time>2021-10-10T11:28:19.022Z</time>
      </trkpt>
      <trkpt lat="45.39445" lon="5.08168">
        <ele>476</ele>
        <time>2021-10-10T11:28:23.034Z</time>
      </trkpt>
      <trkpt lat="45.39444" lon="5.08167">
        <ele>476</ele>
        <time>2021-10-10T11:28:27.990Z</time>
      </trkpt>
      <trkpt lat="45.39444" lon="5.08167">
        <ele>476</ele>
        <time>2021-10-10T11:28:32.005Z</time>
      </trkpt>
      <trkpt lat="45.39442" lon="5.08165">
        <ele>476</ele>
        <time>2021-10-10T11:28:36.971Z</time>
      </trkpt>
      <trkpt lat="45.39441" lon="5.08159">
        <ele>476</ele>
        <time>2021-10-10T11:28:40.979Z</time>
      </trkpt>
      <trkpt lat="45.39439" lon="5.08153">
        <ele>476</ele>
        <time>2021-10-10T11:28:44.995Z</time>
      </trkpt>
      <trkpt lat="45.39437" lon="5.08146">
        <ele>476</ele>
        <time>2021-10-10T11:28:49.986Z</time>
      </trkpt>
      <trkpt lat="45.39435" lon="5.0814">
        <ele>476</ele>
        <time>2021-10-10T11:28:54.976Z</time>
      </trkpt>
      <trkpt lat="45.39434" lon="5.08133">
        <ele>476</ele>
        <time>2021-10-10T11:28:58.992Z</time>
      </trkpt>
      <trkpt lat="45.39432" lon="5.08124">
        <ele>477</ele>
        <time>2021-10-10T11:29:03.971Z</time>
      </trkpt>
      <trkpt lat="45.39428" lon="5.08117">
        <ele>478</ele>
        <time>2021-10-10T12:07:37.964Z</time>
      </trkpt>
      <trkpt lat="45.39428" lon="5.08118">
        <ele>478</ele>
        <time>2021-10-10T12:07:42.961Z</time>
      </trkpt>
      <trkpt lat="45.39426" lon="5.08121">
        <ele>478</ele>
        <time>2021-10-10T12:07:46.967Z</time>
      </trkpt>
      <trkpt lat="45.39426" lon="5.08115">
        <ele>478</ele>
        <time>2021-10-10T12:07:51.999Z</time>
      </trkpt>
      <trkpt lat="45.39423" lon="5.08108">
        <ele>478</ele>
        <time>2021-10-10T12:07:56.970Z</time>
      </trkpt>
      <trkpt lat="45.39423" lon="5.08108">
        <ele>478</ele>
        <time>2021-10-10T12:08:35.961Z</time>
      </trkpt>
      <trkpt lat="45.39424" lon="5.08111">
        <ele>478</ele>
        <time>2021-10-10T12:08:40.963Z</time>
      </trkpt>
      <trkpt lat="45.39424" lon="5.08117">
        <ele>478</ele>
        <time>2021-10-10T12:08:45.966Z</time>
      </trkpt>
      <trkpt lat="45.39424" lon="5.0812">
        <ele>478</ele>
        <time>2021-10-10T12:08:49.991Z</time>
      </trkpt>
      <trkpt lat="45.39424" lon="5.08121">
        <ele>478</ele>
        <time>2021-10-10T12:08:54.972Z</time>
      </trkpt>
      <trkpt lat="45.39426" lon="5.08114">
        <ele>478</ele>
        <time>2021-10-10T12:13:18.019Z</time>
      </trkpt>
      <trkpt lat="45.39424" lon="5.08108">
        <ele>478</ele>
        <time>2021-10-10T12:13:22.990Z</time>
      </trkpt>
      <trkpt lat="45.39423" lon="5.08103">
        <ele>478</ele>
        <time>2021-10-10T12:13:27.030Z</time>
      </trkpt>
      <trkpt lat="45.39421" lon="5.08096">
        <ele>479</ele>
        <time>2021-10-10T12:13:31.981Z</time>
      </trkpt>
      <trkpt lat="45.3942" lon="5.08089">
        <ele>479</ele>
        <time>2021-10-10T12:13:36.001Z</time>
      </trkpt>
      <trkpt lat="45.39417" lon="5.08082">
        <ele>479</ele>
        <time>2021-10-10T12:13:40.961Z</time>
      </trkpt>
      <trkpt lat="45.39418" lon="5.08077">
        <ele>479</ele>
        <time>2021-10-10T12:13:44.965Z</time>
      </trkpt>
      <trkpt lat="45.39416" lon="5.08072">
        <ele>479</ele>
        <time>2021-10-10T12:13:48.988Z</time>
      </trkpt>
      <trkpt lat="45.39414" lon="5.08067">
        <ele>479</ele>
        <time>2021-10-10T12:13:53.002Z</time>
      </trkpt>
      <trkpt lat="45.39411" lon="5.08062">
        <ele>479</ele>
        <time>2021-10-10T12:13:57.032Z</time>
      </trkpt>
      <trkpt lat="45.39407" lon="5.08055">
        <ele>479</ele>
        <time>2021-10-10T12:14:01.967Z</time>
      </trkpt>
      <trkpt lat="45.39403" lon="5.0805">
        <ele>477</ele>
        <time>2021-10-10T12:14:06.970Z</time>
      </trkpt>
      <trkpt lat="45.394" lon="5.08045">
        <ele>477</ele>
        <time>2021-10-10T12:14:10.995Z</time>
      </trkpt>
      <trkpt lat="45.39398" lon="5.08035">
        <ele>477</ele>
        <time>2021-10-10T12:15:02.988Z</time>
      </trkpt>
      <trkpt lat="45.39397" lon="5.08034">
        <ele>477</ele>
        <time>2021-10-10T12:15:07.004Z</time>
      </trkpt>
      <trkpt lat="45.39394" lon="5.08031">
        <ele>477</ele>
        <time>2021-10-10T12:15:11.994Z</time>
      </trkpt>
      <trkpt lat="45.39391" lon="5.08027">
        <ele>477</ele>
        <time>2021-10-10T12:15:16.957Z</time>
      </trkpt>
      <trkpt lat="45.39389" lon="5.08025">
        <ele>477</ele>
        <time>2021-10-10T12:15:21.001Z</time>
      </trkpt>
      <trkpt lat="45.39387" lon="5.08021">
        <ele>477</ele>
        <time>2021-10-10T12:15:26.002Z</time>
      </trkpt>
      <trkpt lat="45.3939" lon="5.0802">
        <ele>477</ele>
        <time>2021-10-10T12:15:30.977Z</time>
      </trkpt>
      <trkpt lat="45.39392" lon="5.08022">
        <ele>477</ele>
        <time>2021-10-10T12:15:34.996Z</time>
      </trkpt>
      <trkpt lat="45.39395" lon="5.08024">
        <ele>477</ele>
        <time>2021-10-10T12:15:39.021Z</time>
      </trkpt>
      <trkpt lat="45.394" lon="5.08021">
        <ele>477</ele>
        <time>2021-10-10T12:15:44.003Z</time>
      </trkpt>
      <trkpt lat="45.39404" lon="5.0802">
        <ele>477</ele>
        <time>2021-10-10T12:15:48.966Z</time>
      </trkpt>
      <trkpt lat="45.39411" lon="5.08018">
        <ele>477</ele>
        <time>2021-10-10T12:15:53.988Z</time>
      </trkpt>
      <trkpt lat="45.39416" lon="5.08017">
        <ele>477</ele>
        <time>2021-10-10T12:15:57.998Z</time>
      </trkpt>
      <trkpt lat="45.3942" lon="5.08016">
        <ele>477</ele>
        <time>2021-10-10T12:16:02.975Z</time>
      </trkpt>
      <trkpt lat="45.39426" lon="5.08014">
        <ele>477</ele>
        <time>2021-10-10T12:16:07.983Z</time>
      </trkpt>
      <trkpt lat="45.3943" lon="5.08014">
        <ele>475</ele>
        <time>2021-10-10T12:16:11.996Z</time>
      </trkpt>
      <trkpt lat="45.39436" lon="5.08012">
        <ele>475</ele>
        <time>2021-10-10T12:16:16.961Z</time>
      </trkpt>
      <trkpt lat="45.3944" lon="5.08011">
        <ele>475</ele>
        <time>2021-10-10T12:16:20.982Z</time>
      </trkpt>
      <trkpt lat="45.39446" lon="5.08013">
        <ele>475</ele>
        <time>2021-10-10T12:16:25.995Z</time>
      </trkpt>
      <trkpt lat="45.39451" lon="5.08012">
        <ele>475</ele>
        <time>2021-10-10T12:16:30.992Z</time>
      </trkpt>
      <trkpt lat="45.39456" lon="5.08011">
        <ele>475</ele>
        <time>2021-10-10T12:16:35.958Z</time>
      </trkpt>
      <trkpt lat="45.39459" lon="5.0801">
        <ele>474</ele>
        <time>2021-10-10T12:16:39.994Z</time>
      </trkpt>
      <trkpt lat="45.39464" lon="5.08007">
        <ele>474</ele>
        <time>2021-10-10T12:16:45.037Z</time>
      </trkpt>
      <trkpt lat="45.3947" lon="5.08005">
        <ele>474</ele>
        <time>2021-10-10T12:16:49.998Z</time>
      </trkpt>
      <trkpt lat="45.39475" lon="5.08005">
        <ele>474</ele>
        <time>2021-10-10T12:16:54.032Z</time>
      </trkpt>
      <trkpt lat="45.3948" lon="5.08002">
        <ele>474</ele>
        <time>2021-10-10T12:16:59.011Z</time>
      </trkpt>
      <trkpt lat="45.39487" lon="5.08">
        <ele>469</ele>
        <time>2021-10-10T12:17:03.998Z</time>
      </trkpt>
      <trkpt lat="45.39491" lon="5.07998">
        <ele>469</ele>
        <time>2021-10-10T12:17:08.010Z</time>
      </trkpt>
      <trkpt lat="45.39495" lon="5.07996">
        <ele>469</ele>
        <time>2021-10-10T12:17:12.994Z</time>
      </trkpt>
      <trkpt lat="45.39501" lon="5.07994">
        <ele>469</ele>
        <time>2021-10-10T12:17:17.992Z</time>
      </trkpt>
      <trkpt lat="45.39506" lon="5.0799">
        <ele>469</ele>
        <time>2021-10-10T12:17:22.989Z</time>
      </trkpt>
      <trkpt lat="45.39514" lon="5.07987">
        <ele>469</ele>
        <time>2021-10-10T12:17:28.007Z</time>
      </trkpt>
      <trkpt lat="45.39519" lon="5.07982">
        <ele>467</ele>
        <time>2021-10-10T12:17:33.026Z</time>
      </trkpt>
      <trkpt lat="45.39523" lon="5.07978">
        <ele>467</ele>
        <time>2021-10-10T12:17:38.002Z</time>
      </trkpt>
      <trkpt lat="45.39529" lon="5.07976">
        <ele>467</ele>
        <time>2021-10-10T12:17:42.029Z</time>
      </trkpt>
      <trkpt lat="45.39532" lon="5.07971">
        <ele>467</ele>
        <time>2021-10-10T12:17:46.962Z</time>
      </trkpt>
      <trkpt lat="45.39535" lon="5.07965">
        <ele>467</ele>
        <time>2021-10-10T12:17:51.024Z</time>
      </trkpt>
      <trkpt lat="45.39536" lon="5.07958">
        <ele>467</ele>
        <time>2021-10-10T12:17:56.023Z</time>
      </trkpt>
      <trkpt lat="45.39535" lon="5.07952">
        <ele>467</ele>
        <time>2021-10-10T12:18:00.992Z</time>
      </trkpt>
      <trkpt lat="45.39534" lon="5.07945">
        <ele>467</ele>
        <time>2021-10-10T12:18:06.021Z</time>
      </trkpt>
      <trkpt lat="45.39535" lon="5.07938">
        <ele>467</ele>
        <time>2021-10-10T12:18:11.001Z</time>
      </trkpt>
      <trkpt lat="45.39532" lon="5.07932">
        <ele>467</ele>
        <time>2021-10-10T12:18:15.992Z</time>
      </trkpt>
      <trkpt lat="45.39531" lon="5.07925">
        <ele>465</ele>
        <time>2021-10-10T12:18:21Z</time>
      </trkpt>
      <trkpt lat="45.39527" lon="5.0792">
        <ele>465</ele>
        <time>2021-10-10T12:18:25.987Z</time>
      </trkpt>
      <trkpt lat="45.39526" lon="5.07914">
        <ele>465</ele>
        <time>2021-10-10T12:18:30.004Z</time>
      </trkpt>
      <trkpt lat="45.39524" lon="5.07909">
        <ele>465</ele>
        <time>2021-10-10T12:18:34.990Z</time>
      </trkpt>
      <trkpt lat="45.39521" lon="5.07905">
        <ele>465</ele>
        <time>2021-10-10T12:18:38.995Z</time>
      </trkpt>
      <trkpt lat="45.39516" lon="5.07898">
        <ele>460</ele>
        <time>2021-10-10T12:18:44.033Z</time>
      </trkpt>
      <trkpt lat="45.39512" lon="5.07893">
        <ele>464</ele>
        <time>2021-10-10T12:18:48.992Z</time>
      </trkpt>
      <trkpt lat="45.39509" lon="5.07887">
        <ele>464</ele>
        <time>2021-10-10T12:18:53.997Z</time>
      </trkpt>
      <trkpt lat="45.39507" lon="5.07881">
        <ele>464</ele>
        <time>2021-10-10T12:18:58.001Z</time>
      </trkpt>
      <trkpt lat="45.39503" lon="5.07875">
        <ele>460</ele>
        <time>2021-10-10T12:19:02.019Z</time>
      </trkpt>
      <trkpt lat="45.395" lon="5.0787">
        <ele>460</ele>
        <time>2021-10-10T12:19:07.001Z</time>
      </trkpt>
      <trkpt lat="45.39498" lon="5.07862">
        <ele>460</ele>
        <time>2021-10-10T12:19:11.966Z</time>
      </trkpt>
      <trkpt lat="45.39496" lon="5.07857">
        <ele>460</ele>
        <time>2021-10-10T12:19:15.998Z</time>
      </trkpt>
      <trkpt lat="45.39496" lon="5.07847">
        <ele>458</ele>
        <time>2021-10-10T12:19:21.052Z</time>
      </trkpt>
      <trkpt lat="45.39495" lon="5.07838">
        <ele>458</ele>
        <time>2021-10-10T12:19:25.991Z</time>
      </trkpt>
      <trkpt lat="45.39494" lon="5.07833">
        <ele>458</ele>
        <time>2021-10-10T12:19:29.995Z</time>
      </trkpt>
      <trkpt lat="45.39493" lon="5.07826">
        <ele>458</ele>
        <time>2021-10-10T12:19:33.999Z</time>
      </trkpt>
      <trkpt lat="45.39492" lon="5.0782">
        <ele>458</ele>
        <time>2021-10-10T12:19:38.990Z</time>
      </trkpt>
      <trkpt lat="45.39492" lon="5.07814">
        <ele>457</ele>
        <time>2021-10-10T12:19:43.970Z</time>
      </trkpt>
      <trkpt lat="45.39494" lon="5.07807">
        <ele>457</ele>
        <time>2021-10-10T12:19:48.967Z</time>
      </trkpt>
      <trkpt lat="45.39494" lon="5.07801">
        <ele>457</ele>
        <time>2021-10-10T12:19:53.010Z</time>
      </trkpt>
      <trkpt lat="45.39494" lon="5.07792">
        <ele>457</ele>
        <time>2021-10-10T12:19:58.042Z</time>
      </trkpt>
      <trkpt lat="45.39494" lon="5.07783">
        <ele>458</ele>
        <time>2021-10-10T12:20:02.995Z</time>
      </trkpt>
      <trkpt lat="45.39493" lon="5.07776">
        <ele>458</ele>
        <time>2021-10-10T12:20:08.004Z</time>
      </trkpt>
      <trkpt lat="45.39492" lon="5.07771">
        <ele>458</ele>
        <time>2021-10-10T12:20:12.031Z</time>
      </trkpt>
      <trkpt lat="45.39492" lon="5.07764">
        <ele>458</ele>
        <time>2021-10-10T12:20:17.002Z</time>
      </trkpt>
      <trkpt lat="45.39492" lon="5.07756">
        <ele>459</ele>
        <time>2021-10-10T12:20:21.042Z</time>
      </trkpt>
      <trkpt lat="45.3949" lon="5.07748">
        <ele>459</ele>
        <time>2021-10-10T12:20:26.030Z</time>
      </trkpt>
      <trkpt lat="45.3949" lon="5.0774">
        <ele>459</ele>
        <time>2021-10-10T12:20:30.997Z</time>
      </trkpt>
      <trkpt lat="45.39491" lon="5.07735">
        <ele>458</ele>
        <time>2021-10-10T12:20:35.004Z</time>
      </trkpt>
      <trkpt lat="45.39491" lon="5.07728">
        <ele>458</ele>
        <time>2021-10-10T12:20:39.031Z</time>
      </trkpt>
      <trkpt lat="45.39492" lon="5.07722">
        <ele>458</ele>
        <time>2021-10-10T12:20:43.038Z</time>
      </trkpt>
      <trkpt lat="45.39489" lon="5.07712">
        <ele>458</ele>
        <time>2021-10-10T12:20:48.028Z</time>
      </trkpt>
      <trkpt lat="45.39486" lon="5.07705">
        <ele>461</ele>
        <time>2021-10-10T12:20:52.994Z</time>
      </trkpt>
      <trkpt lat="45.39484" lon="5.07695">
        <ele>461</ele>
        <time>2021-10-10T12:20:57.986Z</time>
      </trkpt>
      <trkpt lat="45.39482" lon="5.07685">
        <ele>461</ele>
        <time>2021-10-10T12:21:02.992Z</time>
      </trkpt>
      <trkpt lat="45.39482" lon="5.07677">
        <ele>458</ele>
        <time>2021-10-10T12:21:06.996Z</time>
      </trkpt>
      <trkpt lat="45.39482" lon="5.07666">
        <ele>458</ele>
        <time>2021-10-10T12:21:11.989Z</time>
      </trkpt>
      <trkpt lat="45.39482" lon="5.07656">
        <ele>458</ele>
        <time>2021-10-10T12:21:17.024Z</time>
      </trkpt>
      <trkpt lat="45.39483" lon="5.07647">
        <ele>456</ele>
        <time>2021-10-10T12:21:21.997Z</time>
      </trkpt>
      <trkpt lat="45.39482" lon="5.07639">
        <ele>456</ele>
        <time>2021-10-10T12:21:26.018Z</time>
      </trkpt>
      <trkpt lat="45.39483" lon="5.07631">
        <ele>456</ele>
        <time>2021-10-10T12:21:30.029Z</time>
      </trkpt>
      <trkpt lat="45.39483" lon="5.07622">
        <ele>454</ele>
        <time>2021-10-10T12:21:35.036Z</time>
      </trkpt>
      <trkpt lat="45.39483" lon="5.07614">
        <ele>454</ele>
        <time>2021-10-10T12:21:39.999Z</time>
      </trkpt>
      <trkpt lat="45.39484" lon="5.07604">
        <ele>454</ele>
        <time>2021-10-10T12:21:44.999Z</time>
      </trkpt>
      <trkpt lat="45.39484" lon="5.07595">
        <ele>453</ele>
        <time>2021-10-10T12:21:49.988Z</time>
      </trkpt>
      <trkpt lat="45.39484" lon="5.07587">
        <ele>453</ele>
        <time>2021-10-10T12:21:54.004Z</time>
      </trkpt>
      <trkpt lat="45.39485" lon="5.07579">
        <ele>453</ele>
        <time>2021-10-10T12:21:58.988Z</time>
      </trkpt>
      <trkpt lat="45.39487" lon="5.07571">
        <ele>450</ele>
        <time>2021-10-10T12:22:04.976Z</time>
      </trkpt>
      <trkpt lat="45.39488" lon="5.07561">
        <ele>451</ele>
        <time>2021-10-10T12:22:09.984Z</time>
      </trkpt>
      <trkpt lat="45.39488" lon="5.07552">
        <ele>451</ele>
        <time>2021-10-10T12:22:14.996Z</time>
      </trkpt>
      <trkpt lat="45.3949" lon="5.07543">
        <ele>451</ele>
        <time>2021-10-10T12:22:19.981Z</time>
      </trkpt>
      <trkpt lat="45.39492" lon="5.07536">
        <ele>452</ele>
        <time>2021-10-10T12:22:24.003Z</time>
      </trkpt>
      <trkpt lat="45.39495" lon="5.07527">
        <ele>452</ele>
        <time>2021-10-10T12:22:29.055Z</time>
      </trkpt>
      <trkpt lat="45.39496" lon="5.07526">
        <ele>452</ele>
        <time>2021-10-10T12:22:33.064Z</time>
      </trkpt>
      <trkpt lat="45.39496" lon="5.0752">
        <ele>452</ele>
        <time>2021-10-10T12:22:38.061Z</time>
      </trkpt>
      <trkpt lat="45.39496" lon="5.07511">
        <ele>451</ele>
        <time>2021-10-10T12:22:42.971Z</time>
      </trkpt>
      <trkpt lat="45.39496" lon="5.07504">
        <ele>451</ele>
        <time>2021-10-10T12:22:46.988Z</time>
      </trkpt>
      <trkpt lat="45.39495" lon="5.07497">
        <ele>451</ele>
        <time>2021-10-10T12:22:51.037Z</time>
      </trkpt>
      <trkpt lat="45.39497" lon="5.07486">
        <ele>451</ele>
        <time>2021-10-10T12:22:56.006Z</time>
      </trkpt>
      <trkpt lat="45.39497" lon="5.07475">
        <ele>450</ele>
        <time>2021-10-10T12:23:01.032Z</time>
      </trkpt>
      <trkpt lat="45.39495" lon="5.07465">
        <ele>450</ele>
        <time>2021-10-10T12:23:05.971Z</time>
      </trkpt>
      <trkpt lat="45.39497" lon="5.07461">
        <ele>450</ele>
        <time>2021-10-10T12:23:10.993Z</time>
      </trkpt>
      <trkpt lat="45.39498" lon="5.07459">
        <ele>450</ele>
        <time>2021-10-10T12:23:15.999Z</time>
      </trkpt>
      <trkpt lat="45.39497" lon="5.07454">
        <ele>449</ele>
        <time>2021-10-10T12:23:20.004Z</time>
      </trkpt>
      <trkpt lat="45.39496" lon="5.07447">
        <ele>449</ele>
        <time>2021-10-10T12:23:25.024Z</time>
      </trkpt>
      <trkpt lat="45.39497" lon="5.07439">
        <ele>449</ele>
        <time>2021-10-10T12:23:29.997Z</time>
      </trkpt>
      <trkpt lat="45.39497" lon="5.07433">
        <ele>449</ele>
        <time>2021-10-10T12:23:34.004Z</time>
      </trkpt>
      <trkpt lat="45.39499" lon="5.07425">
        <ele>448</ele>
        <time>2021-10-10T12:23:39.059Z</time>
      </trkpt>
      <trkpt lat="45.395" lon="5.07416">
        <ele>448</ele>
        <time>2021-10-10T12:23:44.053Z</time>
      </trkpt>
      <trkpt lat="45.39501" lon="5.07406">
        <ele>448</ele>
        <time>2021-10-10T12:23:48.965Z</time>
      </trkpt>
      <trkpt lat="45.39502" lon="5.07401">
        <ele>448</ele>
        <time>2021-10-10T12:23:52.978Z</time>
      </trkpt>
      <trkpt lat="45.39503" lon="5.07396">
        <ele>448</ele>
        <time>2021-10-10T12:23:56.991Z</time>
      </trkpt>
      <trkpt lat="45.39505" lon="5.07391">
        <ele>448</ele>
        <time>2021-10-10T12:24:00.991Z</time>
      </trkpt>
      <trkpt lat="45.39507" lon="5.07384">
        <ele>448</ele>
        <time>2021-10-10T12:24:05Z</time>
      </trkpt>
      <trkpt lat="45.39507" lon="5.07374">
        <ele>448</ele>
        <time>2021-10-10T12:24:09.979Z</time>
      </trkpt>
      <trkpt lat="45.39508" lon="5.07366">
        <ele>448</ele>
        <time>2021-10-10T12:24:13.988Z</time>
      </trkpt>
      <trkpt lat="45.39509" lon="5.07355">
        <ele>448</ele>
        <time>2021-10-10T12:24:18.990Z</time>
      </trkpt>
      <trkpt lat="45.3951" lon="5.07348">
        <ele>448</ele>
        <time>2021-10-10T12:24:23.976Z</time>
      </trkpt>
      <trkpt lat="45.39512" lon="5.07338">
        <ele>449</ele>
        <time>2021-10-10T12:24:29.011Z</time>
      </trkpt>
      <trkpt lat="45.39515" lon="5.07329">
        <ele>441</ele>
        <time>2021-10-10T12:24:33.987Z</time>
      </trkpt>
      <trkpt lat="45.39516" lon="5.07322">
        <ele>441</ele>
        <time>2021-10-10T12:24:38.003Z</time>
      </trkpt>
      <trkpt lat="45.39519" lon="5.07314">
        <ele>443</ele>
        <time>2021-10-10T12:24:42.984Z</time>
      </trkpt>
      <trkpt lat="45.39521" lon="5.07306">
        <ele>443</ele>
        <time>2021-10-10T12:24:46.999Z</time>
      </trkpt>
      <trkpt lat="45.39523" lon="5.07298">
        <ele>443</ele>
        <time>2021-10-10T12:24:52.035Z</time>
      </trkpt>
      <trkpt lat="45.39525" lon="5.0729">
        <ele>444</ele>
        <time>2021-10-10T12:24:57.024Z</time>
      </trkpt>
      <trkpt lat="45.39527" lon="5.07283">
        <ele>444</ele>
        <time>2021-10-10T12:25:01.994Z</time>
      </trkpt>
      <trkpt lat="45.39528" lon="5.07275">
        <ele>444</ele>
        <time>2021-10-10T12:25:07Z</time>
      </trkpt>
      <trkpt lat="45.3953" lon="5.07266">
        <ele>444</ele>
        <time>2021-10-10T12:25:11.972Z</time>
      </trkpt>
      <trkpt lat="45.3953" lon="5.0726">
        <ele>443</ele>
        <time>2021-10-10T12:25:15.988Z</time>
      </trkpt>
      <trkpt lat="45.39533" lon="5.0725">
        <ele>443</ele>
        <time>2021-10-10T12:25:20.983Z</time>
      </trkpt>
      <trkpt lat="45.39534" lon="5.07242">
        <ele>443</ele>
        <time>2021-10-10T12:25:25.989Z</time>
      </trkpt>
      <trkpt lat="45.39534" lon="5.07234">
        <ele>443</ele>
        <time>2021-10-10T12:25:30.994Z</time>
      </trkpt>
      <trkpt lat="45.39534" lon="5.07227">
        <ele>443</ele>
        <time>2021-10-10T12:25:35.021Z</time>
      </trkpt>
      <trkpt lat="45.39536" lon="5.07218">
        <ele>443</ele>
        <time>2021-10-10T12:25:40.003Z</time>
      </trkpt>
      <trkpt lat="45.39538" lon="5.07211">
        <ele>443</ele>
        <time>2021-10-10T12:25:45.025Z</time>
      </trkpt>
      <trkpt lat="45.39543" lon="5.07205">
        <ele>439</ele>
        <time>2021-10-10T12:25:49.964Z</time>
      </trkpt>
      <trkpt lat="45.39548" lon="5.07203">
        <ele>439</ele>
        <time>2021-10-10T12:25:54.993Z</time>
      </trkpt>
      <trkpt lat="45.39549" lon="5.072">
        <ele>439</ele>
        <time>2021-10-10T12:25:59.016Z</time>
      </trkpt>
      <trkpt lat="45.39551" lon="5.07194">
        <ele>439</ele>
        <time>2021-10-10T12:26:03.024Z</time>
      </trkpt>
      <trkpt lat="45.39554" lon="5.07189">
        <ele>439</ele>
        <time>2021-10-10T12:26:07.022Z</time>
      </trkpt>
      <trkpt lat="45.39557" lon="5.07183">
        <ele>439</ele>
        <time>2021-10-10T12:26:11.999Z</time>
      </trkpt>
      <trkpt lat="45.39558" lon="5.07176">
        <ele>437</ele>
        <time>2021-10-10T12:26:16.025Z</time>
      </trkpt>
      <trkpt lat="45.3956" lon="5.07171">
        <ele>437</ele>
        <time>2021-10-10T12:26:20.032Z</time>
      </trkpt>
      <trkpt lat="45.39561" lon="5.07164">
        <ele>437</ele>
        <time>2021-10-10T12:26:25Z</time>
      </trkpt>
      <trkpt lat="45.39563" lon="5.07155">
        <ele>437</ele>
        <time>2021-10-10T12:26:30.024Z</time>
      </trkpt>
      <trkpt lat="45.39564" lon="5.07146">
        <ele>435</ele>
        <time>2021-10-10T12:26:35.020Z</time>
      </trkpt>
      <trkpt lat="45.39565" lon="5.07134">
        <ele>435</ele>
        <time>2021-10-10T12:26:39.988Z</time>
      </trkpt>
      <trkpt lat="45.39564" lon="5.07124">
        <ele>433</ele>
        <time>2021-10-10T12:26:45.036Z</time>
      </trkpt>
      <trkpt lat="45.39561" lon="5.07116">
        <ele>433</ele>
        <time>2021-10-10T12:26:49.993Z</time>
      </trkpt>
      <trkpt lat="45.39558" lon="5.07108">
        <ele>433</ele>
        <time>2021-10-10T12:26:55Z</time>
      </trkpt>
      <trkpt lat="45.39553" lon="5.071">
        <ele>433</ele>
        <time>2021-10-10T12:26:59.995Z</time>
      </trkpt>
      <trkpt lat="45.39548" lon="5.07093">
        <ele>433</ele>
        <time>2021-10-10T12:27:04.999Z</time>
      </trkpt>
      <trkpt lat="45.39543" lon="5.07087">
        <ele>433</ele>
        <time>2021-10-10T12:27:09.991Z</time>
      </trkpt>
      <trkpt lat="45.39538" lon="5.07082">
        <ele>436</ele>
        <time>2021-10-10T12:27:14.991Z</time>
      </trkpt>
      <trkpt lat="45.39533" lon="5.07075">
        <ele>436</ele>
        <time>2021-10-10T12:27:20.001Z</time>
      </trkpt>
      <trkpt lat="45.39528" lon="5.07068">
        <ele>436</ele>
        <time>2021-10-10T12:27:24.990Z</time>
      </trkpt>
      <trkpt lat="45.39522" lon="5.07062">
        <ele>436</ele>
        <time>2021-10-10T12:27:29.989Z</time>
      </trkpt>
      <trkpt lat="45.39518" lon="5.07057">
        <ele>436</ele>
        <time>2021-10-10T12:27:33.988Z</time>
      </trkpt>
      <trkpt lat="45.39512" lon="5.07051">
        <ele>439</ele>
        <time>2021-10-10T12:27:39.022Z</time>
      </trkpt>
      <trkpt lat="45.39507" lon="5.07046">
        <ele>439</ele>
        <time>2021-10-10T12:27:43.997Z</time>
      </trkpt>
      <trkpt lat="45.39501" lon="5.0704">
        <ele>438</ele>
        <time>2021-10-10T12:27:48.963Z</time>
      </trkpt>
      <trkpt lat="45.39496" lon="5.07034">
        <ele>438</ele>
        <time>2021-10-10T12:27:53.005Z</time>
      </trkpt>
      <trkpt lat="45.3949" lon="5.07028">
        <ele>438</ele>
        <time>2021-10-10T12:27:57.986Z</time>
      </trkpt>
      <trkpt lat="45.39485" lon="5.07024">
        <ele>441</ele>
        <time>2021-10-10T12:28:01.998Z</time>
      </trkpt>
      <trkpt lat="45.39481" lon="5.07019">
        <ele>441</ele>
        <time>2021-10-10T12:28:06.026Z</time>
      </trkpt>
      <trkpt lat="45.39475" lon="5.07014">
        <ele>441</ele>
        <time>2021-10-10T12:28:10.984Z</time>
      </trkpt>
      <trkpt lat="45.3947" lon="5.0701">
        <ele>439</ele>
        <time>2021-10-10T12:28:15.002Z</time>
      </trkpt>
      <trkpt lat="45.39466" lon="5.07005">
        <ele>439</ele>
        <time>2021-10-10T12:28:19.022Z</time>
      </trkpt>
      <trkpt lat="45.3946" lon="5.07">
        <ele>439</ele>
        <time>2021-10-10T12:28:23.971Z</time>
      </trkpt>
      <trkpt lat="45.39456" lon="5.06996">
        <ele>440</ele>
        <time>2021-10-10T12:28:27.987Z</time>
      </trkpt>
      <trkpt lat="45.39451" lon="5.0699">
        <ele>440</ele>
        <time>2021-10-10T12:28:32.963Z</time>
      </trkpt>
      <trkpt lat="45.39447" lon="5.06985">
        <ele>438</ele>
        <time>2021-10-10T12:28:36.984Z</time>
      </trkpt>
      <trkpt lat="45.39442" lon="5.06978">
        <ele>438</ele>
        <time>2021-10-10T12:28:41.965Z</time>
      </trkpt>
      <trkpt lat="45.39438" lon="5.06973">
        <ele>438</ele>
        <time>2021-10-10T12:28:45.996Z</time>
      </trkpt>
      <trkpt lat="45.39432" lon="5.06967">
        <ele>438</ele>
        <time>2021-10-10T12:28:50.988Z</time>
      </trkpt>
      <trkpt lat="45.39426" lon="5.06961">
        <ele>441</ele>
        <time>2021-10-10T12:28:55.991Z</time>
      </trkpt>
      <trkpt lat="45.39421" lon="5.06955">
        <ele>438</ele>
        <time>2021-10-10T12:29:00.992Z</time>
      </trkpt>
      <trkpt lat="45.39417" lon="5.0695">
        <ele>438</ele>
        <time>2021-10-10T12:29:05.008Z</time>
      </trkpt>
      <trkpt lat="45.39412" lon="5.06945">
        <ele>438</ele>
        <time>2021-10-10T12:29:09.983Z</time>
      </trkpt>
      <trkpt lat="45.39408" lon="5.06941">
        <ele>438</ele>
        <time>2021-10-10T12:29:13.995Z</time>
      </trkpt>
      <trkpt lat="45.39406" lon="5.0694">
        <ele>438</ele>
        <time>2021-10-10T12:29:18.996Z</time>
      </trkpt>
      <trkpt lat="45.39405" lon="5.06936">
        <ele>438</ele>
        <time>2021-10-10T12:29:23.998Z</time>
      </trkpt>
      <trkpt lat="45.39402" lon="5.06928">
        <ele>440</ele>
        <time>2021-10-10T12:29:28.998Z</time>
      </trkpt>
      <trkpt lat="45.39401" lon="5.06921">
        <ele>440</ele>
        <time>2021-10-10T12:29:34.006Z</time>
      </trkpt>
      <trkpt lat="45.39399" lon="5.06913">
        <ele>440</ele>
        <time>2021-10-10T12:29:39.020Z</time>
      </trkpt>
      <trkpt lat="45.39396" lon="5.06905">
        <ele>440</ele>
        <time>2021-10-10T12:29:43.994Z</time>
      </trkpt>
      <trkpt lat="45.39392" lon="5.06898">
        <ele>438</ele>
        <time>2021-10-10T12:29:48.025Z</time>
      </trkpt>
      <trkpt lat="45.39388" lon="5.06894">
        <ele>438</ele>
        <time>2021-10-10T12:29:53.023Z</time>
      </trkpt>
      <trkpt lat="45.39382" lon="5.06889">
        <ele>438</ele>
        <time>2021-10-10T12:29:57.998Z</time>
      </trkpt>
      <trkpt lat="45.39377" lon="5.06883">
        <ele>438</ele>
        <time>2021-10-10T12:30:03.011Z</time>
      </trkpt>
      <trkpt lat="45.39373" lon="5.06876">
        <ele>442</ele>
        <time>2021-10-10T12:30:07.999Z</time>
      </trkpt>
      <trkpt lat="45.39369" lon="5.0687">
        <ele>439</ele>
        <time>2021-10-10T12:30:12.978Z</time>
      </trkpt>
      <trkpt lat="45.39366" lon="5.06864">
        <ele>439</ele>
        <time>2021-10-10T12:30:17.021Z</time>
      </trkpt>
      <trkpt lat="45.39362" lon="5.06857">
        <ele>439</ele>
        <time>2021-10-10T12:30:21.996Z</time>
      </trkpt>
      <trkpt lat="45.39359" lon="5.06852">
        <ele>439</ele>
        <time>2021-10-10T12:30:25.995Z</time>
      </trkpt>
      <trkpt lat="45.39356" lon="5.06847">
        <ele>436</ele>
        <time>2021-10-10T12:30:30.994Z</time>
      </trkpt>
      <trkpt lat="45.39352" lon="5.06842">
        <ele>436</ele>
        <time>2021-10-10T12:30:35.997Z</time>
      </trkpt>
      <trkpt lat="45.39347" lon="5.06838">
        <ele>439</ele>
        <time>2021-10-10T12:30:41.002Z</time>
      </trkpt>
      <trkpt lat="45.39343" lon="5.06831">
        <ele>439</ele>
        <time>2021-10-10T12:30:46.037Z</time>
      </trkpt>
      <trkpt lat="45.39339" lon="5.06826">
        <ele>439</ele>
        <time>2021-10-10T12:30:51.029Z</time>
      </trkpt>
      <trkpt lat="45.39335" lon="5.06821">
        <ele>439</ele>
        <time>2021-10-10T12:30:55.999Z</time>
      </trkpt>
      <trkpt lat="45.3933" lon="5.06816">
        <ele>436</ele>
        <time>2021-10-10T12:31:01.021Z</time>
      </trkpt>
      <trkpt lat="45.39325" lon="5.06811">
        <ele>436</ele>
        <time>2021-10-10T12:31:05.993Z</time>
      </trkpt>
      <trkpt lat="45.39321" lon="5.06805">
        <ele>436</ele>
        <time>2021-10-10T12:31:10.997Z</time>
      </trkpt>
      <trkpt lat="45.39318" lon="5.06797">
        <ele>437</ele>
        <time>2021-10-10T12:31:16.052Z</time>
      </trkpt>
      <trkpt lat="45.39314" lon="5.06792">
        <ele>434</ele>
        <time>2021-10-10T12:31:20.994Z</time>
      </trkpt>
      <trkpt lat="45.39311" lon="5.06786">
        <ele>434</ele>
        <time>2021-10-10T12:31:25.058Z</time>
      </trkpt>
      <trkpt lat="45.39306" lon="5.06781">
        <ele>434</ele>
        <time>2021-10-10T12:31:29.996Z</time>
      </trkpt>
      <trkpt lat="45.39301" lon="5.06776">
        <ele>434</ele>
        <time>2021-10-10T12:31:34.986Z</time>
      </trkpt>
      <trkpt lat="45.39298" lon="5.06771">
        <ele>434</ele>
        <time>2021-10-10T12:31:38.990Z</time>
      </trkpt>
      <trkpt lat="45.39293" lon="5.06766">
        <ele>434</ele>
        <time>2021-10-10T12:31:44.023Z</time>
      </trkpt>
      <trkpt lat="45.39288" lon="5.06758">
        <ele>435</ele>
        <time>2021-10-10T12:31:48.983Z</time>
      </trkpt>
      <trkpt lat="45.39284" lon="5.06753">
        <ele>435</ele>
        <time>2021-10-10T12:31:53.998Z</time>
      </trkpt>
      <trkpt lat="45.3928" lon="5.06748">
        <ele>435</ele>
        <time>2021-10-10T12:31:58.968Z</time>
      </trkpt>
      <trkpt lat="45.39279" lon="5.06743">
        <ele>435</ele>
        <time>2021-10-10T12:32:02.993Z</time>
      </trkpt>
      <trkpt lat="45.39277" lon="5.06735">
        <ele>433</ele>
        <time>2021-10-10T12:32:07.984Z</time>
      </trkpt>
      <trkpt lat="45.39274" lon="5.06728">
        <ele>433</ele>
        <time>2021-10-10T12:32:11.986Z</time>
      </trkpt>
      <trkpt lat="45.39273" lon="5.06722">
        <ele>433</ele>
        <time>2021-10-10T12:32:16.016Z</time>
      </trkpt>
      <trkpt lat="45.39269" lon="5.06714">
        <ele>433</ele>
        <time>2021-10-10T12:32:20.999Z</time>
      </trkpt>
      <trkpt lat="45.39266" lon="5.06709">
        <ele>433</ele>
        <time>2021-10-10T12:32:25.025Z</time>
      </trkpt>
      <trkpt lat="45.39262" lon="5.06702">
        <ele>431</ele>
        <time>2021-10-10T12:32:29.991Z</time>
      </trkpt>
      <trkpt lat="45.39258" lon="5.06695">
        <ele>431</ele>
        <time>2021-10-10T12:32:34.994Z</time>
      </trkpt>
      <trkpt lat="45.39255" lon="5.06689">
        <ele>431</ele>
        <time>2021-10-10T12:32:39.001Z</time>
      </trkpt>
      <trkpt lat="45.39247" lon="5.06673">
        <ele>429</ele>
        <time>2021-10-10T12:32:57.952Z</time>
      </trkpt>
      <trkpt lat="45.39247" lon="5.06672">
        <ele>429</ele>
        <time>2021-10-10T12:33:02.959Z</time>
      </trkpt>
      <trkpt lat="45.39248" lon="5.0667">
        <ele>429</ele>
        <time>2021-10-10T12:33:07.961Z</time>
      </trkpt>
      <trkpt lat="45.39249" lon="5.06663">
        <ele>429</ele>
        <time>2021-10-10T12:33:12.958Z</time>
      </trkpt>
      <trkpt lat="45.39249" lon="5.06658">
        <ele>429</ele>
        <time>2021-10-10T12:33:16.962Z</time>
      </trkpt>
      <trkpt lat="45.3925" lon="5.06653">
        <ele>430</ele>
        <time>2021-10-10T12:33:21.960Z</time>
      </trkpt>
      <trkpt lat="45.39251" lon="5.06648">
        <ele>430</ele>
        <time>2021-10-10T12:33:26.960Z</time>
      </trkpt>
      <trkpt lat="45.39252" lon="5.06644">
        <ele>430</ele>
        <time>2021-10-10T12:33:31.962Z</time>
      </trkpt>
      <trkpt lat="45.39253" lon="5.06638">
        <ele>430</ele>
        <time>2021-10-10T12:33:36.968Z</time>
      </trkpt>
      <trkpt lat="45.39255" lon="5.06633">
        <ele>430</ele>
        <time>2021-10-10T12:33:41.962Z</time>
      </trkpt>
      <trkpt lat="45.39258" lon="5.06627">
        <ele>430</ele>
        <time>2021-10-10T12:33:46.972Z</time>
      </trkpt>
      <trkpt lat="45.39258" lon="5.06619">
        <ele>430</ele>
        <time>2021-10-10T12:33:51.952Z</time>
      </trkpt>
      <trkpt lat="45.39258" lon="5.06612">
        <ele>430</ele>
        <time>2021-10-10T12:33:55.959Z</time>
      </trkpt>
      <trkpt lat="45.39259" lon="5.06604">
        <ele>430</ele>
        <time>2021-10-10T12:34:00.954Z</time>
      </trkpt>
      <trkpt lat="45.3926" lon="5.06599">
        <ele>430</ele>
        <time>2021-10-10T12:34:04.971Z</time>
      </trkpt>
      <trkpt lat="45.39261" lon="5.06593">
        <ele>430</ele>
        <time>2021-10-10T12:34:09.960Z</time>
      </trkpt>
      <trkpt lat="45.39262" lon="5.06585">
        <ele>430</ele>
        <time>2021-10-10T12:34:14.969Z</time>
      </trkpt>
      <trkpt lat="45.39263" lon="5.06577">
        <ele>430</ele>
        <time>2021-10-10T12:34:19.964Z</time>
      </trkpt>
      <trkpt lat="45.39265" lon="5.06569">
        <ele>426</ele>
        <time>2021-10-10T12:34:24.958Z</time>
      </trkpt>
      <trkpt lat="45.39267" lon="5.06562">
        <ele>426</ele>
        <time>2021-10-10T12:34:29.962Z</time>
      </trkpt>
      <trkpt lat="45.39269" lon="5.06555">
        <ele>426</ele>
        <time>2021-10-10T12:34:34.961Z</time>
      </trkpt>
      <trkpt lat="45.3927" lon="5.06548">
        <ele>426</ele>
        <time>2021-10-10T12:34:38.973Z</time>
      </trkpt>
      <trkpt lat="45.39272" lon="5.06541">
        <ele>427</ele>
        <time>2021-10-10T12:34:43.967Z</time>
      </trkpt>
      <trkpt lat="45.39274" lon="5.06533">
        <ele>427</ele>
        <time>2021-10-10T12:34:48.965Z</time>
      </trkpt>
      <trkpt lat="45.39275" lon="5.06527">
        <ele>427</ele>
        <time>2021-10-10T12:34:52.971Z</time>
      </trkpt>
      <trkpt lat="45.39276" lon="5.0652">
        <ele>427</ele>
        <time>2021-10-10T12:34:56.967Z</time>
      </trkpt>
      <trkpt lat="45.39278" lon="5.0651">
        <ele>427</ele>
        <time>2021-10-10T12:35:01.967Z</time>
      </trkpt>
      <trkpt lat="45.3928" lon="5.06502">
        <ele>427</ele>
        <time>2021-10-10T12:35:06.961Z</time>
      </trkpt>
      <trkpt lat="45.39282" lon="5.06494">
        <ele>427</ele>
        <time>2021-10-10T12:35:11.964Z</time>
      </trkpt>
      <trkpt lat="45.39284" lon="5.06486">
        <ele>427</ele>
        <time>2021-10-10T12:35:16.974Z</time>
      </trkpt>
      <trkpt lat="45.39286" lon="5.06479">
        <ele>427</ele>
        <time>2021-10-10T12:35:20.967Z</time>
      </trkpt>
      <trkpt lat="45.39287" lon="5.06469">
        <ele>427</ele>
        <time>2021-10-10T12:35:25.961Z</time>
      </trkpt>
      <trkpt lat="45.39289" lon="5.06459">
        <ele>427</ele>
        <time>2021-10-10T12:35:30.967Z</time>
      </trkpt>
      <trkpt lat="45.39292" lon="5.0645">
        <ele>426</ele>
        <time>2021-10-10T12:35:35.960Z</time>
      </trkpt>
      <trkpt lat="45.39294" lon="5.06444">
        <ele>426</ele>
        <time>2021-10-10T12:35:39.971Z</time>
      </trkpt>
      <trkpt lat="45.39295" lon="5.06431">
        <ele>426</ele>
        <time>2021-10-10T12:35:44.971Z</time>
      </trkpt>
      <trkpt lat="45.39296" lon="5.06414">
        <ele>426</ele>
        <time>2021-10-10T12:35:49.964Z</time>
      </trkpt>
      <trkpt lat="45.39295" lon="5.06403">
        <ele>426</ele>
        <time>2021-10-10T12:35:53.964Z</time>
      </trkpt>
      <trkpt lat="45.39294" lon="5.06388">
        <ele>425</ele>
        <time>2021-10-10T12:35:58.960Z</time>
      </trkpt>
      <trkpt lat="45.39296" lon="5.06375">
        <ele>425</ele>
        <time>2021-10-10T12:36:02.967Z</time>
      </trkpt>
      <trkpt lat="45.39297" lon="5.0636">
        <ele>425</ele>
        <time>2021-10-10T12:36:07.951Z</time>
      </trkpt>
      <trkpt lat="45.39298" lon="5.06348">
        <ele>425</ele>
        <time>2021-10-10T12:36:12.961Z</time>
      </trkpt>
      <trkpt lat="45.39298" lon="5.06337">
        <ele>426</ele>
        <time>2021-10-10T12:36:17.960Z</time>
      </trkpt>
      <trkpt lat="45.39299" lon="5.06329">
        <ele>426</ele>
        <time>2021-10-10T12:36:21.996Z</time>
      </trkpt>
      <trkpt lat="45.39301" lon="5.06317">
        <ele>427</ele>
        <time>2021-10-10T12:36:26.963Z</time>
      </trkpt>
      <trkpt lat="45.39303" lon="5.06303">
        <ele>427</ele>
        <time>2021-10-10T12:36:31.966Z</time>
      </trkpt>
      <trkpt lat="45.39306" lon="5.06291">
        <ele>427</ele>
        <time>2021-10-10T12:36:36.958Z</time>
      </trkpt>
      <trkpt lat="45.39307" lon="5.0628">
        <ele>427</ele>
        <time>2021-10-10T12:36:41.961Z</time>
      </trkpt>
      <trkpt lat="45.39309" lon="5.06272">
        <ele>427</ele>
        <time>2021-10-10T12:36:45.967Z</time>
      </trkpt>
      <trkpt lat="45.39311" lon="5.06262">
        <ele>428</ele>
        <time>2021-10-10T12:36:50.962Z</time>
      </trkpt>
      <trkpt lat="45.39313" lon="5.06251">
        <ele>428</ele>
        <time>2021-10-10T12:36:55.965Z</time>
      </trkpt>
      <trkpt lat="45.39314" lon="5.0624">
        <ele>428</ele>
        <time>2021-10-10T12:37:00.965Z</time>
      </trkpt>
      <trkpt lat="45.39315" lon="5.06227">
        <ele>430</ele>
        <time>2021-10-10T12:37:05.962Z</time>
      </trkpt>
      <trkpt lat="45.39313" lon="5.06216">
        <ele>430</ele>
        <time>2021-10-10T12:37:10.966Z</time>
      </trkpt>
      <trkpt lat="45.39311" lon="5.06208">
        <ele>430</ele>
        <time>2021-10-10T12:37:15.959Z</time>
      </trkpt>
      <trkpt lat="45.39309" lon="5.062">
        <ele>430</ele>
        <time>2021-10-10T12:37:20.966Z</time>
      </trkpt>
      <trkpt lat="45.39305" lon="5.06191">
        <ele>430</ele>
        <time>2021-10-10T12:37:25.964Z</time>
      </trkpt>
      <trkpt lat="45.39301" lon="5.06178">
        <ele>427</ele>
        <time>2021-10-10T12:37:30.961Z</time>
      </trkpt>
      <trkpt lat="45.39299" lon="5.06164">
        <ele>427</ele>
        <time>2021-10-10T12:37:35.963Z</time>
      </trkpt>
      <trkpt lat="45.39296" lon="5.06155">
        <ele>427</ele>
        <time>2021-10-10T12:37:39.963Z</time>
      </trkpt>
      <trkpt lat="45.39292" lon="5.06142">
        <ele>427</ele>
        <time>2021-10-10T12:37:44.966Z</time>
      </trkpt>
      <trkpt lat="45.39285" lon="5.06132">
        <ele>432</ele>
        <time>2021-10-10T12:37:49.958Z</time>
      </trkpt>
      <trkpt lat="45.39278" lon="5.06116">
        <ele>432</ele>
        <time>2021-10-10T12:37:53.961Z</time>
      </trkpt>
      <trkpt lat="45.39271" lon="5.06098">
        <ele>432</ele>
        <time>2021-10-10T12:37:58.947Z</time>
      </trkpt>
      <trkpt lat="45.39266" lon="5.06083">
        <ele>430</ele>
        <time>2021-10-10T12:38:03.956Z</time>
      </trkpt>
      <trkpt lat="45.39263" lon="5.06071">
        <ele>440</ele>
        <time>2021-10-10T12:38:07.970Z</time>
      </trkpt>
      <trkpt lat="45.3926" lon="5.06057">
        <ele>438</ele>
        <time>2021-10-10T12:38:12.963Z</time>
      </trkpt>
      <trkpt lat="45.39256" lon="5.06046">
        <ele>438</ele>
        <time>2021-10-10T12:38:17.958Z</time>
      </trkpt>
      <trkpt lat="45.39252" lon="5.06037">
        <ele>433</ele>
        <time>2021-10-10T12:38:21.960Z</time>
      </trkpt>
      <trkpt lat="45.39249" lon="5.06025">
        <ele>433</ele>
        <time>2021-10-10T12:38:26.961Z</time>
      </trkpt>
      <trkpt lat="45.39245" lon="5.06012">
        <ele>430</ele>
        <time>2021-10-10T12:38:31.960Z</time>
      </trkpt>
      <trkpt lat="45.39239" lon="5.05998">
        <ele>430</ele>
        <time>2021-10-10T12:38:36.963Z</time>
      </trkpt>
      <trkpt lat="45.39235" lon="5.05984">
        <ele>435</ele>
        <time>2021-10-10T12:38:41.961Z</time>
      </trkpt>
      <trkpt lat="45.3923" lon="5.05968">
        <ele>435</ele>
        <time>2021-10-10T12:38:46.969Z</time>
      </trkpt>
      <trkpt lat="45.39226" lon="5.05954">
        <ele>431</ele>
        <time>2021-10-10T12:38:50.964Z</time>
      </trkpt>
      <trkpt lat="45.39222" lon="5.05941">
        <ele>431</ele>
        <time>2021-10-10T12:38:55.963Z</time>
      </trkpt>
      <trkpt lat="45.39218" lon="5.05927">
        <ele>428</ele>
        <time>2021-10-10T12:39:00.959Z</time>
      </trkpt>
      <trkpt lat="45.39214" lon="5.05913">
        <ele>428</ele>
        <time>2021-10-10T12:39:05.958Z</time>
      </trkpt>
      <trkpt lat="45.3921" lon="5.05902">
        <ele>426</ele>
        <time>2021-10-10T12:39:09.961Z</time>
      </trkpt>
      <trkpt lat="45.39205" lon="5.05888">
        <ele>431</ele>
        <time>2021-10-10T12:39:14.965Z</time>
      </trkpt>
      <trkpt lat="45.39198" lon="5.05871">
        <ele>431</ele>
        <time>2021-10-10T12:39:18.963Z</time>
      </trkpt>
      <trkpt lat="45.39189" lon="5.05841">
        <ele>430</ele>
        <time>2021-10-10T12:39:23.964Z</time>
      </trkpt>
      <trkpt lat="45.39183" lon="5.05822">
        <ele>430</ele>
        <time>2021-10-10T12:39:27.968Z</time>
      </trkpt>
      <trkpt lat="45.39177" lon="5.05807">
        <ele>432</ele>
        <time>2021-10-10T12:39:32.960Z</time>
      </trkpt>
      <trkpt lat="45.3917" lon="5.05789">
        <ele>431</ele>
        <time>2021-10-10T12:39:37.957Z</time>
      </trkpt>
      <trkpt lat="45.39165" lon="5.05773">
        <ele>431</ele>
        <time>2021-10-10T12:39:42.967Z</time>
      </trkpt>
      <trkpt lat="45.39162" lon="5.0576">
        <ele>432</ele>
        <time>2021-10-10T12:39:47.961Z</time>
      </trkpt>
      <trkpt lat="45.39159" lon="5.05745">
        <ele>432</ele>
        <time>2021-10-10T12:39:52.969Z</time>
      </trkpt>
      <trkpt lat="45.39152" lon="5.05733">
        <ele>433</ele>
        <time>2021-10-10T12:39:57.957Z</time>
      </trkpt>
      <trkpt lat="45.39138" lon="5.05738">
        <ele>433</ele>
        <time>2021-10-10T12:40:02.001Z</time>
      </trkpt>
      <trkpt lat="45.39115" lon="5.05747">
        <ele>434</ele>
        <time>2021-10-10T12:40:06.961Z</time>
      </trkpt>
      <trkpt lat="45.39089" lon="5.05755">
        <ele>436</ele>
        <time>2021-10-10T12:40:11.949Z</time>
      </trkpt>
      <trkpt lat="45.39069" lon="5.05764">
        <ele>438</ele>
        <time>2021-10-10T12:40:15.959Z</time>
      </trkpt>
      <trkpt lat="45.39049" lon="5.05771">
        <ele>441</ele>
        <time>2021-10-10T12:40:20.964Z</time>
      </trkpt>
      <trkpt lat="45.39025" lon="5.05786">
        <ele>444</ele>
        <time>2021-10-10T12:40:25.953Z</time>
      </trkpt>
      <trkpt lat="45.39007" lon="5.05799">
        <ele>448</ele>
        <time>2021-10-10T12:40:29.967Z</time>
      </trkpt>
      <trkpt lat="45.38985" lon="5.05817">
        <ele>450</ele>
        <time>2021-10-10T12:40:34.961Z</time>
      </trkpt>
      <trkpt lat="45.38964" lon="5.05835">
        <ele>450</ele>
        <time>2021-10-10T12:40:39.962Z</time>
      </trkpt>
      <trkpt lat="45.38952" lon="5.05845">
        <ele>451</ele>
        <time>2021-10-10T12:40:44.959Z</time>
      </trkpt>
      <trkpt lat="45.38945" lon="5.05848">
        <ele>451</ele>
        <time>2021-10-10T12:40:49.963Z</time>
      </trkpt>
      <trkpt lat="45.3894" lon="5.05852">
        <ele>451</ele>
        <time>2021-10-10T12:40:54.966Z</time>
      </trkpt>
      <trkpt lat="45.38934" lon="5.05857">
        <ele>451</ele>
        <time>2021-10-10T12:40:59.961Z</time>
      </trkpt>
      <trkpt lat="45.38928" lon="5.05861">
        <ele>452</ele>
        <time>2021-10-10T12:41:04.960Z</time>
      </trkpt>
      <trkpt lat="45.38923" lon="5.05864">
        <ele>452</ele>
        <time>2021-10-10T12:41:09.961Z</time>
      </trkpt>
      <trkpt lat="45.38918" lon="5.05864">
        <ele>452</ele>
        <time>2021-10-10T12:41:14.964Z</time>
      </trkpt>
      <trkpt lat="45.38919" lon="5.05864">
        <ele>452</ele>
        <time>2021-10-10T12:41:18.964Z</time>
      </trkpt>
      <trkpt lat="45.38918" lon="5.05868">
        <ele>452</ele>
        <time>2021-10-10T12:41:23.959Z</time>
      </trkpt>
      <trkpt lat="45.38914" lon="5.05873">
        <ele>452</ele>
        <time>2021-10-10T12:41:27.970Z</time>
      </trkpt>
      <trkpt lat="45.38908" lon="5.05876">
        <ele>452</ele>
        <time>2021-10-10T12:41:32.958Z</time>
      </trkpt>
      <trkpt lat="45.38902" lon="5.05879">
        <ele>451</ele>
        <time>2021-10-10T12:41:37.952Z</time>
      </trkpt>
      <trkpt lat="45.38897" lon="5.05882">
        <ele>451</ele>
        <time>2021-10-10T12:41:41.972Z</time>
      </trkpt>
      <trkpt lat="45.38892" lon="5.05887">
        <ele>451</ele>
        <time>2021-10-10T12:41:46.964Z</time>
      </trkpt>
      <trkpt lat="45.38887" lon="5.0589">
        <ele>451</ele>
        <time>2021-10-10T12:41:50.972Z</time>
      </trkpt>
      <trkpt lat="45.38881" lon="5.05894">
        <ele>451</ele>
        <time>2021-10-10T12:41:55.949Z</time>
      </trkpt>
      <trkpt lat="45.38877" lon="5.05898">
        <ele>451</ele>
        <time>2021-10-10T12:41:59.959Z</time>
      </trkpt>
      <trkpt lat="45.38871" lon="5.05902">
        <ele>447</ele>
        <time>2021-10-10T12:42:04.963Z</time>
      </trkpt>
      <trkpt lat="45.38865" lon="5.05905">
        <ele>447</ele>
        <time>2021-10-10T12:42:09.959Z</time>
      </trkpt>
      <trkpt lat="45.38859" lon="5.05907">
        <ele>447</ele>
        <time>2021-10-10T12:42:13.960Z</time>
      </trkpt>
      <trkpt lat="45.38853" lon="5.05911">
        <ele>447</ele>
        <time>2021-10-10T12:42:18.960Z</time>
      </trkpt>
      <trkpt lat="45.38847" lon="5.05915">
        <ele>444</ele>
        <time>2021-10-10T12:42:23.954Z</time>
      </trkpt>
      <trkpt lat="45.38841" lon="5.05918">
        <ele>444</ele>
        <time>2021-10-10T12:42:27.967Z</time>
      </trkpt>
      <trkpt lat="45.38836" lon="5.05921">
        <ele>444</ele>
        <time>2021-10-10T12:42:31.973Z</time>
      </trkpt>
      <trkpt lat="45.3883" lon="5.05925">
        <ele>444</ele>
        <time>2021-10-10T12:42:36.965Z</time>
      </trkpt>
      <trkpt lat="45.38826" lon="5.05929">
        <ele>444</ele>
        <time>2021-10-10T12:42:41.960Z</time>
      </trkpt>
      <trkpt lat="45.38824" lon="5.05931">
        <ele>444</ele>
        <time>2021-10-10T12:42:45.966Z</time>
      </trkpt>
      <trkpt lat="45.38819" lon="5.05934">
        <ele>440</ele>
        <time>2021-10-10T12:42:50.963Z</time>
      </trkpt>
      <trkpt lat="45.38813" lon="5.05937">
        <ele>440</ele>
        <time>2021-10-10T12:42:55.953Z</time>
      </trkpt>
      <trkpt lat="45.38809" lon="5.05939">
        <ele>440</ele>
        <time>2021-10-10T12:42:59.958Z</time>
      </trkpt>
      <trkpt lat="45.38803" lon="5.05941">
        <ele>440</ele>
        <time>2021-10-10T12:43:04.957Z</time>
      </trkpt>
      <trkpt lat="45.38797" lon="5.05944">
        <ele>440</ele>
        <time>2021-10-10T12:43:09.967Z</time>
      </trkpt>
      <trkpt lat="45.38793" lon="5.05946">
        <ele>440</ele>
        <time>2021-10-10T12:43:13.966Z</time>
      </trkpt>
      <trkpt lat="45.38786" lon="5.05947">
        <ele>437</ele>
        <time>2021-10-10T12:43:18.970Z</time>
      </trkpt>
      <trkpt lat="45.38781" lon="5.05947">
        <ele>437</ele>
        <time>2021-10-10T12:43:23.960Z</time>
      </trkpt>
      <trkpt lat="45.38779" lon="5.05945">
        <ele>437</ele>
        <time>2021-10-10T12:43:27.967Z</time>
      </trkpt>
      <trkpt lat="45.38775" lon="5.05949">
        <ele>437</ele>
        <time>2021-10-10T12:43:32.961Z</time>
      </trkpt>
      <trkpt lat="45.38772" lon="5.0595">
        <ele>437</ele>
        <time>2021-10-10T12:43:37.960Z</time>
      </trkpt>
      <trkpt lat="45.3877" lon="5.05951">
        <ele>437</ele>
        <time>2021-10-10T12:43:41.962Z</time>
      </trkpt>
      <trkpt lat="45.38767" lon="5.05952">
        <ele>437</ele>
        <time>2021-10-10T12:43:46.960Z</time>
      </trkpt>
      <trkpt lat="45.38761" lon="5.05951">
        <ele>433</ele>
        <time>2021-10-10T12:43:51.961Z</time>
      </trkpt>
      <trkpt lat="45.38757" lon="5.05949">
        <ele>433</ele>
        <time>2021-10-10T12:43:56.963Z</time>
      </trkpt>
      <trkpt lat="45.38753" lon="5.05946">
        <ele>433</ele>
        <time>2021-10-10T12:44:01.955Z</time>
      </trkpt>
      <trkpt lat="45.3875" lon="5.05944">
        <ele>433</ele>
        <time>2021-10-10T12:44:06.963Z</time>
      </trkpt>
      <trkpt lat="45.38746" lon="5.05943">
        <ele>433</ele>
        <time>2021-10-10T12:44:11.958Z</time>
      </trkpt>
      <trkpt lat="45.38743" lon="5.05942">
        <ele>433</ele>
        <time>2021-10-10T12:44:15.963Z</time>
      </trkpt>
      <trkpt lat="45.3874" lon="5.05938">
        <ele>433</ele>
        <time>2021-10-10T12:44:19.968Z</time>
      </trkpt>
      <trkpt lat="45.38736" lon="5.05937">
        <ele>429</ele>
        <time>2021-10-10T12:44:24.965Z</time>
      </trkpt>
      <trkpt lat="45.38731" lon="5.05935">
        <ele>429</ele>
        <time>2021-10-10T12:44:29.962Z</time>
      </trkpt>
      <trkpt lat="45.38726" lon="5.05936">
        <ele>429</ele>
        <time>2021-10-10T12:44:34.960Z</time>
      </trkpt>
      <trkpt lat="45.38721" lon="5.05937">
        <ele>429</ele>
        <time>2021-10-10T12:44:38.970Z</time>
      </trkpt>
      <trkpt lat="45.38715" lon="5.05938">
        <ele>429</ele>
        <time>2021-10-10T12:44:43.965Z</time>
      </trkpt>
      <trkpt lat="45.38709" lon="5.05941">
        <ele>429</ele>
        <time>2021-10-10T12:44:48.964Z</time>
      </trkpt>
      <trkpt lat="45.38704" lon="5.05944">
        <ele>424</ele>
        <time>2021-10-10T12:44:52.972Z</time>
      </trkpt>
      <trkpt lat="45.38698" lon="5.05946">
        <ele>424</ele>
        <time>2021-10-10T12:44:57.966Z</time>
      </trkpt>
      <trkpt lat="45.38692" lon="5.05947">
        <ele>424</ele>
        <time>2021-10-10T12:45:02.963Z</time>
      </trkpt>
      <trkpt lat="45.38686" lon="5.05946">
        <ele>424</ele>
        <time>2021-10-10T12:45:07.965Z</time>
      </trkpt>
      <trkpt lat="45.38679" lon="5.05944">
        <ele>420</ele>
        <time>2021-10-10T12:45:12.956Z</time>
      </trkpt>
      <trkpt lat="45.38672" lon="5.05942">
        <ele>420</ele>
        <time>2021-10-10T12:45:17.956Z</time>
      </trkpt>
      <trkpt lat="45.38666" lon="5.0594">
        <ele>420</ele>
        <time>2021-10-10T12:45:22.964Z</time>
      </trkpt>
      <trkpt lat="45.3866" lon="5.05938">
        <ele>420</ele>
        <time>2021-10-10T12:45:27.968Z</time>
      </trkpt>
      <trkpt lat="45.38654" lon="5.05935">
        <ele>420</ele>
        <time>2021-10-10T12:45:31.969Z</time>
      </trkpt>
      <trkpt lat="45.38648" lon="5.05932">
        <ele>418</ele>
        <time>2021-10-10T12:45:36.973Z</time>
      </trkpt>
      <trkpt lat="45.38643" lon="5.05928">
        <ele>420</ele>
        <time>2021-10-10T12:45:41.965Z</time>
      </trkpt>
      <trkpt lat="45.38637" lon="5.05924">
        <ele>420</ele>
        <time>2021-10-10T12:45:46.966Z</time>
      </trkpt>
      <trkpt lat="45.38631" lon="5.05922">
        <ele>420</ele>
        <time>2021-10-10T12:45:51.957Z</time>
      </trkpt>
      <trkpt lat="45.38627" lon="5.0592">
        <ele>420</ele>
        <time>2021-10-10T12:45:56.966Z</time>
      </trkpt>
      <trkpt lat="45.38623" lon="5.05921">
        <ele>416</ele>
        <time>2021-10-10T12:46:00.971Z</time>
      </trkpt>
      <trkpt lat="45.3862" lon="5.05926">
        <ele>416</ele>
        <time>2021-10-10T12:46:05.962Z</time>
      </trkpt>
      <trkpt lat="45.38618" lon="5.05931">
        <ele>415</ele>
        <time>2021-10-10T12:46:10.958Z</time>
      </trkpt>
      <trkpt lat="45.38615" lon="5.05938">
        <ele>415</ele>
        <time>2021-10-10T12:46:15.957Z</time>
      </trkpt>
      <trkpt lat="45.38613" lon="5.05945">
        <ele>415</ele>
        <time>2021-10-10T12:46:19.959Z</time>
      </trkpt>
      <trkpt lat="45.38612" lon="5.05953">
        <ele>415</ele>
        <time>2021-10-10T12:46:24.960Z</time>
      </trkpt>
      <trkpt lat="45.38611" lon="5.05959">
        <ele>414</ele>
        <time>2021-10-10T12:46:28.960Z</time>
      </trkpt>
      <trkpt lat="45.3861" lon="5.05966">
        <ele>414</ele>
        <time>2021-10-10T12:46:32.972Z</time>
      </trkpt>
      <trkpt lat="45.38608" lon="5.05973">
        <ele>414</ele>
        <time>2021-10-10T12:46:37.968Z</time>
      </trkpt>
      <trkpt lat="45.38605" lon="5.0598">
        <ele>414</ele>
        <time>2021-10-10T12:46:42.964Z</time>
      </trkpt>
      <trkpt lat="45.38604" lon="5.05987">
        <ele>413</ele>
        <time>2021-10-10T12:46:46.962Z</time>
      </trkpt>
      <trkpt lat="45.38601" lon="5.05995">
        <ele>413</ele>
        <time>2021-10-10T12:46:51.956Z</time>
      </trkpt>
      <trkpt lat="45.38598" lon="5.06001">
        <ele>413</ele>
        <time>2021-10-10T12:46:55.964Z</time>
      </trkpt>
      <trkpt lat="45.38595" lon="5.06008">
        <ele>409</ele>
        <time>2021-10-10T12:47:00.969Z</time>
      </trkpt>
      <trkpt lat="45.38593" lon="5.06015">
        <ele>408</ele>
        <time>2021-10-10T12:47:05.952Z</time>
      </trkpt>
      <trkpt lat="45.3859" lon="5.06016">
        <ele>408</ele>
        <time>2021-10-10T12:47:09.960Z</time>
      </trkpt>
      <trkpt lat="45.38588" lon="5.06022">
        <ele>408</ele>
        <time>2021-10-10T12:47:13.972Z</time>
      </trkpt>
      <trkpt lat="45.38584" lon="5.06029">
        <ele>408</ele>
        <time>2021-10-10T12:47:18.965Z</time>
      </trkpt>
      <trkpt lat="45.3858" lon="5.06037">
        <ele>408</ele>
        <time>2021-10-10T12:47:23.959Z</time>
      </trkpt>
      <trkpt lat="45.38577" lon="5.06044">
        <ele>405</ele>
        <time>2021-10-10T12:47:28.959Z</time>
      </trkpt>
      <trkpt lat="45.38574" lon="5.06051">
        <ele>405</ele>
        <time>2021-10-10T12:47:32.966Z</time>
      </trkpt>
      <trkpt lat="45.38571" lon="5.06059">
        <ele>405</ele>
        <time>2021-10-10T12:47:37.961Z</time>
      </trkpt>
      <trkpt lat="45.38568" lon="5.06067">
        <ele>402</ele>
        <time>2021-10-10T12:47:42.963Z</time>
      </trkpt>
      <trkpt lat="45.38566" lon="5.06074">
        <ele>402</ele>
        <time>2021-10-10T12:47:46.969Z</time>
      </trkpt>
      <trkpt lat="45.38564" lon="5.06082">
        <ele>402</ele>
        <time>2021-10-10T12:47:51.966Z</time>
      </trkpt>
      <trkpt lat="45.38562" lon="5.06087">
        <ele>402</ele>
        <time>2021-10-10T12:47:55.962Z</time>
      </trkpt>
      <trkpt lat="45.3856" lon="5.06089">
        <ele>402</ele>
        <time>2021-10-10T12:48:00.964Z</time>
      </trkpt>
      <trkpt lat="45.38557" lon="5.06094">
        <ele>402</ele>
        <time>2021-10-10T12:48:04.963Z</time>
      </trkpt>
      <trkpt lat="45.38553" lon="5.06096">
        <ele>402</ele>
        <time>2021-10-10T12:48:09.965Z</time>
      </trkpt>
      <trkpt lat="45.38549" lon="5.06097">
        <ele>402</ele>
        <time>2021-10-10T12:48:14.949Z</time>
      </trkpt>
      <trkpt lat="45.38545" lon="5.06099">
        <ele>401</ele>
        <time>2021-10-10T12:48:18.959Z</time>
      </trkpt>
      <trkpt lat="45.38541" lon="5.06102">
        <ele>396</ele>
        <time>2021-10-10T12:48:22.968Z</time>
      </trkpt>
      <trkpt lat="45.38537" lon="5.06105">
        <ele>396</ele>
        <time>2021-10-10T12:48:27.959Z</time>
      </trkpt>
      <trkpt lat="45.38533" lon="5.06109">
        <ele>396</ele>
        <time>2021-10-10T12:48:31.965Z</time>
      </trkpt>
      <trkpt lat="45.38527" lon="5.06112">
        <ele>396</ele>
        <time>2021-10-10T12:48:36.966Z</time>
      </trkpt>
      <trkpt lat="45.38522" lon="5.06114">
        <ele>396</ele>
        <time>2021-10-10T12:48:41.956Z</time>
      </trkpt>
      <trkpt lat="45.38517" lon="5.06117">
        <ele>396</ele>
        <time>2021-10-10T12:48:45.961Z</time>
      </trkpt>
      <trkpt lat="45.38513" lon="5.0612">
        <ele>392</ele>
        <time>2021-10-10T12:48:49.968Z</time>
      </trkpt>
      <trkpt lat="45.38508" lon="5.06123">
        <ele>392</ele>
        <time>2021-10-10T12:48:53.971Z</time>
      </trkpt>
      <trkpt lat="45.38503" lon="5.06128">
        <ele>392</ele>
        <time>2021-10-10T12:48:58.966Z</time>
      </trkpt>
      <trkpt lat="45.38497" lon="5.0613">
        <ele>392</ele>
        <time>2021-10-10T12:49:03.955Z</time>
      </trkpt>
      <trkpt lat="45.38491" lon="5.06133">
        <ele>392</ele>
        <time>2021-10-10T12:49:08.954Z</time>
      </trkpt>
      <trkpt lat="45.38487" lon="5.06136">
        <ele>392</ele>
        <time>2021-10-10T12:49:12.975Z</time>
      </trkpt>
      <trkpt lat="45.38482" lon="5.0614">
        <ele>389</ele>
        <time>2021-10-10T12:49:17.970Z</time>
      </trkpt>
      <trkpt lat="45.38481" lon="5.06141">
        <ele>389</ele>
        <time>2021-10-10T12:49:22.963Z</time>
      </trkpt>
      <trkpt lat="45.38479" lon="5.06142">
        <ele>389</ele>
        <time>2021-10-10T12:49:27.958Z</time>
      </trkpt>
      <trkpt lat="45.38477" lon="5.06144">
        <ele>389</ele>
        <time>2021-10-10T12:49:31.968Z</time>
      </trkpt>
      <trkpt lat="45.38472" lon="5.06146">
        <ele>389</ele>
        <time>2021-10-10T12:49:36.966Z</time>
      </trkpt>
      <trkpt lat="45.38468" lon="5.0615">
        <ele>389</ele>
        <time>2021-10-10T12:49:41.958Z</time>
      </trkpt>
      <trkpt lat="45.38464" lon="5.06154">
        <ele>389</ele>
        <time>2021-10-10T12:49:46.961Z</time>
      </trkpt>
      <trkpt lat="45.38461" lon="5.06156">
        <ele>389</ele>
        <time>2021-10-10T12:49:51.958Z</time>
      </trkpt>
      <trkpt lat="45.3846" lon="5.06156">
        <ele>389</ele>
        <time>2021-10-10T12:49:56.966Z</time>
      </trkpt>
      <trkpt lat="45.38456" lon="5.06161">
        <ele>385</ele>
        <time>2021-10-10T12:51:44.947Z</time>
      </trkpt>
      <trkpt lat="45.38456" lon="5.06161">
        <ele>385</ele>
        <time>2021-10-10T12:51:48.945Z</time>
      </trkpt>
      <trkpt lat="45.38455" lon="5.06161">
        <ele>385</ele>
        <time>2021-10-10T12:51:52.953Z</time>
      </trkpt>
      <trkpt lat="45.38453" lon="5.06161">
        <ele>385</ele>
        <time>2021-10-10T12:51:56.955Z</time>
      </trkpt>
      <trkpt lat="45.38449" lon="5.06161">
        <ele>385</ele>
        <time>2021-10-10T12:52:01.952Z</time>
      </trkpt>
      <trkpt lat="45.38444" lon="5.06162">
        <ele>385</ele>
        <time>2021-10-10T12:52:05.958Z</time>
      </trkpt>
      <trkpt lat="45.3844" lon="5.06165">
        <ele>385</ele>
        <time>2021-10-10T12:52:10.950Z</time>
      </trkpt>
      <trkpt lat="45.38437" lon="5.06168">
        <ele>385</ele>
        <time>2021-10-10T12:52:14.953Z</time>
      </trkpt>
      <trkpt lat="45.38435" lon="5.06172">
        <ele>385</ele>
        <time>2021-10-10T12:52:18.956Z</time>
      </trkpt>
      <trkpt lat="45.38431" lon="5.06175">
        <ele>385</ele>
        <time>2021-10-10T12:52:23.951Z</time>
      </trkpt>
      <trkpt lat="45.38424" lon="5.06176">
        <ele>381</ele>
        <time>2021-10-10T12:52:28.956Z</time>
      </trkpt>
      <trkpt lat="45.38419" lon="5.06179">
        <ele>381</ele>
        <time>2021-10-10T12:52:33.952Z</time>
      </trkpt>
      <trkpt lat="45.38414" lon="5.06182">
        <ele>378</ele>
        <time>2021-10-10T12:52:38.955Z</time>
      </trkpt>
      <trkpt lat="45.3841" lon="5.06183">
        <ele>378</ele>
        <time>2021-10-10T12:52:42.958Z</time>
      </trkpt>
      <trkpt lat="45.38405" lon="5.06185">
        <ele>378</ele>
        <time>2021-10-10T12:52:47.957Z</time>
      </trkpt>
      <trkpt lat="45.38401" lon="5.06185">
        <ele>374</ele>
        <time>2021-10-10T12:52:52.950Z</time>
      </trkpt>
      <trkpt lat="45.38396" lon="5.06187">
        <ele>374</ele>
        <time>2021-10-10T12:52:57.967Z</time>
      </trkpt>
      <trkpt lat="45.38391" lon="5.06187">
        <ele>374</ele>
        <time>2021-10-10T12:53:02.952Z</time>
      </trkpt>
      <trkpt lat="45.38386" lon="5.06187">
        <ele>374</ele>
        <time>2021-10-10T12:53:07.950Z</time>
      </trkpt>
      <trkpt lat="45.3838" lon="5.06185">
        <ele>374</ele>
        <time>2021-10-10T12:53:12.951Z</time>
      </trkpt>
      <trkpt lat="45.38375" lon="5.06183">
        <ele>374</ele>
        <time>2021-10-10T12:53:17.950Z</time>
      </trkpt>
      <trkpt lat="45.3837" lon="5.06181">
        <ele>370</ele>
        <time>2021-10-10T12:53:21.959Z</time>
      </trkpt>
      <trkpt lat="45.38366" lon="5.0618">
        <ele>370</ele>
        <time>2021-10-10T12:53:25.983Z</time>
      </trkpt>
      <trkpt lat="45.3836" lon="5.06179">
        <ele>370</ele>
        <time>2021-10-10T12:53:30.951Z</time>
      </trkpt>
      <trkpt lat="45.38356" lon="5.06179">
        <ele>370</ele>
        <time>2021-10-10T12:53:34.981Z</time>
      </trkpt>
      <trkpt lat="45.3835" lon="5.06178">
        <ele>370</ele>
        <time>2021-10-10T12:53:39.999Z</time>
      </trkpt>
      <trkpt lat="45.38344" lon="5.06178">
        <ele>366</ele>
        <time>2021-10-10T12:53:44.981Z</time>
      </trkpt>
      <trkpt lat="45.38339" lon="5.06178">
        <ele>366</ele>
        <time>2021-10-10T12:53:48.990Z</time>
      </trkpt>
      <trkpt lat="45.38333" lon="5.06179">
        <ele>366</ele>
        <time>2021-10-10T12:53:53.991Z</time>
      </trkpt>
      <trkpt lat="45.38326" lon="5.06179">
        <ele>366</ele>
        <time>2021-10-10T12:53:59.014Z</time>
      </trkpt>
      <trkpt lat="45.38322" lon="5.0618">
        <ele>366</ele>
        <time>2021-10-10T12:54:03.037Z</time>
      </trkpt>
      <trkpt lat="45.38316" lon="5.06183">
        <ele>362</ele>
        <time>2021-10-10T12:54:07.999Z</time>
      </trkpt>
      <trkpt lat="45.3831" lon="5.06185">
        <ele>362</ele>
        <time>2021-10-10T12:54:12.984Z</time>
      </trkpt>
      <trkpt lat="45.38304" lon="5.06187">
        <ele>362</ele>
        <time>2021-10-10T12:54:17.989Z</time>
      </trkpt>
      <trkpt lat="45.38299" lon="5.06188">
        <ele>362</ele>
        <time>2021-10-10T12:54:22.997Z</time>
      </trkpt>
      <trkpt lat="45.38294" lon="5.06189">
        <ele>362</ele>
        <time>2021-10-10T12:54:26.999Z</time>
      </trkpt>
      <trkpt lat="45.38292" lon="5.0619">
        <ele>362</ele>
        <time>2021-10-10T12:54:31.967Z</time>
      </trkpt>
      <trkpt lat="45.38292" lon="5.0619">
        <ele>362</ele>
        <time>2021-10-10T12:54:35.993Z</time>
      </trkpt>
      <trkpt lat="45.3829" lon="5.06191">
        <ele>359</ele>
        <time>2021-10-10T12:54:39.996Z</time>
      </trkpt>
      <trkpt lat="45.38285" lon="5.06196">
        <ele>359</ele>
        <time>2021-10-10T12:54:44.970Z</time>
      </trkpt>
      <trkpt lat="45.38281" lon="5.06198">
        <ele>359</ele>
        <time>2021-10-10T12:54:48.975Z</time>
      </trkpt>
      <trkpt lat="45.38277" lon="5.06201">
        <ele>359</ele>
        <time>2021-10-10T12:54:52.991Z</time>
      </trkpt>
      <trkpt lat="45.38271" lon="5.06205">
        <ele>359</ele>
        <time>2021-10-10T12:54:57.983Z</time>
      </trkpt>
      <trkpt lat="45.38266" lon="5.06209">
        <ele>359</ele>
        <time>2021-10-10T12:55:02.990Z</time>
      </trkpt>
      <trkpt lat="45.38261" lon="5.06209">
        <ele>357</ele>
        <time>2021-10-10T12:55:06.994Z</time>
      </trkpt>
      <trkpt lat="45.38255" lon="5.06212">
        <ele>357</ele>
        <time>2021-10-10T12:55:11.990Z</time>
      </trkpt>
      <trkpt lat="45.3825" lon="5.06216">
        <ele>357</ele>
        <time>2021-10-10T12:55:17.046Z</time>
      </trkpt>
      <trkpt lat="45.38243" lon="5.0622">
        <ele>357</ele>
        <time>2021-10-10T12:55:21.959Z</time>
      </trkpt>
      <trkpt lat="45.38238" lon="5.06223">
        <ele>357</ele>
        <time>2021-10-10T12:55:25.991Z</time>
      </trkpt>
      <trkpt lat="45.38231" lon="5.06227">
        <ele>354</ele>
        <time>2021-10-10T12:55:30.966Z</time>
      </trkpt>
      <trkpt lat="45.38225" lon="5.06229">
        <ele>354</ele>
        <time>2021-10-10T12:55:35.976Z</time>
      </trkpt>
      <trkpt lat="45.38218" lon="5.0623">
        <ele>354</ele>
        <time>2021-10-10T12:55:40.954Z</time>
      </trkpt>
      <trkpt lat="45.38213" lon="5.06231">
        <ele>354</ele>
        <time>2021-10-10T12:55:44.997Z</time>
      </trkpt>
      <trkpt lat="45.38206" lon="5.06232">
        <ele>352</ele>
        <time>2021-10-10T12:55:49.991Z</time>
      </trkpt>
      <trkpt lat="45.38204" lon="5.06229">
        <ele>352</ele>
        <time>2021-10-10T12:55:54.994Z</time>
      </trkpt>
      <trkpt lat="45.38203" lon="5.06228">
        <ele>352</ele>
        <time>2021-10-10T12:55:58.998Z</time>
      </trkpt>
      <trkpt lat="45.38197" lon="5.06226">
        <ele>352</ele>
        <time>2021-10-10T12:56:04.018Z</time>
      </trkpt>
      <trkpt lat="45.38192" lon="5.06225">
        <ele>352</ele>
        <time>2021-10-10T12:56:08.996Z</time>
      </trkpt>
      <trkpt lat="45.38192" lon="5.06225">
        <ele>352</ele>
        <time>2021-10-10T12:56:13.014Z</time>
      </trkpt>
      <trkpt lat="45.38191" lon="5.06225">
        <ele>352</ele>
        <time>2021-10-10T12:56:17.970Z</time>
      </trkpt>
      <trkpt lat="45.38188" lon="5.06226">
        <ele>352</ele>
        <time>2021-10-10T12:56:22.003Z</time>
      </trkpt>
      <trkpt lat="45.38183" lon="5.06227">
        <ele>352</ele>
        <time>2021-10-10T12:56:26.971Z</time>
      </trkpt>
      <trkpt lat="45.38181" lon="5.06236">
        <ele>352</ele>
        <time>2021-10-10T12:57:26.024Z</time>
      </trkpt>
      <trkpt lat="45.38178" lon="5.06237">
        <ele>350</ele>
        <time>2021-10-10T12:57:30.965Z</time>
      </trkpt>
      <trkpt lat="45.38174" lon="5.06235">
        <ele>351</ele>
        <time>2021-10-10T12:57:34.998Z</time>
      </trkpt>
      <trkpt lat="45.38169" lon="5.06237">
        <ele>350</ele>
        <time>2021-10-10T12:57:38.999Z</time>
      </trkpt>
      <trkpt lat="45.38164" lon="5.06238">
        <ele>350</ele>
        <time>2021-10-10T12:57:42.999Z</time>
      </trkpt>
      <trkpt lat="45.38158" lon="5.06241">
        <ele>350</ele>
        <time>2021-10-10T12:57:47.987Z</time>
      </trkpt>
      <trkpt lat="45.38154" lon="5.06243">
        <ele>350</ele>
        <time>2021-10-10T12:57:51.987Z</time>
      </trkpt>
      <trkpt lat="45.38147" lon="5.06246">
        <ele>348</ele>
        <time>2021-10-10T12:57:56.991Z</time>
      </trkpt>
      <trkpt lat="45.38141" lon="5.06248">
        <ele>348</ele>
        <time>2021-10-10T12:58:02.022Z</time>
      </trkpt>
      <trkpt lat="45.38135" lon="5.0625">
        <ele>348</ele>
        <time>2021-10-10T12:58:06.989Z</time>
      </trkpt>
      <trkpt lat="45.3813" lon="5.06252">
        <ele>348</ele>
        <time>2021-10-10T12:58:11.034Z</time>
      </trkpt>
      <trkpt lat="45.38124" lon="5.06254">
        <ele>347</ele>
        <time>2021-10-10T12:58:15.995Z</time>
      </trkpt>
      <trkpt lat="45.38118" lon="5.06256">
        <ele>347</ele>
        <time>2021-10-10T12:58:20Z</time>
      </trkpt>
      <trkpt lat="45.38111" lon="5.06259">
        <ele>347</ele>
        <time>2021-10-10T12:58:24.992Z</time>
      </trkpt>
      <trkpt lat="45.38105" lon="5.06262">
        <ele>347</ele>
        <time>2021-10-10T12:58:29.998Z</time>
      </trkpt>
      <trkpt lat="45.38098" lon="5.06262">
        <ele>347</ele>
        <time>2021-10-10T12:58:34.995Z</time>
      </trkpt>
      <trkpt lat="45.38093" lon="5.06254">
        <ele>347</ele>
        <time>2021-10-10T12:58:39.985Z</time>
      </trkpt>
      <trkpt lat="45.38088" lon="5.06247">
        <ele>347</ele>
        <time>2021-10-10T12:58:44.971Z</time>
      </trkpt>
      <trkpt lat="45.38085" lon="5.0624">
        <ele>347</ele>
        <time>2021-10-10T12:58:49.995Z</time>
      </trkpt>
      <trkpt lat="45.38081" lon="5.06234">
        <ele>346</ele>
        <time>2021-10-10T12:58:54.029Z</time>
      </trkpt>
      <trkpt lat="45.38076" lon="5.06226">
        <ele>346</ele>
        <time>2021-10-10T12:58:59.009Z</time>
      </trkpt>
      <trkpt lat="45.38073" lon="5.0622">
        <ele>346</ele>
        <time>2021-10-10T12:59:03.026Z</time>
      </trkpt>
      <trkpt lat="45.38068" lon="5.06214">
        <ele>346</ele>
        <time>2021-10-10T12:59:07.958Z</time>
      </trkpt>
      <trkpt lat="45.38064" lon="5.06208">
        <ele>346</ele>
        <time>2021-10-10T12:59:11.961Z</time>
      </trkpt>
      <trkpt lat="45.38058" lon="5.06201">
        <ele>346</ele>
        <time>2021-10-10T12:59:17.002Z</time>
      </trkpt>
      <trkpt lat="45.38052" lon="5.06199">
        <ele>346</ele>
        <time>2021-10-10T12:59:22.029Z</time>
      </trkpt>
      <trkpt lat="45.38044" lon="5.06199">
        <ele>346</ele>
        <time>2021-10-10T12:59:26.997Z</time>
      </trkpt>
      <trkpt lat="45.38037" lon="5.06201">
        <ele>346</ele>
        <time>2021-10-10T12:59:32.025Z</time>
      </trkpt>
      <trkpt lat="45.38031" lon="5.06202">
        <ele>346</ele>
        <time>2021-10-10T12:59:36.984Z</time>
      </trkpt>
      <trkpt lat="45.38026" lon="5.06202">
        <ele>346</ele>
        <time>2021-10-10T12:59:40.993Z</time>
      </trkpt>
      <trkpt lat="45.38019" lon="5.06203">
        <ele>346</ele>
        <time>2021-10-10T12:59:45.959Z</time>
      </trkpt>
      <trkpt lat="45.38013" lon="5.06203">
        <ele>346</ele>
        <time>2021-10-10T12:59:49.983Z</time>
      </trkpt>
      <trkpt lat="45.38007" lon="5.06203">
        <ele>346</ele>
        <time>2021-10-10T12:59:54.023Z</time>
      </trkpt>
      <trkpt lat="45.37999" lon="5.06204">
        <ele>346</ele>
        <time>2021-10-10T12:59:58.975Z</time>
      </trkpt>
      <trkpt lat="45.37994" lon="5.06204">
        <ele>346</ele>
        <time>2021-10-10T13:00:02.993Z</time>
      </trkpt>
      <trkpt lat="45.37988" lon="5.06205">
        <ele>346</ele>
        <time>2021-10-10T13:00:07.976Z</time>
      </trkpt>
      <trkpt lat="45.37983" lon="5.06204">
        <ele>345</ele>
        <time>2021-10-10T13:00:11.985Z</time>
      </trkpt>
      <trkpt lat="45.37977" lon="5.06204">
        <ele>345</ele>
        <time>2021-10-10T13:00:15.988Z</time>
      </trkpt>
      <trkpt lat="45.3797" lon="5.06203">
        <ele>345</ele>
        <time>2021-10-10T13:00:21.038Z</time>
      </trkpt>
      <trkpt lat="45.37963" lon="5.06203">
        <ele>345</ele>
        <time>2021-10-10T13:00:25.953Z</time>
      </trkpt>
      <trkpt lat="45.37957" lon="5.06202">
        <ele>344</ele>
        <time>2021-10-10T13:00:29.992Z</time>
      </trkpt>
      <trkpt lat="45.37951" lon="5.062">
        <ele>344</ele>
        <time>2021-10-10T13:00:35.026Z</time>
      </trkpt>
      <trkpt lat="45.37945" lon="5.06199">
        <ele>344</ele>
        <time>2021-10-10T13:00:40.018Z</time>
      </trkpt>
      <trkpt lat="45.3794" lon="5.06199">
        <ele>344</ele>
        <time>2021-10-10T13:00:44.023Z</time>
      </trkpt>
      <trkpt lat="45.37933" lon="5.06197">
        <ele>344</ele>
        <time>2021-10-10T13:00:48.032Z</time>
      </trkpt>
      <trkpt lat="45.37927" lon="5.06195">
        <ele>344</ele>
        <time>2021-10-10T13:00:53.026Z</time>
      </trkpt>
      <trkpt lat="45.37921" lon="5.06193">
        <ele>344</ele>
        <time>2021-10-10T13:00:57.999Z</time>
      </trkpt>
      <trkpt lat="45.37914" lon="5.06192">
        <ele>344</ele>
        <time>2021-10-10T13:01:03.017Z</time>
      </trkpt>
      <trkpt lat="45.37908" lon="5.06192">
        <ele>344</ele>
        <time>2021-10-10T13:01:07.978Z</time>
      </trkpt>
      <trkpt lat="45.37901" lon="5.06191">
        <ele>344</ele>
        <time>2021-10-10T13:01:12.985Z</time>
      </trkpt>
      <trkpt lat="45.37895" lon="5.06192">
        <ele>344</ele>
        <time>2021-10-10T13:01:17.986Z</time>
      </trkpt>
      <trkpt lat="45.37889" lon="5.06195">
        <ele>344</ele>
        <time>2021-10-10T13:01:22.945Z</time>
      </trkpt>
      <trkpt lat="45.37884" lon="5.06197">
        <ele>344</ele>
        <time>2021-10-10T13:01:26.947Z</time>
      </trkpt>
      <trkpt lat="45.37876" lon="5.06199">
        <ele>344</ele>
        <time>2021-10-10T13:01:31.955Z</time>
      </trkpt>
      <trkpt lat="45.37869" lon="5.06202">
        <ele>343</ele>
        <time>2021-10-10T13:01:36.952Z</time>
      </trkpt>
      <trkpt lat="45.37862" lon="5.06206">
        <ele>343</ele>
        <time>2021-10-10T13:01:41.949Z</time>
      </trkpt>
      <trkpt lat="45.37856" lon="5.06209">
        <ele>344</ele>
        <time>2021-10-10T13:01:45.956Z</time>
      </trkpt>
      <trkpt lat="45.3785" lon="5.06214">
        <ele>344</ele>
        <time>2021-10-10T13:01:50.949Z</time>
      </trkpt>
      <trkpt lat="45.37844" lon="5.06216">
        <ele>344</ele>
        <time>2021-10-10T13:01:54.949Z</time>
      </trkpt>
      <trkpt lat="45.37838" lon="5.06219">
        <ele>344</ele>
        <time>2021-10-10T13:01:59.951Z</time>
      </trkpt>
      <trkpt lat="45.37836" lon="5.0622">
        <ele>344</ele>
        <time>2021-10-10T13:02:01.947Z</time>
      </trkpt>
      <trkpt lat="45.37826" lon="5.06218">
        <ele>344</ele>
        <time>2021-10-10T13:02:09.946Z</time>
      </trkpt>
      <trkpt lat="45.37814" lon="5.06224">
        <ele>344</ele>
        <time>2021-10-10T13:02:18.945Z</time>
      </trkpt>
      <trkpt lat="45.37809" lon="5.0623">
        <ele>344</ele>
        <time>2021-10-10T13:02:22.947Z</time>
      </trkpt>
      <trkpt lat="45.37802" lon="5.06234">
        <ele>344</ele>
        <time>2021-10-10T13:02:27.950Z</time>
      </trkpt>
      <trkpt lat="45.37795" lon="5.06239">
        <ele>345</ele>
        <time>2021-10-10T13:02:32.949Z</time>
      </trkpt>
      <trkpt lat="45.37789" lon="5.06245">
        <ele>343</ele>
        <time>2021-10-10T13:02:37.950Z</time>
      </trkpt>
      <trkpt lat="45.37783" lon="5.06249">
        <ele>343</ele>
        <time>2021-10-10T13:02:42.953Z</time>
      </trkpt>
      <trkpt lat="45.37777" lon="5.06253">
        <ele>343</ele>
        <time>2021-10-10T13:02:47.953Z</time>
      </trkpt>
      <trkpt lat="45.37772" lon="5.06258">
        <ele>343</ele>
        <time>2021-10-10T13:02:51.957Z</time>
      </trkpt>
      <trkpt lat="45.37767" lon="5.06265">
        <ele>341</ele>
        <time>2021-10-10T13:02:56.952Z</time>
      </trkpt>
      <trkpt lat="45.37762" lon="5.0627">
        <ele>342</ele>
        <time>2021-10-10T13:03:01.945Z</time>
      </trkpt>
      <trkpt lat="45.37758" lon="5.06275">
        <ele>342</ele>
        <time>2021-10-10T13:03:05.953Z</time>
      </trkpt>
      <trkpt lat="45.37753" lon="5.0628">
        <ele>342</ele>
        <time>2021-10-10T13:03:10.958Z</time>
      </trkpt>
      <trkpt lat="45.37749" lon="5.06284">
        <ele>342</ele>
        <time>2021-10-10T13:03:15.956Z</time>
      </trkpt>
      <trkpt lat="45.37745" lon="5.06289">
        <ele>342</ele>
        <time>2021-10-10T13:03:20.952Z</time>
      </trkpt>
      <trkpt lat="45.3774" lon="5.06296">
        <ele>341</ele>
        <time>2021-10-10T13:03:25.954Z</time>
      </trkpt>
      <trkpt lat="45.37736" lon="5.06302">
        <ele>342</ele>
        <time>2021-10-10T13:03:30.956Z</time>
      </trkpt>
      <trkpt lat="45.37731" lon="5.06309">
        <ele>342</ele>
        <time>2021-10-10T13:03:35.950Z</time>
      </trkpt>
      <trkpt lat="45.37725" lon="5.06317">
        <ele>342</ele>
        <time>2021-10-10T13:03:40.958Z</time>
      </trkpt>
      <trkpt lat="45.3772" lon="5.06325">
        <ele>343</ele>
        <time>2021-10-10T13:03:45.952Z</time>
      </trkpt>
      <trkpt lat="45.37715" lon="5.06332">
        <ele>343</ele>
        <time>2021-10-10T13:03:50.954Z</time>
      </trkpt>
      <trkpt lat="45.3771" lon="5.06336">
        <ele>343</ele>
        <time>2021-10-10T13:03:55.958Z</time>
      </trkpt>
      <trkpt lat="45.37704" lon="5.06338">
        <ele>345</ele>
        <time>2021-10-10T13:04:00.956Z</time>
      </trkpt>
      <trkpt lat="45.37698" lon="5.06341">
        <ele>345</ele>
        <time>2021-10-10T13:04:05.948Z</time>
      </trkpt>
      <trkpt lat="45.37691" lon="5.06343">
        <ele>345</ele>
        <time>2021-10-10T13:04:10.957Z</time>
      </trkpt>
      <trkpt lat="45.37684" lon="5.06347">
        <ele>345</ele>
        <time>2021-10-10T13:04:15.950Z</time>
      </trkpt>
      <trkpt lat="45.37678" lon="5.0635">
        <ele>345</ele>
        <time>2021-10-10T13:04:20.959Z</time>
      </trkpt>
      <trkpt lat="45.37671" lon="5.06353">
        <ele>345</ele>
        <time>2021-10-10T13:04:25.951Z</time>
      </trkpt>
      <trkpt lat="45.37665" lon="5.06357">
        <ele>345</ele>
        <time>2021-10-10T13:04:30.953Z</time>
      </trkpt>
      <trkpt lat="45.3766" lon="5.06361">
        <ele>345</ele>
        <time>2021-10-10T13:04:34.951Z</time>
      </trkpt>
      <trkpt lat="45.37654" lon="5.06365">
        <ele>345</ele>
        <time>2021-10-10T13:04:38.963Z</time>
      </trkpt>
      <trkpt lat="45.37644" lon="5.06368">
        <ele>344</ele>
        <time>2021-10-10T13:04:43.949Z</time>
      </trkpt>
      <trkpt lat="45.37636" lon="5.06373">
        <ele>344</ele>
        <time>2021-10-10T13:04:48.024Z</time>
      </trkpt>
      <trkpt lat="45.37627" lon="5.06381">
        <ele>345</ele>
        <time>2021-10-10T13:04:52.984Z</time>
      </trkpt>
      <trkpt lat="45.37615" lon="5.06387">
        <ele>345</ele>
        <time>2021-10-10T13:04:56.995Z</time>
      </trkpt>
      <trkpt lat="45.37605" lon="5.06393">
        <ele>345</ele>
        <time>2021-10-10T13:05:01.961Z</time>
      </trkpt>
      <trkpt lat="45.37597" lon="5.06399">
        <ele>347</ele>
        <time>2021-10-10T13:05:05.982Z</time>
      </trkpt>
      <trkpt lat="45.37592" lon="5.0641">
        <ele>347</ele>
        <time>2021-10-10T13:05:10.004Z</time>
      </trkpt>
      <trkpt lat="45.37592" lon="5.0642">
        <ele>347</ele>
        <time>2021-10-10T13:05:14.024Z</time>
      </trkpt>
      <trkpt lat="45.37592" lon="5.06432">
        <ele>347</ele>
        <time>2021-10-10T13:05:18.998Z</time>
      </trkpt>
      <trkpt lat="45.37594" lon="5.06444">
        <ele>347</ele>
        <time>2021-10-10T13:05:23.960Z</time>
      </trkpt>
      <trkpt lat="45.37596" lon="5.06453">
        <ele>347</ele>
        <time>2021-10-10T13:05:27.995Z</time>
      </trkpt>
      <trkpt lat="45.37598" lon="5.06462">
        <ele>346</ele>
        <time>2021-10-10T13:05:32.027Z</time>
      </trkpt>
      <trkpt lat="45.37602" lon="5.06475">
        <ele>346</ele>
        <time>2021-10-10T13:05:36.996Z</time>
      </trkpt>
      <trkpt lat="45.37608" lon="5.06484">
        <ele>346</ele>
        <time>2021-10-10T13:05:41.993Z</time>
      </trkpt>
      <trkpt lat="45.37615" lon="5.06502">
        <ele>347</ele>
        <time>2021-10-10T13:05:46.981Z</time>
      </trkpt>
      <trkpt lat="45.37618" lon="5.06514">
        <ele>348</ele>
        <time>2021-10-10T13:05:50.991Z</time>
      </trkpt>
      <trkpt lat="45.37621" lon="5.06531">
        <ele>348</ele>
        <time>2021-10-10T13:05:56.030Z</time>
      </trkpt>
      <trkpt lat="45.37623" lon="5.06545">
        <ele>347</ele>
        <time>2021-10-10T13:06:00.999Z</time>
      </trkpt>
      <trkpt lat="45.37622" lon="5.06559">
        <ele>347</ele>
        <time>2021-10-10T13:06:06.019Z</time>
      </trkpt>
      <trkpt lat="45.37622" lon="5.06573">
        <ele>347</ele>
        <time>2021-10-10T13:06:10.989Z</time>
      </trkpt>
      <trkpt lat="45.37621" lon="5.06587">
        <ele>347</ele>
        <time>2021-10-10T13:06:16.018Z</time>
      </trkpt>
      <trkpt lat="45.37619" lon="5.06602">
        <ele>347</ele>
        <time>2021-10-10T13:06:20.991Z</time>
      </trkpt>
      <trkpt lat="45.37618" lon="5.06614">
        <ele>347</ele>
        <time>2021-10-10T13:06:24.990Z</time>
      </trkpt>
      <trkpt lat="45.37616" lon="5.06631">
        <ele>348</ele>
        <time>2021-10-10T13:06:29.978Z</time>
      </trkpt>
      <trkpt lat="45.37615" lon="5.06649">
        <ele>348</ele>
        <time>2021-10-10T13:06:34.996Z</time>
      </trkpt>
      <trkpt lat="45.37617" lon="5.06667">
        <ele>349</ele>
        <time>2021-10-10T13:06:39.984Z</time>
      </trkpt>
      <trkpt lat="45.37619" lon="5.06685">
        <ele>350</ele>
        <time>2021-10-10T13:06:44.959Z</time>
      </trkpt>
      <trkpt lat="45.37616" lon="5.06701">
        <ele>350</ele>
        <time>2021-10-10T13:06:48.991Z</time>
      </trkpt>
      <trkpt lat="45.37613" lon="5.06718">
        <ele>350</ele>
        <time>2021-10-10T13:06:53.985Z</time>
      </trkpt>
      <trkpt lat="45.37612" lon="5.06738">
        <ele>350</ele>
        <time>2021-10-10T13:06:58.997Z</time>
      </trkpt>
      <trkpt lat="45.37615" lon="5.06754">
        <ele>350</ele>
        <time>2021-10-10T13:07:03.993Z</time>
      </trkpt>
      <trkpt lat="45.37615" lon="5.06764">
        <ele>349</ele>
        <time>2021-10-10T13:07:08.021Z</time>
      </trkpt>
      <trkpt lat="45.37607" lon="5.06772">
        <ele>349</ele>
        <time>2021-10-10T13:07:12.992Z</time>
      </trkpt>
      <trkpt lat="45.37599" lon="5.06779">
        <ele>349</ele>
        <time>2021-10-10T13:07:17.021Z</time>
      </trkpt>
      <trkpt lat="45.37592" lon="5.06783">
        <ele>348</ele>
        <time>2021-10-10T13:07:21.030Z</time>
      </trkpt>
      <trkpt lat="45.37583" lon="5.06787">
        <ele>348</ele>
        <time>2021-10-10T13:07:25.985Z</time>
      </trkpt>
      <trkpt lat="45.37576" lon="5.0679">
        <ele>348</ele>
        <time>2021-10-10T13:07:29.998Z</time>
      </trkpt>
      <trkpt lat="45.37567" lon="5.06794">
        <ele>348</ele>
        <time>2021-10-10T13:07:34.991Z</time>
      </trkpt>
      <trkpt lat="45.37558" lon="5.06795">
        <ele>348</ele>
        <time>2021-10-10T13:07:39.995Z</time>
      </trkpt>
      <trkpt lat="45.3755" lon="5.06796">
        <ele>348</ele>
        <time>2021-10-10T13:07:45Z</time>
      </trkpt>
      <trkpt lat="45.37542" lon="5.06798">
        <ele>348</ele>
        <time>2021-10-10T13:07:49.981Z</time>
      </trkpt>
      <trkpt lat="45.37533" lon="5.06799">
        <ele>347</ele>
        <time>2021-10-10T13:07:54.975Z</time>
      </trkpt>
      <trkpt lat="45.37525" lon="5.068">
        <ele>347</ele>
        <time>2021-10-10T13:07:58.986Z</time>
      </trkpt>
      <trkpt lat="45.37516" lon="5.06802">
        <ele>347</ele>
        <time>2021-10-10T13:08:03.995Z</time>
      </trkpt>
      <trkpt lat="45.37507" lon="5.06805">
        <ele>345</ele>
        <time>2021-10-10T13:08:08.989Z</time>
      </trkpt>
      <trkpt lat="45.37498" lon="5.06806">
        <ele>345</ele>
        <time>2021-10-10T13:08:12.988Z</time>
      </trkpt>
      <trkpt lat="45.37488" lon="5.06807">
        <ele>345</ele>
        <time>2021-10-10T13:08:17.976Z</time>
      </trkpt>
      <trkpt lat="45.37479" lon="5.06808">
        <ele>345</ele>
        <time>2021-10-10T13:08:21.991Z</time>
      </trkpt>
      <trkpt lat="45.37466" lon="5.06809">
        <ele>345</ele>
        <time>2021-10-10T13:08:26.996Z</time>
      </trkpt>
      <trkpt lat="45.37453" lon="5.06811">
        <ele>346</ele>
        <time>2021-10-10T13:08:31.957Z</time>
      </trkpt>
      <trkpt lat="45.37441" lon="5.06811">
        <ele>346</ele>
        <time>2021-10-10T13:08:35.960Z</time>
      </trkpt>
      <trkpt lat="45.37429" lon="5.06815">
        <ele>347</ele>
        <time>2021-10-10T13:08:39.982Z</time>
      </trkpt>
      <trkpt lat="45.37418" lon="5.06817">
        <ele>347</ele>
        <time>2021-10-10T13:08:44.955Z</time>
      </trkpt>
      <trkpt lat="45.37398" lon="5.06819">
        <ele>345</ele>
        <time>2021-10-10T13:08:48.993Z</time>
      </trkpt>
      <trkpt lat="45.37387" lon="5.06822">
        <ele>345</ele>
        <time>2021-10-10T13:08:53.990Z</time>
      </trkpt>
      <trkpt lat="45.37377" lon="5.06825">
        <ele>345</ele>
        <time>2021-10-10T13:08:58.946Z</time>
      </trkpt>
      <trkpt lat="45.37368" lon="5.06827">
        <ele>345</ele>
        <time>2021-10-10T13:09:02.981Z</time>
      </trkpt>
      <trkpt lat="45.37359" lon="5.06825">
        <ele>345</ele>
        <time>2021-10-10T13:09:06.988Z</time>
      </trkpt>
      <trkpt lat="45.37349" lon="5.06826">
        <ele>345</ele>
        <time>2021-10-10T13:09:11.958Z</time>
      </trkpt>
      <trkpt lat="45.37342" lon="5.06827">
        <ele>346</ele>
        <time>2021-10-10T13:09:15.978Z</time>
      </trkpt>
      <trkpt lat="45.37336" lon="5.06828">
        <ele>346</ele>
        <time>2021-10-10T13:09:19.989Z</time>
      </trkpt>
      <trkpt lat="45.37329" lon="5.06829">
        <ele>346</ele>
        <time>2021-10-10T13:09:23.990Z</time>
      </trkpt>
      <trkpt lat="45.3732" lon="5.0683">
        <ele>346</ele>
        <time>2021-10-10T13:09:29.012Z</time>
      </trkpt>
      <trkpt lat="45.37309" lon="5.06828">
        <ele>346</ele>
        <time>2021-10-10T13:09:33.989Z</time>
      </trkpt>
      <trkpt lat="45.37302" lon="5.06829">
        <ele>346</ele>
        <time>2021-10-10T13:09:37.988Z</time>
      </trkpt>
      <trkpt lat="45.37292" lon="5.06829">
        <ele>346</ele>
        <time>2021-10-10T13:09:43.001Z</time>
      </trkpt>
      <trkpt lat="45.3728" lon="5.0683">
        <ele>345</ele>
        <time>2021-10-10T13:09:47.982Z</time>
      </trkpt>
      <trkpt lat="45.37263" lon="5.06828">
        <ele>344</ele>
        <time>2021-10-10T13:09:52.979Z</time>
      </trkpt>
      <trkpt lat="45.37251" lon="5.06827">
        <ele>344</ele>
        <time>2021-10-10T13:09:58.003Z</time>
      </trkpt>
      <trkpt lat="45.3724" lon="5.06828">
        <ele>344</ele>
        <time>2021-10-10T13:10:02.984Z</time>
      </trkpt>
      <trkpt lat="45.37231" lon="5.06827">
        <ele>344</ele>
        <time>2021-10-10T13:10:06.995Z</time>
      </trkpt>
      <trkpt lat="45.37221" lon="5.06828">
        <ele>344</ele>
        <time>2021-10-10T13:10:10.999Z</time>
      </trkpt>
      <trkpt lat="45.37209" lon="5.06828">
        <ele>344</ele>
        <time>2021-10-10T13:10:15.983Z</time>
      </trkpt>
      <trkpt lat="45.372" lon="5.06827">
        <ele>344</ele>
        <time>2021-10-10T13:10:58.951Z</time>
      </trkpt>
      <trkpt lat="45.372" lon="5.06827">
        <ele>344</ele>
        <time>2021-10-10T13:11:02.983Z</time>
      </trkpt>
      <trkpt lat="45.372" lon="5.06827">
        <ele>344</ele>
        <time>2021-10-10T13:11:06.988Z</time>
      </trkpt>
      <trkpt lat="45.37199" lon="5.06827">
        <ele>344</ele>
        <time>2021-10-10T13:11:10.993Z</time>
      </trkpt>
      <trkpt lat="45.37193" lon="5.06828">
        <ele>344</ele>
        <time>2021-10-10T13:11:15.977Z</time>
      </trkpt>
      <trkpt lat="45.37187" lon="5.06831">
        <ele>344</ele>
        <time>2021-10-10T13:11:19.998Z</time>
      </trkpt>
      <trkpt lat="45.3718" lon="5.06834">
        <ele>343</ele>
        <time>2021-10-10T13:11:25.008Z</time>
      </trkpt>
      <trkpt lat="45.37174" lon="5.06838">
        <ele>343</ele>
        <time>2021-10-10T13:11:29.988Z</time>
      </trkpt>
      <trkpt lat="45.3717" lon="5.06841">
        <ele>343</ele>
        <time>2021-10-10T13:11:33.990Z</time>
      </trkpt>
      <trkpt lat="45.37165" lon="5.06844">
        <ele>343</ele>
        <time>2021-10-10T13:11:38Z</time>
      </trkpt>
      <trkpt lat="45.37159" lon="5.06849">
        <ele>342</ele>
        <time>2021-10-10T13:11:42.983Z</time>
      </trkpt>
      <trkpt lat="45.37153" lon="5.06853">
        <ele>342</ele>
        <time>2021-10-10T13:11:47.985Z</time>
      </trkpt>
      <trkpt lat="45.37148" lon="5.06859">
        <ele>342</ele>
        <time>2021-10-10T13:11:52.978Z</time>
      </trkpt>
      <trkpt lat="45.37143" lon="5.06863">
        <ele>342</ele>
        <time>2021-10-10T13:11:57.965Z</time>
      </trkpt>
      <trkpt lat="45.37136" lon="5.06868">
        <ele>342</ele>
        <time>2021-10-10T13:12:02.949Z</time>
      </trkpt>
      <trkpt lat="45.3713" lon="5.06874">
        <ele>342</ele>
        <time>2021-10-10T13:12:06.971Z</time>
      </trkpt>
      <trkpt lat="45.37122" lon="5.06879">
        <ele>344</ele>
        <time>2021-10-10T13:12:10.979Z</time>
      </trkpt>
      <trkpt lat="45.37118" lon="5.06882">
        <ele>344</ele>
        <time>2021-10-10T13:12:15.992Z</time>
      </trkpt>
      <trkpt lat="45.37113" lon="5.06886">
        <ele>344</ele>
        <time>2021-10-10T13:12:20.989Z</time>
      </trkpt>
      <trkpt lat="45.37108" lon="5.0689">
        <ele>344</ele>
        <time>2021-10-10T13:12:25.982Z</time>
      </trkpt>
      <trkpt lat="45.37101" lon="5.06897">
        <ele>344</ele>
        <time>2021-10-10T13:12:30.979Z</time>
      </trkpt>
      <trkpt lat="45.37094" lon="5.06903">
        <ele>347</ele>
        <time>2021-10-10T13:12:36.002Z</time>
      </trkpt>
      <trkpt lat="45.37088" lon="5.06907">
        <ele>347</ele>
        <time>2021-10-10T13:12:40.979Z</time>
      </trkpt>
      <trkpt lat="45.37083" lon="5.06911">
        <ele>347</ele>
        <time>2021-10-10T13:12:44.995Z</time>
      </trkpt>
      <trkpt lat="45.37078" lon="5.06914">
        <ele>347</ele>
        <time>2021-10-10T13:12:49.995Z</time>
      </trkpt>
      <trkpt lat="45.37072" lon="5.06917">
        <ele>347</ele>
        <time>2021-10-10T13:12:54.976Z</time>
      </trkpt>
      <trkpt lat="45.37065" lon="5.06918">
        <ele>348</ele>
        <time>2021-10-10T13:12:59.947Z</time>
      </trkpt>
      <trkpt lat="45.37059" lon="5.06919">
        <ele>348</ele>
        <time>2021-10-10T13:13:04.964Z</time>
      </trkpt>
      <trkpt lat="45.37053" lon="5.0692">
        <ele>348</ele>
        <time>2021-10-10T13:13:09.958Z</time>
      </trkpt>
      <trkpt lat="45.37047" lon="5.06918">
        <ele>348</ele>
        <time>2021-10-10T13:13:13.963Z</time>
      </trkpt>
      <trkpt lat="45.37042" lon="5.06918">
        <ele>348</ele>
        <time>2021-10-10T13:13:17.959Z</time>
      </trkpt>
      <trkpt lat="45.37036" lon="5.06918">
        <ele>348</ele>
        <time>2021-10-10T13:13:22.955Z</time>
      </trkpt>
      <trkpt lat="45.37029" lon="5.06918">
        <ele>348</ele>
        <time>2021-10-10T13:13:27.963Z</time>
      </trkpt>
      <trkpt lat="45.37023" lon="5.06918">
        <ele>348</ele>
        <time>2021-10-10T13:13:32.980Z</time>
      </trkpt>
      <trkpt lat="45.37018" lon="5.06919">
        <ele>348</ele>
        <time>2021-10-10T13:13:37.006Z</time>
      </trkpt>
      <trkpt lat="45.37011" lon="5.06924">
        <ele>347</ele>
        <time>2021-10-10T13:13:41.976Z</time>
      </trkpt>
      <trkpt lat="45.37007" lon="5.06928">
        <ele>347</ele>
        <time>2021-10-10T13:13:45.983Z</time>
      </trkpt>
      <trkpt lat="45.37002" lon="5.06934">
        <ele>346</ele>
        <time>2021-10-10T13:13:50.957Z</time>
      </trkpt>
      <trkpt lat="45.37" lon="5.06942">
        <ele>346</ele>
        <time>2021-10-10T13:13:55.010Z</time>
      </trkpt>
      <trkpt lat="45.36999" lon="5.0695">
        <ele>346</ele>
        <time>2021-10-10T13:13:59.016Z</time>
      </trkpt>
      <trkpt lat="45.36998" lon="5.06961">
        <ele>347</ele>
        <time>2021-10-10T13:14:03.986Z</time>
      </trkpt>
      <trkpt lat="45.36997" lon="5.06972">
        <ele>347</ele>
        <time>2021-10-10T13:14:08.996Z</time>
      </trkpt>
      <trkpt lat="45.36995" lon="5.06981">
        <ele>347</ele>
        <time>2021-10-10T13:14:13.013Z</time>
      </trkpt>
      <trkpt lat="45.36993" lon="5.06991">
        <ele>348</ele>
        <time>2021-10-10T13:14:17.995Z</time>
      </trkpt>
      <trkpt lat="45.36992" lon="5.06999">
        <ele>348</ele>
        <time>2021-10-10T13:14:22.004Z</time>
      </trkpt>
      <trkpt lat="45.36992" lon="5.0701">
        <ele>348</ele>
        <time>2021-10-10T13:14:26.986Z</time>
      </trkpt>
      <trkpt lat="45.36992" lon="5.07027">
        <ele>349</ele>
        <time>2021-10-10T13:14:30.992Z</time>
      </trkpt>
      <trkpt lat="45.36988" lon="5.07048">
        <ele>349</ele>
        <time>2021-10-10T13:14:35.994Z</time>
      </trkpt>
      <trkpt lat="45.36979" lon="5.07073">
        <ele>350</ele>
        <time>2021-10-10T13:14:40.982Z</time>
      </trkpt>
      <trkpt lat="45.36974" lon="5.07088">
        <ele>350</ele>
        <time>2021-10-10T13:14:44.997Z</time>
      </trkpt>
      <trkpt lat="45.36974" lon="5.07105">
        <ele>349</ele>
        <time>2021-10-10T13:14:49.972Z</time>
      </trkpt>
      <trkpt lat="45.36972" lon="5.07127">
        <ele>348</ele>
        <time>2021-10-10T13:14:55.984Z</time>
      </trkpt>
      <trkpt lat="45.36972" lon="5.07145">
        <ele>348</ele>
        <time>2021-10-10T13:15:00.958Z</time>
      </trkpt>
      <trkpt lat="45.36971" lon="5.07157">
        <ele>348</ele>
        <time>2021-10-10T13:15:04.991Z</time>
      </trkpt>
      <trkpt lat="45.36969" lon="5.07167">
        <ele>348</ele>
        <time>2021-10-10T13:15:09.002Z</time>
      </trkpt>
      <trkpt lat="45.36965" lon="5.07182">
        <ele>347</ele>
        <time>2021-10-10T13:15:14.002Z</time>
      </trkpt>
      <trkpt lat="45.3696" lon="5.07203">
        <ele>347</ele>
        <time>2021-10-10T13:15:18.984Z</time>
      </trkpt>
      <trkpt lat="45.36958" lon="5.07218">
        <ele>349</ele>
        <time>2021-10-10T13:15:24.015Z</time>
      </trkpt>
      <trkpt lat="45.36957" lon="5.07234">
        <ele>349</ele>
        <time>2021-10-10T13:15:28.997Z</time>
      </trkpt>
      <trkpt lat="45.36954" lon="5.0725">
        <ele>347</ele>
        <time>2021-10-10T13:15:34.003Z</time>
      </trkpt>
      <trkpt lat="45.3695" lon="5.07263">
        <ele>347</ele>
        <time>2021-10-10T13:15:38.997Z</time>
      </trkpt>
      <trkpt lat="45.36948" lon="5.07276">
        <ele>346</ele>
        <time>2021-10-10T13:15:43.994Z</time>
      </trkpt>
      <trkpt lat="45.36946" lon="5.07289">
        <ele>346</ele>
        <time>2021-10-10T13:15:48.984Z</time>
      </trkpt>
      <trkpt lat="45.36944" lon="5.07301">
        <ele>345</ele>
        <time>2021-10-10T13:15:53.992Z</time>
      </trkpt>
      <trkpt lat="45.36941" lon="5.07314">
        <ele>345</ele>
        <time>2021-10-10T13:15:58.979Z</time>
      </trkpt>
      <trkpt lat="45.36939" lon="5.07322">
        <ele>345</ele>
        <time>2021-10-10T13:16:03.014Z</time>
      </trkpt>
      <trkpt lat="45.36933" lon="5.07328">
        <ele>345</ele>
        <time>2021-10-10T13:16:07.986Z</time>
      </trkpt>
      <trkpt lat="45.36926" lon="5.07325">
        <ele>347</ele>
        <time>2021-10-10T13:16:12.988Z</time>
      </trkpt>
      <trkpt lat="45.36921" lon="5.07318">
        <ele>347</ele>
        <time>2021-10-10T13:16:17.991Z</time>
      </trkpt>
      <trkpt lat="45.36916" lon="5.07312">
        <ele>347</ele>
        <time>2021-10-10T13:16:23.003Z</time>
      </trkpt>
      <trkpt lat="45.3691" lon="5.07307">
        <ele>347</ele>
        <time>2021-10-10T13:16:28.022Z</time>
      </trkpt>
      <trkpt lat="45.36905" lon="5.07301">
        <ele>347</ele>
        <time>2021-10-10T13:16:32.999Z</time>
      </trkpt>
      <trkpt lat="45.369" lon="5.07296">
        <ele>347</ele>
        <time>2021-10-10T13:16:38.003Z</time>
      </trkpt>
      <trkpt lat="45.36895" lon="5.07292">
        <ele>349</ele>
        <time>2021-10-10T13:16:42.990Z</time>
      </trkpt>
      <trkpt lat="45.3689" lon="5.07287">
        <ele>349</ele>
        <time>2021-10-10T13:16:47.982Z</time>
      </trkpt>
      <trkpt lat="45.36885" lon="5.07283">
        <ele>349</ele>
        <time>2021-10-10T13:16:51.999Z</time>
      </trkpt>
      <trkpt lat="45.36878" lon="5.07277">
        <ele>349</ele>
        <time>2021-10-10T13:16:57.001Z</time>
      </trkpt>
      <trkpt lat="45.36872" lon="5.07272">
        <ele>348</ele>
        <time>2021-10-10T13:17:01.961Z</time>
      </trkpt>
      <trkpt lat="45.36867" lon="5.07269">
        <ele>348</ele>
        <time>2021-10-10T13:17:05.989Z</time>
      </trkpt>
      <trkpt lat="45.36861" lon="5.07264">
        <ele>348</ele>
        <time>2021-10-10T13:17:11Z</time>
      </trkpt>
      <trkpt lat="45.36854" lon="5.0726">
        <ele>350</ele>
        <time>2021-10-10T13:17:15.986Z</time>
      </trkpt>
      <trkpt lat="45.36848" lon="5.07255">
        <ele>350</ele>
        <time>2021-10-10T13:17:21.002Z</time>
      </trkpt>
      <trkpt lat="45.36843" lon="5.07251">
        <ele>348</ele>
        <time>2021-10-10T13:17:26.001Z</time>
      </trkpt>
      <trkpt lat="45.36837" lon="5.07248">
        <ele>348</ele>
        <time>2021-10-10T13:17:31Z</time>
      </trkpt>
      <trkpt lat="45.36831" lon="5.07245">
        <ele>348</ele>
        <time>2021-10-10T13:17:35.989Z</time>
      </trkpt>
      <trkpt lat="45.36825" lon="5.07241">
        <ele>348</ele>
        <time>2021-10-10T13:17:41Z</time>
      </trkpt>
      <trkpt lat="45.36819" lon="5.07238">
        <ele>346</ele>
        <time>2021-10-10T13:17:45.994Z</time>
      </trkpt>
      <trkpt lat="45.36813" lon="5.07235">
        <ele>347</ele>
        <time>2021-10-10T13:17:50.005Z</time>
      </trkpt>
      <trkpt lat="45.36807" lon="5.0723">
        <ele>347</ele>
        <time>2021-10-10T13:17:54.989Z</time>
      </trkpt>
      <trkpt lat="45.36802" lon="5.07227">
        <ele>347</ele>
        <time>2021-10-10T13:17:58.997Z</time>
      </trkpt>
      <trkpt lat="45.36795" lon="5.0722">
        <ele>347</ele>
        <time>2021-10-10T13:18:03.995Z</time>
      </trkpt>
      <trkpt lat="45.3679" lon="5.07214">
        <ele>345</ele>
        <time>2021-10-10T13:18:08.990Z</time>
      </trkpt>
      <trkpt lat="45.36786" lon="5.07208">
        <ele>345</ele>
        <time>2021-10-10T13:18:12.999Z</time>
      </trkpt>
      <trkpt lat="45.36781" lon="5.07202">
        <ele>346</ele>
        <time>2021-10-10T13:18:17.003Z</time>
      </trkpt>
      <trkpt lat="45.36776" lon="5.07194">
        <ele>346</ele>
        <time>2021-10-10T13:18:21.998Z</time>
      </trkpt>
      <trkpt lat="45.36771" lon="5.07188">
        <ele>346</ele>
        <time>2021-10-10T13:18:26.981Z</time>
      </trkpt>
      <trkpt lat="45.36766" lon="5.07181">
        <ele>346</ele>
        <time>2021-10-10T13:18:31.995Z</time>
      </trkpt>
      <trkpt lat="45.3676" lon="5.07171">
        <ele>344</ele>
        <time>2021-10-10T13:18:37.003Z</time>
      </trkpt>
      <trkpt lat="45.36757" lon="5.07164">
        <ele>344</ele>
        <time>2021-10-10T13:18:40.986Z</time>
      </trkpt>
      <trkpt lat="45.36754" lon="5.07158">
        <ele>344</ele>
        <time>2021-10-10T13:18:45.998Z</time>
      </trkpt>
      <trkpt lat="45.3675" lon="5.0715">
        <ele>346</ele>
        <time>2021-10-10T13:18:51.003Z</time>
      </trkpt>
      <trkpt lat="45.36746" lon="5.07144">
        <ele>346</ele>
        <time>2021-10-10T13:18:55.013Z</time>
      </trkpt>
      <trkpt lat="45.36742" lon="5.07136">
        <ele>346</ele>
        <time>2021-10-10T13:18:59.960Z</time>
      </trkpt>
      <trkpt lat="45.36738" lon="5.07131">
        <ele>346</ele>
        <time>2021-10-10T13:19:03.983Z</time>
      </trkpt>
      <trkpt lat="45.36735" lon="5.07125">
        <ele>344</ele>
        <time>2021-10-10T13:19:07.991Z</time>
      </trkpt>
      <trkpt lat="45.3673" lon="5.07119">
        <ele>346</ele>
        <time>2021-10-10T13:19:12.955Z</time>
      </trkpt>
      <trkpt lat="45.36727" lon="5.07114">
        <ele>346</ele>
        <time>2021-10-10T13:19:16.991Z</time>
      </trkpt>
      <trkpt lat="45.36721" lon="5.0711">
        <ele>346</ele>
        <time>2021-10-10T13:19:20.994Z</time>
      </trkpt>
      <trkpt lat="45.36716" lon="5.07105">
        <ele>346</ele>
        <time>2021-10-10T13:19:25.978Z</time>
      </trkpt>
      <trkpt lat="45.36712" lon="5.071">
        <ele>346</ele>
        <time>2021-10-10T13:19:30.008Z</time>
      </trkpt>
      <trkpt lat="45.36706" lon="5.07095">
        <ele>345</ele>
        <time>2021-10-10T13:19:35.006Z</time>
      </trkpt>
      <trkpt lat="45.36699" lon="5.07087">
        <ele>345</ele>
        <time>2021-10-10T13:19:39.982Z</time>
      </trkpt>
      <trkpt lat="45.36693" lon="5.07085">
        <ele>345</ele>
        <time>2021-10-10T13:19:44.005Z</time>
      </trkpt>
      <trkpt lat="45.36687" lon="5.07079">
        <ele>345</ele>
        <time>2021-10-10T13:19:48.970Z</time>
      </trkpt>
      <trkpt lat="45.36683" lon="5.07072">
        <ele>345</ele>
        <time>2021-10-10T13:19:53.991Z</time>
      </trkpt>
      <trkpt lat="45.36678" lon="5.07062">
        <ele>342</ele>
        <time>2021-10-10T13:19:58.974Z</time>
      </trkpt>
      <trkpt lat="45.36674" lon="5.07055">
        <ele>342</ele>
        <time>2021-10-10T13:20:02.996Z</time>
      </trkpt>
      <trkpt lat="45.36668" lon="5.07049">
        <ele>342</ele>
        <time>2021-10-10T13:20:07.994Z</time>
      </trkpt>
      <trkpt lat="45.36664" lon="5.07041">
        <ele>342</ele>
        <time>2021-10-10T13:20:12.979Z</time>
      </trkpt>
      <trkpt lat="45.3666" lon="5.07032">
        <ele>342</ele>
        <time>2021-10-10T13:20:17.986Z</time>
      </trkpt>
      <trkpt lat="45.36657" lon="5.07025">
        <ele>342</ele>
        <time>2021-10-10T13:20:21.998Z</time>
      </trkpt>
      <trkpt lat="45.36653" lon="5.07017">
        <ele>342</ele>
        <time>2021-10-10T13:20:26.980Z</time>
      </trkpt>
      <trkpt lat="45.36649" lon="5.0701">
        <ele>341</ele>
        <time>2021-10-10T13:20:30.988Z</time>
      </trkpt>
      <trkpt lat="45.36646" lon="5.07003">
        <ele>341</ele>
        <time>2021-10-10T13:20:34.996Z</time>
      </trkpt>
      <trkpt lat="45.36641" lon="5.06998">
        <ele>341</ele>
        <time>2021-10-10T13:20:38.999Z</time>
      </trkpt>
      <trkpt lat="45.3663" lon="5.06993">
        <ele>341</ele>
        <time>2021-10-10T13:20:43.984Z</time>
      </trkpt>
      <trkpt lat="45.36622" lon="5.06985">
        <ele>343</ele>
        <time>2021-10-10T13:20:48.006Z</time>
      </trkpt>
      <trkpt lat="45.36614" lon="5.06978">
        <ele>343</ele>
        <time>2021-10-10T13:20:52.998Z</time>
      </trkpt>
      <trkpt lat="45.36606" lon="5.06978">
        <ele>343</ele>
        <time>2021-10-10T13:20:57.984Z</time>
      </trkpt>
      <trkpt lat="45.36597" lon="5.06988">
        <ele>342</ele>
        <time>2021-10-10T13:21:02.958Z</time>
      </trkpt>
      <trkpt lat="45.3659" lon="5.06994">
        <ele>344</ele>
        <time>2021-10-10T13:21:07.021Z</time>
      </trkpt>
      <trkpt lat="45.36584" lon="5.06996">
        <ele>344</ele>
        <time>2021-10-10T13:21:11.995Z</time>
      </trkpt>
      <trkpt lat="45.36578" lon="5.06997">
        <ele>344</ele>
        <time>2021-10-10T13:21:16.975Z</time>
      </trkpt>
      <trkpt lat="45.36573" lon="5.06999">
        <ele>344</ele>
        <time>2021-10-10T13:21:20.993Z</time>
      </trkpt>
      <trkpt lat="45.36568" lon="5.07">
        <ele>343</ele>
        <time>2021-10-10T13:21:24.991Z</time>
      </trkpt>
      <trkpt lat="45.36563" lon="5.07">
        <ele>343</ele>
        <time>2021-10-10T13:21:29.982Z</time>
      </trkpt>
      <trkpt lat="45.36559" lon="5.07001">
        <ele>343</ele>
        <time>2021-10-10T13:21:34.003Z</time>
      </trkpt>
      <trkpt lat="45.36553" lon="5.07002">
        <ele>343</ele>
        <time>2021-10-10T13:21:38.993Z</time>
      </trkpt>
      <trkpt lat="45.36549" lon="5.07005">
        <ele>343</ele>
        <time>2021-10-10T13:21:43.008Z</time>
      </trkpt>
      <trkpt lat="45.36545" lon="5.07011">
        <ele>343</ele>
        <time>2021-10-10T13:21:47.985Z</time>
      </trkpt>
      <trkpt lat="45.36542" lon="5.0702">
        <ele>341</ele>
        <time>2021-10-10T13:21:52.992Z</time>
      </trkpt>
      <trkpt lat="45.36541" lon="5.07029">
        <ele>339</ele>
        <time>2021-10-10T13:21:57.987Z</time>
      </trkpt>
      <trkpt lat="45.36541" lon="5.07036">
        <ele>339</ele>
        <time>2021-10-10T13:22:02.004Z</time>
      </trkpt>
      <trkpt lat="45.3654" lon="5.07045">
        <ele>335</ele>
        <time>2021-10-10T13:22:06.993Z</time>
      </trkpt>
      <trkpt lat="45.36539" lon="5.07054">
        <ele>335</ele>
        <time>2021-10-10T13:22:12.009Z</time>
      </trkpt>
      <trkpt lat="45.36538" lon="5.07063">
        <ele>335</ele>
        <time>2021-10-10T13:22:16.987Z</time>
      </trkpt>
      <trkpt lat="45.36536" lon="5.07069">
        <ele>331</ele>
        <time>2021-10-10T13:22:21.021Z</time>
      </trkpt>
      <trkpt lat="45.36531" lon="5.07076">
        <ele>331</ele>
        <time>2021-10-10T13:22:25.976Z</time>
      </trkpt>
      <trkpt lat="45.36527" lon="5.0708">
        <ele>331</ele>
        <time>2021-10-10T13:22:29.988Z</time>
      </trkpt>
      <trkpt lat="45.36521" lon="5.07082">
        <ele>331</ele>
        <time>2021-10-10T13:22:34.985Z</time>
      </trkpt>
      <trkpt lat="45.36513" lon="5.0708">
        <ele>329</ele>
        <time>2021-10-10T13:22:40.001Z</time>
      </trkpt>
      <trkpt lat="45.36504" lon="5.07073">
        <ele>329</ele>
        <time>2021-10-10T13:22:45.008Z</time>
      </trkpt>
      <trkpt lat="45.36496" lon="5.07074">
        <ele>329</ele>
        <time>2021-10-10T13:22:49.988Z</time>
      </trkpt>
      <trkpt lat="45.3649" lon="5.07076">
        <ele>329</ele>
        <time>2021-10-10T13:22:54.986Z</time>
      </trkpt>
      <trkpt lat="45.36484" lon="5.07078">
        <ele>330</ele>
        <time>2021-10-10T13:22:59.015Z</time>
      </trkpt>
      <trkpt lat="45.36478" lon="5.07081">
        <ele>330</ele>
        <time>2021-10-10T13:23:03.983Z</time>
      </trkpt>
      <trkpt lat="45.36473" lon="5.07084">
        <ele>330</ele>
        <time>2021-10-10T13:23:08.009Z</time>
      </trkpt>
      <trkpt lat="45.36468" lon="5.07095">
        <ele>330</ele>
        <time>2021-10-10T13:23:12.984Z</time>
      </trkpt>
      <trkpt lat="45.36466" lon="5.07103">
        <ele>328</ele>
        <time>2021-10-10T13:23:17.985Z</time>
      </trkpt>
      <trkpt lat="45.36467" lon="5.07108">
        <ele>328</ele>
        <time>2021-10-10T13:23:23.015Z</time>
      </trkpt>
      <trkpt lat="45.36467" lon="5.07117">
        <ele>328</ele>
        <time>2021-10-10T13:23:28Z</time>
      </trkpt>
      <trkpt lat="45.36469" lon="5.07126">
        <ele>328</ele>
        <time>2021-10-10T13:23:32.012Z</time>
      </trkpt>
      <trkpt lat="45.3647" lon="5.07133">
        <ele>328</ele>
        <time>2021-10-10T13:23:36.968Z</time>
      </trkpt>
      <trkpt lat="45.36471" lon="5.0714">
        <ele>328</ele>
        <time>2021-10-10T13:23:41.977Z</time>
      </trkpt>
      <trkpt lat="45.36473" lon="5.07148">
        <ele>328</ele>
        <time>2021-10-10T13:23:46.974Z</time>
      </trkpt>
      <trkpt lat="45.36474" lon="5.07157">
        <ele>328</ele>
        <time>2021-10-10T13:23:51.963Z</time>
      </trkpt>
      <trkpt lat="45.36477" lon="5.07164">
        <ele>328</ele>
        <time>2021-10-10T13:23:56.981Z</time>
      </trkpt>
      <trkpt lat="45.36477" lon="5.0717">
        <ele>328</ele>
        <time>2021-10-10T13:24:01Z</time>
      </trkpt>
      <trkpt lat="45.36477" lon="5.0718">
        <ele>328</ele>
        <time>2021-10-10T13:24:05.988Z</time>
      </trkpt>
      <trkpt lat="45.36478" lon="5.07187">
        <ele>327</ele>
        <time>2021-10-10T13:24:09.998Z</time>
      </trkpt>
      <trkpt lat="45.36479" lon="5.07195">
        <ele>327</ele>
        <time>2021-10-10T13:24:14.991Z</time>
      </trkpt>
      <trkpt lat="45.36481" lon="5.07203">
        <ele>327</ele>
        <time>2021-10-10T13:24:19.980Z</time>
      </trkpt>
      <trkpt lat="45.36483" lon="5.07211">
        <ele>327</ele>
        <time>2021-10-10T13:24:23.989Z</time>
      </trkpt>
      <trkpt lat="45.36484" lon="5.07218">
        <ele>327</ele>
        <time>2021-10-10T13:24:27.995Z</time>
      </trkpt>
      <trkpt lat="45.36485" lon="5.07226">
        <ele>327</ele>
        <time>2021-10-10T13:24:32.997Z</time>
      </trkpt>
      <trkpt lat="45.36484" lon="5.07235">
        <ele>327</ele>
        <time>2021-10-10T13:24:37.994Z</time>
      </trkpt>
      <trkpt lat="45.36485" lon="5.07244">
        <ele>328</ele>
        <time>2021-10-10T13:24:42.976Z</time>
      </trkpt>
      <trkpt lat="45.36485" lon="5.07252">
        <ele>328</ele>
        <time>2021-10-10T13:24:46.985Z</time>
      </trkpt>
      <trkpt lat="45.36485" lon="5.07262">
        <ele>328</ele>
        <time>2021-10-10T13:24:51.978Z</time>
      </trkpt>
      <trkpt lat="45.36486" lon="5.07271">
        <ele>327</ele>
        <time>2021-10-10T13:24:55.993Z</time>
      </trkpt>
      <trkpt lat="45.36488" lon="5.07282">
        <ele>332</ele>
        <time>2021-10-10T13:25:00.983Z</time>
      </trkpt>
      <trkpt lat="45.3649" lon="5.07291">
        <ele>332</ele>
        <time>2021-10-10T13:25:05.950Z</time>
      </trkpt>
      <trkpt lat="45.36492" lon="5.07298">
        <ele>330</ele>
        <time>2021-10-10T13:25:09.973Z</time>
      </trkpt>
      <trkpt lat="45.36494" lon="5.07304">
        <ele>330</ele>
        <time>2021-10-10T13:25:13.989Z</time>
      </trkpt>
      <trkpt lat="45.36497" lon="5.07312">
        <ele>330</ele>
        <time>2021-10-10T13:25:18.956Z</time>
      </trkpt>
      <trkpt lat="45.365" lon="5.07319">
        <ele>330</ele>
        <time>2021-10-10T13:25:22.978Z</time>
      </trkpt>
      <trkpt lat="45.36503" lon="5.07328">
        <ele>327</ele>
        <time>2021-10-10T13:25:28Z</time>
      </trkpt>
      <trkpt lat="45.36507" lon="5.07337">
        <ele>327</ele>
        <time>2021-10-10T13:25:32.970Z</time>
      </trkpt>
      <trkpt lat="45.36511" lon="5.07343">
        <ele>327</ele>
        <time>2021-10-10T13:25:36.998Z</time>
      </trkpt>
      <trkpt lat="45.36518" lon="5.07348">
        <ele>327</ele>
        <time>2021-10-10T13:25:41.991Z</time>
      </trkpt>
      <trkpt lat="45.36523" lon="5.07351">
        <ele>327</ele>
        <time>2021-10-10T13:25:46.001Z</time>
      </trkpt>
      <trkpt lat="45.3653" lon="5.07351">
        <ele>327</ele>
        <time>2021-10-10T13:25:50.979Z</time>
      </trkpt>
      <trkpt lat="45.36534" lon="5.07352">
        <ele>327</ele>
        <time>2021-10-10T13:25:54.979Z</time>
      </trkpt>
      <trkpt lat="45.36538" lon="5.07358">
        <ele>327</ele>
        <time>2021-10-10T13:26:00.005Z</time>
      </trkpt>
      <trkpt lat="45.36539" lon="5.0737">
        <ele>327</ele>
        <time>2021-10-10T13:26:04.948Z</time>
      </trkpt>
      <trkpt lat="45.36538" lon="5.07376">
        <ele>327</ele>
        <time>2021-10-10T13:26:08.953Z</time>
      </trkpt>
      <trkpt lat="45.36538" lon="5.0738">
        <ele>327</ele>
        <time>2021-10-10T13:26:12.985Z</time>
      </trkpt>
      <trkpt lat="45.3654" lon="5.07385">
        <ele>327</ele>
        <time>2021-10-10T13:26:18.002Z</time>
      </trkpt>
      <trkpt lat="45.36545" lon="5.07387">
        <ele>330</ele>
        <time>2021-10-10T13:26:22.998Z</time>
      </trkpt>
      <trkpt lat="45.36554" lon="5.07384">
        <ele>330</ele>
        <time>2021-10-10T13:26:27.990Z</time>
      </trkpt>
      <trkpt lat="45.36562" lon="5.07384">
        <ele>330</ele>
        <time>2021-10-10T13:26:31.996Z</time>
      </trkpt>
      <trkpt lat="45.36568" lon="5.07388">
        <ele>330</ele>
        <time>2021-10-10T13:26:36.989Z</time>
      </trkpt>
      <trkpt lat="45.36572" lon="5.07394">
        <ele>334</ele>
        <time>2021-10-10T13:26:40.997Z</time>
      </trkpt>
      <trkpt lat="45.36576" lon="5.07401">
        <ele>334</ele>
        <time>2021-10-10T13:26:45.995Z</time>
      </trkpt>
      <trkpt lat="45.36581" lon="5.07408">
        <ele>333</ele>
        <time>2021-10-10T13:26:50.997Z</time>
      </trkpt>
      <trkpt lat="45.36586" lon="5.07414">
        <ele>333</ele>
        <time>2021-10-10T13:26:56.007Z</time>
      </trkpt>
      <trkpt lat="45.36591" lon="5.0742">
        <ele>333</ele>
        <time>2021-10-10T13:27:00.997Z</time>
      </trkpt>
      <trkpt lat="45.36595" lon="5.07428">
        <ele>333</ele>
        <time>2021-10-10T13:27:05.991Z</time>
      </trkpt>
      <trkpt lat="45.36598" lon="5.07434">
        <ele>334</ele>
        <time>2021-10-10T13:27:10.003Z</time>
      </trkpt>
      <trkpt lat="45.36603" lon="5.07441">
        <ele>334</ele>
        <time>2021-10-10T13:27:14.986Z</time>
      </trkpt>
      <trkpt lat="45.36606" lon="5.07447">
        <ele>334</ele>
        <time>2021-10-10T13:27:18.994Z</time>
      </trkpt>
      <trkpt lat="45.36611" lon="5.07453">
        <ele>334</ele>
        <time>2021-10-10T13:27:23.993Z</time>
      </trkpt>
      <trkpt lat="45.36615" lon="5.07461">
        <ele>337</ele>
        <time>2021-10-10T13:27:28.996Z</time>
      </trkpt>
      <trkpt lat="45.3662" lon="5.07467">
        <ele>337</ele>
        <time>2021-10-10T13:27:33.994Z</time>
      </trkpt>
      <trkpt lat="45.36623" lon="5.07473">
        <ele>337</ele>
        <time>2021-10-10T13:27:37.995Z</time>
      </trkpt>
      <trkpt lat="45.36628" lon="5.07481">
        <ele>335</ele>
        <time>2021-10-10T13:27:42.956Z</time>
      </trkpt>
      <trkpt lat="45.36631" lon="5.07487">
        <ele>337</ele>
        <time>2021-10-10T13:27:46.990Z</time>
      </trkpt>
      <trkpt lat="45.36634" lon="5.07496">
        <ele>337</ele>
        <time>2021-10-10T13:27:51.995Z</time>
      </trkpt>
      <trkpt lat="45.36638" lon="5.07505">
        <ele>337</ele>
        <time>2021-10-10T13:27:56.953Z</time>
      </trkpt>
      <trkpt lat="45.36641" lon="5.07512">
        <ele>337</ele>
        <time>2021-10-10T13:28:00.986Z</time>
      </trkpt>
      <trkpt lat="45.36644" lon="5.0752">
        <ele>339</ele>
        <time>2021-10-10T13:28:05.993Z</time>
      </trkpt>
      <trkpt lat="45.36646" lon="5.07529">
        <ele>339</ele>
        <time>2021-10-10T13:28:10.997Z</time>
      </trkpt>
      <trkpt lat="45.36648" lon="5.07536">
        <ele>339</ele>
        <time>2021-10-10T13:28:14.994Z</time>
      </trkpt>
      <trkpt lat="45.3665" lon="5.07545">
        <ele>342</ele>
        <time>2021-10-10T13:28:19.986Z</time>
      </trkpt>
      <trkpt lat="45.36651" lon="5.07552">
        <ele>342</ele>
        <time>2021-10-10T13:28:23.984Z</time>
      </trkpt>
      <trkpt lat="45.3665" lon="5.07562">
        <ele>342</ele>
        <time>2021-10-10T13:28:28.988Z</time>
      </trkpt>
      <trkpt lat="45.36651" lon="5.07571">
        <ele>343</ele>
        <time>2021-10-10T13:28:33.950Z</time>
      </trkpt>
      <trkpt lat="45.36649" lon="5.0758">
        <ele>343</ele>
        <time>2021-10-10T13:28:37.974Z</time>
      </trkpt>
      <trkpt lat="45.36647" lon="5.07589">
        <ele>343</ele>
        <time>2021-10-10T13:28:42.975Z</time>
      </trkpt>
      <trkpt lat="45.36646" lon="5.07598">
        <ele>343</ele>
        <time>2021-10-10T13:28:47.996Z</time>
      </trkpt>
      <trkpt lat="45.36645" lon="5.07608">
        <ele>343</ele>
        <time>2021-10-10T13:28:52.970Z</time>
      </trkpt>
      <trkpt lat="45.36644" lon="5.07621">
        <ele>343</ele>
        <time>2021-10-10T13:28:56.992Z</time>
      </trkpt>
      <trkpt lat="45.36641" lon="5.07634">
        <ele>343</ele>
        <time>2021-10-10T13:29:01.984Z</time>
      </trkpt>
      <trkpt lat="45.3664" lon="5.07645">
        <ele>343</ele>
        <time>2021-10-10T13:29:06.978Z</time>
      </trkpt>
      <trkpt lat="45.36642" lon="5.07662">
        <ele>344</ele>
        <time>2021-10-10T13:29:11.956Z</time>
      </trkpt>
      <trkpt lat="45.36641" lon="5.07673">
        <ele>344</ele>
        <time>2021-10-10T13:29:15.966Z</time>
      </trkpt>
      <trkpt lat="45.3664" lon="5.07682">
        <ele>345</ele>
        <time>2021-10-10T13:29:19.978Z</time>
      </trkpt>
      <trkpt lat="45.3664" lon="5.07692">
        <ele>345</ele>
        <time>2021-10-10T13:29:23.991Z</time>
      </trkpt>
      <trkpt lat="45.3664" lon="5.07703">
        <ele>345</ele>
        <time>2021-10-10T13:29:28.969Z</time>
      </trkpt>
      <trkpt lat="45.36639" lon="5.07713">
        <ele>345</ele>
        <time>2021-10-10T13:29:33.991Z</time>
      </trkpt>
      <trkpt lat="45.36639" lon="5.07723">
        <ele>345</ele>
        <time>2021-10-10T13:29:38.990Z</time>
      </trkpt>
      <trkpt lat="45.36638" lon="5.07733">
        <ele>345</ele>
        <time>2021-10-10T13:29:43.987Z</time>
      </trkpt>
      <trkpt lat="45.36638" lon="5.07743">
        <ele>345</ele>
        <time>2021-10-10T13:29:48.988Z</time>
      </trkpt>
      <trkpt lat="45.36639" lon="5.07754">
        <ele>345</ele>
        <time>2021-10-10T13:29:53.980Z</time>
      </trkpt>
      <trkpt lat="45.36642" lon="5.07766">
        <ele>345</ele>
        <time>2021-10-10T13:29:57.990Z</time>
      </trkpt>
      <trkpt lat="45.36646" lon="5.07782">
        <ele>345</ele>
        <time>2021-10-10T13:30:02.989Z</time>
      </trkpt>
      <trkpt lat="45.36647" lon="5.07788">
        <ele>345</ele>
        <time>2021-10-10T13:30:07.999Z</time>
      </trkpt>
      <trkpt lat="45.3665" lon="5.07799">
        <ele>346</ele>
        <time>2021-10-10T13:30:12.982Z</time>
      </trkpt>
      <trkpt lat="45.36658" lon="5.07823">
        <ele>346</ele>
        <time>2021-10-10T13:30:16.994Z</time>
      </trkpt>
      <trkpt lat="45.3667" lon="5.07854">
        <ele>345</ele>
        <time>2021-10-10T13:30:21.986Z</time>
      </trkpt>
      <trkpt lat="45.36684" lon="5.07877">
        <ele>344</ele>
        <time>2021-10-10T13:30:25.989Z</time>
      </trkpt>
      <trkpt lat="45.36699" lon="5.07898">
        <ele>344</ele>
        <time>2021-10-10T13:30:30Z</time>
      </trkpt>
      <trkpt lat="45.36718" lon="5.07927">
        <ele>342</ele>
        <time>2021-10-10T13:30:35.007Z</time>
      </trkpt>
      <trkpt lat="45.36736" lon="5.07956">
        <ele>344</ele>
        <time>2021-10-10T13:30:40.006Z</time>
      </trkpt>
      <trkpt lat="45.36754" lon="5.07982">
        <ele>343</ele>
        <time>2021-10-10T13:30:45.002Z</time>
      </trkpt>
      <trkpt lat="45.36764" lon="5.07997">
        <ele>344</ele>
        <time>2021-10-10T13:30:49.978Z</time>
      </trkpt>
      <trkpt lat="45.36769" lon="5.08006">
        <ele>343</ele>
        <time>2021-10-10T13:30:54.970Z</time>
      </trkpt>
      <trkpt lat="45.36774" lon="5.08012">
        <ele>343</ele>
        <time>2021-10-10T13:30:58.981Z</time>
      </trkpt>
      <trkpt lat="45.36779" lon="5.0802">
        <ele>344</ele>
        <time>2021-10-10T13:31:04.002Z</time>
      </trkpt>
      <trkpt lat="45.36784" lon="5.08027">
        <ele>344</ele>
        <time>2021-10-10T13:31:08.948Z</time>
      </trkpt>
      <trkpt lat="45.36788" lon="5.08033">
        <ele>344</ele>
        <time>2021-10-10T13:31:13.009Z</time>
      </trkpt>
      <trkpt lat="45.36792" lon="5.08038">
        <ele>345</ele>
        <time>2021-10-10T13:31:17.007Z</time>
      </trkpt>
      <trkpt lat="45.36796" lon="5.08045">
        <ele>346</ele>
        <time>2021-10-10T13:31:21.991Z</time>
      </trkpt>
      <trkpt lat="45.36799" lon="5.08051">
        <ele>346</ele>
        <time>2021-10-10T13:31:25.989Z</time>
      </trkpt>
      <trkpt lat="45.36804" lon="5.08058">
        <ele>346</ele>
        <time>2021-10-10T13:31:30.994Z</time>
      </trkpt>
      <trkpt lat="45.36808" lon="5.08065">
        <ele>346</ele>
        <time>2021-10-10T13:31:35.994Z</time>
      </trkpt>
      <trkpt lat="45.36812" lon="5.08071">
        <ele>347</ele>
        <time>2021-10-10T13:31:40.011Z</time>
      </trkpt>
      <trkpt lat="45.36817" lon="5.08078">
        <ele>347</ele>
        <time>2021-10-10T13:31:44.993Z</time>
      </trkpt>
      <trkpt lat="45.36821" lon="5.08085">
        <ele>347</ele>
        <time>2021-10-10T13:31:49.983Z</time>
      </trkpt>
      <trkpt lat="45.36825" lon="5.08091">
        <ele>347</ele>
        <time>2021-10-10T13:31:54.004Z</time>
      </trkpt>
      <trkpt lat="45.36829" lon="5.08098">
        <ele>347</ele>
        <time>2021-10-10T13:31:58.997Z</time>
      </trkpt>
      <trkpt lat="45.36834" lon="5.08105">
        <ele>347</ele>
        <time>2021-10-10T13:32:03.985Z</time>
      </trkpt>
      <trkpt lat="45.36837" lon="5.08111">
        <ele>347</ele>
        <time>2021-10-10T13:32:07.990Z</time>
      </trkpt>
      <trkpt lat="45.36841" lon="5.08118">
        <ele>347</ele>
        <time>2021-10-10T13:32:12.977Z</time>
      </trkpt>
      <trkpt lat="45.36845" lon="5.08123">
        <ele>347</ele>
        <time>2021-10-10T13:32:16.984Z</time>
      </trkpt>
      <trkpt lat="45.3685" lon="5.0813">
        <ele>346</ele>
        <time>2021-10-10T13:32:21.955Z</time>
      </trkpt>
      <trkpt lat="45.36853" lon="5.08135">
        <ele>346</ele>
        <time>2021-10-10T13:32:25.983Z</time>
      </trkpt>
      <trkpt lat="45.36857" lon="5.0814">
        <ele>346</ele>
        <time>2021-10-10T13:32:29.997Z</time>
      </trkpt>
      <trkpt lat="45.36861" lon="5.08147">
        <ele>346</ele>
        <time>2021-10-10T13:32:34.997Z</time>
      </trkpt>
      <trkpt lat="45.36865" lon="5.08155">
        <ele>346</ele>
        <time>2021-10-10T13:32:39.956Z</time>
      </trkpt>
      <trkpt lat="45.36866" lon="5.08162">
        <ele>346</ele>
        <time>2021-10-10T13:32:43.995Z</time>
      </trkpt>
      <trkpt lat="45.36868" lon="5.08169">
        <ele>346</ele>
        <time>2021-10-10T13:32:48.002Z</time>
      </trkpt>
      <trkpt lat="45.3687" lon="5.08178">
        <ele>346</ele>
        <time>2021-10-10T13:32:52.991Z</time>
      </trkpt>
      <trkpt lat="45.3687" lon="5.08188">
        <ele>348</ele>
        <time>2021-10-10T13:32:57.997Z</time>
      </trkpt>
      <trkpt lat="45.36871" lon="5.08198">
        <ele>348</ele>
        <time>2021-10-10T13:33:02.985Z</time>
      </trkpt>
      <trkpt lat="45.36872" lon="5.08208">
        <ele>348</ele>
        <time>2021-10-10T13:33:07.983Z</time>
      </trkpt>
      <trkpt lat="45.36873" lon="5.08218">
        <ele>349</ele>
        <time>2021-10-10T13:33:12.950Z</time>
      </trkpt>
      <trkpt lat="45.36874" lon="5.08227">
        <ele>349</ele>
        <time>2021-10-10T13:33:16.969Z</time>
      </trkpt>
      <trkpt lat="45.36875" lon="5.08237">
        <ele>349</ele>
        <time>2021-10-10T13:33:21.968Z</time>
      </trkpt>
      <trkpt lat="45.36876" lon="5.08247">
        <ele>348</ele>
        <time>2021-10-10T13:33:26.974Z</time>
      </trkpt>
      <trkpt lat="45.36876" lon="5.08257">
        <ele>348</ele>
        <time>2021-10-10T13:33:31.974Z</time>
      </trkpt>
      <trkpt lat="45.36877" lon="5.08265">
        <ele>349</ele>
        <time>2021-10-10T13:33:35.982Z</time>
      </trkpt>
      <trkpt lat="45.36878" lon="5.08275">
        <ele>349</ele>
        <time>2021-10-10T13:33:40.980Z</time>
      </trkpt>
      <trkpt lat="45.36878" lon="5.08283">
        <ele>349</ele>
        <time>2021-10-10T13:33:44.991Z</time>
      </trkpt>
      <trkpt lat="45.36879" lon="5.08291">
        <ele>349</ele>
        <time>2021-10-10T13:33:48.991Z</time>
      </trkpt>
      <trkpt lat="45.36879" lon="5.08301">
        <ele>349</ele>
        <time>2021-10-10T13:33:54.013Z</time>
      </trkpt>
      <trkpt lat="45.36878" lon="5.08312">
        <ele>349</ele>
        <time>2021-10-10T13:33:58.984Z</time>
      </trkpt>
      <trkpt lat="45.36877" lon="5.0832">
        <ele>350</ele>
        <time>2021-10-10T13:34:02.984Z</time>
      </trkpt>
      <trkpt lat="45.36876" lon="5.0833">
        <ele>350</ele>
        <time>2021-10-10T13:34:08.001Z</time>
      </trkpt>
      <trkpt lat="45.36875" lon="5.08339">
        <ele>351</ele>
        <time>2021-10-10T13:34:12.013Z</time>
      </trkpt>
      <trkpt lat="45.36874" lon="5.0835">
        <ele>351</ele>
        <time>2021-10-10T13:34:16.980Z</time>
      </trkpt>
      <trkpt lat="45.36873" lon="5.08357">
        <ele>351</ele>
        <time>2021-10-10T13:34:20.994Z</time>
      </trkpt>
      <trkpt lat="45.36873" lon="5.08368">
        <ele>351</ele>
        <time>2021-10-10T13:34:25.959Z</time>
      </trkpt>
      <trkpt lat="45.36872" lon="5.08376">
        <ele>351</ele>
        <time>2021-10-10T13:34:29.989Z</time>
      </trkpt>
      <trkpt lat="45.36872" lon="5.08384">
        <ele>351</ele>
        <time>2021-10-10T13:34:34.020Z</time>
      </trkpt>
      <trkpt lat="45.36872" lon="5.08395">
        <ele>351</ele>
        <time>2021-10-10T13:34:38.980Z</time>
      </trkpt>
      <trkpt lat="45.36872" lon="5.08405">
        <ele>352</ele>
        <time>2021-10-10T13:34:44Z</time>
      </trkpt>
      <trkpt lat="45.36872" lon="5.08414">
        <ele>352</ele>
        <time>2021-10-10T13:34:48.986Z</time>
      </trkpt>
      <trkpt lat="45.36871" lon="5.08422">
        <ele>352</ele>
        <time>2021-10-10T13:34:52.998Z</time>
      </trkpt>
      <trkpt lat="45.36871" lon="5.08433">
        <ele>352</ele>
        <time>2021-10-10T13:34:57.976Z</time>
      </trkpt>
      <trkpt lat="45.36871" lon="5.08441">
        <ele>352</ele>
        <time>2021-10-10T13:35:01.989Z</time>
      </trkpt>
      <trkpt lat="45.36871" lon="5.0845">
        <ele>352</ele>
        <time>2021-10-10T13:35:06.990Z</time>
      </trkpt>
      <trkpt lat="45.36872" lon="5.08459">
        <ele>352</ele>
        <time>2021-10-10T13:35:11.956Z</time>
      </trkpt>
      <trkpt lat="45.36872" lon="5.08467">
        <ele>352</ele>
        <time>2021-10-10T13:35:16.563Z</time>
      </trkpt>
      <trkpt lat="45.36873" lon="5.08476">
        <ele>352</ele>
        <time>2021-10-10T13:35:20.985Z</time>
      </trkpt>
      <trkpt lat="45.36873" lon="5.08486">
        <ele>352</ele>
        <time>2021-10-10T13:35:25.988Z</time>
      </trkpt>
      <trkpt lat="45.36874" lon="5.08495">
        <ele>353</ele>
        <time>2021-10-10T13:35:30.959Z</time>
      </trkpt>
      <trkpt lat="45.36875" lon="5.08503">
        <ele>353</ele>
        <time>2021-10-10T13:35:35.003Z</time>
      </trkpt>
      <trkpt lat="45.36876" lon="5.08512">
        <ele>353</ele>
        <time>2021-10-10T13:35:39.993Z</time>
      </trkpt>
      <trkpt lat="45.36876" lon="5.0852">
        <ele>354</ele>
        <time>2021-10-10T13:35:44.004Z</time>
      </trkpt>
      <trkpt lat="45.36878" lon="5.08529">
        <ele>354</ele>
        <time>2021-10-10T13:35:48.985Z</time>
      </trkpt>
      <trkpt lat="45.36879" lon="5.08539">
        <ele>354</ele>
        <time>2021-10-10T13:35:53.990Z</time>
      </trkpt>
      <trkpt lat="45.3688" lon="5.08546">
        <ele>354</ele>
        <time>2021-10-10T13:35:58.003Z</time>
      </trkpt>
      <trkpt lat="45.36881" lon="5.08555">
        <ele>354</ele>
        <time>2021-10-10T13:36:02.983Z</time>
      </trkpt>
      <trkpt lat="45.36881" lon="5.08563">
        <ele>354</ele>
        <time>2021-10-10T13:36:06.996Z</time>
      </trkpt>
      <trkpt lat="45.36881" lon="5.08574">
        <ele>353</ele>
        <time>2021-10-10T13:36:11.985Z</time>
      </trkpt>
      <trkpt lat="45.36882" lon="5.08582">
        <ele>353</ele>
        <time>2021-10-10T13:36:15.996Z</time>
      </trkpt>
      <trkpt lat="45.36883" lon="5.08592">
        <ele>353</ele>
        <time>2021-10-10T13:36:20.974Z</time>
      </trkpt>
      <trkpt lat="45.36883" lon="5.086">
        <ele>353</ele>
        <time>2021-10-10T13:36:25.016Z</time>
      </trkpt>
      <trkpt lat="45.36883" lon="5.0861">
        <ele>353</ele>
        <time>2021-10-10T13:36:29.980Z</time>
      </trkpt>
      <trkpt lat="45.36883" lon="5.08618">
        <ele>353</ele>
        <time>2021-10-10T13:36:33.995Z</time>
      </trkpt>
      <trkpt lat="45.36884" lon="5.08625">
        <ele>353</ele>
        <time>2021-10-10T13:36:38.002Z</time>
      </trkpt>
      <trkpt lat="45.36884" lon="5.08634">
        <ele>353</ele>
        <time>2021-10-10T13:36:42.992Z</time>
      </trkpt>
      <trkpt lat="45.36884" lon="5.08644">
        <ele>353</ele>
        <time>2021-10-10T13:36:47.983Z</time>
      </trkpt>
      <trkpt lat="45.36885" lon="5.08654">
        <ele>353</ele>
        <time>2021-10-10T13:36:52.975Z</time>
      </trkpt>
      <trkpt lat="45.36885" lon="5.08662">
        <ele>353</ele>
        <time>2021-10-10T13:36:56.992Z</time>
      </trkpt>
      <trkpt lat="45.36885" lon="5.08672">
        <ele>353</ele>
        <time>2021-10-10T13:37:01.991Z</time>
      </trkpt>
      <trkpt lat="45.36885" lon="5.0868">
        <ele>353</ele>
        <time>2021-10-10T13:37:05.997Z</time>
      </trkpt>
      <trkpt lat="45.36885" lon="5.0869">
        <ele>353</ele>
        <time>2021-10-10T13:37:10.960Z</time>
      </trkpt>
      <trkpt lat="45.36886" lon="5.08698">
        <ele>353</ele>
        <time>2021-10-10T13:37:14.992Z</time>
      </trkpt>
      <trkpt lat="45.36887" lon="5.08708">
        <ele>353</ele>
        <time>2021-10-10T13:37:19.992Z</time>
      </trkpt>
      <trkpt lat="45.36888" lon="5.08715">
        <ele>353</ele>
        <time>2021-10-10T13:37:24Z</time>
      </trkpt>
      <trkpt lat="45.36889" lon="5.08723">
        <ele>353</ele>
        <time>2021-10-10T13:37:28.008Z</time>
      </trkpt>
      <trkpt lat="45.3689" lon="5.08732">
        <ele>353</ele>
        <time>2021-10-10T13:37:32.991Z</time>
      </trkpt>
      <trkpt lat="45.36892" lon="5.08741">
        <ele>353</ele>
        <time>2021-10-10T13:37:37.995Z</time>
      </trkpt>
      <trkpt lat="45.36894" lon="5.0875">
        <ele>353</ele>
        <time>2021-10-10T13:37:42.981Z</time>
      </trkpt>
      <trkpt lat="45.36897" lon="5.08759">
        <ele>353</ele>
        <time>2021-10-10T13:37:47.994Z</time>
      </trkpt>
      <trkpt lat="45.369" lon="5.08768">
        <ele>353</ele>
        <time>2021-10-10T13:37:52.951Z</time>
      </trkpt>
      <trkpt lat="45.36903" lon="5.08777">
        <ele>353</ele>
        <time>2021-10-10T13:37:58.014Z</time>
      </trkpt>
      <trkpt lat="45.36906" lon="5.08786">
        <ele>354</ele>
        <time>2021-10-10T13:38:02.978Z</time>
      </trkpt>
      <trkpt lat="45.36908" lon="5.08793">
        <ele>355</ele>
        <time>2021-10-10T13:38:06.988Z</time>
      </trkpt>
      <trkpt lat="45.36912" lon="5.08802">
        <ele>355</ele>
        <time>2021-10-10T13:38:11.957Z</time>
      </trkpt>
      <trkpt lat="45.36914" lon="5.08809">
        <ele>355</ele>
        <time>2021-10-10T13:38:15.991Z</time>
      </trkpt>
      <trkpt lat="45.36917" lon="5.08815">
        <ele>355</ele>
        <time>2021-10-10T13:38:20.005Z</time>
      </trkpt>
      <trkpt lat="45.3692" lon="5.08824">
        <ele>355</ele>
        <time>2021-10-10T13:38:24.988Z</time>
      </trkpt>
      <trkpt lat="45.36923" lon="5.08831">
        <ele>355</ele>
        <time>2021-10-10T13:38:29.001Z</time>
      </trkpt>
      <trkpt lat="45.36926" lon="5.0884">
        <ele>355</ele>
        <time>2021-10-10T13:38:33.957Z</time>
      </trkpt>
      <trkpt lat="45.36929" lon="5.08849">
        <ele>354</ele>
        <time>2021-10-10T13:38:38.983Z</time>
      </trkpt>
      <trkpt lat="45.36931" lon="5.08859">
        <ele>353</ele>
        <time>2021-10-10T13:38:43.998Z</time>
      </trkpt>
      <trkpt lat="45.36933" lon="5.08868">
        <ele>353</ele>
        <time>2021-10-10T13:38:48.969Z</time>
      </trkpt>
      <trkpt lat="45.36937" lon="5.08879">
        <ele>352</ele>
        <time>2021-10-10T13:38:53.990Z</time>
      </trkpt>
      <trkpt lat="45.36939" lon="5.08888">
        <ele>352</ele>
        <time>2021-10-10T13:38:58.973Z</time>
      </trkpt>
      <trkpt lat="45.36942" lon="5.08896">
        <ele>352</ele>
        <time>2021-10-10T13:39:03.961Z</time>
      </trkpt>
      <trkpt lat="45.36944" lon="5.08904">
        <ele>352</ele>
        <time>2021-10-10T13:39:07.971Z</time>
      </trkpt>
      <trkpt lat="45.36947" lon="5.08912">
        <ele>352</ele>
        <time>2021-10-10T13:39:12.949Z</time>
      </trkpt>
      <trkpt lat="45.3695" lon="5.08919">
        <ele>352</ele>
        <time>2021-10-10T13:39:16.959Z</time>
      </trkpt>
      <trkpt lat="45.36953" lon="5.08926">
        <ele>352</ele>
        <time>2021-10-10T13:39:20.995Z</time>
      </trkpt>
      <trkpt lat="45.36955" lon="5.08933">
        <ele>353</ele>
        <time>2021-10-10T13:39:25.939Z</time>
      </trkpt>
      <trkpt lat="45.36958" lon="5.08944">
        <ele>353</ele>
        <time>2021-10-10T13:39:30.987Z</time>
      </trkpt>
      <trkpt lat="45.36961" lon="5.08952">
        <ele>353</ele>
        <time>2021-10-10T13:39:35.996Z</time>
      </trkpt>
      <trkpt lat="45.36963" lon="5.08959">
        <ele>354</ele>
        <time>2021-10-10T13:39:39.998Z</time>
      </trkpt>
      <trkpt lat="45.36966" lon="5.08967">
        <ele>354</ele>
        <time>2021-10-10T13:39:45.008Z</time>
      </trkpt>
      <trkpt lat="45.36969" lon="5.08975">
        <ele>354</ele>
        <time>2021-10-10T13:39:49.972Z</time>
      </trkpt>
      <trkpt lat="45.36972" lon="5.08984">
        <ele>354</ele>
        <time>2021-10-10T13:39:54.996Z</time>
      </trkpt>
      <trkpt lat="45.36974" lon="5.08992">
        <ele>354</ele>
        <time>2021-10-10T13:39:59.985Z</time>
      </trkpt>
      <trkpt lat="45.36976" lon="5.08999">
        <ele>354</ele>
        <time>2021-10-10T13:40:04.012Z</time>
      </trkpt>
      <trkpt lat="45.36978" lon="5.09008">
        <ele>354</ele>
        <time>2021-10-10T13:40:09.019Z</time>
      </trkpt>
      <trkpt lat="45.3698" lon="5.09017">
        <ele>353</ele>
        <time>2021-10-10T13:40:13.998Z</time>
      </trkpt>
      <trkpt lat="45.36982" lon="5.09026">
        <ele>353</ele>
        <time>2021-10-10T13:40:18.999Z</time>
      </trkpt>
      <trkpt lat="45.36984" lon="5.09035">
        <ele>353</ele>
        <time>2021-10-10T13:40:23.994Z</time>
      </trkpt>
      <trkpt lat="45.36986" lon="5.09045">
        <ele>355</ele>
        <time>2021-10-10T13:40:28.997Z</time>
      </trkpt>
      <trkpt lat="45.36987" lon="5.09052">
        <ele>355</ele>
        <time>2021-10-10T13:40:33.008Z</time>
      </trkpt>
      <trkpt lat="45.36989" lon="5.09062">
        <ele>355</ele>
        <time>2021-10-10T13:40:37.989Z</time>
      </trkpt>
      <trkpt lat="45.3699" lon="5.09074">
        <ele>355</ele>
        <time>2021-10-10T13:40:42.980Z</time>
      </trkpt>
      <trkpt lat="45.36991" lon="5.09083">
        <ele>355</ele>
        <time>2021-10-10T13:40:47.004Z</time>
      </trkpt>
      <trkpt lat="45.36992" lon="5.09093">
        <ele>355</ele>
        <time>2021-10-10T13:40:51.981Z</time>
      </trkpt>
      <trkpt lat="45.36994" lon="5.09104">
        <ele>355</ele>
        <time>2021-10-10T13:40:56.990Z</time>
      </trkpt>
      <trkpt lat="45.36994" lon="5.09113">
        <ele>355</ele>
        <time>2021-10-10T13:41:01.002Z</time>
      </trkpt>
      <trkpt lat="45.36995" lon="5.09123">
        <ele>355</ele>
        <time>2021-10-10T13:41:05.987Z</time>
      </trkpt>
      <trkpt lat="45.36995" lon="5.09134">
        <ele>354</ele>
        <time>2021-10-10T13:41:10.032Z</time>
      </trkpt>
      <trkpt lat="45.36995" lon="5.09143">
        <ele>354</ele>
        <time>2021-10-10T13:41:14.991Z</time>
      </trkpt>
      <trkpt lat="45.36996" lon="5.09153">
        <ele>353</ele>
        <time>2021-10-10T13:41:19.976Z</time>
      </trkpt>
      <trkpt lat="45.36995" lon="5.09165">
        <ele>353</ele>
        <time>2021-10-10T13:41:24.960Z</time>
      </trkpt>
      <trkpt lat="45.36995" lon="5.09177">
        <ele>353</ele>
        <time>2021-10-10T13:41:29.991Z</time>
      </trkpt>
      <trkpt lat="45.36994" lon="5.09184">
        <ele>353</ele>
        <time>2021-10-10T13:41:33.989Z</time>
      </trkpt>
      <trkpt lat="45.36992" lon="5.09195">
        <ele>353</ele>
        <time>2021-10-10T13:41:38.989Z</time>
      </trkpt>
      <trkpt lat="45.36989" lon="5.09204">
        <ele>353</ele>
        <time>2021-10-10T13:41:42.994Z</time>
      </trkpt>
      <trkpt lat="45.36986" lon="5.09212">
        <ele>353</ele>
        <time>2021-10-10T13:41:47.004Z</time>
      </trkpt>
      <trkpt lat="45.36982" lon="5.09222">
        <ele>353</ele>
        <time>2021-10-10T13:41:51.999Z</time>
      </trkpt>
      <trkpt lat="45.36979" lon="5.09231">
        <ele>353</ele>
        <time>2021-10-10T13:41:56.990Z</time>
      </trkpt>
      <trkpt lat="45.36977" lon="5.09238">
        <ele>354</ele>
        <time>2021-10-10T13:42:01.007Z</time>
      </trkpt>
      <trkpt lat="45.36974" lon="5.09246">
        <ele>354</ele>
        <time>2021-10-10T13:42:05.994Z</time>
      </trkpt>
      <trkpt lat="45.36971" lon="5.09255">
        <ele>354</ele>
        <time>2021-10-10T13:42:10.984Z</time>
      </trkpt>
      <trkpt lat="45.36968" lon="5.09263">
        <ele>354</ele>
        <time>2021-10-10T13:42:15.989Z</time>
      </trkpt>
      <trkpt lat="45.36963" lon="5.09271">
        <ele>355</ele>
        <time>2021-10-10T13:42:20.971Z</time>
      </trkpt>
      <trkpt lat="45.36962" lon="5.09282">
        <ele>355</ele>
        <time>2021-10-10T13:42:25.990Z</time>
      </trkpt>
      <trkpt lat="45.36962" lon="5.09291">
        <ele>355</ele>
        <time>2021-10-10T13:42:29.995Z</time>
      </trkpt>
      <trkpt lat="45.36963" lon="5.09301">
        <ele>356</ele>
        <time>2021-10-10T13:42:34.999Z</time>
      </trkpt>
      <trkpt lat="45.36963" lon="5.0931">
        <ele>356</ele>
        <time>2021-10-10T13:42:38.998Z</time>
      </trkpt>
      <trkpt lat="45.36963" lon="5.09321">
        <ele>357</ele>
        <time>2021-10-10T13:42:43.949Z</time>
      </trkpt>
      <trkpt lat="45.36964" lon="5.0933">
        <ele>357</ele>
        <time>2021-10-10T13:42:47.996Z</time>
      </trkpt>
      <trkpt lat="45.36964" lon="5.09339">
        <ele>357</ele>
        <time>2021-10-10T13:42:52.012Z</time>
      </trkpt>
      <trkpt lat="45.36965" lon="5.09349">
        <ele>356</ele>
        <time>2021-10-10T13:42:56.959Z</time>
      </trkpt>
      <trkpt lat="45.36966" lon="5.09357">
        <ele>356</ele>
        <time>2021-10-10T13:43:00.985Z</time>
      </trkpt>
      <trkpt lat="45.36969" lon="5.09369">
        <ele>356</ele>
        <time>2021-10-10T13:43:06Z</time>
      </trkpt>
      <trkpt lat="45.36968" lon="5.09378">
        <ele>356</ele>
        <time>2021-10-10T13:43:10.991Z</time>
      </trkpt>
      <trkpt lat="45.36966" lon="5.09388">
        <ele>356</ele>
        <time>2021-10-10T13:43:15.987Z</time>
      </trkpt>
      <trkpt lat="45.36966" lon="5.09399">
        <ele>356</ele>
        <time>2021-10-10T13:43:20.990Z</time>
      </trkpt>
      <trkpt lat="45.36963" lon="5.09411">
        <ele>357</ele>
        <time>2021-10-10T13:43:29.812Z</time>
      </trkpt>
      <trkpt lat="45.36967" lon="5.09428">
        <ele>357</ele>
        <time>2021-10-10T13:43:33.942Z</time>
      </trkpt>
      <trkpt lat="45.36971" lon="5.09436">
        <ele>358</ele>
        <time>2021-10-10T13:43:38.954Z</time>
      </trkpt>
      <trkpt lat="45.36974" lon="5.09447">
        <ele>358</ele>
        <time>2021-10-10T13:43:43.943Z</time>
      </trkpt>
      <trkpt lat="45.36977" lon="5.09455">
        <ele>358</ele>
        <time>2021-10-10T13:43:47.958Z</time>
      </trkpt>
      <trkpt lat="45.3698" lon="5.09462">
        <ele>359</ele>
        <time>2021-10-10T13:43:51.980Z</time>
      </trkpt>
      <trkpt lat="45.36983" lon="5.09472">
        <ele>359</ele>
        <time>2021-10-10T13:43:56.955Z</time>
      </trkpt>
      <trkpt lat="45.36986" lon="5.09479">
        <ele>357</ele>
        <time>2021-10-10T13:44:00.977Z</time>
      </trkpt>
      <trkpt lat="45.36989" lon="5.09489">
        <ele>358</ele>
        <time>2021-10-10T13:44:05.969Z</time>
      </trkpt>
      <trkpt lat="45.36991" lon="5.09498">
        <ele>358</ele>
        <time>2021-10-10T13:44:10.973Z</time>
      </trkpt>
      <trkpt lat="45.36994" lon="5.09505">
        <ele>358</ele>
        <time>2021-10-10T13:44:14.994Z</time>
      </trkpt>
      <trkpt lat="45.36997" lon="5.09516">
        <ele>360</ele>
        <time>2021-10-10T13:44:20.012Z</time>
      </trkpt>
      <trkpt lat="45.37" lon="5.09527">
        <ele>360</ele>
        <time>2021-10-10T13:44:24.984Z</time>
      </trkpt>
      <trkpt lat="45.37003" lon="5.09537">
        <ele>360</ele>
        <time>2021-10-10T13:44:29.991Z</time>
      </trkpt>
      <trkpt lat="45.37004" lon="5.09546">
        <ele>363</ele>
        <time>2021-10-10T13:44:34.004Z</time>
      </trkpt>
      <trkpt lat="45.37004" lon="5.09555">
        <ele>363</ele>
        <time>2021-10-10T13:44:38.946Z</time>
      </trkpt>
      <trkpt lat="45.37002" lon="5.09557">
        <ele>363</ele>
        <time>2021-10-10T13:44:42.989Z</time>
      </trkpt>
      <trkpt lat="45.36999" lon="5.09563">
        <ele>363</ele>
        <time>2021-10-10T13:44:46.983Z</time>
      </trkpt>
      <trkpt lat="45.36994" lon="5.09567">
        <ele>363</ele>
        <time>2021-10-10T13:44:52.002Z</time>
      </trkpt>
      <trkpt lat="45.36988" lon="5.09569">
        <ele>363</ele>
        <time>2021-10-10T13:44:56.965Z</time>
      </trkpt>
      <trkpt lat="45.36982" lon="5.09571">
        <ele>363</ele>
        <time>2021-10-10T13:45:01.976Z</time>
      </trkpt>
      <trkpt lat="45.36977" lon="5.09573">
        <ele>363</ele>
        <time>2021-10-10T13:45:05.980Z</time>
      </trkpt>
      <trkpt lat="45.3697" lon="5.09575">
        <ele>363</ele>
        <time>2021-10-10T13:45:10.962Z</time>
      </trkpt>
      <trkpt lat="45.36963" lon="5.09577">
        <ele>363</ele>
        <time>2021-10-10T13:45:16.008Z</time>
      </trkpt>
      <trkpt lat="45.36957" lon="5.0958">
        <ele>361</ele>
        <time>2021-10-10T13:45:20.995Z</time>
      </trkpt>
      <trkpt lat="45.36951" lon="5.09582">
        <ele>361</ele>
        <time>2021-10-10T13:45:25.960Z</time>
      </trkpt>
      <trkpt lat="45.36946" lon="5.09584">
        <ele>361</ele>
        <time>2021-10-10T13:45:29.998Z</time>
      </trkpt>
      <trkpt lat="45.3694" lon="5.09586">
        <ele>361</ele>
        <time>2021-10-10T13:45:34.957Z</time>
      </trkpt>
      <trkpt lat="45.36934" lon="5.09588">
        <ele>361</ele>
        <time>2021-10-10T13:45:39Z</time>
      </trkpt>
      <trkpt lat="45.36927" lon="5.09589">
        <ele>360</ele>
        <time>2021-10-10T13:45:43.994Z</time>
      </trkpt>
      <trkpt lat="45.3692" lon="5.09591">
        <ele>360</ele>
        <time>2021-10-10T13:45:48.989Z</time>
      </trkpt>
      <trkpt lat="45.36913" lon="5.09593">
        <ele>360</ele>
        <time>2021-10-10T13:45:54.016Z</time>
      </trkpt>
      <trkpt lat="45.36907" lon="5.09594">
        <ele>360</ele>
        <time>2021-10-10T13:45:59Z</time>
      </trkpt>
      <trkpt lat="45.36902" lon="5.09596">
        <ele>359</ele>
        <time>2021-10-10T13:46:03.989Z</time>
      </trkpt>
      <trkpt lat="45.36898" lon="5.09599">
        <ele>357</ele>
        <time>2021-10-10T13:46:07.996Z</time>
      </trkpt>
      <trkpt lat="45.36891" lon="5.096">
        <ele>357</ele>
        <time>2021-10-10T13:46:12.991Z</time>
      </trkpt>
      <trkpt lat="45.36885" lon="5.09599">
        <ele>357</ele>
        <time>2021-10-10T13:46:16.998Z</time>
      </trkpt>
      <trkpt lat="45.36879" lon="5.09598">
        <ele>357</ele>
        <time>2021-10-10T13:46:21.001Z</time>
      </trkpt>
      <trkpt lat="45.36873" lon="5.09596">
        <ele>356</ele>
        <time>2021-10-10T13:46:25.991Z</time>
      </trkpt>
      <trkpt lat="45.36866" lon="5.09594">
        <ele>356</ele>
        <time>2021-10-10T13:46:30.983Z</time>
      </trkpt>
      <trkpt lat="45.36859" lon="5.09591">
        <ele>356</ele>
        <time>2021-10-10T13:46:35.986Z</time>
      </trkpt>
      <trkpt lat="45.36854" lon="5.09591">
        <ele>356</ele>
        <time>2021-10-10T13:46:39.997Z</time>
      </trkpt>
      <trkpt lat="45.36848" lon="5.0959">
        <ele>356</ele>
        <time>2021-10-10T13:46:44.982Z</time>
      </trkpt>
      <trkpt lat="45.36843" lon="5.0959">
        <ele>354</ele>
        <time>2021-10-10T13:46:48.989Z</time>
      </trkpt>
      <trkpt lat="45.36838" lon="5.09588">
        <ele>354</ele>
        <time>2021-10-10T13:46:52.995Z</time>
      </trkpt>
      <trkpt lat="45.36833" lon="5.09587">
        <ele>354</ele>
        <time>2021-10-10T13:46:57.007Z</time>
      </trkpt>
      <trkpt lat="45.36827" lon="5.09587">
        <ele>354</ele>
        <time>2021-10-10T13:47:01.997Z</time>
      </trkpt>
      <trkpt lat="45.36821" lon="5.09585">
        <ele>354</ele>
        <time>2021-10-10T13:47:06.956Z</time>
      </trkpt>
      <trkpt lat="45.36815" lon="5.09584">
        <ele>353</ele>
        <time>2021-10-10T13:47:11.003Z</time>
      </trkpt>
      <trkpt lat="45.36808" lon="5.09581">
        <ele>353</ele>
        <time>2021-10-10T13:47:15.016Z</time>
      </trkpt>
      <trkpt lat="45.36802" lon="5.09581">
        <ele>353</ele>
        <time>2021-10-10T13:47:19.993Z</time>
      </trkpt>
      <trkpt lat="45.36798" lon="5.09579">
        <ele>353</ele>
        <time>2021-10-10T13:47:25.011Z</time>
      </trkpt>
      <trkpt lat="45.36793" lon="5.09574">
        <ele>353</ele>
        <time>2021-10-10T13:47:29.997Z</time>
      </trkpt>
      <trkpt lat="45.36788" lon="5.09573">
        <ele>353</ele>
        <time>2021-10-10T13:47:34.961Z</time>
      </trkpt>
      <trkpt lat="45.36783" lon="5.09574">
        <ele>353</ele>
        <time>2021-10-10T13:47:39.977Z</time>
      </trkpt>
      <trkpt lat="45.36779" lon="5.09576">
        <ele>353</ele>
        <time>2021-10-10T13:47:43.991Z</time>
      </trkpt>
      <trkpt lat="45.36775" lon="5.09578">
        <ele>353</ele>
        <time>2021-10-10T13:47:47.996Z</time>
      </trkpt>
      <trkpt lat="45.3677" lon="5.09579">
        <ele>353</ele>
        <time>2021-10-10T13:47:52.010Z</time>
      </trkpt>
      <trkpt lat="45.36765" lon="5.09581">
        <ele>353</ele>
        <time>2021-10-10T13:47:56.957Z</time>
      </trkpt>
      <trkpt lat="45.36759" lon="5.09583">
        <ele>352</ele>
        <time>2021-10-10T13:48:00.992Z</time>
      </trkpt>
      <trkpt lat="45.36754" lon="5.09585">
        <ele>352</ele>
        <time>2021-10-10T13:48:05.981Z</time>
      </trkpt>
      <trkpt lat="45.36749" lon="5.09587">
        <ele>352</ele>
        <time>2021-10-10T13:48:10.990Z</time>
      </trkpt>
      <trkpt lat="45.36743" lon="5.09588">
        <ele>352</ele>
        <time>2021-10-10T13:48:15.952Z</time>
      </trkpt>
      <trkpt lat="45.36737" lon="5.09589">
        <ele>352</ele>
        <time>2021-10-10T13:48:20.997Z</time>
      </trkpt>
      <trkpt lat="45.36731" lon="5.0959">
        <ele>350</ele>
        <time>2021-10-10T13:48:25.991Z</time>
      </trkpt>
      <trkpt lat="45.36725" lon="5.09592">
        <ele>350</ele>
        <time>2021-10-10T13:48:30.990Z</time>
      </trkpt>
      <trkpt lat="45.3672" lon="5.09595">
        <ele>350</ele>
        <time>2021-10-10T13:48:35.971Z</time>
      </trkpt>
      <trkpt lat="45.36716" lon="5.09597">
        <ele>350</ele>
        <time>2021-10-10T13:48:39.976Z</time>
      </trkpt>
      <trkpt lat="45.36711" lon="5.096">
        <ele>346</ele>
        <time>2021-10-10T13:48:45Z</time>
      </trkpt>
      <trkpt lat="45.36706" lon="5.09604">
        <ele>344</ele>
        <time>2021-10-10T13:48:49.979Z</time>
      </trkpt>
      <trkpt lat="45.367" lon="5.09607">
        <ele>344</ele>
        <time>2021-10-10T13:48:54.983Z</time>
      </trkpt>
      <trkpt lat="45.36696" lon="5.09609">
        <ele>344</ele>
        <time>2021-10-10T13:48:58.985Z</time>
      </trkpt>
      <trkpt lat="45.36691" lon="5.09611">
        <ele>344</ele>
        <time>2021-10-10T13:49:04.001Z</time>
      </trkpt>
      <trkpt lat="45.36687" lon="5.09615">
        <ele>344</ele>
        <time>2021-10-10T13:49:08.981Z</time>
      </trkpt>
      <trkpt lat="45.36682" lon="5.0962">
        <ele>344</ele>
        <time>2021-10-10T13:49:13.990Z</time>
      </trkpt>
      <trkpt lat="45.36677" lon="5.09623">
        <ele>344</ele>
        <time>2021-10-10T13:49:18.999Z</time>
      </trkpt>
      <trkpt lat="45.36674" lon="5.09631">
        <ele>341</ele>
        <time>2021-10-10T13:49:23.984Z</time>
      </trkpt>
      <trkpt lat="45.36671" lon="5.09638">
        <ele>341</ele>
        <time>2021-10-10T13:49:28.973Z</time>
      </trkpt>
      <trkpt lat="45.36669" lon="5.09644">
        <ele>341</ele>
        <time>2021-10-10T13:49:32.975Z</time>
      </trkpt>
      <trkpt lat="45.36665" lon="5.09652">
        <ele>341</ele>
        <time>2021-10-10T13:49:37.976Z</time>
      </trkpt>
      <trkpt lat="45.36661" lon="5.0966">
        <ele>340</ele>
        <time>2021-10-10T13:49:42.971Z</time>
      </trkpt>
      <trkpt lat="45.36658" lon="5.09669">
        <ele>340</ele>
        <time>2021-10-10T13:49:47.958Z</time>
      </trkpt>
      <trkpt lat="45.36656" lon="5.09676">
        <ele>340</ele>
        <time>2021-10-10T13:49:51.976Z</time>
      </trkpt>
      <trkpt lat="45.36654" lon="5.09684">
        <ele>340</ele>
        <time>2021-10-10T13:49:55.989Z</time>
      </trkpt>
      <trkpt lat="45.36651" lon="5.09692">
        <ele>338</ele>
        <time>2021-10-10T13:50:00.985Z</time>
      </trkpt>
      <trkpt lat="45.36649" lon="5.09699">
        <ele>338</ele>
        <time>2021-10-10T13:50:05.001Z</time>
      </trkpt>
      <trkpt lat="45.36648" lon="5.09708">
        <ele>340</ele>
        <time>2021-10-10T13:50:09.985Z</time>
      </trkpt>
      <trkpt lat="45.36648" lon="5.09716">
        <ele>340</ele>
        <time>2021-10-10T13:50:14.005Z</time>
      </trkpt>
      <trkpt lat="45.36648" lon="5.09726">
        <ele>340</ele>
        <time>2021-10-10T13:50:18.985Z</time>
      </trkpt>
      <trkpt lat="45.36648" lon="5.09735">
        <ele>340</ele>
        <time>2021-10-10T13:50:23.994Z</time>
      </trkpt>
      <trkpt lat="45.36648" lon="5.09744">
        <ele>342</ele>
        <time>2021-10-10T13:50:27.994Z</time>
      </trkpt>
      <trkpt lat="45.36649" lon="5.09751">
        <ele>342</ele>
        <time>2021-10-10T13:50:31.998Z</time>
      </trkpt>
      <trkpt lat="45.3665" lon="5.09761">
        <ele>342</ele>
        <time>2021-10-10T13:50:36.992Z</time>
      </trkpt>
      <trkpt lat="45.3665" lon="5.0977">
        <ele>344</ele>
        <time>2021-10-10T13:50:41.995Z</time>
      </trkpt>
      <trkpt lat="45.36651" lon="5.09777">
        <ele>344</ele>
        <time>2021-10-10T13:50:46.014Z</time>
      </trkpt>
      <trkpt lat="45.36655" lon="5.09783">
        <ele>346</ele>
        <time>2021-10-10T13:50:50.993Z</time>
      </trkpt>
      <trkpt lat="45.36665" lon="5.09782">
        <ele>346</ele>
        <time>2021-10-10T13:50:55.992Z</time>
      </trkpt>
      <trkpt lat="45.36672" lon="5.09778">
        <ele>346</ele>
        <time>2021-10-10T13:50:59.997Z</time>
      </trkpt>
      <trkpt lat="45.3668" lon="5.09773">
        <ele>346</ele>
        <time>2021-10-10T13:51:04.999Z</time>
      </trkpt>
      <trkpt lat="45.36686" lon="5.09773">
        <ele>348</ele>
        <time>2021-10-10T13:51:08.996Z</time>
      </trkpt>
      <trkpt lat="45.36689" lon="5.09772">
        <ele>348</ele>
        <time>2021-10-10T13:51:13.013Z</time>
      </trkpt>
      <trkpt lat="45.36692" lon="5.09773">
        <ele>348</ele>
        <time>2021-10-10T13:51:17.962Z</time>
      </trkpt>
      <trkpt lat="45.36695" lon="5.09776">
        <ele>348</ele>
        <time>2021-10-10T13:51:22.985Z</time>
      </trkpt>
      <trkpt lat="45.36701" lon="5.09778">
        <ele>348</ele>
        <time>2021-10-10T13:51:27.987Z</time>
      </trkpt>
      <trkpt lat="45.36705" lon="5.0978">
        <ele>348</ele>
        <time>2021-10-10T13:51:31.996Z</time>
      </trkpt>
      <trkpt lat="45.3671" lon="5.09782">
        <ele>350</ele>
        <time>2021-10-10T13:51:37.007Z</time>
      </trkpt>
      <trkpt lat="45.36716" lon="5.09785">
        <ele>350</ele>
        <time>2021-10-10T13:51:42Z</time>
      </trkpt>
      <trkpt lat="45.36721" lon="5.09788">
        <ele>350</ele>
        <time>2021-10-10T13:51:46.956Z</time>
      </trkpt>
      <trkpt lat="45.36725" lon="5.09791">
        <ele>350</ele>
        <time>2021-10-10T13:51:50.999Z</time>
      </trkpt>
      <trkpt lat="45.36728" lon="5.09793">
        <ele>349</ele>
        <time>2021-10-10T13:51:55.012Z</time>
      </trkpt>
      <trkpt lat="45.36731" lon="5.09798">
        <ele>349</ele>
        <time>2021-10-10T13:51:59.999Z</time>
      </trkpt>
      <trkpt lat="45.36734" lon="5.09801">
        <ele>349</ele>
        <time>2021-10-10T13:52:04.036Z</time>
      </trkpt>
      <trkpt lat="45.36739" lon="5.09806">
        <ele>351</ele>
        <time>2021-10-10T13:52:08.990Z</time>
      </trkpt>
      <trkpt lat="45.36744" lon="5.09809">
        <ele>351</ele>
        <time>2021-10-10T13:52:12.999Z</time>
      </trkpt>
      <trkpt lat="45.36749" lon="5.09812">
        <ele>351</ele>
        <time>2021-10-10T13:52:17.996Z</time>
      </trkpt>
      <trkpt lat="45.36754" lon="5.09815">
        <ele>351</ele>
        <time>2021-10-10T13:52:22.971Z</time>
      </trkpt>
      <trkpt lat="45.36759" lon="5.09818">
        <ele>351</ele>
        <time>2021-10-10T13:52:27.989Z</time>
      </trkpt>
      <trkpt lat="45.36764" lon="5.09822">
        <ele>350</ele>
        <time>2021-10-10T13:52:32.012Z</time>
      </trkpt>
      <trkpt lat="45.36769" lon="5.09825">
        <ele>355</ele>
        <time>2021-10-10T13:52:37Z</time>
      </trkpt>
      <trkpt lat="45.36775" lon="5.09829">
        <ele>355</ele>
        <time>2021-10-10T13:52:41.988Z</time>
      </trkpt>
      <trkpt lat="45.36782" lon="5.09835">
        <ele>355</ele>
        <time>2021-10-10T13:52:46.989Z</time>
      </trkpt>
      <trkpt lat="45.36788" lon="5.0984">
        <ele>355</ele>
        <time>2021-10-10T13:52:51.983Z</time>
      </trkpt>
      <trkpt lat="45.36796" lon="5.09845">
        <ele>357</ele>
        <time>2021-10-10T13:52:56.991Z</time>
      </trkpt>
      <trkpt lat="45.36801" lon="5.09849">
        <ele>357</ele>
        <time>2021-10-10T13:53:00.995Z</time>
      </trkpt>
      <trkpt lat="45.36808" lon="5.09854">
        <ele>357</ele>
        <time>2021-10-10T13:53:05.984Z</time>
      </trkpt>
      <trkpt lat="45.36814" lon="5.09859">
        <ele>357</ele>
        <time>2021-10-10T13:53:10.959Z</time>
      </trkpt>
      <trkpt lat="45.36819" lon="5.09863">
        <ele>357</ele>
        <time>2021-10-10T13:53:14.987Z</time>
      </trkpt>
      <trkpt lat="45.36825" lon="5.09871">
        <ele>356</ele>
        <time>2021-10-10T13:53:19.993Z</time>
      </trkpt>
      <trkpt lat="45.36831" lon="5.09878">
        <ele>356</ele>
        <time>2021-10-10T13:53:24.980Z</time>
      </trkpt>
      <trkpt lat="45.36837" lon="5.09883">
        <ele>356</ele>
        <time>2021-10-10T13:53:29.992Z</time>
      </trkpt>
      <trkpt lat="45.36841" lon="5.09889">
        <ele>356</ele>
        <time>2021-10-10T13:53:34.003Z</time>
      </trkpt>
      <trkpt lat="45.36845" lon="5.09897">
        <ele>356</ele>
        <time>2021-10-10T13:53:38.011Z</time>
      </trkpt>
      <trkpt lat="45.3685" lon="5.09906">
        <ele>357</ele>
        <time>2021-10-10T13:53:43.002Z</time>
      </trkpt>
      <trkpt lat="45.36854" lon="5.09914">
        <ele>357</ele>
        <time>2021-10-10T13:53:47.984Z</time>
      </trkpt>
      <trkpt lat="45.36861" lon="5.09924">
        <ele>357</ele>
        <time>2021-10-10T13:53:52.996Z</time>
      </trkpt>
      <trkpt lat="45.36872" lon="5.0994">
        <ele>358</ele>
        <time>2021-10-10T13:53:57.986Z</time>
      </trkpt>
      <trkpt lat="45.36875" lon="5.09953">
        <ele>361</ele>
        <time>2021-10-10T13:54:02.002Z</time>
      </trkpt>
      <trkpt lat="45.36878" lon="5.09968">
        <ele>362</ele>
        <time>2021-10-10T13:54:06Z</time>
      </trkpt>
      <trkpt lat="45.36883" lon="5.09982">
        <ele>362</ele>
        <time>2021-10-10T13:54:11Z</time>
      </trkpt>
      <trkpt lat="45.36893" lon="5.1">
        <ele>361</ele>
        <time>2021-10-10T13:54:15.985Z</time>
      </trkpt>
      <trkpt lat="45.36901" lon="5.1001">
        <ele>361</ele>
        <time>2021-10-10T13:54:20.004Z</time>
      </trkpt>
      <trkpt lat="45.3691" lon="5.10017">
        <ele>362</ele>
        <time>2021-10-10T13:54:24.999Z</time>
      </trkpt>
      <trkpt lat="45.36917" lon="5.10025">
        <ele>362</ele>
        <time>2021-10-10T13:54:29.956Z</time>
      </trkpt>
      <trkpt lat="45.36925" lon="5.10034">
        <ele>362</ele>
        <time>2021-10-10T13:54:34.973Z</time>
      </trkpt>
      <trkpt lat="45.36929" lon="5.10039">
        <ele>362</ele>
        <time>2021-10-10T13:54:38.973Z</time>
      </trkpt>
      <trkpt lat="45.36933" lon="5.10044">
        <ele>363</ele>
        <time>2021-10-10T13:54:43.002Z</time>
      </trkpt>
      <trkpt lat="45.36939" lon="5.10051">
        <ele>363</ele>
        <time>2021-10-10T13:54:47.972Z</time>
      </trkpt>
      <trkpt lat="45.36943" lon="5.10056">
        <ele>363</ele>
        <time>2021-10-10T13:54:51.975Z</time>
      </trkpt>
      <trkpt lat="45.36949" lon="5.10062">
        <ele>363</ele>
        <time>2021-10-10T13:54:56.962Z</time>
      </trkpt>
      <trkpt lat="45.36953" lon="5.10065">
        <ele>363</ele>
        <time>2021-10-10T13:55:00.996Z</time>
      </trkpt>
      <trkpt lat="45.36958" lon="5.10073">
        <ele>364</ele>
        <time>2021-10-10T13:55:05.960Z</time>
      </trkpt>
      <trkpt lat="45.36967" lon="5.10085">
        <ele>364</ele>
        <time>2021-10-10T13:55:09.995Z</time>
      </trkpt>
      <trkpt lat="45.36975" lon="5.10097">
        <ele>364</ele>
        <time>2021-10-10T13:55:15Z</time>
      </trkpt>
      <trkpt lat="45.3698" lon="5.1011">
        <ele>365</ele>
        <time>2021-10-10T13:55:19.991Z</time>
      </trkpt>
      <trkpt lat="45.36984" lon="5.10121">
        <ele>365</ele>
        <time>2021-10-10T13:55:24.988Z</time>
      </trkpt>
      <trkpt lat="45.36988" lon="5.10126">
        <ele>365</ele>
        <time>2021-10-10T13:55:28.996Z</time>
      </trkpt>
      <trkpt lat="45.36993" lon="5.10134">
        <ele>365</ele>
        <time>2021-10-10T13:55:33.994Z</time>
      </trkpt>
      <trkpt lat="45.36998" lon="5.10142">
        <ele>365</ele>
        <time>2021-10-10T13:55:38.983Z</time>
      </trkpt>
      <trkpt lat="45.37003" lon="5.10153">
        <ele>365</ele>
        <time>2021-10-10T13:55:43.972Z</time>
      </trkpt>
      <trkpt lat="45.37006" lon="5.10163">
        <ele>365</ele>
        <time>2021-10-10T13:55:49.003Z</time>
      </trkpt>
      <trkpt lat="45.37009" lon="5.10172">
        <ele>365</ele>
        <time>2021-10-10T13:55:53.978Z</time>
      </trkpt>
      <trkpt lat="45.37011" lon="5.10179">
        <ele>365</ele>
        <time>2021-10-10T13:55:57.983Z</time>
      </trkpt>
      <trkpt lat="45.37014" lon="5.10187">
        <ele>368</ele>
        <time>2021-10-10T13:56:02.007Z</time>
      </trkpt>
      <trkpt lat="45.37017" lon="5.10197">
        <ele>368</ele>
        <time>2021-10-10T13:56:06.987Z</time>
      </trkpt>
      <trkpt lat="45.37019" lon="5.10206">
        <ele>368</ele>
        <time>2021-10-10T13:56:10.992Z</time>
      </trkpt>
      <trkpt lat="45.37023" lon="5.10214">
        <ele>369</ele>
        <time>2021-10-10T13:56:15.990Z</time>
      </trkpt>
      <trkpt lat="45.37026" lon="5.10221">
        <ele>369</ele>
        <time>2021-10-10T13:56:19.997Z</time>
      </trkpt>
      <trkpt lat="45.3703" lon="5.10226">
        <ele>369</ele>
        <time>2021-10-10T13:56:23.995Z</time>
      </trkpt>
      <trkpt lat="45.37033" lon="5.10233">
        <ele>369</ele>
        <time>2021-10-10T13:56:28.005Z</time>
      </trkpt>
      <trkpt lat="45.37039" lon="5.10244">
        <ele>369</ele>
        <time>2021-10-10T13:56:32.987Z</time>
      </trkpt>
      <trkpt lat="45.37045" lon="5.10253">
        <ele>368</ele>
        <time>2021-10-10T13:56:37.992Z</time>
      </trkpt>
      <trkpt lat="45.37049" lon="5.10259">
        <ele>368</ele>
        <time>2021-10-10T13:56:41.997Z</time>
      </trkpt>
      <trkpt lat="45.37055" lon="5.10268">
        <ele>367</ele>
        <time>2021-10-10T13:56:46.985Z</time>
      </trkpt>
      <trkpt lat="45.37059" lon="5.10274">
        <ele>367</ele>
        <time>2021-10-10T13:56:50.995Z</time>
      </trkpt>
      <trkpt lat="45.37065" lon="5.10281">
        <ele>367</ele>
        <time>2021-10-10T13:56:55.983Z</time>
      </trkpt>
      <trkpt lat="45.37071" lon="5.10287">
        <ele>367</ele>
        <time>2021-10-10T13:57:01.016Z</time>
      </trkpt>
      <trkpt lat="45.37076" lon="5.10294">
        <ele>367</ele>
        <time>2021-10-10T13:57:06.002Z</time>
      </trkpt>
      <trkpt lat="45.37083" lon="5.10301">
        <ele>367</ele>
        <time>2021-10-10T13:57:10.995Z</time>
      </trkpt>
      <trkpt lat="45.37089" lon="5.10312">
        <ele>367</ele>
        <time>2021-10-10T13:57:15.998Z</time>
      </trkpt>
      <trkpt lat="45.37096" lon="5.10322">
        <ele>366</ele>
        <time>2021-10-10T13:57:20.995Z</time>
      </trkpt>
      <trkpt lat="45.37102" lon="5.10333">
        <ele>368</ele>
        <time>2021-10-10T13:57:25.988Z</time>
      </trkpt>
      <trkpt lat="45.37108" lon="5.1034">
        <ele>368</ele>
        <time>2021-10-10T13:57:31.002Z</time>
      </trkpt>
      <trkpt lat="45.37114" lon="5.10347">
        <ele>368</ele>
        <time>2021-10-10T13:57:36.003Z</time>
      </trkpt>
      <trkpt lat="45.37119" lon="5.10352">
        <ele>367</ele>
        <time>2021-10-10T13:57:40.982Z</time>
      </trkpt>
      <trkpt lat="45.37123" lon="5.10359">
        <ele>367</ele>
        <time>2021-10-10T13:57:44.996Z</time>
      </trkpt>
      <trkpt lat="45.37128" lon="5.10367">
        <ele>367</ele>
        <time>2021-10-10T13:57:49.981Z</time>
      </trkpt>
      <trkpt lat="45.37132" lon="5.10375">
        <ele>367</ele>
        <time>2021-10-10T13:57:54.953Z</time>
      </trkpt>
      <trkpt lat="45.37135" lon="5.10381">
        <ele>367</ele>
        <time>2021-10-10T13:57:58.988Z</time>
      </trkpt>
      <trkpt lat="45.37138" lon="5.10392">
        <ele>367</ele>
        <time>2021-10-10T13:58:03.973Z</time>
      </trkpt>
      <trkpt lat="45.37145" lon="5.10405">
        <ele>366</ele>
        <time>2021-10-10T13:58:07.986Z</time>
      </trkpt>
      <trkpt lat="45.37152" lon="5.10419">
        <ele>366</ele>
        <time>2021-10-10T13:58:12.973Z</time>
      </trkpt>
      <trkpt lat="45.37159" lon="5.10432">
        <ele>367</ele>
        <time>2021-10-10T13:58:17.973Z</time>
      </trkpt>
      <trkpt lat="45.37166" lon="5.10443">
        <ele>367</ele>
        <time>2021-10-10T13:58:22.997Z</time>
      </trkpt>
      <trkpt lat="45.37173" lon="5.1045">
        <ele>367</ele>
        <time>2021-10-10T13:58:26.976Z</time>
      </trkpt>
      <trkpt lat="45.37182" lon="5.10454">
        <ele>369</ele>
        <time>2021-10-10T13:58:31.994Z</time>
      </trkpt>
      <trkpt lat="45.37193" lon="5.10457">
        <ele>369</ele>
        <time>2021-10-10T13:58:36.989Z</time>
      </trkpt>
      <trkpt lat="45.37201" lon="5.10465">
        <ele>368</ele>
        <time>2021-10-10T13:58:42Z</time>
      </trkpt>
      <trkpt lat="45.37209" lon="5.10477">
        <ele>370</ele>
        <time>2021-10-10T13:58:46.992Z</time>
      </trkpt>
      <trkpt lat="45.37215" lon="5.10486">
        <ele>370</ele>
        <time>2021-10-10T13:58:51.992Z</time>
      </trkpt>
      <trkpt lat="45.37221" lon="5.10491">
        <ele>369</ele>
        <time>2021-10-10T13:58:56.005Z</time>
      </trkpt>
      <trkpt lat="45.37227" lon="5.10497">
        <ele>369</ele>
        <time>2021-10-10T13:59:00.985Z</time>
      </trkpt>
      <trkpt lat="45.37233" lon="5.10502">
        <ele>369</ele>
        <time>2021-10-10T13:59:04.991Z</time>
      </trkpt>
      <trkpt lat="45.37239" lon="5.10507">
        <ele>370</ele>
        <time>2021-10-10T13:59:09.021Z</time>
      </trkpt>
      <trkpt lat="45.37247" lon="5.10513">
        <ele>370</ele>
        <time>2021-10-10T13:59:13.999Z</time>
      </trkpt>
      <trkpt lat="45.37254" lon="5.1052">
        <ele>370</ele>
        <time>2021-10-10T13:59:18.989Z</time>
      </trkpt>
      <trkpt lat="45.3726" lon="5.10527">
        <ele>370</ele>
        <time>2021-10-10T13:59:23.985Z</time>
      </trkpt>
      <trkpt lat="45.37266" lon="5.10535">
        <ele>371</ele>
        <time>2021-10-10T13:59:27.991Z</time>
      </trkpt>
      <trkpt lat="45.37268" lon="5.10781">
        <ele>369</ele>
        <time>2021-10-10T14:02:12.965Z</time>
      </trkpt>
      <trkpt lat="45.37263" lon="5.10782">
        <ele>363</ele>
        <time>2021-10-10T14:02:16.973Z</time>
      </trkpt>
      <trkpt lat="45.37259" lon="5.10783">
        <ele>363</ele>
        <time>2021-10-10T14:02:20.979Z</time>
      </trkpt>
      <trkpt lat="45.37254" lon="5.10784">
        <ele>363</ele>
        <time>2021-10-10T14:02:24.986Z</time>
      </trkpt>
      <trkpt lat="45.3725" lon="5.10785">
        <ele>363</ele>
        <time>2021-10-10T14:02:28.993Z</time>
      </trkpt>
      <trkpt lat="45.37246" lon="5.10786">
        <ele>363</ele>
        <time>2021-10-10T14:02:33.010Z</time>
      </trkpt>
      <trkpt lat="45.3724" lon="5.10786">
        <ele>363</ele>
        <time>2021-10-10T14:02:37.987Z</time>
      </trkpt>
      <trkpt lat="45.37236" lon="5.10786">
        <ele>357</ele>
        <time>2021-10-10T14:02:42.003Z</time>
      </trkpt>
      <trkpt lat="45.37231" lon="5.10788">
        <ele>357</ele>
        <time>2021-10-10T14:02:46.992Z</time>
      </trkpt>
      <trkpt lat="45.37226" lon="5.1079">
        <ele>357</ele>
        <time>2021-10-10T14:02:51.970Z</time>
      </trkpt>
      <trkpt lat="45.37221" lon="5.10796">
        <ele>357</ele>
        <time>2021-10-10T14:02:56.995Z</time>
      </trkpt>
      <trkpt lat="45.37216" lon="5.108">
        <ele>357</ele>
        <time>2021-10-10T14:03:00.999Z</time>
      </trkpt>
      <trkpt lat="45.37211" lon="5.10805">
        <ele>357</ele>
        <time>2021-10-10T14:03:05.993Z</time>
      </trkpt>
      <trkpt lat="45.37207" lon="5.1081">
        <ele>351</ele>
        <time>2021-10-10T14:03:10.016Z</time>
      </trkpt>
      <trkpt lat="45.37203" lon="5.10817">
        <ele>351</ele>
        <time>2021-10-10T14:03:14.981Z</time>
      </trkpt>
      <trkpt lat="45.37201" lon="5.10825">
        <ele>349</ele>
        <time>2021-10-10T14:03:19.013Z</time>
      </trkpt>
      <trkpt lat="45.37197" lon="5.10836">
        <ele>349</ele>
        <time>2021-10-10T14:03:23.992Z</time>
      </trkpt>
      <trkpt lat="45.37191" lon="5.10846">
        <ele>349</ele>
        <time>2021-10-10T14:03:29.002Z</time>
      </trkpt>
      <trkpt lat="45.37182" lon="5.1086">
        <ele>347</ele>
        <time>2021-10-10T14:03:33.990Z</time>
      </trkpt>
      <trkpt lat="45.37175" lon="5.10869">
        <ele>341</ele>
        <time>2021-10-10T14:03:38.995Z</time>
      </trkpt>
      <trkpt lat="45.3717" lon="5.10877">
        <ele>338</ele>
        <time>2021-10-10T14:03:43.976Z</time>
      </trkpt>
      <trkpt lat="45.37165" lon="5.10882">
        <ele>338</ele>
        <time>2021-10-10T14:03:47.987Z</time>
      </trkpt>
      <trkpt lat="45.37162" lon="5.10887">
        <ele>338</ele>
        <time>2021-10-10T14:03:52.010Z</time>
      </trkpt>
      <trkpt lat="45.37157" lon="5.10894">
        <ele>338</ele>
        <time>2021-10-10T14:03:56.955Z</time>
      </trkpt>
      <trkpt lat="45.37153" lon="5.10899">
        <ele>336</ele>
        <time>2021-10-10T14:04:00.993Z</time>
      </trkpt>
      <trkpt lat="45.37148" lon="5.10907">
        <ele>335</ele>
        <time>2021-10-10T14:04:05.981Z</time>
      </trkpt>
      <trkpt lat="45.37144" lon="5.10913">
        <ele>335</ele>
        <time>2021-10-10T14:04:10.967Z</time>
      </trkpt>
      <trkpt lat="45.3714" lon="5.10918">
        <ele>335</ele>
        <time>2021-10-10T14:04:14.989Z</time>
      </trkpt>
      <trkpt lat="45.37136" lon="5.10924">
        <ele>335</ele>
        <time>2021-10-10T14:04:18.991Z</time>
      </trkpt>
      <trkpt lat="45.37132" lon="5.1093">
        <ele>335</ele>
        <time>2021-10-10T14:04:23.983Z</time>
      </trkpt>
      <trkpt lat="45.37128" lon="5.10935">
        <ele>335</ele>
        <time>2021-10-10T14:04:27.988Z</time>
      </trkpt>
      <trkpt lat="45.37125" lon="5.1094">
        <ele>336</ele>
        <time>2021-10-10T14:04:32.983Z</time>
      </trkpt>
      <trkpt lat="45.37122" lon="5.10945">
        <ele>336</ele>
        <time>2021-10-10T14:04:37.002Z</time>
      </trkpt>
      <trkpt lat="45.37117" lon="5.10951">
        <ele>336</ele>
        <time>2021-10-10T14:04:41.988Z</time>
      </trkpt>
      <trkpt lat="45.37111" lon="5.10953">
        <ele>336</ele>
        <time>2021-10-10T14:04:47.002Z</time>
      </trkpt>
      <trkpt lat="45.37105" lon="5.10949">
        <ele>336</ele>
        <time>2021-10-10T14:04:51.994Z</time>
      </trkpt>
      <trkpt lat="45.37099" lon="5.10945">
        <ele>336</ele>
        <time>2021-10-10T14:04:56.988Z</time>
      </trkpt>
      <trkpt lat="45.37094" lon="5.10942">
        <ele>336</ele>
        <time>2021-10-10T14:05:00.990Z</time>
      </trkpt>
      <trkpt lat="45.37088" lon="5.10938">
        <ele>336</ele>
        <time>2021-10-10T14:05:06.006Z</time>
      </trkpt>
      <trkpt lat="45.37081" lon="5.10935">
        <ele>336</ele>
        <time>2021-10-10T14:05:10.984Z</time>
      </trkpt>
      <trkpt lat="45.37076" lon="5.10932">
        <ele>336</ele>
        <time>2021-10-10T14:05:14.984Z</time>
      </trkpt>
      <trkpt lat="45.3707" lon="5.10929">
        <ele>336</ele>
        <time>2021-10-10T14:05:18.997Z</time>
      </trkpt>
      <trkpt lat="45.37064" lon="5.10926">
        <ele>335</ele>
        <time>2021-10-10T14:05:23.995Z</time>
      </trkpt>
      <trkpt lat="45.37058" lon="5.10924">
        <ele>335</ele>
        <time>2021-10-10T14:05:28.013Z</time>
      </trkpt>
      <trkpt lat="45.37051" lon="5.1092">
        <ele>335</ele>
        <time>2021-10-10T14:05:32.981Z</time>
      </trkpt>
      <trkpt lat="45.37044" lon="5.10917">
        <ele>335</ele>
        <time>2021-10-10T14:05:37.996Z</time>
      </trkpt>
      <trkpt lat="45.37037" lon="5.10914">
        <ele>335</ele>
        <time>2021-10-10T14:05:42.979Z</time>
      </trkpt>
      <trkpt lat="45.37031" lon="5.10916">
        <ele>335</ele>
        <time>2021-10-10T14:05:46.987Z</time>
      </trkpt>
      <trkpt lat="45.37024" lon="5.10917">
        <ele>335</ele>
        <time>2021-10-10T14:05:51.973Z</time>
      </trkpt>
      <trkpt lat="45.37017" lon="5.10917">
        <ele>335</ele>
        <time>2021-10-10T14:05:56.952Z</time>
      </trkpt>
      <trkpt lat="45.37012" lon="5.10923">
        <ele>334</ele>
        <time>2021-10-10T14:06:00.976Z</time>
      </trkpt>
      <trkpt lat="45.37009" lon="5.1093">
        <ele>334</ele>
        <time>2021-10-10T14:06:04.997Z</time>
      </trkpt>
      <trkpt lat="45.37003" lon="5.10937">
        <ele>333</ele>
        <time>2021-10-10T14:06:10.001Z</time>
      </trkpt>
      <trkpt lat="45.36998" lon="5.10944">
        <ele>333</ele>
        <time>2021-10-10T14:06:14.981Z</time>
      </trkpt>
      <trkpt lat="45.36995" lon="5.1095">
        <ele>333</ele>
        <time>2021-10-10T14:06:19.001Z</time>
      </trkpt>
      <trkpt lat="45.3699" lon="5.10956">
        <ele>333</ele>
        <time>2021-10-10T14:06:23.973Z</time>
      </trkpt>
      <trkpt lat="45.36985" lon="5.1096">
        <ele>332</ele>
        <time>2021-10-10T14:06:28.002Z</time>
      </trkpt>
      <trkpt lat="45.36981" lon="5.10965">
        <ele>332</ele>
        <time>2021-10-10T14:06:32.979Z</time>
      </trkpt>
      <trkpt lat="45.36975" lon="5.10968">
        <ele>332</ele>
        <time>2021-10-10T14:06:37.988Z</time>
      </trkpt>
      <trkpt lat="45.36969" lon="5.10971">
        <ele>332</ele>
        <time>2021-10-10T14:06:42.982Z</time>
      </trkpt>
      <trkpt lat="45.36963" lon="5.10975">
        <ele>332</ele>
        <time>2021-10-10T14:06:47.951Z</time>
      </trkpt>
      <trkpt lat="45.36955" lon="5.10979">
        <ele>332</ele>
        <time>2021-10-10T14:06:52.991Z</time>
      </trkpt>
      <trkpt lat="45.36949" lon="5.10983">
        <ele>332</ele>
        <time>2021-10-10T14:06:57.965Z</time>
      </trkpt>
      <trkpt lat="45.36944" lon="5.10988">
        <ele>329</ele>
        <time>2021-10-10T14:07:02.985Z</time>
      </trkpt>
      <trkpt lat="45.36938" lon="5.1099">
        <ele>329</ele>
        <time>2021-10-10T14:07:07.957Z</time>
      </trkpt>
      <trkpt lat="45.36932" lon="5.10992">
        <ele>329</ele>
        <time>2021-10-10T14:07:11.982Z</time>
      </trkpt>
      <trkpt lat="45.36925" lon="5.10994">
        <ele>328</ele>
        <time>2021-10-10T14:07:16.959Z</time>
      </trkpt>
      <trkpt lat="45.3692" lon="5.10995">
        <ele>328</ele>
        <time>2021-10-10T14:07:20.984Z</time>
      </trkpt>
      <trkpt lat="45.36915" lon="5.10997">
        <ele>328</ele>
        <time>2021-10-10T14:07:25.969Z</time>
      </trkpt>
      <trkpt lat="45.3691" lon="5.10999">
        <ele>328</ele>
        <time>2021-10-10T14:07:29.993Z</time>
      </trkpt>
      <trkpt lat="45.36903" lon="5.11001">
        <ele>328</ele>
        <time>2021-10-10T14:07:35.001Z</time>
      </trkpt>
      <trkpt lat="45.36897" lon="5.11004">
        <ele>328</ele>
        <time>2021-10-10T14:07:39.999Z</time>
      </trkpt>
      <trkpt lat="45.36888" lon="5.11007">
        <ele>328</ele>
        <time>2021-10-10T14:07:44.978Z</time>
      </trkpt>
      <trkpt lat="45.36879" lon="5.11011">
        <ele>328</ele>
        <time>2021-10-10T14:07:48.991Z</time>
      </trkpt>
      <trkpt lat="45.36869" lon="5.1102">
        <ele>327</ele>
        <time>2021-10-10T14:07:53.965Z</time>
      </trkpt>
      <trkpt lat="45.36858" lon="5.11029">
        <ele>327</ele>
        <time>2021-10-10T14:07:58.975Z</time>
      </trkpt>
      <trkpt lat="45.36847" lon="5.11033">
        <ele>327</ele>
        <time>2021-10-10T14:08:03.970Z</time>
      </trkpt>
      <trkpt lat="45.36841" lon="5.11041">
        <ele>327</ele>
        <time>2021-10-10T14:08:07.989Z</time>
      </trkpt>
      <trkpt lat="45.36831" lon="5.11047">
        <ele>324</ele>
        <time>2021-10-10T14:08:12.989Z</time>
      </trkpt>
      <trkpt lat="45.36822" lon="5.11051">
        <ele>324</ele>
        <time>2021-10-10T14:08:17.983Z</time>
      </trkpt>
      <trkpt lat="45.36811" lon="5.11054">
        <ele>324</ele>
        <time>2021-10-10T14:08:22.974Z</time>
      </trkpt>
      <trkpt lat="45.36802" lon="5.11058">
        <ele>324</ele>
        <time>2021-10-10T14:08:26.980Z</time>
      </trkpt>
      <trkpt lat="45.36791" lon="5.1106">
        <ele>326</ele>
        <time>2021-10-10T14:08:31.957Z</time>
      </trkpt>
      <trkpt lat="45.36782" lon="5.11061">
        <ele>326</ele>
        <time>2021-10-10T14:08:35.973Z</time>
      </trkpt>
      <trkpt lat="45.36774" lon="5.11063">
        <ele>326</ele>
        <time>2021-10-10T14:08:40Z</time>
      </trkpt>
      <trkpt lat="45.36765" lon="5.11065">
        <ele>326</ele>
        <time>2021-10-10T14:08:44.992Z</time>
      </trkpt>
      <trkpt lat="45.36756" lon="5.11066">
        <ele>327</ele>
        <time>2021-10-10T14:08:49.952Z</time>
      </trkpt>
      <trkpt lat="45.36748" lon="5.11066">
        <ele>327</ele>
        <time>2021-10-10T14:08:54.956Z</time>
      </trkpt>
      <trkpt lat="45.36741" lon="5.11068">
        <ele>327</ele>
        <time>2021-10-10T14:08:59.952Z</time>
      </trkpt>
      <trkpt lat="45.36733" lon="5.11068">
        <ele>325</ele>
        <time>2021-10-10T14:09:04.957Z</time>
      </trkpt>
      <trkpt lat="45.36725" lon="5.11069">
        <ele>325</ele>
        <time>2021-10-10T14:09:09.956Z</time>
      </trkpt>
      <trkpt lat="45.36717" lon="5.1107">
        <ele>324</ele>
        <time>2021-10-10T14:09:14.992Z</time>
      </trkpt>
      <trkpt lat="45.36702" lon="5.1107">
        <ele>325</ele>
        <time>2021-10-10T14:09:18.989Z</time>
      </trkpt>
      <trkpt lat="45.36681" lon="5.11054">
        <ele>325</ele>
        <time>2021-10-10T14:09:23.949Z</time>
      </trkpt>
      <trkpt lat="45.36674" lon="5.11045">
        <ele>329</ele>
        <time>2021-10-10T14:09:27.960Z</time>
      </trkpt>
      <trkpt lat="45.36661" lon="5.11043">
        <ele>329</ele>
        <time>2021-10-10T14:09:32.980Z</time>
      </trkpt>
      <trkpt lat="45.36643" lon="5.11056">
        <ele>334</ele>
        <time>2021-10-10T14:09:37.009Z</time>
      </trkpt>
      <trkpt lat="45.36615" lon="5.11072">
        <ele>335</ele>
        <time>2021-10-10T14:09:41.997Z</time>
      </trkpt>
      <trkpt lat="45.36579" lon="5.11053">
        <ele>335</ele>
        <time>2021-10-10T14:09:46.993Z</time>
      </trkpt>
      <trkpt lat="45.36557" lon="5.1106">
        <ele>334</ele>
        <time>2021-10-10T14:09:50.996Z</time>
      </trkpt>
      <trkpt lat="45.3653" lon="5.11067">
        <ele>334</ele>
        <time>2021-10-10T14:09:55.993Z</time>
      </trkpt>
      <trkpt lat="45.36506" lon="5.11073">
        <ele>333</ele>
        <time>2021-10-10T14:10:00.976Z</time>
      </trkpt>
      <trkpt lat="45.36482" lon="5.11087">
        <ele>333</ele>
        <time>2021-10-10T14:10:05.943Z</time>
      </trkpt>
      <trkpt lat="45.36461" lon="5.11105">
        <ele>334</ele>
        <time>2021-10-10T14:10:10.991Z</time>
      </trkpt>
      <trkpt lat="45.36447" lon="5.11121">
        <ele>335</ele>
        <time>2021-10-10T14:10:15.981Z</time>
      </trkpt>
      <trkpt lat="45.36441" lon="5.11126">
        <ele>335</ele>
        <time>2021-10-10T14:10:19.980Z</time>
      </trkpt>
      <trkpt lat="45.36435" lon="5.11128">
        <ele>335</ele>
        <time>2021-10-10T14:10:24.941Z</time>
      </trkpt>
      <trkpt lat="45.36429" lon="5.11125">
        <ele>334</ele>
        <time>2021-10-10T14:10:28.988Z</time>
      </trkpt>
      <trkpt lat="45.36423" lon="5.11119">
        <ele>334</ele>
        <time>2021-10-10T14:10:33.987Z</time>
      </trkpt>
      <trkpt lat="45.36418" lon="5.11114">
        <ele>334</ele>
        <time>2021-10-10T14:10:37.990Z</time>
      </trkpt>
      <trkpt lat="45.36413" lon="5.11108">
        <ele>334</ele>
        <time>2021-10-10T14:10:41.992Z</time>
      </trkpt>
      <trkpt lat="45.36406" lon="5.11103">
        <ele>334</ele>
        <time>2021-10-10T14:10:46.998Z</time>
      </trkpt>
      <trkpt lat="45.36399" lon="5.11095">
        <ele>334</ele>
        <time>2021-10-10T14:10:51.992Z</time>
      </trkpt>
      <trkpt lat="45.36393" lon="5.11089">
        <ele>334</ele>
        <time>2021-10-10T14:10:57Z</time>
      </trkpt>
      <trkpt lat="45.36388" lon="5.11084">
        <ele>334</ele>
        <time>2021-10-10T14:11:01.009Z</time>
      </trkpt>
      <trkpt lat="45.36383" lon="5.11077">
        <ele>334</ele>
        <time>2021-10-10T14:11:05.994Z</time>
      </trkpt>
      <trkpt lat="45.36378" lon="5.11071">
        <ele>334</ele>
        <time>2021-10-10T14:11:10.002Z</time>
      </trkpt>
      <trkpt lat="45.36369" lon="5.11063">
        <ele>334</ele>
        <time>2021-10-10T14:11:14.997Z</time>
      </trkpt>
      <trkpt lat="45.36364" lon="5.11055">
        <ele>334</ele>
        <time>2021-10-10T14:11:19.013Z</time>
      </trkpt>
      <trkpt lat="45.36359" lon="5.11049">
        <ele>334</ele>
        <time>2021-10-10T14:11:23.988Z</time>
      </trkpt>
      <trkpt lat="45.36354" lon="5.11042">
        <ele>334</ele>
        <time>2021-10-10T14:11:28.990Z</time>
      </trkpt>
      <trkpt lat="45.36348" lon="5.11035">
        <ele>332</ele>
        <time>2021-10-10T14:11:33.980Z</time>
      </trkpt>
      <trkpt lat="45.36342" lon="5.1103">
        <ele>331</ele>
        <time>2021-10-10T14:11:38.986Z</time>
      </trkpt>
      <trkpt lat="45.36336" lon="5.11027">
        <ele>331</ele>
        <time>2021-10-10T14:11:43.007Z</time>
      </trkpt>
      <trkpt lat="45.3633" lon="5.11033">
        <ele>331</ele>
        <time>2021-10-10T14:11:48.002Z</time>
      </trkpt>
      <trkpt lat="45.36325" lon="5.11046">
        <ele>333</ele>
        <time>2021-10-10T14:11:53Z</time>
      </trkpt>
      <trkpt lat="45.36321" lon="5.11051">
        <ele>333</ele>
        <time>2021-10-10T14:11:56.995Z</time>
      </trkpt>
      <trkpt lat="45.36314" lon="5.11058">
        <ele>331</ele>
        <time>2021-10-10T14:12:01.988Z</time>
      </trkpt>
      <trkpt lat="45.36304" lon="5.11057">
        <ele>331</ele>
        <time>2021-10-10T14:12:06.983Z</time>
      </trkpt>
      <trkpt lat="45.36292" lon="5.11053">
        <ele>331</ele>
        <time>2021-10-10T14:12:11.993Z</time>
      </trkpt>
      <trkpt lat="45.36279" lon="5.11042">
        <ele>327</ele>
        <time>2021-10-10T14:12:16.996Z</time>
      </trkpt>
      <trkpt lat="45.36261" lon="5.11023">
        <ele>324</ele>
        <time>2021-10-10T14:12:22.005Z</time>
      </trkpt>
      <trkpt lat="45.3625" lon="5.11014">
        <ele>324</ele>
        <time>2021-10-10T14:12:26.951Z</time>
      </trkpt>
      <trkpt lat="45.3621" lon="5.10935">
        <ele>328</ele>
        <time>2021-10-10T14:12:31.984Z</time>
      </trkpt>
      <trkpt lat="45.36191" lon="5.10907">
        <ele>326</ele>
        <time>2021-10-10T14:12:35.992Z</time>
      </trkpt>
      <trkpt lat="45.36174" lon="5.10878">
        <ele>326</ele>
        <time>2021-10-10T14:12:40.007Z</time>
      </trkpt>
      <trkpt lat="45.36154" lon="5.10846">
        <ele>329</ele>
        <time>2021-10-10T14:12:45.001Z</time>
      </trkpt>
      <trkpt lat="45.36143" lon="5.10831">
        <ele>328</ele>
        <time>2021-10-10T14:12:49.970Z</time>
      </trkpt>
      <trkpt lat="45.36141" lon="5.10829">
        <ele>328</ele>
        <time>2021-10-10T14:12:53.995Z</time>
      </trkpt>
      <trkpt lat="45.36135" lon="5.10826">
        <ele>328</ele>
        <time>2021-10-10T14:12:59.002Z</time>
      </trkpt>
      <trkpt lat="45.36129" lon="5.10819">
        <ele>330</ele>
        <time>2021-10-10T14:13:03.982Z</time>
      </trkpt>
      <trkpt lat="45.36119" lon="5.10808">
        <ele>328</ele>
        <time>2021-10-10T14:13:09.001Z</time>
      </trkpt>
      <trkpt lat="45.36104" lon="5.10791">
        <ele>329</ele>
        <time>2021-10-10T14:13:13.986Z</time>
      </trkpt>
      <trkpt lat="45.36095" lon="5.10784">
        <ele>327</ele>
        <time>2021-10-10T14:13:17.992Z</time>
      </trkpt>
      <trkpt lat="45.36081" lon="5.10776">
        <ele>327</ele>
        <time>2021-10-10T14:13:22.982Z</time>
      </trkpt>
      <trkpt lat="45.36068" lon="5.1077">
        <ele>323</ele>
        <time>2021-10-10T14:13:27Z</time>
      </trkpt>
      <trkpt lat="45.36024" lon="5.10727">
        <ele>328</ele>
        <time>2021-10-10T14:13:31.004Z</time>
      </trkpt>
      <trkpt lat="45.35998" lon="5.10708">
        <ele>328</ele>
        <time>2021-10-10T14:13:35.985Z</time>
      </trkpt>
      <trkpt lat="45.35991" lon="5.10703">
        <ele>328</ele>
        <time>2021-10-10T14:13:41.035Z</time>
      </trkpt>
      <trkpt lat="45.35987" lon="5.10702">
        <ele>328</ele>
        <time>2021-10-10T14:13:45.987Z</time>
      </trkpt>
      <trkpt lat="45.35981" lon="5.10698">
        <ele>328</ele>
        <time>2021-10-10T14:13:50.005Z</time>
      </trkpt>
      <trkpt lat="45.35974" lon="5.10694">
        <ele>328</ele>
        <time>2021-10-10T14:13:54.993Z</time>
      </trkpt>
      <trkpt lat="45.35966" lon="5.10692">
        <ele>328</ele>
        <time>2021-10-10T14:13:59.995Z</time>
      </trkpt>
      <trkpt lat="45.35959" lon="5.10691">
        <ele>328</ele>
        <time>2021-10-10T14:14:04.941Z</time>
      </trkpt>
      <trkpt lat="45.35953" lon="5.10689">
        <ele>326</ele>
        <time>2021-10-10T14:14:08.945Z</time>
      </trkpt>
      <trkpt lat="45.35948" lon="5.10688">
        <ele>326</ele>
        <time>2021-10-10T14:14:12.987Z</time>
      </trkpt>
      <trkpt lat="45.35936" lon="5.10685">
        <ele>326</ele>
        <time>2021-10-10T14:14:17.984Z</time>
      </trkpt>
      <trkpt lat="45.3592" lon="5.10671">
        <ele>325</ele>
        <time>2021-10-10T14:14:21.993Z</time>
      </trkpt>
      <trkpt lat="45.35912" lon="5.10664">
        <ele>325</ele>
        <time>2021-10-10T14:14:26.986Z</time>
      </trkpt>
      <trkpt lat="45.35905" lon="5.10658">
        <ele>325</ele>
        <time>2021-10-10T14:14:31.004Z</time>
      </trkpt>
      <trkpt lat="45.35857" lon="5.10602">
        <ele>326</ele>
        <time>2021-10-10T14:14:35.998Z</time>
      </trkpt>
      <trkpt lat="45.35836" lon="5.10591">
        <ele>327</ele>
        <time>2021-10-10T14:14:40.001Z</time>
      </trkpt>
      <trkpt lat="45.35817" lon="5.10561">
        <ele>324</ele>
        <time>2021-10-10T14:14:44.996Z</time>
      </trkpt>
      <trkpt lat="45.35814" lon="5.10529">
        <ele>327</ele>
        <time>2021-10-10T14:14:49.985Z</time>
      </trkpt>
      <trkpt lat="45.35821" lon="5.10514">
        <ele>328</ele>
        <time>2021-10-10T14:14:54.995Z</time>
      </trkpt>
      <trkpt lat="45.35827" lon="5.10507">
        <ele>329</ele>
        <time>2021-10-10T14:14:59.981Z</time>
      </trkpt>
      <trkpt lat="45.35833" lon="5.10501">
        <ele>329</ele>
        <time>2021-10-10T14:15:04.995Z</time>
      </trkpt>
      <trkpt lat="45.3584" lon="5.10496">
        <ele>329</ele>
        <time>2021-10-10T14:15:09.985Z</time>
      </trkpt>
      <trkpt lat="45.35847" lon="5.10491">
        <ele>329</ele>
        <time>2021-10-10T14:15:14.952Z</time>
      </trkpt>
      <trkpt lat="45.35852" lon="5.10486">
        <ele>327</ele>
        <time>2021-10-10T14:15:18.975Z</time>
      </trkpt>
      <trkpt lat="45.35857" lon="5.10482">
        <ele>327</ele>
        <time>2021-10-10T14:15:22.986Z</time>
      </trkpt>
      <trkpt lat="45.35864" lon="5.10475">
        <ele>327</ele>
        <time>2021-10-10T14:15:27.987Z</time>
      </trkpt>
      <trkpt lat="45.3587" lon="5.1047">
        <ele>327</ele>
        <time>2021-10-10T14:15:31.993Z</time>
      </trkpt>
      <trkpt lat="45.35875" lon="5.10464">
        <ele>327</ele>
        <time>2021-10-10T14:15:36.001Z</time>
      </trkpt>
      <trkpt lat="45.35878" lon="5.10453">
        <ele>326</ele>
        <time>2021-10-10T14:15:40.983Z</time>
      </trkpt>
      <trkpt lat="45.35877" lon="5.10443">
        <ele>326</ele>
        <time>2021-10-10T14:15:44.999Z</time>
      </trkpt>
      <trkpt lat="45.35874" lon="5.10434">
        <ele>325</ele>
        <time>2021-10-10T14:15:50.985Z</time>
      </trkpt>
      <trkpt lat="45.35865" lon="5.10436">
        <ele>325</ele>
        <time>2021-10-10T14:15:54.996Z</time>
      </trkpt>
      <trkpt lat="45.35862" lon="5.10437">
        <ele>325</ele>
        <time>2021-10-10T14:15:59.996Z</time>
      </trkpt>
      <trkpt lat="45.35855" lon="5.10436">
        <ele>325</ele>
        <time>2021-10-10T14:16:04.954Z</time>
      </trkpt>
      <trkpt lat="45.35849" lon="5.10433">
        <ele>325</ele>
        <time>2021-10-10T14:16:09.006Z</time>
      </trkpt>
      <trkpt lat="45.35842" lon="5.10429">
        <ele>322</ele>
        <time>2021-10-10T14:16:13.997Z</time>
      </trkpt>
      <trkpt lat="45.35839" lon="5.10426">
        <ele>322</ele>
        <time>2021-10-10T14:16:17.997Z</time>
      </trkpt>
      <trkpt lat="45.35834" lon="5.10421">
        <ele>322</ele>
        <time>2021-10-10T14:16:23Z</time>
      </trkpt>
      <trkpt lat="45.35829" lon="5.10418">
        <ele>322</ele>
        <time>2021-10-10T14:16:27.997Z</time>
      </trkpt>
      <trkpt lat="45.35824" lon="5.10414">
        <ele>322</ele>
        <time>2021-10-10T14:16:33.018Z</time>
      </trkpt>
      <trkpt lat="45.3582" lon="5.10412">
        <ele>322</ele>
        <time>2021-10-10T14:16:37.985Z</time>
      </trkpt>
      <trkpt lat="45.35817" lon="5.10407">
        <ele>320</ele>
        <time>2021-10-10T14:16:42.984Z</time>
      </trkpt>
      <trkpt lat="45.35812" lon="5.10404">
        <ele>320</ele>
        <time>2021-10-10T14:16:48.012Z</time>
      </trkpt>
      <trkpt lat="45.35807" lon="5.10402">
        <ele>320</ele>
        <time>2021-10-10T14:16:52.968Z</time>
      </trkpt>
      <trkpt lat="45.35803" lon="5.10401">
        <ele>320</ele>
        <time>2021-10-10T14:16:56.981Z</time>
      </trkpt>
      <trkpt lat="45.35797" lon="5.10404">
        <ele>320</ele>
        <time>2021-10-10T14:17:01.958Z</time>
      </trkpt>
      <trkpt lat="45.35792" lon="5.10403">
        <ele>320</ele>
        <time>2021-10-10T14:17:06.958Z</time>
      </trkpt>
      <trkpt lat="45.35788" lon="5.10403">
        <ele>317</ele>
        <time>2021-10-10T14:17:10.968Z</time>
      </trkpt>
      <trkpt lat="45.35783" lon="5.10401">
        <ele>319</ele>
        <time>2021-10-10T14:17:14.990Z</time>
      </trkpt>
      <trkpt lat="45.35776" lon="5.10401">
        <ele>319</ele>
        <time>2021-10-10T14:17:19.972Z</time>
      </trkpt>
      <trkpt lat="45.3577" lon="5.10401">
        <ele>319</ele>
        <time>2021-10-10T14:17:24.997Z</time>
      </trkpt>
      <trkpt lat="45.35764" lon="5.10399">
        <ele>315</ele>
        <time>2021-10-10T14:17:29.997Z</time>
      </trkpt>
      <trkpt lat="45.35757" lon="5.10399">
        <ele>315</ele>
        <time>2021-10-10T14:17:34.981Z</time>
      </trkpt>
      <trkpt lat="45.35753" lon="5.104">
        <ele>315</ele>
        <time>2021-10-10T14:17:38.991Z</time>
      </trkpt>
      <trkpt lat="45.35747" lon="5.104">
        <ele>315</ele>
        <time>2021-10-10T14:17:43.955Z</time>
      </trkpt>
      <trkpt lat="45.35741" lon="5.10401">
        <ele>315</ele>
        <time>2021-10-10T14:17:48.949Z</time>
      </trkpt>
      <trkpt lat="45.35737" lon="5.10403">
        <ele>313</ele>
        <time>2021-10-10T14:17:52.989Z</time>
      </trkpt>
      <trkpt lat="45.35731" lon="5.10407">
        <ele>307</ele>
        <time>2021-10-10T14:17:57.998Z</time>
      </trkpt>
      <trkpt lat="45.35725" lon="5.10409">
        <ele>307</ele>
        <time>2021-10-10T14:18:02.987Z</time>
      </trkpt>
      <trkpt lat="45.35719" lon="5.10411">
        <ele>307</ele>
        <time>2021-10-10T14:18:07.958Z</time>
      </trkpt>
      <trkpt lat="45.35714" lon="5.10412">
        <ele>307</ele>
        <time>2021-10-10T14:18:11.981Z</time>
      </trkpt>
      <trkpt lat="45.35708" lon="5.10412">
        <ele>303</ele>
        <time>2021-10-10T14:18:16.979Z</time>
      </trkpt>
      <trkpt lat="45.35703" lon="5.10411">
        <ele>303</ele>
        <time>2021-10-10T14:18:20.988Z</time>
      </trkpt>
      <trkpt lat="45.35697" lon="5.10408">
        <ele>303</ele>
        <time>2021-10-10T14:18:25.980Z</time>
      </trkpt>
      <trkpt lat="45.35691" lon="5.10408">
        <ele>303</ele>
        <time>2021-10-10T14:18:29.994Z</time>
      </trkpt>
      <trkpt lat="45.35685" lon="5.10407">
        <ele>303</ele>
        <time>2021-10-10T14:18:34.987Z</time>
      </trkpt>
      <trkpt lat="45.35678" lon="5.10408">
        <ele>298</ele>
        <time>2021-10-10T14:18:39.956Z</time>
      </trkpt>
      <trkpt lat="45.35673" lon="5.1041">
        <ele>298</ele>
        <time>2021-10-10T14:18:43.958Z</time>
      </trkpt>
      <trkpt lat="45.35667" lon="5.10416">
        <ele>298</ele>
        <time>2021-10-10T14:18:48.959Z</time>
      </trkpt>
      <trkpt lat="45.35671" lon="5.10429">
        <ele>298</ele>
        <time>2021-10-10T14:18:52.957Z</time>
      </trkpt>
      <trkpt lat="45.35675" lon="5.10437">
        <ele>296</ele>
        <time>2021-10-10T14:18:56.957Z</time>
      </trkpt>
      <trkpt lat="45.3568" lon="5.10446">
        <ele>296</ele>
        <time>2021-10-10T14:19:01.957Z</time>
      </trkpt>
      <trkpt lat="45.35684" lon="5.10452">
        <ele>301</ele>
        <time>2021-10-10T14:19:05.991Z</time>
      </trkpt>
      <trkpt lat="45.35689" lon="5.1046">
        <ele>300</ele>
        <time>2021-10-10T14:19:10.998Z</time>
      </trkpt>
      <trkpt lat="45.35693" lon="5.10471">
        <ele>300</ele>
        <time>2021-10-10T14:19:15.980Z</time>
      </trkpt>
      <trkpt lat="45.35696" lon="5.10484">
        <ele>300</ele>
        <time>2021-10-10T14:19:20.982Z</time>
      </trkpt>
      <trkpt lat="45.35698" lon="5.10492">
        <ele>298</ele>
        <time>2021-10-10T14:19:24.979Z</time>
      </trkpt>
      <trkpt lat="45.35699" lon="5.10503">
        <ele>298</ele>
        <time>2021-10-10T14:19:28.997Z</time>
      </trkpt>
      <trkpt lat="45.35705" lon="5.10514">
        <ele>295</ele>
        <time>2021-10-10T14:19:33.966Z</time>
      </trkpt>
      <trkpt lat="45.3571" lon="5.10523">
        <ele>305</ele>
        <time>2021-10-10T14:19:37.981Z</time>
      </trkpt>
      <trkpt lat="45.35716" lon="5.10534">
        <ele>305</ele>
        <time>2021-10-10T14:19:42.983Z</time>
      </trkpt>
      <trkpt lat="45.35722" lon="5.10543">
        <ele>300</ele>
        <time>2021-10-10T14:19:47.966Z</time>
      </trkpt>
      <trkpt lat="45.35733" lon="5.10547">
        <ele>300</ele>
        <time>2021-10-10T14:19:52.990Z</time>
      </trkpt>
      <trkpt lat="45.3574" lon="5.10552">
        <ele>309</ele>
        <time>2021-10-10T14:19:56.989Z</time>
      </trkpt>
      <trkpt lat="45.35747" lon="5.10559">
        <ele>309</ele>
        <time>2021-10-10T14:20:01.986Z</time>
      </trkpt>
      <trkpt lat="45.35754" lon="5.10566">
        <ele>309</ele>
        <time>2021-10-10T14:20:06.002Z</time>
      </trkpt>
      <trkpt lat="45.35771" lon="5.10581">
        <ele>315</ele>
        <time>2021-10-10T14:20:12.959Z</time>
      </trkpt>
      <trkpt lat="45.35792" lon="5.10597">
        <ele>319</ele>
        <time>2021-10-10T14:20:17.960Z</time>
      </trkpt>
      <trkpt lat="45.35802" lon="5.10604">
        <ele>319</ele>
        <time>2021-10-10T14:20:22.928Z</time>
      </trkpt>
      <trkpt lat="45.35809" lon="5.10611">
        <ele>319</ele>
        <time>2021-10-10T14:20:26.982Z</time>
      </trkpt>
      <trkpt lat="45.35819" lon="5.10621">
        <ele>319</ele>
        <time>2021-10-10T14:20:31.984Z</time>
      </trkpt>
      <trkpt lat="45.35826" lon="5.1063">
        <ele>321</ele>
        <time>2021-10-10T14:20:36.977Z</time>
      </trkpt>
      <trkpt lat="45.35834" lon="5.10641">
        <ele>321</ele>
        <time>2021-10-10T14:20:40.989Z</time>
      </trkpt>
      <trkpt lat="45.35843" lon="5.1065">
        <ele>321</ele>
        <time>2021-10-10T14:20:46.002Z</time>
      </trkpt>
      <trkpt lat="45.35851" lon="5.10665">
        <ele>322</ele>
        <time>2021-10-10T14:20:50.988Z</time>
      </trkpt>
      <trkpt lat="45.3586" lon="5.10678">
        <ele>322</ele>
        <time>2021-10-10T14:20:55.987Z</time>
      </trkpt>
      <trkpt lat="45.3587" lon="5.10691">
        <ele>316</ele>
        <time>2021-10-10T14:21:00.996Z</time>
      </trkpt>
      <trkpt lat="45.3588" lon="5.107">
        <ele>320</ele>
        <time>2021-10-10T14:21:05.955Z</time>
      </trkpt>
      <trkpt lat="45.35888" lon="5.10711">
        <ele>314</ele>
        <time>2021-10-10T14:21:09.982Z</time>
      </trkpt>
      <trkpt lat="45.35895" lon="5.10717">
        <ele>314</ele>
        <time>2021-10-10T14:21:13.989Z</time>
      </trkpt>
      <trkpt lat="45.35903" lon="5.10727">
        <ele>320</ele>
        <time>2021-10-10T14:21:18.989Z</time>
      </trkpt>
      <trkpt lat="45.35912" lon="5.10737">
        <ele>314</ele>
        <time>2021-10-10T14:21:23.993Z</time>
      </trkpt>
      <trkpt lat="45.35919" lon="5.10744">
        <ele>314</ele>
        <time>2021-10-10T14:21:27.992Z</time>
      </trkpt>
      <trkpt lat="45.35928" lon="5.10752">
        <ele>314</ele>
        <time>2021-10-10T14:21:32.979Z</time>
      </trkpt>
      <trkpt lat="45.35936" lon="5.10757">
        <ele>318</ele>
        <time>2021-10-10T14:21:36.978Z</time>
      </trkpt>
      <trkpt lat="45.35945" lon="5.10764">
        <ele>310</ele>
        <time>2021-10-10T14:21:42.001Z</time>
      </trkpt>
      <trkpt lat="45.35954" lon="5.10769">
        <ele>310</ele>
        <time>2021-10-10T14:21:46.980Z</time>
      </trkpt>
      <trkpt lat="45.35965" lon="5.10772">
        <ele>312</ele>
        <time>2021-10-10T14:21:51.995Z</time>
      </trkpt>
      <trkpt lat="45.35973" lon="5.1078">
        <ele>312</ele>
        <time>2021-10-10T14:21:56.952Z</time>
      </trkpt>
      <trkpt lat="45.35979" lon="5.10786">
        <ele>312</ele>
        <time>2021-10-10T14:22:01.002Z</time>
      </trkpt>
      <trkpt lat="45.35986" lon="5.10794">
        <ele>305</ele>
        <time>2021-10-10T14:22:06Z</time>
      </trkpt>
      <trkpt lat="45.35993" lon="5.10803">
        <ele>308</ele>
        <time>2021-10-10T14:22:10.979Z</time>
      </trkpt>
      <trkpt lat="45.36" lon="5.10813">
        <ele>308</ele>
        <time>2021-10-10T14:22:15.980Z</time>
      </trkpt>
      <trkpt lat="45.36007" lon="5.10821">
        <ele>303</ele>
        <time>2021-10-10T14:22:20.969Z</time>
      </trkpt>
      <trkpt lat="45.36013" lon="5.1083">
        <ele>303</ele>
        <time>2021-10-10T14:22:25.968Z</time>
      </trkpt>
      <trkpt lat="45.3602" lon="5.10833">
        <ele>307</ele>
        <time>2021-10-10T14:22:29.981Z</time>
      </trkpt>
      <trkpt lat="45.36028" lon="5.10837">
        <ele>307</ele>
        <time>2021-10-10T14:22:34.978Z</time>
      </trkpt>
      <trkpt lat="45.36037" lon="5.10843">
        <ele>307</ele>
        <time>2021-10-10T14:22:39.949Z</time>
      </trkpt>
      <trkpt lat="45.36047" lon="5.10846">
        <ele>311</ele>
        <time>2021-10-10T14:22:44.956Z</time>
      </trkpt>
      <trkpt lat="45.36056" lon="5.10854">
        <ele>306</ele>
        <time>2021-10-10T14:22:49.950Z</time>
      </trkpt>
      <trkpt lat="45.36061" lon="5.10861">
        <ele>306</ele>
        <time>2021-10-10T14:22:53.959Z</time>
      </trkpt>
      <trkpt lat="45.36141" lon="5.10988">
        <ele>308</ele>
        <time>2021-10-10T14:22:58.958Z</time>
      </trkpt>
      <trkpt lat="45.36155" lon="5.11014">
        <ele>310</ele>
        <time>2021-10-10T14:23:03.947Z</time>
      </trkpt>
      <trkpt lat="45.36162" lon="5.11026">
        <ele>310</ele>
        <time>2021-10-10T14:23:07.952Z</time>
      </trkpt>
      <trkpt lat="45.36167" lon="5.11034">
        <ele>310</ele>
        <time>2021-10-10T14:23:12.948Z</time>
      </trkpt>
      <trkpt lat="45.36172" lon="5.11039">
        <ele>310</ele>
        <time>2021-10-10T14:23:16.957Z</time>
      </trkpt>
      <trkpt lat="45.36175" lon="5.11048">
        <ele>307</ele>
        <time>2021-10-10T14:23:20.956Z</time>
      </trkpt>
      <trkpt lat="45.3618" lon="5.11054">
        <ele>307</ele>
        <time>2021-10-10T14:23:25.959Z</time>
      </trkpt>
      <trkpt lat="45.36184" lon="5.11064">
        <ele>311</ele>
        <time>2021-10-10T14:23:30.953Z</time>
      </trkpt>
      <trkpt lat="45.36186" lon="5.11073">
        <ele>308</ele>
        <time>2021-10-10T14:23:34.952Z</time>
      </trkpt>
      <trkpt lat="45.3619" lon="5.11082">
        <ele>308</ele>
        <time>2021-10-10T14:23:39.954Z</time>
      </trkpt>
      <trkpt lat="45.36193" lon="5.11088">
        <ele>308</ele>
        <time>2021-10-10T14:23:43.983Z</time>
      </trkpt>
      <trkpt lat="45.36198" lon="5.11094">
        <ele>308</ele>
        <time>2021-10-10T14:23:47.992Z</time>
      </trkpt>
      <trkpt lat="45.36204" lon="5.11104">
        <ele>307</ele>
        <time>2021-10-10T14:23:52.985Z</time>
      </trkpt>
      <trkpt lat="45.36208" lon="5.11113">
        <ele>307</ele>
        <time>2021-10-10T14:23:57.992Z</time>
      </trkpt>
      <trkpt lat="45.36211" lon="5.1112">
        <ele>314</ele>
        <time>2021-10-10T14:24:02.975Z</time>
      </trkpt>
      <trkpt lat="45.36214" lon="5.11125">
        <ele>312</ele>
        <time>2021-10-10T14:24:07.003Z</time>
      </trkpt>
      <trkpt lat="45.36219" lon="5.11134">
        <ele>312</ele>
        <time>2021-10-10T14:24:11.971Z</time>
      </trkpt>
      <trkpt lat="45.36225" lon="5.11143">
        <ele>312</ele>
        <time>2021-10-10T14:24:16.984Z</time>
      </trkpt>
      <trkpt lat="45.36228" lon="5.11152">
        <ele>312</ele>
        <time>2021-10-10T14:24:21.988Z</time>
      </trkpt>
      <trkpt lat="45.36232" lon="5.11159">
        <ele>310</ele>
        <time>2021-10-10T14:24:26.990Z</time>
      </trkpt>
      <trkpt lat="45.36236" lon="5.11167">
        <ele>310</ele>
        <time>2021-10-10T14:24:31.977Z</time>
      </trkpt>
      <trkpt lat="45.36241" lon="5.1118">
        <ele>317</ele>
        <time>2021-10-10T14:24:36.975Z</time>
      </trkpt>
      <trkpt lat="45.36242" lon="5.11193">
        <ele>313</ele>
        <time>2021-10-10T14:24:41.994Z</time>
      </trkpt>
      <trkpt lat="45.36235" lon="5.11209">
        <ele>307</ele>
        <time>2021-10-10T14:24:46.982Z</time>
      </trkpt>
      <trkpt lat="45.36229" lon="5.1122">
        <ele>307</ele>
        <time>2021-10-10T14:24:51.954Z</time>
      </trkpt>
      <trkpt lat="45.36225" lon="5.11227">
        <ele>307</ele>
        <time>2021-10-10T14:24:55.988Z</time>
      </trkpt>
      <trkpt lat="45.36222" lon="5.11234">
        <ele>307</ele>
        <time>2021-10-10T14:25:00Z</time>
      </trkpt>
      <trkpt lat="45.36217" lon="5.11241">
        <ele>306</ele>
        <time>2021-10-10T14:25:04.993Z</time>
      </trkpt>
      <trkpt lat="45.36215" lon="5.11246">
        <ele>306</ele>
        <time>2021-10-10T14:25:09.004Z</time>
      </trkpt>
      <trkpt lat="45.36213" lon="5.11251">
        <ele>306</ele>
        <time>2021-10-10T14:25:13.992Z</time>
      </trkpt>
      <trkpt lat="45.36211" lon="5.11261">
        <ele>306</ele>
        <time>2021-10-10T14:25:18.001Z</time>
      </trkpt>
      <trkpt lat="45.3621" lon="5.11269">
        <ele>306</ele>
        <time>2021-10-10T14:25:22.991Z</time>
      </trkpt>
      <trkpt lat="45.36216" lon="5.11281">
        <ele>306</ele>
        <time>2021-10-10T14:25:27.984Z</time>
      </trkpt>
      <trkpt lat="45.36221" lon="5.11293">
        <ele>308</ele>
        <time>2021-10-10T14:25:31.981Z</time>
      </trkpt>
      <trkpt lat="45.36234" lon="5.11308">
        <ele>308</ele>
        <time>2021-10-10T14:25:36.990Z</time>
      </trkpt>
      <trkpt lat="45.36245" lon="5.11321">
        <ele>309</ele>
        <time>2021-10-10T14:25:41.963Z</time>
      </trkpt>
      <trkpt lat="45.3625" lon="5.11329">
        <ele>309</ele>
        <time>2021-10-10T14:25:45.994Z</time>
      </trkpt>
      <trkpt lat="45.36257" lon="5.11337">
        <ele>309</ele>
        <time>2021-10-10T14:25:50.982Z</time>
      </trkpt>
      <trkpt lat="45.36264" lon="5.11342">
        <ele>308</ele>
        <time>2021-10-10T14:25:56.002Z</time>
      </trkpt>
      <trkpt lat="45.3627" lon="5.11348">
        <ele>310</ele>
        <time>2021-10-10T14:26:00.988Z</time>
      </trkpt>
      <trkpt lat="45.36275" lon="5.11352">
        <ele>310</ele>
        <time>2021-10-10T14:26:05.009Z</time>
      </trkpt>
      <trkpt lat="45.36281" lon="5.11357">
        <ele>310</ele>
        <time>2021-10-10T14:26:09.988Z</time>
      </trkpt>
      <trkpt lat="45.36289" lon="5.11361">
        <ele>310</ele>
        <time>2021-10-10T14:26:14.954Z</time>
      </trkpt>
      <trkpt lat="45.36294" lon="5.11364">
        <ele>309</ele>
        <time>2021-10-10T14:26:18.988Z</time>
      </trkpt>
      <trkpt lat="45.36299" lon="5.11368">
        <ele>309</ele>
        <time>2021-10-10T14:26:23.002Z</time>
      </trkpt>
      <trkpt lat="45.36305" lon="5.11373">
        <ele>309</ele>
        <time>2021-10-10T14:26:27.985Z</time>
      </trkpt>
      <trkpt lat="45.36313" lon="5.11379">
        <ele>312</ele>
        <time>2021-10-10T14:26:32.978Z</time>
      </trkpt>
      <trkpt lat="45.36322" lon="5.11383">
        <ele>310</ele>
        <time>2021-10-10T14:26:36.996Z</time>
      </trkpt>
      <trkpt lat="45.36329" lon="5.1139">
        <ele>310</ele>
        <time>2021-10-10T14:26:41.976Z</time>
      </trkpt>
      <trkpt lat="45.36333" lon="5.11393">
        <ele>310</ele>
        <time>2021-10-10T14:26:45.986Z</time>
      </trkpt>
      <trkpt lat="45.36339" lon="5.11399">
        <ele>310</ele>
        <time>2021-10-10T14:26:50.973Z</time>
      </trkpt>
      <trkpt lat="45.36344" lon="5.11404">
        <ele>313</ele>
        <time>2021-10-10T14:26:54.989Z</time>
      </trkpt>
      <trkpt lat="45.3635" lon="5.1141">
        <ele>310</ele>
        <time>2021-10-10T14:26:59.978Z</time>
      </trkpt>
      <trkpt lat="45.36355" lon="5.11413">
        <ele>310</ele>
        <time>2021-10-10T14:27:03.987Z</time>
      </trkpt>
      <trkpt lat="45.36365" lon="5.11418">
        <ele>310</ele>
        <time>2021-10-10T14:27:08.985Z</time>
      </trkpt>
      <trkpt lat="45.3637" lon="5.11425">
        <ele>310</ele>
        <time>2021-10-10T14:27:13.970Z</time>
      </trkpt>
      <trkpt lat="45.36375" lon="5.11429">
        <ele>310</ele>
        <time>2021-10-10T14:27:17.991Z</time>
      </trkpt>
      <trkpt lat="45.36381" lon="5.11437">
        <ele>314</ele>
        <time>2021-10-10T14:27:22.989Z</time>
      </trkpt>
      <trkpt lat="45.36387" lon="5.11442">
        <ele>314</ele>
        <time>2021-10-10T14:27:27.976Z</time>
      </trkpt>
      <trkpt lat="45.36391" lon="5.11446">
        <ele>314</ele>
        <time>2021-10-10T14:27:31.982Z</time>
      </trkpt>
      <trkpt lat="45.36397" lon="5.11452">
        <ele>314</ele>
        <time>2021-10-10T14:27:36.974Z</time>
      </trkpt>
      <trkpt lat="45.36405" lon="5.11457">
        <ele>317</ele>
        <time>2021-10-10T14:27:41.978Z</time>
      </trkpt>
      <trkpt lat="45.36411" lon="5.11463">
        <ele>318</ele>
        <time>2021-10-10T14:27:46.988Z</time>
      </trkpt>
      <trkpt lat="45.36417" lon="5.11466">
        <ele>318</ele>
        <time>2021-10-10T14:27:50.991Z</time>
      </trkpt>
      <trkpt lat="45.36424" lon="5.11471">
        <ele>318</ele>
        <time>2021-10-10T14:27:55.986Z</time>
      </trkpt>
      <trkpt lat="45.36431" lon="5.11473">
        <ele>319</ele>
        <time>2021-10-10T14:28:00.982Z</time>
      </trkpt>
      <trkpt lat="45.36437" lon="5.11475">
        <ele>319</ele>
        <time>2021-10-10T14:28:04.999Z</time>
      </trkpt>
      <trkpt lat="45.36446" lon="5.11475">
        <ele>319</ele>
        <time>2021-10-10T14:28:09.986Z</time>
      </trkpt>
      <trkpt lat="45.36455" lon="5.11477">
        <ele>319</ele>
        <time>2021-10-10T14:28:13.998Z</time>
      </trkpt>
      <trkpt lat="45.36463" lon="5.11479">
        <ele>322</ele>
        <time>2021-10-10T14:28:18.989Z</time>
      </trkpt>
      <trkpt lat="45.36468" lon="5.11482">
        <ele>322</ele>
        <time>2021-10-10T14:28:22.985Z</time>
      </trkpt>
      <trkpt lat="45.36476" lon="5.11482">
        <ele>322</ele>
        <time>2021-10-10T14:28:27.990Z</time>
      </trkpt>
      <trkpt lat="45.36481" lon="5.11485">
        <ele>322</ele>
        <time>2021-10-10T14:28:31.997Z</time>
      </trkpt>
      <trkpt lat="45.3649" lon="5.1149">
        <ele>319</ele>
        <time>2021-10-10T14:28:36.996Z</time>
      </trkpt>
      <trkpt lat="45.36499" lon="5.11494">
        <ele>319</ele>
        <time>2021-10-10T14:28:41.979Z</time>
      </trkpt>
      <trkpt lat="45.36513" lon="5.11503">
        <ele>319</ele>
        <time>2021-10-10T14:28:46.963Z</time>
      </trkpt>
      <trkpt lat="45.36525" lon="5.11514">
        <ele>320</ele>
        <time>2021-10-10T14:28:50.997Z</time>
      </trkpt>
      <trkpt lat="45.3654" lon="5.11531">
        <ele>319</ele>
        <time>2021-10-10T14:28:55.987Z</time>
      </trkpt>
      <trkpt lat="45.36558" lon="5.11552">
        <ele>323</ele>
        <time>2021-10-10T14:29:00.992Z</time>
      </trkpt>
      <trkpt lat="45.36572" lon="5.11572">
        <ele>324</ele>
        <time>2021-10-10T14:29:05.987Z</time>
      </trkpt>
      <trkpt lat="45.36584" lon="5.11582">
        <ele>324</ele>
        <time>2021-10-10T14:29:09.995Z</time>
      </trkpt>
      <trkpt lat="45.36603" lon="5.11595">
        <ele>325</ele>
        <time>2021-10-10T14:29:14.988Z</time>
      </trkpt>
      <trkpt lat="45.36619" lon="5.11609">
        <ele>324</ele>
        <time>2021-10-10T14:29:19.975Z</time>
      </trkpt>
      <trkpt lat="45.36631" lon="5.11623">
        <ele>325</ele>
        <time>2021-10-10T14:29:24.988Z</time>
      </trkpt>
      <trkpt lat="45.36639" lon="5.11633">
        <ele>327</ele>
        <time>2021-10-10T14:29:29.981Z</time>
      </trkpt>
      <trkpt lat="45.36649" lon="5.11642">
        <ele>327</ele>
        <time>2021-10-10T14:29:34.975Z</time>
      </trkpt>
      <trkpt lat="45.36658" lon="5.11654">
        <ele>328</ele>
        <time>2021-10-10T14:29:39.970Z</time>
      </trkpt>
      <trkpt lat="45.36664" lon="5.11659">
        <ele>328</ele>
        <time>2021-10-10T14:29:43.973Z</time>
      </trkpt>
      <trkpt lat="45.3667" lon="5.11666">
        <ele>328</ele>
        <time>2021-10-10T14:29:49.001Z</time>
      </trkpt>
      <trkpt lat="45.36677" lon="5.11673">
        <ele>328</ele>
        <time>2021-10-10T14:29:53.984Z</time>
      </trkpt>
      <trkpt lat="45.36682" lon="5.11681">
        <ele>330</ele>
        <time>2021-10-10T14:29:58.982Z</time>
      </trkpt>
      <trkpt lat="45.36689" lon="5.11693">
        <ele>330</ele>
        <time>2021-10-10T14:30:03.947Z</time>
      </trkpt>
      <trkpt lat="45.36693" lon="5.117">
        <ele>330</ele>
        <time>2021-10-10T14:30:07.955Z</time>
      </trkpt>
      <trkpt lat="45.36698" lon="5.11708">
        <ele>330</ele>
        <time>2021-10-10T14:30:12.957Z</time>
      </trkpt>
      <trkpt lat="45.36705" lon="5.11721">
        <ele>333</ele>
        <time>2021-10-10T14:30:17.979Z</time>
      </trkpt>
      <trkpt lat="45.36709" lon="5.1173">
        <ele>335</ele>
        <time>2021-10-10T14:30:22.953Z</time>
      </trkpt>
      <trkpt lat="45.36713" lon="5.11739">
        <ele>336</ele>
        <time>2021-10-10T14:30:27.957Z</time>
      </trkpt>
      <trkpt lat="45.36715" lon="5.11747">
        <ele>336</ele>
        <time>2021-10-10T14:30:31.987Z</time>
      </trkpt>
      <trkpt lat="45.36719" lon="5.11754">
        <ele>336</ele>
        <time>2021-10-10T14:30:36.953Z</time>
      </trkpt>
      <trkpt lat="45.36723" lon="5.11764">
        <ele>336</ele>
        <time>2021-10-10T14:30:41.966Z</time>
      </trkpt>
      <trkpt lat="45.36726" lon="5.11772">
        <ele>336</ele>
        <time>2021-10-10T14:30:45.993Z</time>
      </trkpt>
      <trkpt lat="45.3673" lon="5.11781">
        <ele>336</ele>
        <time>2021-10-10T14:30:50.982Z</time>
      </trkpt>
      <trkpt lat="45.36734" lon="5.11786">
        <ele>336</ele>
        <time>2021-10-10T14:30:55.004Z</time>
      </trkpt>
      <trkpt lat="45.36739" lon="5.11794">
        <ele>334</ele>
        <time>2021-10-10T14:30:59.998Z</time>
      </trkpt>
      <trkpt lat="45.36745" lon="5.11802">
        <ele>334</ele>
        <time>2021-10-10T14:31:05.006Z</time>
      </trkpt>
      <trkpt lat="45.36751" lon="5.11811">
        <ele>334</ele>
        <time>2021-10-10T14:31:09.993Z</time>
      </trkpt>
      <trkpt lat="45.36756" lon="5.11818">
        <ele>334</ele>
        <time>2021-10-10T14:31:14.958Z</time>
      </trkpt>
      <trkpt lat="45.3676" lon="5.11825">
        <ele>334</ele>
        <time>2021-10-10T14:31:18.956Z</time>
      </trkpt>
      <trkpt lat="45.36765" lon="5.11833">
        <ele>334</ele>
        <time>2021-10-10T14:31:23.987Z</time>
      </trkpt>
      <trkpt lat="45.36768" lon="5.11844">
        <ele>334</ele>
        <time>2021-10-10T14:31:28.956Z</time>
      </trkpt>
      <trkpt lat="45.36772" lon="5.11854">
        <ele>335</ele>
        <time>2021-10-10T14:31:33.955Z</time>
      </trkpt>
      <trkpt lat="45.36774" lon="5.11861">
        <ele>335</ele>
        <time>2021-10-10T14:31:37.991Z</time>
      </trkpt>
      <trkpt lat="45.36775" lon="5.11871">
        <ele>335</ele>
        <time>2021-10-10T14:31:42.956Z</time>
      </trkpt>
      <trkpt lat="45.36775" lon="5.11884">
        <ele>335</ele>
        <time>2021-10-10T14:31:47.983Z</time>
      </trkpt>
      <trkpt lat="45.36777" lon="5.11891">
        <ele>335</ele>
        <time>2021-10-10T14:31:51.986Z</time>
      </trkpt>
      <trkpt lat="45.36781" lon="5.11902">
        <ele>335</ele>
        <time>2021-10-10T14:31:56.978Z</time>
      </trkpt>
      <trkpt lat="45.36783" lon="5.11912">
        <ele>335</ele>
        <time>2021-10-10T14:32:01.979Z</time>
      </trkpt>
      <trkpt lat="45.36784" lon="5.11923">
        <ele>335</ele>
        <time>2021-10-10T14:32:06.978Z</time>
      </trkpt>
      <trkpt lat="45.36787" lon="5.1193">
        <ele>335</ele>
        <time>2021-10-10T14:32:10.997Z</time>
      </trkpt>
      <trkpt lat="45.3679" lon="5.11939">
        <ele>335</ele>
        <time>2021-10-10T14:32:16.002Z</time>
      </trkpt>
      <trkpt lat="45.36793" lon="5.11949">
        <ele>335</ele>
        <time>2021-10-10T14:32:20.991Z</time>
      </trkpt>
      <trkpt lat="45.36797" lon="5.11959">
        <ele>335</ele>
        <time>2021-10-10T14:32:25.957Z</time>
      </trkpt>
      <trkpt lat="45.36799" lon="5.11968">
        <ele>335</ele>
        <time>2021-10-10T14:32:29.993Z</time>
      </trkpt>
      <trkpt lat="45.36802" lon="5.11975">
        <ele>335</ele>
        <time>2021-10-10T14:32:33.992Z</time>
      </trkpt>
      <trkpt lat="45.36807" lon="5.11982">
        <ele>335</ele>
        <time>2021-10-10T14:32:38.978Z</time>
      </trkpt>
      <trkpt lat="45.36813" lon="5.11991">
        <ele>337</ele>
        <time>2021-10-10T14:32:43.983Z</time>
      </trkpt>
      <trkpt lat="45.36816" lon="5.11998">
        <ele>337</ele>
        <time>2021-10-10T14:32:47.995Z</time>
      </trkpt>
      <trkpt lat="45.36825" lon="5.12016">
        <ele>336</ele>
        <time>2021-10-10T14:32:52.960Z</time>
      </trkpt>
      <trkpt lat="45.36831" lon="5.12036">
        <ele>336</ele>
        <time>2021-10-10T14:32:56.999Z</time>
      </trkpt>
      <trkpt lat="45.36836" lon="5.12054">
        <ele>337</ele>
        <time>2021-10-10T14:33:01.982Z</time>
      </trkpt>
      <trkpt lat="45.3684" lon="5.12064">
        <ele>337</ele>
        <time>2021-10-10T14:33:05.996Z</time>
      </trkpt>
      <trkpt lat="45.36844" lon="5.12077">
        <ele>339</ele>
        <time>2021-10-10T14:33:10.954Z</time>
      </trkpt>
      <trkpt lat="45.36849" lon="5.1209">
        <ele>337</ele>
        <time>2021-10-10T14:33:15.954Z</time>
      </trkpt>
      <trkpt lat="45.36852" lon="5.12104">
        <ele>337</ele>
        <time>2021-10-10T14:33:20.954Z</time>
      </trkpt>
      <trkpt lat="45.36855" lon="5.12113">
        <ele>337</ele>
        <time>2021-10-10T14:33:24.971Z</time>
      </trkpt>
      <trkpt lat="45.3686" lon="5.12126">
        <ele>338</ele>
        <time>2021-10-10T14:33:29.979Z</time>
      </trkpt>
      <trkpt lat="45.36864" lon="5.12135">
        <ele>338</ele>
        <time>2021-10-10T14:33:33.987Z</time>
      </trkpt>
      <trkpt lat="45.36869" lon="5.12147">
        <ele>338</ele>
        <time>2021-10-10T14:33:38.991Z</time>
      </trkpt>
      <trkpt lat="45.36879" lon="5.12171">
        <ele>337</ele>
        <time>2021-10-10T14:33:43.959Z</time>
      </trkpt>
      <trkpt lat="45.36887" lon="5.12192">
        <ele>337</ele>
        <time>2021-10-10T14:33:47.994Z</time>
      </trkpt>
      <trkpt lat="45.36893" lon="5.1221">
        <ele>337</ele>
        <time>2021-10-10T14:33:52.989Z</time>
      </trkpt>
      <trkpt lat="45.36898" lon="5.1222">
        <ele>337</ele>
        <time>2021-10-10T14:33:56.991Z</time>
      </trkpt>
      <trkpt lat="45.36906" lon="5.12231">
        <ele>338</ele>
        <time>2021-10-10T14:34:01.998Z</time>
      </trkpt>
      <trkpt lat="45.36913" lon="5.12247">
        <ele>338</ele>
        <time>2021-10-10T14:34:06.977Z</time>
      </trkpt>
      <trkpt lat="45.36916" lon="5.12255">
        <ele>338</ele>
        <time>2021-10-10T14:34:10.993Z</time>
      </trkpt>
      <trkpt lat="45.36919" lon="5.12267">
        <ele>339</ele>
        <time>2021-10-10T14:34:15.952Z</time>
      </trkpt>
      <trkpt lat="45.3692" lon="5.12278">
        <ele>339</ele>
        <time>2021-10-10T14:34:19.997Z</time>
      </trkpt>
      <trkpt lat="45.36919" lon="5.12292">
        <ele>339</ele>
        <time>2021-10-10T14:34:24.950Z</time>
      </trkpt>
      <trkpt lat="45.36916" lon="5.12305">
        <ele>339</ele>
        <time>2021-10-10T14:34:29Z</time>
      </trkpt>
      <trkpt lat="45.3691" lon="5.12321">
        <ele>340</ele>
        <time>2021-10-10T14:34:33.991Z</time>
      </trkpt>
      <trkpt lat="45.36906" lon="5.12329">
        <ele>340</ele>
        <time>2021-10-10T14:34:37.992Z</time>
      </trkpt>
      <trkpt lat="45.36902" lon="5.12335">
        <ele>341</ele>
        <time>2021-10-10T14:34:42.008Z</time>
      </trkpt>
      <trkpt lat="45.36896" lon="5.12342">
        <ele>341</ele>
        <time>2021-10-10T14:34:46.993Z</time>
      </trkpt>
      <trkpt lat="45.3689" lon="5.12348">
        <ele>342</ele>
        <time>2021-10-10T14:34:51.987Z</time>
      </trkpt>
      <trkpt lat="45.36885" lon="5.12353">
        <ele>342</ele>
        <time>2021-10-10T14:34:55.993Z</time>
      </trkpt>
      <trkpt lat="45.36879" lon="5.12359">
        <ele>342</ele>
        <time>2021-10-10T14:35:00.976Z</time>
      </trkpt>
      <trkpt lat="45.36875" lon="5.12364">
        <ele>342</ele>
        <time>2021-10-10T14:35:04.990Z</time>
      </trkpt>
      <trkpt lat="45.36869" lon="5.12369">
        <ele>342</ele>
        <time>2021-10-10T14:35:09.977Z</time>
      </trkpt>
      <trkpt lat="45.36862" lon="5.12374">
        <ele>342</ele>
        <time>2021-10-10T14:35:14.976Z</time>
      </trkpt>
      <trkpt lat="45.36857" lon="5.12379">
        <ele>343</ele>
        <time>2021-10-10T14:35:18.988Z</time>
      </trkpt>
      <trkpt lat="45.36852" lon="5.12383">
        <ele>343</ele>
        <time>2021-10-10T14:35:22.989Z</time>
      </trkpt>
      <trkpt lat="45.36846" lon="5.1239">
        <ele>341</ele>
        <time>2021-10-10T14:35:27.980Z</time>
      </trkpt>
      <trkpt lat="45.3684" lon="5.12396">
        <ele>341</ele>
        <time>2021-10-10T14:35:32.973Z</time>
      </trkpt>
      <trkpt lat="45.36835" lon="5.12401">
        <ele>341</ele>
        <time>2021-10-10T14:35:36.992Z</time>
      </trkpt>
      <trkpt lat="45.36831" lon="5.12407">
        <ele>342</ele>
        <time>2021-10-10T14:35:40.998Z</time>
      </trkpt>
      <trkpt lat="45.36826" lon="5.12413">
        <ele>342</ele>
        <time>2021-10-10T14:35:45.968Z</time>
      </trkpt>
      <trkpt lat="45.36821" lon="5.12422">
        <ele>342</ele>
        <time>2021-10-10T14:35:50.996Z</time>
      </trkpt>
      <trkpt lat="45.36817" lon="5.12429">
        <ele>342</ele>
        <time>2021-10-10T14:35:55.979Z</time>
      </trkpt>
      <trkpt lat="45.36811" lon="5.12435">
        <ele>343</ele>
        <time>2021-10-10T14:36:00.958Z</time>
      </trkpt>
      <trkpt lat="45.36806" lon="5.12439">
        <ele>343</ele>
        <time>2021-10-10T14:36:04.981Z</time>
      </trkpt>
      <trkpt lat="45.368" lon="5.12444">
        <ele>343</ele>
        <time>2021-10-10T14:36:10.004Z</time>
      </trkpt>
      <trkpt lat="45.36795" lon="5.12449">
        <ele>343</ele>
        <time>2021-10-10T14:36:14.999Z</time>
      </trkpt>
      <trkpt lat="45.36789" lon="5.12453">
        <ele>343</ele>
        <time>2021-10-10T14:36:20.001Z</time>
      </trkpt>
      <trkpt lat="45.36784" lon="5.12458">
        <ele>343</ele>
        <time>2021-10-10T14:36:24.960Z</time>
      </trkpt>
      <trkpt lat="45.36781" lon="5.12464">
        <ele>345</ele>
        <time>2021-10-10T14:36:28.992Z</time>
      </trkpt>
      <trkpt lat="45.36778" lon="5.12476">
        <ele>345</ele>
        <time>2021-10-10T14:36:34.038Z</time>
      </trkpt>
      <trkpt lat="45.36781" lon="5.12489">
        <ele>346</ele>
        <time>2021-10-10T14:36:38.987Z</time>
      </trkpt>
      <trkpt lat="45.36783" lon="5.12497">
        <ele>346</ele>
        <time>2021-10-10T14:36:43.960Z</time>
      </trkpt>
      <trkpt lat="45.36785" lon="5.12506">
        <ele>346</ele>
        <time>2021-10-10T14:36:49Z</time>
      </trkpt>
      <trkpt lat="45.36787" lon="5.12515">
        <ele>349</ele>
        <time>2021-10-10T14:36:53.981Z</time>
      </trkpt>
      <trkpt lat="45.3679" lon="5.12524">
        <ele>349</ele>
        <time>2021-10-10T14:36:58.990Z</time>
      </trkpt>
      <trkpt lat="45.36793" lon="5.12533">
        <ele>348</ele>
        <time>2021-10-10T14:37:03.983Z</time>
      </trkpt>
      <trkpt lat="45.36796" lon="5.1254">
        <ele>348</ele>
        <time>2021-10-10T14:37:07.992Z</time>
      </trkpt>
      <trkpt lat="45.36798" lon="5.12548">
        <ele>351</ele>
        <time>2021-10-10T14:37:12Z</time>
      </trkpt>
      <trkpt lat="45.368" lon="5.12556">
        <ele>351</ele>
        <time>2021-10-10T14:37:16.982Z</time>
      </trkpt>
      <trkpt lat="45.36802" lon="5.12563">
        <ele>351</ele>
        <time>2021-10-10T14:37:20.997Z</time>
      </trkpt>
      <trkpt lat="45.36804" lon="5.12572">
        <ele>354</ele>
        <time>2021-10-10T14:37:25.971Z</time>
      </trkpt>
      <trkpt lat="45.36806" lon="5.12579">
        <ele>354</ele>
        <time>2021-10-10T14:37:29.977Z</time>
      </trkpt>
      <trkpt lat="45.36806" lon="5.12587">
        <ele>354</ele>
        <time>2021-10-10T14:37:34.984Z</time>
      </trkpt>
      <trkpt lat="45.36808" lon="5.12595">
        <ele>354</ele>
        <time>2021-10-10T14:37:39.984Z</time>
      </trkpt>
      <trkpt lat="45.3681" lon="5.12602">
        <ele>359</ele>
        <time>2021-10-10T14:37:43.990Z</time>
      </trkpt>
      <trkpt lat="45.36813" lon="5.12612">
        <ele>359</ele>
        <time>2021-10-10T14:37:48.950Z</time>
      </trkpt>
      <trkpt lat="45.36816" lon="5.12621">
        <ele>359</ele>
        <time>2021-10-10T14:37:52.980Z</time>
      </trkpt>
      <trkpt lat="45.3682" lon="5.12632">
        <ele>367</ele>
        <time>2021-10-10T14:37:57.981Z</time>
      </trkpt>
      <trkpt lat="45.36822" lon="5.12639">
        <ele>367</ele>
        <time>2021-10-10T14:38:01.991Z</time>
      </trkpt>
      <trkpt lat="45.36825" lon="5.12646">
        <ele>367</ele>
        <time>2021-10-10T14:38:05.997Z</time>
      </trkpt>
      <trkpt lat="45.36828" lon="5.12653">
        <ele>367</ele>
        <time>2021-10-10T14:38:10.984Z</time>
      </trkpt>
      <trkpt lat="45.36831" lon="5.12658">
        <ele>372</ele>
        <time>2021-10-10T14:38:14.988Z</time>
      </trkpt>
      <trkpt lat="45.36836" lon="5.12664">
        <ele>372</ele>
        <time>2021-10-10T14:38:19.978Z</time>
      </trkpt>
      <trkpt lat="45.36841" lon="5.1267">
        <ele>372</ele>
        <time>2021-10-10T14:38:24.960Z</time>
      </trkpt>
      <trkpt lat="45.36846" lon="5.12676">
        <ele>372</ele>
        <time>2021-10-10T14:38:29.974Z</time>
      </trkpt>
      <trkpt lat="45.36851" lon="5.12683">
        <ele>378</ele>
        <time>2021-10-10T14:38:34.966Z</time>
      </trkpt>
      <trkpt lat="45.36856" lon="5.12688">
        <ele>378</ele>
        <time>2021-10-10T14:38:39.973Z</time>
      </trkpt>
      <trkpt lat="45.3686" lon="5.12693">
        <ele>378</ele>
        <time>2021-10-10T14:38:43.986Z</time>
      </trkpt>
      <trkpt lat="45.36865" lon="5.12699">
        <ele>378</ele>
        <time>2021-10-10T14:38:48.967Z</time>
      </trkpt>
      <trkpt lat="45.3687" lon="5.12705">
        <ele>378</ele>
        <time>2021-10-10T14:38:53.953Z</time>
      </trkpt>
      <trkpt lat="45.36875" lon="5.12709">
        <ele>381</ele>
        <time>2021-10-10T14:38:57.998Z</time>
      </trkpt>
      <trkpt lat="45.3688" lon="5.12715">
        <ele>381</ele>
        <time>2021-10-10T14:39:02.982Z</time>
      </trkpt>
      <trkpt lat="45.36884" lon="5.1272">
        <ele>381</ele>
        <time>2021-10-10T14:39:06.985Z</time>
      </trkpt>
      <trkpt lat="45.36887" lon="5.12726">
        <ele>381</ele>
        <time>2021-10-10T14:39:11.001Z</time>
      </trkpt>
      <trkpt lat="45.3689" lon="5.12732">
        <ele>381</ele>
        <time>2021-10-10T14:39:15.985Z</time>
      </trkpt>
      <trkpt lat="45.36894" lon="5.1274">
        <ele>381</ele>
        <time>2021-10-10T14:39:20.978Z</time>
      </trkpt>
      <trkpt lat="45.36897" lon="5.12747">
        <ele>381</ele>
        <time>2021-10-10T14:39:24.994Z</time>
      </trkpt>
      <trkpt lat="45.36901" lon="5.12754">
        <ele>381</ele>
        <time>2021-10-10T14:39:29.989Z</time>
      </trkpt>
      <trkpt lat="45.36904" lon="5.1276">
        <ele>382</ele>
        <time>2021-10-10T14:39:34Z</time>
      </trkpt>
      <trkpt lat="45.36908" lon="5.12768">
        <ele>384</ele>
        <time>2021-10-10T14:39:38.970Z</time>
      </trkpt>
      <trkpt lat="45.36912" lon="5.12774">
        <ele>384</ele>
        <time>2021-10-10T14:39:43.996Z</time>
      </trkpt>
      <trkpt lat="45.36916" lon="5.12779">
        <ele>384</ele>
        <time>2021-10-10T14:39:47.999Z</time>
      </trkpt>
      <trkpt lat="45.36921" lon="5.12784">
        <ele>384</ele>
        <time>2021-10-10T14:39:53.002Z</time>
      </trkpt>
      <trkpt lat="45.36925" lon="5.12789">
        <ele>384</ele>
        <time>2021-10-10T14:39:57.991Z</time>
      </trkpt>
      <trkpt lat="45.3693" lon="5.12795">
        <ele>386</ele>
        <time>2021-10-10T14:40:02.991Z</time>
      </trkpt>
      <trkpt lat="45.36935" lon="5.12801">
        <ele>389</ele>
        <time>2021-10-10T14:40:07.980Z</time>
      </trkpt>
      <trkpt lat="45.36939" lon="5.12806">
        <ele>389</ele>
        <time>2021-10-10T14:40:12.982Z</time>
      </trkpt>
      <trkpt lat="45.36943" lon="5.12813">
        <ele>389</ele>
        <time>2021-10-10T14:40:17.977Z</time>
      </trkpt>
      <trkpt lat="45.36947" lon="5.12819">
        <ele>389</ele>
        <time>2021-10-10T14:40:22.991Z</time>
      </trkpt>
      <trkpt lat="45.36952" lon="5.12826">
        <ele>391</ele>
        <time>2021-10-10T14:40:27.989Z</time>
      </trkpt>
      <trkpt lat="45.36956" lon="5.12834">
        <ele>391</ele>
        <time>2021-10-10T14:40:32.956Z</time>
      </trkpt>
      <trkpt lat="45.36959" lon="5.1284">
        <ele>393</ele>
        <time>2021-10-10T14:40:36.959Z</time>
      </trkpt>
      <trkpt lat="45.36962" lon="5.12846">
        <ele>393</ele>
        <time>2021-10-10T14:40:40.990Z</time>
      </trkpt>
      <trkpt lat="45.36967" lon="5.12853">
        <ele>396</ele>
        <time>2021-10-10T14:40:45.996Z</time>
      </trkpt>
      <trkpt lat="45.36971" lon="5.12862">
        <ele>396</ele>
        <time>2021-10-10T14:40:50.981Z</time>
      </trkpt>
      <trkpt lat="45.36975" lon="5.12867">
        <ele>396</ele>
        <time>2021-10-10T14:40:54.992Z</time>
      </trkpt>
      <trkpt lat="45.36979" lon="5.12875">
        <ele>396</ele>
        <time>2021-10-10T14:40:59.988Z</time>
      </trkpt>
      <trkpt lat="45.36983" lon="5.12882">
        <ele>398</ele>
        <time>2021-10-10T14:41:04.980Z</time>
      </trkpt>
      <trkpt lat="45.36986" lon="5.12887">
        <ele>398</ele>
        <time>2021-10-10T14:41:08.989Z</time>
      </trkpt>
      <trkpt lat="45.36989" lon="5.12894">
        <ele>402</ele>
        <time>2021-10-10T14:41:12.996Z</time>
      </trkpt>
      <trkpt lat="45.36992" lon="5.129">
        <ele>402</ele>
        <time>2021-10-10T14:41:18.002Z</time>
      </trkpt>
      <trkpt lat="45.36995" lon="5.12908">
        <ele>402</ele>
        <time>2021-10-10T14:41:22.984Z</time>
      </trkpt>
      <trkpt lat="45.36997" lon="5.12913">
        <ele>402</ele>
        <time>2021-10-10T14:41:26.987Z</time>
      </trkpt>
      <trkpt lat="45.37" lon="5.12921">
        <ele>402</ele>
        <time>2021-10-10T14:41:31.984Z</time>
      </trkpt>
      <trkpt lat="45.37003" lon="5.12926">
        <ele>402</ele>
        <time>2021-10-10T14:41:35.993Z</time>
      </trkpt>
      <trkpt lat="45.37006" lon="5.12932">
        <ele>401</ele>
        <time>2021-10-10T14:41:39.999Z</time>
      </trkpt>
      <trkpt lat="45.3701" lon="5.12938">
        <ele>401</ele>
        <time>2021-10-10T14:41:44.988Z</time>
      </trkpt>
      <trkpt lat="45.37014" lon="5.12945">
        <ele>406</ele>
        <time>2021-10-10T14:41:49.997Z</time>
      </trkpt>
      <trkpt lat="45.37018" lon="5.12952">
        <ele>406</ele>
        <time>2021-10-10T14:41:54.957Z</time>
      </trkpt>
      <trkpt lat="45.37021" lon="5.12958">
        <ele>406</ele>
        <time>2021-10-10T14:41:59.012Z</time>
      </trkpt>
      <trkpt lat="45.37023" lon="5.12965">
        <ele>408</ele>
        <time>2021-10-10T14:42:03.007Z</time>
      </trkpt>
      <trkpt lat="45.37025" lon="5.12975">
        <ele>408</ele>
        <time>2021-10-10T14:42:07.978Z</time>
      </trkpt>
      <trkpt lat="45.37026" lon="5.12985">
        <ele>408</ele>
        <time>2021-10-10T14:42:12.954Z</time>
      </trkpt>
      <trkpt lat="45.37028" lon="5.12992">
        <ele>409</ele>
        <time>2021-10-10T14:42:16.968Z</time>
      </trkpt>
      <trkpt lat="45.37031" lon="5.12998">
        <ele>409</ele>
        <time>2021-10-10T14:42:20.986Z</time>
      </trkpt>
      <trkpt lat="45.37034" lon="5.13003">
        <ele>409</ele>
        <time>2021-10-10T14:42:24.998Z</time>
      </trkpt>
      <trkpt lat="45.37037" lon="5.13011">
        <ele>409</ele>
        <time>2021-10-10T14:42:29.987Z</time>
      </trkpt>
      <trkpt lat="45.37042" lon="5.13015">
        <ele>414</ele>
        <time>2021-10-10T14:42:34.959Z</time>
      </trkpt>
      <trkpt lat="45.37045" lon="5.13016">
        <ele>414</ele>
        <time>2021-10-10T14:42:39.951Z</time>
      </trkpt>
      <trkpt lat="45.3705" lon="5.13019">
        <ele>414</ele>
        <time>2021-10-10T14:42:43.970Z</time>
      </trkpt>
      <trkpt lat="45.37054" lon="5.13023">
        <ele>414</ele>
        <time>2021-10-10T14:42:47.983Z</time>
      </trkpt>
      <trkpt lat="45.37059" lon="5.13027">
        <ele>414</ele>
        <time>2021-10-10T14:42:53.016Z</time>
      </trkpt>
      <trkpt lat="45.37065" lon="5.13031">
        <ele>414</ele>
        <time>2021-10-10T14:42:57.982Z</time>
      </trkpt>
      <trkpt lat="45.3707" lon="5.13035">
        <ele>416</ele>
        <time>2021-10-10T14:43:01.989Z</time>
      </trkpt>
      <trkpt lat="45.37076" lon="5.13038">
        <ele>416</ele>
        <time>2021-10-10T14:43:07.011Z</time>
      </trkpt>
      <trkpt lat="45.37083" lon="5.13041">
        <ele>416</ele>
        <time>2021-10-10T14:43:11.989Z</time>
      </trkpt>
      <trkpt lat="45.37087" lon="5.13044">
        <ele>415</ele>
        <time>2021-10-10T14:43:16.003Z</time>
      </trkpt>
      <trkpt lat="45.37093" lon="5.13046">
        <ele>415</ele>
        <time>2021-10-10T14:43:20.999Z</time>
      </trkpt>
      <trkpt lat="45.37098" lon="5.13047">
        <ele>416</ele>
        <time>2021-10-10T14:43:25.001Z</time>
      </trkpt>
      <trkpt lat="45.37104" lon="5.13049">
        <ele>416</ele>
        <time>2021-10-10T14:43:29.976Z</time>
      </trkpt>
      <trkpt lat="45.3711" lon="5.13052">
        <ele>416</ele>
        <time>2021-10-10T14:43:33.980Z</time>
      </trkpt>
      <trkpt lat="45.37115" lon="5.13056">
        <ele>416</ele>
        <time>2021-10-10T14:43:38.976Z</time>
      </trkpt>
      <trkpt lat="45.37118" lon="5.1306">
        <ele>416</ele>
        <time>2021-10-10T14:43:43.007Z</time>
      </trkpt>
      <trkpt lat="45.37122" lon="5.13066">
        <ele>416</ele>
        <time>2021-10-10T14:43:47.993Z</time>
      </trkpt>
      <trkpt lat="45.37127" lon="5.13074">
        <ele>417</ele>
        <time>2021-10-10T14:43:52.989Z</time>
      </trkpt>
      <trkpt lat="45.37134" lon="5.13085">
        <ele>417</ele>
        <time>2021-10-10T14:43:57.989Z</time>
      </trkpt>
      <trkpt lat="45.3714" lon="5.13093">
        <ele>417</ele>
        <time>2021-10-10T14:44:02.984Z</time>
      </trkpt>
      <trkpt lat="45.37144" lon="5.13096">
        <ele>417</ele>
        <time>2021-10-10T14:44:06.990Z</time>
      </trkpt>
      <trkpt lat="45.37147" lon="5.13103">
        <ele>417</ele>
        <time>2021-10-10T14:44:11.982Z</time>
      </trkpt>
      <trkpt lat="45.37151" lon="5.13109">
        <ele>417</ele>
        <time>2021-10-10T14:44:16.015Z</time>
      </trkpt>
      <trkpt lat="45.37154" lon="5.13116">
        <ele>417</ele>
        <time>2021-10-10T14:44:20.996Z</time>
      </trkpt>
      <trkpt lat="45.37157" lon="5.13122">
        <ele>417</ele>
        <time>2021-10-10T14:44:25.020Z</time>
      </trkpt>
      <trkpt lat="45.3716" lon="5.13129">
        <ele>416</ele>
        <time>2021-10-10T14:44:29.993Z</time>
      </trkpt>
      <trkpt lat="45.37163" lon="5.13135">
        <ele>416</ele>
        <time>2021-10-10T14:44:33.998Z</time>
      </trkpt>
      <trkpt lat="45.37167" lon="5.13143">
        <ele>416</ele>
        <time>2021-10-10T14:44:38.952Z</time>
      </trkpt>
      <trkpt lat="45.37171" lon="5.13151">
        <ele>416</ele>
        <time>2021-10-10T14:44:43.951Z</time>
      </trkpt>
      <trkpt lat="45.37176" lon="5.13159">
        <ele>414</ele>
        <time>2021-10-10T14:44:48.944Z</time>
      </trkpt>
      <trkpt lat="45.37178" lon="5.13166">
        <ele>414</ele>
        <time>2021-10-10T14:44:52.964Z</time>
      </trkpt>
      <trkpt lat="45.37182" lon="5.13175">
        <ele>412</ele>
        <time>2021-10-10T14:44:57.946Z</time>
      </trkpt>
      <trkpt lat="45.37185" lon="5.13182">
        <ele>412</ele>
        <time>2021-10-10T14:45:01.980Z</time>
      </trkpt>
      <trkpt lat="45.37191" lon="5.13193">
        <ele>412</ele>
        <time>2021-10-10T14:45:06.965Z</time>
      </trkpt>
      <trkpt lat="45.37196" lon="5.13201">
        <ele>412</ele>
        <time>2021-10-10T14:45:11.011Z</time>
      </trkpt>
      <trkpt lat="45.37202" lon="5.13211">
        <ele>413</ele>
        <time>2021-10-10T14:45:15.960Z</time>
      </trkpt>
      <trkpt lat="45.37205" lon="5.13225">
        <ele>413</ele>
        <time>2021-10-10T14:45:20.952Z</time>
      </trkpt>
      <trkpt lat="45.37209" lon="5.13237">
        <ele>415</ele>
        <time>2021-10-10T14:45:24.979Z</time>
      </trkpt>
      <trkpt lat="45.37215" lon="5.13248">
        <ele>415</ele>
        <time>2021-10-10T14:45:29.946Z</time>
      </trkpt>
      <trkpt lat="45.3722" lon="5.13254">
        <ele>415</ele>
        <time>2021-10-10T14:45:33.954Z</time>
      </trkpt>
      <trkpt lat="45.37228" lon="5.13263">
        <ele>415</ele>
        <time>2021-10-10T14:45:38.941Z</time>
      </trkpt>
      <trkpt lat="45.37233" lon="5.13275">
        <ele>416</ele>
        <time>2021-10-10T14:45:42.961Z</time>
      </trkpt>
      <trkpt lat="45.37236" lon="5.13286">
        <ele>417</ele>
        <time>2021-10-10T14:45:46.955Z</time>
      </trkpt>
      <trkpt lat="45.37242" lon="5.13297">
        <ele>419</ele>
        <time>2021-10-10T14:45:51.968Z</time>
      </trkpt>
      <trkpt lat="45.37247" lon="5.13309">
        <ele>419</ele>
        <time>2021-10-10T14:45:56.943Z</time>
      </trkpt>
      <trkpt lat="45.37251" lon="5.13318">
        <ele>419</ele>
        <time>2021-10-10T14:46:00.974Z</time>
      </trkpt>
      <trkpt lat="45.37256" lon="5.13327">
        <ele>420</ele>
        <time>2021-10-10T14:46:04.983Z</time>
      </trkpt>
      <trkpt lat="45.37262" lon="5.13338">
        <ele>420</ele>
        <time>2021-10-10T14:46:09.959Z</time>
      </trkpt>
      <trkpt lat="45.37267" lon="5.1335">
        <ele>419</ele>
        <time>2021-10-10T14:46:14.954Z</time>
      </trkpt>
      <trkpt lat="45.37275" lon="5.13363">
        <ele>419</ele>
        <time>2021-10-10T14:46:19.949Z</time>
      </trkpt>
      <trkpt lat="45.37281" lon="5.13376">
        <ele>420</ele>
        <time>2021-10-10T14:46:23.959Z</time>
      </trkpt>
      <trkpt lat="45.37286" lon="5.13392">
        <ele>420</ele>
        <time>2021-10-10T14:46:28.953Z</time>
      </trkpt>
      <trkpt lat="45.37291" lon="5.13401">
        <ele>420</ele>
        <time>2021-10-10T14:46:32.960Z</time>
      </trkpt>
      <trkpt lat="45.37296" lon="5.13412">
        <ele>421</ele>
        <time>2021-10-10T14:46:37.982Z</time>
      </trkpt>
      <trkpt lat="45.373" lon="5.1342">
        <ele>421</ele>
        <time>2021-10-10T14:46:41.988Z</time>
      </trkpt>
      <trkpt lat="45.37305" lon="5.1343">
        <ele>421</ele>
        <time>2021-10-10T14:46:46.953Z</time>
      </trkpt>
      <trkpt lat="45.37305" lon="5.13435">
        <ele>421</ele>
        <time>2021-10-10T14:46:51.950Z</time>
      </trkpt>
      <trkpt lat="45.37307" lon="5.13441">
        <ele>421</ele>
        <time>2021-10-10T14:47:01.943Z</time>
      </trkpt>
      <trkpt lat="45.37307" lon="5.13444">
        <ele>421</ele>
        <time>2021-10-10T14:47:06.940Z</time>
      </trkpt>
      <trkpt lat="45.37307" lon="5.13445">
        <ele>421</ele>
        <time>2021-10-10T14:47:11.942Z</time>
      </trkpt>
      <trkpt lat="45.37308" lon="5.13446">
        <ele>421</ele>
        <time>2021-10-10T14:47:16.941Z</time>
      </trkpt>
      <trkpt lat="45.3731" lon="5.13454">
        <ele>421</ele>
        <time>2021-10-10T14:47:21.942Z</time>
      </trkpt>
      <trkpt lat="45.37314" lon="5.13465">
        <ele>419</ele>
        <time>2021-10-10T14:47:25.945Z</time>
      </trkpt>
      <trkpt lat="45.37319" lon="5.13478">
        <ele>419</ele>
        <time>2021-10-10T14:47:30.947Z</time>
      </trkpt>
      <trkpt lat="45.37324" lon="5.13492">
        <ele>419</ele>
        <time>2021-10-10T14:47:35.947Z</time>
      </trkpt>
      <trkpt lat="45.37329" lon="5.13505">
        <ele>419</ele>
        <time>2021-10-10T14:47:40.954Z</time>
      </trkpt>
      <trkpt lat="45.37333" lon="5.13516">
        <ele>418</ele>
        <time>2021-10-10T14:47:45.950Z</time>
      </trkpt>
      <trkpt lat="45.37338" lon="5.13528">
        <ele>418</ele>
        <time>2021-10-10T14:47:50.948Z</time>
      </trkpt>
      <trkpt lat="45.37342" lon="5.1354">
        <ele>418</ele>
        <time>2021-10-10T14:47:55.948Z</time>
      </trkpt>
      <trkpt lat="45.37347" lon="5.13552">
        <ele>418</ele>
        <time>2021-10-10T14:48:00.945Z</time>
      </trkpt>
      <trkpt lat="45.3735" lon="5.13561">
        <ele>417</ele>
        <time>2021-10-10T14:48:04.947Z</time>
      </trkpt>
      <trkpt lat="45.37354" lon="5.13573">
        <ele>418</ele>
        <time>2021-10-10T14:48:09.942Z</time>
      </trkpt>
      <trkpt lat="45.37358" lon="5.13583">
        <ele>418</ele>
        <time>2021-10-10T14:48:13.952Z</time>
      </trkpt>
      <trkpt lat="45.37362" lon="5.13597">
        <ele>418</ele>
        <time>2021-10-10T14:48:18.947Z</time>
      </trkpt>
      <trkpt lat="45.37366" lon="5.13606">
        <ele>419</ele>
        <time>2021-10-10T14:48:22.951Z</time>
      </trkpt>
      <trkpt lat="45.3737" lon="5.13618">
        <ele>419</ele>
        <time>2021-10-10T14:48:27.948Z</time>
      </trkpt>
      <trkpt lat="45.37374" lon="5.13631">
        <ele>420</ele>
        <time>2021-10-10T14:48:32.951Z</time>
      </trkpt>
      <trkpt lat="45.37378" lon="5.13644">
        <ele>420</ele>
        <time>2021-10-10T14:48:37.943Z</time>
      </trkpt>
      <trkpt lat="45.37382" lon="5.13653">
        <ele>420</ele>
        <time>2021-10-10T14:48:41.946Z</time>
      </trkpt>
      <trkpt lat="45.37386" lon="5.13663">
        <ele>421</ele>
        <time>2021-10-10T14:48:46.942Z</time>
      </trkpt>
      <trkpt lat="45.37389" lon="5.13676">
        <ele>421</ele>
        <time>2021-10-10T14:48:50.947Z</time>
      </trkpt>
      <trkpt lat="45.37394" lon="5.13689">
        <ele>422</ele>
        <time>2021-10-10T14:48:55.945Z</time>
      </trkpt>
      <trkpt lat="45.37398" lon="5.13706">
        <ele>422</ele>
        <time>2021-10-10T14:49:00.948Z</time>
      </trkpt>
      <trkpt lat="45.37404" lon="5.13725">
        <ele>422</ele>
        <time>2021-10-10T14:49:05.945Z</time>
      </trkpt>
      <trkpt lat="45.37408" lon="5.13748">
        <ele>419</ele>
        <time>2021-10-10T14:49:10.942Z</time>
      </trkpt>
      <trkpt lat="45.37409" lon="5.13763">
        <ele>419</ele>
        <time>2021-10-10T14:49:14.947Z</time>
      </trkpt>
      <trkpt lat="45.3741" lon="5.13777">
        <ele>417</ele>
        <time>2021-10-10T14:49:19.944Z</time>
      </trkpt>
      <trkpt lat="45.37413" lon="5.13785">
        <ele>417</ele>
        <time>2021-10-10T14:49:24.948Z</time>
      </trkpt>
      <trkpt lat="45.37416" lon="5.13792">
        <ele>416</ele>
        <time>2021-10-10T14:49:28.952Z</time>
      </trkpt>
      <trkpt lat="45.3742" lon="5.13801">
        <ele>416</ele>
        <time>2021-10-10T14:49:33.945Z</time>
      </trkpt>
      <trkpt lat="45.37423" lon="5.13808">
        <ele>416</ele>
        <time>2021-10-10T14:49:37.946Z</time>
      </trkpt>
      <trkpt lat="45.37424" lon="5.13818">
        <ele>416</ele>
        <time>2021-10-10T14:49:41.953Z</time>
      </trkpt>
      <trkpt lat="45.37425" lon="5.13829">
        <ele>415</ele>
        <time>2021-10-10T14:49:46.949Z</time>
      </trkpt>
      <trkpt lat="45.37424" lon="5.13839">
        <ele>415</ele>
        <time>2021-10-10T14:49:51.948Z</time>
      </trkpt>
      <trkpt lat="45.37421" lon="5.13848">
        <ele>415</ele>
        <time>2021-10-10T14:49:55.953Z</time>
      </trkpt>
      <trkpt lat="45.37416" lon="5.13858">
        <ele>415</ele>
        <time>2021-10-10T14:50:00.949Z</time>
      </trkpt>
      <trkpt lat="45.37411" lon="5.13866">
        <ele>415</ele>
        <time>2021-10-10T14:50:05.951Z</time>
      </trkpt>
      <trkpt lat="45.37406" lon="5.13872">
        <ele>415</ele>
        <time>2021-10-10T14:50:10.952Z</time>
      </trkpt>
      <trkpt lat="45.37401" lon="5.13879">
        <ele>414</ele>
        <time>2021-10-10T14:50:15.942Z</time>
      </trkpt>
      <trkpt lat="45.37397" lon="5.13885">
        <ele>414</ele>
        <time>2021-10-10T14:50:19.950Z</time>
      </trkpt>
      <trkpt lat="45.37392" lon="5.13892">
        <ele>414</ele>
        <time>2021-10-10T14:50:23.950Z</time>
      </trkpt>
      <trkpt lat="45.37387" lon="5.13899">
        <ele>414</ele>
        <time>2021-10-10T14:50:28.958Z</time>
      </trkpt>
      <trkpt lat="45.37385" lon="5.13904">
        <ele>414</ele>
        <time>2021-10-10T14:50:32.982Z</time>
      </trkpt>
      <trkpt lat="45.37381" lon="5.13913">
        <ele>414</ele>
        <time>2021-10-10T14:50:37.955Z</time>
      </trkpt>
      <trkpt lat="45.37377" lon="5.1392">
        <ele>414</ele>
        <time>2021-10-10T14:50:41.984Z</time>
      </trkpt>
      <trkpt lat="45.37372" lon="5.13929">
        <ele>414</ele>
        <time>2021-10-10T14:50:46.979Z</time>
      </trkpt>
      <trkpt lat="45.37367" lon="5.13938">
        <ele>415</ele>
        <time>2021-10-10T14:50:51.975Z</time>
      </trkpt>
      <trkpt lat="45.37362" lon="5.13946">
        <ele>415</ele>
        <time>2021-10-10T14:50:56.980Z</time>
      </trkpt>
      <trkpt lat="45.37358" lon="5.13952">
        <ele>415</ele>
        <time>2021-10-10T14:51:01.975Z</time>
      </trkpt>
      <trkpt lat="45.37351" lon="5.1396">
        <ele>415</ele>
        <time>2021-10-10T14:51:06.995Z</time>
      </trkpt>
      <trkpt lat="45.37343" lon="5.13969">
        <ele>418</ele>
        <time>2021-10-10T14:51:11.979Z</time>
      </trkpt>
      <trkpt lat="45.37338" lon="5.13977">
        <ele>418</ele>
        <time>2021-10-10T14:51:17Z</time>
      </trkpt>
      <trkpt lat="45.37335" lon="5.13985">
        <ele>418</ele>
        <time>2021-10-10T14:51:21.960Z</time>
      </trkpt>
      <trkpt lat="45.37331" lon="5.13991">
        <ele>416</ele>
        <time>2021-10-10T14:51:25.986Z</time>
      </trkpt>
      <trkpt lat="45.37327" lon="5.13999">
        <ele>416</ele>
        <time>2021-10-10T14:51:30.959Z</time>
      </trkpt>
      <trkpt lat="45.37324" lon="5.14008">
        <ele>416</ele>
        <time>2021-10-10T14:51:36.015Z</time>
      </trkpt>
      <trkpt lat="45.37321" lon="5.14015">
        <ele>415</ele>
        <time>2021-10-10T14:51:40.941Z</time>
      </trkpt>
      <trkpt lat="45.37317" lon="5.14022">
        <ele>415</ele>
        <time>2021-10-10T14:51:45.953Z</time>
      </trkpt>
      <trkpt lat="45.37312" lon="5.14031">
        <ele>415</ele>
        <time>2021-10-10T14:51:50.988Z</time>
      </trkpt>
      <trkpt lat="45.37309" lon="5.1404">
        <ele>415</ele>
        <time>2021-10-10T14:51:54.995Z</time>
      </trkpt>
      <trkpt lat="45.37306" lon="5.14049">
        <ele>412</ele>
        <time>2021-10-10T14:51:59.945Z</time>
      </trkpt>
      <trkpt lat="45.37304" lon="5.14057">
        <ele>412</ele>
        <time>2021-10-10T14:52:03.980Z</time>
      </trkpt>
      <trkpt lat="45.37301" lon="5.14066">
        <ele>412</ele>
        <time>2021-10-10T14:52:08.962Z</time>
      </trkpt>
      <trkpt lat="45.373" lon="5.14076">
        <ele>410</ele>
        <time>2021-10-10T14:52:13.954Z</time>
      </trkpt>
      <trkpt lat="45.37298" lon="5.14083">
        <ele>410</ele>
        <time>2021-10-10T14:52:17.963Z</time>
      </trkpt>
      <trkpt lat="45.37296" lon="5.14091">
        <ele>410</ele>
        <time>2021-10-10T14:52:21.958Z</time>
      </trkpt>
      <trkpt lat="45.37294" lon="5.14099">
        <ele>408</ele>
        <time>2021-10-10T14:52:25.970Z</time>
      </trkpt>
      <trkpt lat="45.37291" lon="5.14111">
        <ele>405</ele>
        <time>2021-10-10T14:52:30.951Z</time>
      </trkpt>
      <trkpt lat="45.37289" lon="5.14121">
        <ele>405</ele>
        <time>2021-10-10T14:52:34.973Z</time>
      </trkpt>
      <trkpt lat="45.37285" lon="5.14134">
        <ele>403</ele>
        <time>2021-10-10T14:52:39.989Z</time>
      </trkpt>
      <trkpt lat="45.37282" lon="5.14145">
        <ele>403</ele>
        <time>2021-10-10T14:52:44.960Z</time>
      </trkpt>
      <trkpt lat="45.3728" lon="5.14156">
        <ele>401</ele>
        <time>2021-10-10T14:52:49.980Z</time>
      </trkpt>
      <trkpt lat="45.37278" lon="5.14166">
        <ele>401</ele>
        <time>2021-10-10T14:52:54.980Z</time>
      </trkpt>
      <trkpt lat="45.37277" lon="5.14174">
        <ele>401</ele>
        <time>2021-10-10T14:52:58.987Z</time>
      </trkpt>
      <trkpt lat="45.37274" lon="5.14187">
        <ele>401</ele>
        <time>2021-10-10T14:53:03.009Z</time>
      </trkpt>
      <trkpt lat="45.37272" lon="5.14197">
        <ele>401</ele>
        <time>2021-10-10T14:53:07.946Z</time>
      </trkpt>
      <trkpt lat="45.37271" lon="5.14199">
        <ele>401</ele>
        <time>2021-10-10T14:53:11.994Z</time>
      </trkpt>
      <trkpt lat="45.37271" lon="5.14199">
        <ele>401</ele>
        <time>2021-10-10T14:53:16.950Z</time>
      </trkpt>
      <trkpt lat="45.37271" lon="5.14201">
        <ele>401</ele>
        <time>2021-10-10T14:53:20.952Z</time>
      </trkpt>
      <trkpt lat="45.3727" lon="5.14206">
        <ele>401</ele>
        <time>2021-10-10T14:53:26.742Z</time>
      </trkpt>
      <trkpt lat="45.37268" lon="5.14217">
        <ele>400</ele>
        <time>2021-10-10T14:53:30.951Z</time>
      </trkpt>
      <trkpt lat="45.37266" lon="5.14225">
        <ele>400</ele>
        <time>2021-10-10T14:53:34.963Z</time>
      </trkpt>
      <trkpt lat="45.37263" lon="5.14236">
        <ele>400</ele>
        <time>2021-10-10T14:53:39.973Z</time>
      </trkpt>
      <trkpt lat="45.37261" lon="5.14245">
        <ele>400</ele>
        <time>2021-10-10T14:53:44.003Z</time>
      </trkpt>
      <trkpt lat="45.37259" lon="5.14253">
        <ele>400</ele>
        <time>2021-10-10T14:53:48.968Z</time>
      </trkpt>
      <trkpt lat="45.37257" lon="5.1426">
        <ele>400</ele>
        <time>2021-10-10T14:53:52.981Z</time>
      </trkpt>
      <trkpt lat="45.37255" lon="5.14269">
        <ele>399</ele>
        <time>2021-10-10T14:53:56.989Z</time>
      </trkpt>
      <trkpt lat="45.37253" lon="5.14279">
        <ele>399</ele>
        <time>2021-10-10T14:54:00.998Z</time>
      </trkpt>
      <trkpt lat="45.37251" lon="5.14289">
        <ele>399</ele>
        <time>2021-10-10T14:54:05.971Z</time>
      </trkpt>
      <trkpt lat="45.37249" lon="5.14297">
        <ele>399</ele>
        <time>2021-10-10T14:54:09.999Z</time>
      </trkpt>
      <trkpt lat="45.37248" lon="5.14307">
        <ele>399</ele>
        <time>2021-10-10T14:54:14.998Z</time>
      </trkpt>
      <trkpt lat="45.37245" lon="5.14319">
        <ele>399</ele>
        <time>2021-10-10T14:54:19.987Z</time>
      </trkpt>
      <trkpt lat="45.37242" lon="5.14333">
        <ele>399</ele>
        <time>2021-10-10T14:54:23.991Z</time>
      </trkpt>
      <trkpt lat="45.37235" lon="5.14345">
        <ele>396</ele>
        <time>2021-10-10T14:54:28.991Z</time>
      </trkpt>
      <trkpt lat="45.3723" lon="5.14352">
        <ele>396</ele>
        <time>2021-10-10T14:54:32.997Z</time>
      </trkpt>
      <trkpt lat="45.37225" lon="5.14358">
        <ele>396</ele>
        <time>2021-10-10T14:54:37.004Z</time>
      </trkpt>
      <trkpt lat="45.3722" lon="5.14367">
        <ele>396</ele>
        <time>2021-10-10T14:54:41.992Z</time>
      </trkpt>
      <trkpt lat="45.37217" lon="5.14377">
        <ele>397</ele>
        <time>2021-10-10T14:54:46.950Z</time>
      </trkpt>
      <trkpt lat="45.37217" lon="5.14384">
        <ele>397</ele>
        <time>2021-10-10T14:54:50.986Z</time>
      </trkpt>
      <trkpt lat="45.37217" lon="5.14391">
        <ele>397</ele>
        <time>2021-10-10T14:54:54.993Z</time>
      </trkpt>
      <trkpt lat="45.37217" lon="5.14402">
        <ele>397</ele>
        <time>2021-10-10T14:54:59.988Z</time>
      </trkpt>
      <trkpt lat="45.37216" lon="5.14414">
        <ele>396</ele>
        <time>2021-10-10T14:55:04.987Z</time>
      </trkpt>
      <trkpt lat="45.37215" lon="5.14424">
        <ele>396</ele>
        <time>2021-10-10T14:55:09.987Z</time>
      </trkpt>
      <trkpt lat="45.37216" lon="5.14433">
        <ele>395</ele>
        <time>2021-10-10T14:55:14.980Z</time>
      </trkpt>
      <trkpt lat="45.37215" lon="5.14443">
        <ele>395</ele>
        <time>2021-10-10T14:55:19.956Z</time>
      </trkpt>
      <trkpt lat="45.37214" lon="5.1445">
        <ele>395</ele>
        <time>2021-10-10T14:55:24.004Z</time>
      </trkpt>
      <trkpt lat="45.37214" lon="5.14461">
        <ele>393</ele>
        <time>2021-10-10T14:55:28.991Z</time>
      </trkpt>
      <trkpt lat="45.37214" lon="5.1447">
        <ele>393</ele>
        <time>2021-10-10T14:55:32.996Z</time>
      </trkpt>
      <trkpt lat="45.37213" lon="5.14483">
        <ele>393</ele>
        <time>2021-10-10T14:55:37.992Z</time>
      </trkpt>
      <trkpt lat="45.37213" lon="5.14492">
        <ele>391</ele>
        <time>2021-10-10T14:55:41.993Z</time>
      </trkpt>
      <trkpt lat="45.37214" lon="5.14504">
        <ele>391</ele>
        <time>2021-10-10T14:55:46.982Z</time>
      </trkpt>
      <trkpt lat="45.37215" lon="5.14513">
        <ele>391</ele>
        <time>2021-10-10T14:55:50.991Z</time>
      </trkpt>
      <trkpt lat="45.37215" lon="5.14523">
        <ele>389</ele>
        <time>2021-10-10T14:55:55.986Z</time>
      </trkpt>
      <trkpt lat="45.37215" lon="5.14534">
        <ele>389</ele>
        <time>2021-10-10T14:55:59.993Z</time>
      </trkpt>
      <trkpt lat="45.37215" lon="5.14545">
        <ele>388</ele>
        <time>2021-10-10T14:56:04.014Z</time>
      </trkpt>
      <trkpt lat="45.37215" lon="5.14557">
        <ele>388</ele>
        <time>2021-10-10T14:56:08.994Z</time>
      </trkpt>
      <trkpt lat="45.37215" lon="5.14568">
        <ele>388</ele>
        <time>2021-10-10T14:56:13.982Z</time>
      </trkpt>
      <trkpt lat="45.37216" lon="5.14576">
        <ele>387</ele>
        <time>2021-10-10T14:56:17.990Z</time>
      </trkpt>
      <trkpt lat="45.37213" lon="5.14589">
        <ele>387</ele>
        <time>2021-10-10T14:56:22.984Z</time>
      </trkpt>
      <trkpt lat="45.37207" lon="5.14599">
        <ele>384</ele>
        <time>2021-10-10T14:56:27.978Z</time>
      </trkpt>
      <trkpt lat="45.372" lon="5.14605">
        <ele>384</ele>
        <time>2021-10-10T14:56:32.945Z</time>
      </trkpt>
      <trkpt lat="45.37194" lon="5.14609">
        <ele>384</ele>
        <time>2021-10-10T14:56:36.957Z</time>
      </trkpt>
      <trkpt lat="45.37187" lon="5.14615">
        <ele>384</ele>
        <time>2021-10-10T14:56:41.990Z</time>
      </trkpt>
      <trkpt lat="45.37181" lon="5.1462">
        <ele>384</ele>
        <time>2021-10-10T14:56:46.959Z</time>
      </trkpt>
      <trkpt lat="45.37176" lon="5.14625">
        <ele>380</ele>
        <time>2021-10-10T14:56:50.992Z</time>
      </trkpt>
      <trkpt lat="45.3717" lon="5.14629">
        <ele>380</ele>
        <time>2021-10-10T14:56:55.005Z</time>
      </trkpt>
      <trkpt lat="45.37162" lon="5.14633">
        <ele>380</ele>
        <time>2021-10-10T14:56:59.982Z</time>
      </trkpt>
      <trkpt lat="45.37155" lon="5.14637">
        <ele>380</ele>
        <time>2021-10-10T14:57:04.994Z</time>
      </trkpt>
      <trkpt lat="45.37148" lon="5.14641">
        <ele>379</ele>
        <time>2021-10-10T14:57:09.977Z</time>
      </trkpt>
      <trkpt lat="45.37142" lon="5.14644">
        <ele>379</ele>
        <time>2021-10-10T14:57:13.982Z</time>
      </trkpt>
      <trkpt lat="45.37136" lon="5.14648">
        <ele>379</ele>
        <time>2021-10-10T14:57:18.005Z</time>
      </trkpt>
      <trkpt lat="45.37128" lon="5.14652">
        <ele>379</ele>
        <time>2021-10-10T14:57:22.991Z</time>
      </trkpt>
      <trkpt lat="45.37123" lon="5.14655">
        <ele>376</ele>
        <time>2021-10-10T14:57:27.004Z</time>
      </trkpt>
      <trkpt lat="45.37115" lon="5.14658">
        <ele>376</ele>
        <time>2021-10-10T14:57:31.995Z</time>
      </trkpt>
      <trkpt lat="45.37109" lon="5.14661">
        <ele>376</ele>
        <time>2021-10-10T14:57:36Z</time>
      </trkpt>
      <trkpt lat="45.37101" lon="5.14664">
        <ele>376</ele>
        <time>2021-10-10T14:57:40.945Z</time>
      </trkpt>
      <trkpt lat="45.37094" lon="5.14667">
        <ele>374</ele>
        <time>2021-10-10T14:57:45.003Z</time>
      </trkpt>
      <trkpt lat="45.37084" lon="5.14673">
        <ele>374</ele>
        <time>2021-10-10T14:57:49.977Z</time>
      </trkpt>
      <trkpt lat="45.37077" lon="5.14676">
        <ele>374</ele>
        <time>2021-10-10T14:57:53.995Z</time>
      </trkpt>
      <trkpt lat="45.37068" lon="5.1468">
        <ele>372</ele>
        <time>2021-10-10T14:57:58.983Z</time>
      </trkpt>
      <trkpt lat="45.3706" lon="5.14683">
        <ele>371</ele>
        <time>2021-10-10T14:58:03.983Z</time>
      </trkpt>
      <trkpt lat="45.37053" lon="5.14685">
        <ele>371</ele>
        <time>2021-10-10T14:58:08Z</time>
      </trkpt>
      <trkpt lat="45.37043" lon="5.14689">
        <ele>371</ele>
        <time>2021-10-10T14:58:12.987Z</time>
      </trkpt>
      <trkpt lat="45.37037" lon="5.14692">
        <ele>369</ele>
        <time>2021-10-10T14:58:16.998Z</time>
      </trkpt>
      <trkpt lat="45.37028" lon="5.14696">
        <ele>369</ele>
        <time>2021-10-10T14:58:21.983Z</time>
      </trkpt>
      <trkpt lat="45.37021" lon="5.14699">
        <ele>369</ele>
        <time>2021-10-10T14:58:25.998Z</time>
      </trkpt>
      <trkpt lat="45.37012" lon="5.14704">
        <ele>366</ele>
        <time>2021-10-10T14:58:30.976Z</time>
      </trkpt>
      <trkpt lat="45.37004" lon="5.14709">
        <ele>365</ele>
        <time>2021-10-10T14:58:35.997Z</time>
      </trkpt>
      <trkpt lat="45.36995" lon="5.14713">
        <ele>365</ele>
        <time>2021-10-10T14:58:40.992Z</time>
      </trkpt>
      <trkpt lat="45.36987" lon="5.14717">
        <ele>365</ele>
        <time>2021-10-10T14:58:45.968Z</time>
      </trkpt>
      <trkpt lat="45.3698" lon="5.1472">
        <ele>362</ele>
        <time>2021-10-10T14:58:49.976Z</time>
      </trkpt>
      <trkpt lat="45.36973" lon="5.14723">
        <ele>362</ele>
        <time>2021-10-10T14:58:54.953Z</time>
      </trkpt>
      <trkpt lat="45.36966" lon="5.14725">
        <ele>362</ele>
        <time>2021-10-10T14:58:58.998Z</time>
      </trkpt>
      <trkpt lat="45.36958" lon="5.14728">
        <ele>362</ele>
        <time>2021-10-10T14:59:03.993Z</time>
      </trkpt>
      <trkpt lat="45.3695" lon="5.14733">
        <ele>362</ele>
        <time>2021-10-10T14:59:08.984Z</time>
      </trkpt>
      <trkpt lat="45.36942" lon="5.14736">
        <ele>362</ele>
        <time>2021-10-10T14:59:13.944Z</time>
      </trkpt>
      <trkpt lat="45.36936" lon="5.14739">
        <ele>362</ele>
        <time>2021-10-10T14:59:17.990Z</time>
      </trkpt>
      <trkpt lat="45.3693" lon="5.14741">
        <ele>362</ele>
        <time>2021-10-10T14:59:21.988Z</time>
      </trkpt>
      <trkpt lat="45.36923" lon="5.14742">
        <ele>362</ele>
        <time>2021-10-10T14:59:25.995Z</time>
      </trkpt>
      <trkpt lat="45.36916" lon="5.14742">
        <ele>362</ele>
        <time>2021-10-10T14:59:30.978Z</time>
      </trkpt>
      <trkpt lat="45.3691" lon="5.14745">
        <ele>362</ele>
        <time>2021-10-10T14:59:34.983Z</time>
      </trkpt>
      <trkpt lat="45.36903" lon="5.14749">
        <ele>362</ele>
        <time>2021-10-10T14:59:39.979Z</time>
      </trkpt>
      <trkpt lat="45.36896" lon="5.14752">
        <ele>362</ele>
        <time>2021-10-10T14:59:44.988Z</time>
      </trkpt>
      <trkpt lat="45.3689" lon="5.14755">
        <ele>362</ele>
        <time>2021-10-10T14:59:48.993Z</time>
      </trkpt>
      <trkpt lat="45.36883" lon="5.14758">
        <ele>362</ele>
        <time>2021-10-10T14:59:53.979Z</time>
      </trkpt>
      <trkpt lat="45.36877" lon="5.14762">
        <ele>362</ele>
        <time>2021-10-10T14:59:57.989Z</time>
      </trkpt>
      <trkpt lat="45.36874" lon="5.14763">
        <ele>362</ele>
        <time>2021-10-10T15:00:02.984Z</time>
      </trkpt>
      <trkpt lat="45.36874" lon="5.14763">
        <ele>362</ele>
        <time>2021-10-10T15:00:07.986Z</time>
      </trkpt>
      <trkpt lat="45.36873" lon="5.14764">
        <ele>361</ele>
        <time>2021-10-10T15:00:12.978Z</time>
      </trkpt>
      <trkpt lat="45.36868" lon="5.14767">
        <ele>361</ele>
        <time>2021-10-10T15:00:17.992Z</time>
      </trkpt>
      <trkpt lat="45.36862" lon="5.1477">
        <ele>361</ele>
        <time>2021-10-10T15:00:22.978Z</time>
      </trkpt>
      <trkpt lat="45.36855" lon="5.14771">
        <ele>361</ele>
        <time>2021-10-10T15:00:27.957Z</time>
      </trkpt>
      <trkpt lat="45.36848" lon="5.14773">
        <ele>361</ele>
        <time>2021-10-10T15:00:32.989Z</time>
      </trkpt>
      <trkpt lat="45.36841" lon="5.14775">
        <ele>362</ele>
        <time>2021-10-10T15:00:36.993Z</time>
      </trkpt>
      <trkpt lat="45.36834" lon="5.14776">
        <ele>362</ele>
        <time>2021-10-10T15:00:41.008Z</time>
      </trkpt>
      <trkpt lat="45.36827" lon="5.14778">
        <ele>362</ele>
        <time>2021-10-10T15:00:45.993Z</time>
      </trkpt>
      <trkpt lat="45.3682" lon="5.14779">
        <ele>362</ele>
        <time>2021-10-10T15:00:50.993Z</time>
      </trkpt>
      <trkpt lat="45.36812" lon="5.1478">
        <ele>363</ele>
        <time>2021-10-10T15:00:55.956Z</time>
      </trkpt>
      <trkpt lat="45.36807" lon="5.14782">
        <ele>363</ele>
        <time>2021-10-10T15:01:00.001Z</time>
      </trkpt>
      <trkpt lat="45.368" lon="5.14784">
        <ele>363</ele>
        <time>2021-10-10T15:01:04.987Z</time>
      </trkpt>
      <trkpt lat="45.36792" lon="5.14784">
        <ele>363</ele>
        <time>2021-10-10T15:01:09.992Z</time>
      </trkpt>
      <trkpt lat="45.36785" lon="5.14784">
        <ele>363</ele>
        <time>2021-10-10T15:01:14.999Z</time>
      </trkpt>
      <trkpt lat="45.36777" lon="5.14784">
        <ele>363</ele>
        <time>2021-10-10T15:01:19.991Z</time>
      </trkpt>
      <trkpt lat="45.36771" lon="5.14785">
        <ele>363</ele>
        <time>2021-10-10T15:01:23.991Z</time>
      </trkpt>
      <trkpt lat="45.36764" lon="5.14786">
        <ele>363</ele>
        <time>2021-10-10T15:01:28.950Z</time>
      </trkpt>
      <trkpt lat="45.36758" lon="5.14786">
        <ele>363</ele>
        <time>2021-10-10T15:01:32.965Z</time>
      </trkpt>
      <trkpt lat="45.36752" lon="5.14786">
        <ele>363</ele>
        <time>2021-10-10T15:01:37.002Z</time>
      </trkpt>
      <trkpt lat="45.36742" lon="5.14784">
        <ele>363</ele>
        <time>2021-10-10T15:01:41.994Z</time>
      </trkpt>
      <trkpt lat="45.36735" lon="5.14784">
        <ele>362</ele>
        <time>2021-10-10T15:01:46.945Z</time>
      </trkpt>
      <trkpt lat="45.3673" lon="5.14782">
        <ele>362</ele>
        <time>2021-10-10T15:01:50.955Z</time>
      </trkpt>
      <trkpt lat="45.36723" lon="5.14779">
        <ele>362</ele>
        <time>2021-10-10T15:01:55.992Z</time>
      </trkpt>
      <trkpt lat="45.36715" lon="5.14778">
        <ele>362</ele>
        <time>2021-10-10T15:02:41.996Z</time>
      </trkpt>
      <trkpt lat="45.3671" lon="5.14776">
        <ele>362</ele>
        <time>2021-10-10T15:02:46.993Z</time>
      </trkpt>
      <trkpt lat="45.36706" lon="5.14769">
        <ele>362</ele>
        <time>2021-10-10T15:02:51.001Z</time>
      </trkpt>
      <trkpt lat="45.367" lon="5.14766">
        <ele>362</ele>
        <time>2021-10-10T15:02:55.956Z</time>
      </trkpt>
      <trkpt lat="45.36695" lon="5.14763">
        <ele>363</ele>
        <time>2021-10-10T15:02:59.970Z</time>
      </trkpt>
      <trkpt lat="45.3669" lon="5.1476">
        <ele>363</ele>
        <time>2021-10-10T15:03:04.008Z</time>
      </trkpt>
      <trkpt lat="45.36684" lon="5.14755">
        <ele>363</ele>
        <time>2021-10-10T15:03:08.994Z</time>
      </trkpt>
      <trkpt lat="45.36678" lon="5.14752">
        <ele>362</ele>
        <time>2021-10-10T15:03:13.989Z</time>
      </trkpt>
      <trkpt lat="45.36674" lon="5.1475">
        <ele>362</ele>
        <time>2021-10-10T15:03:18.006Z</time>
      </trkpt>
      <trkpt lat="45.36669" lon="5.14742">
        <ele>362</ele>
        <time>2021-10-10T15:03:23.001Z</time>
      </trkpt>
      <trkpt lat="45.36664" lon="5.14734">
        <ele>363</ele>
        <time>2021-10-10T15:03:27.988Z</time>
      </trkpt>
      <trkpt lat="45.3666" lon="5.14726">
        <ele>363</ele>
        <time>2021-10-10T15:03:32.980Z</time>
      </trkpt>
      <trkpt lat="45.36655" lon="5.14717">
        <ele>363</ele>
        <time>2021-10-10T15:03:37.987Z</time>
      </trkpt>
      <trkpt lat="45.36653" lon="5.1471">
        <ele>363</ele>
        <time>2021-10-10T15:03:42.981Z</time>
      </trkpt>
      <trkpt lat="45.36651" lon="5.14705">
        <ele>362</ele>
        <time>2021-10-10T15:03:46.985Z</time>
      </trkpt>
      <trkpt lat="45.36647" lon="5.14697">
        <ele>362</ele>
        <time>2021-10-10T15:03:51.983Z</time>
      </trkpt>
      <trkpt lat="45.36643" lon="5.14691">
        <ele>362</ele>
        <time>2021-10-10T15:03:55.997Z</time>
      </trkpt>
      <trkpt lat="45.3664" lon="5.14684">
        <ele>362</ele>
        <time>2021-10-10T15:04:00.984Z</time>
      </trkpt>
      <trkpt lat="45.36635" lon="5.14676">
        <ele>361</ele>
        <time>2021-10-10T15:04:05.953Z</time>
      </trkpt>
      <trkpt lat="45.36632" lon="5.14669">
        <ele>361</ele>
        <time>2021-10-10T15:04:09.980Z</time>
      </trkpt>
      <trkpt lat="45.36629" lon="5.14663">
        <ele>361</ele>
        <time>2021-10-10T15:04:13.999Z</time>
      </trkpt>
      <trkpt lat="45.36624" lon="5.14654">
        <ele>360</ele>
        <time>2021-10-10T15:04:18.990Z</time>
      </trkpt>
      <trkpt lat="45.36621" lon="5.14647">
        <ele>360</ele>
        <time>2021-10-10T15:04:22.993Z</time>
      </trkpt>
      <trkpt lat="45.36616" lon="5.14638">
        <ele>360</ele>
        <time>2021-10-10T15:04:27.976Z</time>
      </trkpt>
      <trkpt lat="45.36612" lon="5.14631">
        <ele>360</ele>
        <time>2021-10-10T15:04:31.993Z</time>
      </trkpt>
      <trkpt lat="45.36608" lon="5.14622">
        <ele>361</ele>
        <time>2021-10-10T15:04:37.002Z</time>
      </trkpt>
      <trkpt lat="45.36608" lon="5.14614">
        <ele>361</ele>
        <time>2021-10-10T15:04:41.995Z</time>
      </trkpt>
      <trkpt lat="45.36611" lon="5.14609">
        <ele>361</ele>
        <time>2021-10-10T15:04:46.983Z</time>
      </trkpt>
      <trkpt lat="45.36611" lon="5.14602">
        <ele>361</ele>
        <time>2021-10-10T15:04:50.997Z</time>
      </trkpt>
      <trkpt lat="45.36607" lon="5.14594">
        <ele>361</ele>
        <time>2021-10-10T15:04:55.945Z</time>
      </trkpt>
      <trkpt lat="45.36604" lon="5.14588">
        <ele>361</ele>
        <time>2021-10-10T15:04:59.993Z</time>
      </trkpt>
      <trkpt lat="45.36598" lon="5.14587">
        <ele>361</ele>
        <time>2021-10-10T15:05:04Z</time>
      </trkpt>
      <trkpt lat="45.36597" lon="5.14587">
        <ele>361</ele>
        <time>2021-10-10T15:05:08.976Z</time>
      </trkpt>
    </trkseg>
  </trk>
</gpx>